<?xml version="1.0" encoding="UTF-8" standalone="no" ?>
<gpx xmlns="http://www.topografix.com/GPX/1/1" xmlns:xsi="http://www.w3.org/2001/XMLSchema-instance" xsi:schemaLocation="http://www.topografix.com/GPX/1/1 http://www.topografix.com/GPX/1/1/gpx.xsd" version="1.1" creator="VisuGPX - https://www.visugpx.com">
  <metadata>
    <name>2021-04-03 La Dame Blanche</name>
  </metadata>
  <trk>
    <name><![CDATA[2021-04-03 La Dame Blanche_1]]></name>
    <trkseg>
      <trkpt lat="47.24698" lon="6.02512">
        <ele>269.8</ele>
        <time>2021-04-03T09:05:45Z</time>
      </trkpt>
      <trkpt lat="47.24696" lon="6.02512">
        <ele>271.2</ele>
        <time>2021-04-03T09:05:47Z</time>
      </trkpt>
      <trkpt lat="47.24696" lon="6.02513">
        <ele>272.4</ele>
        <time>2021-04-03T09:05:48Z</time>
      </trkpt>
      <trkpt lat="47.24696" lon="6.02513">
        <ele>273</ele>
        <time>2021-04-03T09:05:50Z</time>
      </trkpt>
      <trkpt lat="47.24696" lon="6.02514">
        <ele>273.4</ele>
        <time>2021-04-03T09:05:53Z</time>
      </trkpt>
      <trkpt lat="47.24695" lon="6.02515">
        <ele>273.4</ele>
        <time>2021-04-03T09:05:58Z</time>
      </trkpt>
      <trkpt lat="47.24694" lon="6.02516">
        <ele>273.4</ele>
        <time>2021-04-03T09:06:11Z</time>
      </trkpt>
      <trkpt lat="47.2469" lon="6.02516">
        <ele>273.2</ele>
        <time>2021-04-03T09:06:26Z</time>
      </trkpt>
      <trkpt lat="47.2469" lon="6.02515">
        <ele>273.2</ele>
        <time>2021-04-03T09:06:27Z</time>
      </trkpt>
      <trkpt lat="47.2469" lon="6.02513">
        <ele>273.2</ele>
        <time>2021-04-03T09:06:28Z</time>
      </trkpt>
      <trkpt lat="47.24691" lon="6.02511">
        <ele>273.2</ele>
        <time>2021-04-03T09:06:29Z</time>
      </trkpt>
      <trkpt lat="47.24691" lon="6.02508">
        <ele>273.4</ele>
        <time>2021-04-03T09:06:30Z</time>
      </trkpt>
      <trkpt lat="47.24692" lon="6.02506">
        <ele>273.4</ele>
        <time>2021-04-03T09:06:31Z</time>
      </trkpt>
      <trkpt lat="47.24692" lon="6.02504">
        <ele>273.6</ele>
        <time>2021-04-03T09:06:32Z</time>
      </trkpt>
      <trkpt lat="47.24694" lon="6.02502">
        <ele>273.6</ele>
        <time>2021-04-03T09:06:33Z</time>
      </trkpt>
      <trkpt lat="47.24696" lon="6.025">
        <ele>274.2</ele>
        <time>2021-04-03T09:06:35Z</time>
      </trkpt>
      <trkpt lat="47.24697" lon="6.02499">
        <ele>274.4</ele>
        <time>2021-04-03T09:06:36Z</time>
      </trkpt>
      <trkpt lat="47.24698" lon="6.025">
        <ele>274.6</ele>
        <time>2021-04-03T09:06:37Z</time>
      </trkpt>
      <trkpt lat="47.24699" lon="6.025">
        <ele>274.8</ele>
        <time>2021-04-03T09:06:38Z</time>
      </trkpt>
      <trkpt lat="47.24699" lon="6.025">
        <ele>275</ele>
        <time>2021-04-03T09:06:39Z</time>
      </trkpt>
      <trkpt lat="47.247" lon="6.02501">
        <ele>275.2</ele>
        <time>2021-04-03T09:06:40Z</time>
      </trkpt>
      <trkpt lat="47.24701" lon="6.02499">
        <ele>275.6</ele>
        <time>2021-04-03T09:06:44Z</time>
      </trkpt>
      <trkpt lat="47.24701" lon="6.02499">
        <ele>275.8</ele>
        <time>2021-04-03T09:06:47Z</time>
      </trkpt>
      <trkpt lat="47.247" lon="6.02499">
        <ele>276</ele>
        <time>2021-04-03T09:07:07Z</time>
      </trkpt>
      <trkpt lat="47.247" lon="6.02499">
        <ele>276</ele>
        <time>2021-04-03T09:07:08Z</time>
      </trkpt>
      <trkpt lat="47.24701" lon="6.02499">
        <ele>276</ele>
        <time>2021-04-03T09:07:09Z</time>
      </trkpt>
      <trkpt lat="47.24702" lon="6.025">
        <ele>276</ele>
        <time>2021-04-03T09:07:10Z</time>
      </trkpt>
      <trkpt lat="47.24708" lon="6.02503">
        <ele>276</ele>
        <time>2021-04-03T09:07:13Z</time>
      </trkpt>
      <trkpt lat="47.24708" lon="6.02508">
        <ele>276.2</ele>
        <time>2021-04-03T09:07:15Z</time>
      </trkpt>
      <trkpt lat="47.24711" lon="6.02509">
        <ele>276.2</ele>
        <time>2021-04-03T09:07:16Z</time>
      </trkpt>
      <trkpt lat="47.24726" lon="6.02521">
        <ele>276.6</ele>
        <time>2021-04-03T09:07:22Z</time>
      </trkpt>
      <trkpt lat="47.24736" lon="6.02535">
        <ele>276.6</ele>
        <time>2021-04-03T09:07:26Z</time>
      </trkpt>
      <trkpt lat="47.24738" lon="6.02537">
        <ele>276.4</ele>
        <time>2021-04-03T09:07:27Z</time>
      </trkpt>
      <trkpt lat="47.24739" lon="6.02538">
        <ele>276.4</ele>
        <time>2021-04-03T09:07:28Z</time>
      </trkpt>
      <trkpt lat="47.2474" lon="6.02538">
        <ele>276.2</ele>
        <time>2021-04-03T09:07:29Z</time>
      </trkpt>
      <trkpt lat="47.24741" lon="6.02537">
        <ele>276.2</ele>
        <time>2021-04-03T09:07:30Z</time>
      </trkpt>
      <trkpt lat="47.24743" lon="6.02535">
        <ele>276.2</ele>
        <time>2021-04-03T09:07:31Z</time>
      </trkpt>
      <trkpt lat="47.24745" lon="6.02534">
        <ele>276</ele>
        <time>2021-04-03T09:07:32Z</time>
      </trkpt>
      <trkpt lat="47.24747" lon="6.02532">
        <ele>276</ele>
        <time>2021-04-03T09:07:33Z</time>
      </trkpt>
      <trkpt lat="47.24753" lon="6.02527">
        <ele>275.8</ele>
        <time>2021-04-03T09:07:37Z</time>
      </trkpt>
      <trkpt lat="47.24757" lon="6.02524">
        <ele>275.8</ele>
        <time>2021-04-03T09:07:39Z</time>
      </trkpt>
      <trkpt lat="47.24765" lon="6.02517">
        <ele>275.8</ele>
        <time>2021-04-03T09:07:43Z</time>
      </trkpt>
      <trkpt lat="47.24775" lon="6.02508">
        <ele>276.2</ele>
        <time>2021-04-03T09:07:48Z</time>
      </trkpt>
      <trkpt lat="47.2478" lon="6.02506">
        <ele>276.2</ele>
        <time>2021-04-03T09:07:50Z</time>
      </trkpt>
      <trkpt lat="47.24782" lon="6.02507">
        <ele>276.2</ele>
        <time>2021-04-03T09:07:51Z</time>
      </trkpt>
      <trkpt lat="47.24784" lon="6.02509">
        <ele>276.4</ele>
        <time>2021-04-03T09:07:52Z</time>
      </trkpt>
      <trkpt lat="47.24786" lon="6.02512">
        <ele>276.4</ele>
        <time>2021-04-03T09:07:53Z</time>
      </trkpt>
      <trkpt lat="47.2479" lon="6.02519">
        <ele>276.4</ele>
        <time>2021-04-03T09:07:55Z</time>
      </trkpt>
      <trkpt lat="47.24791" lon="6.02523">
        <ele>276.4</ele>
        <time>2021-04-03T09:07:56Z</time>
      </trkpt>
      <trkpt lat="47.24793" lon="6.02528">
        <ele>276.6</ele>
        <time>2021-04-03T09:07:57Z</time>
      </trkpt>
      <trkpt lat="47.24795" lon="6.02532">
        <ele>276.6</ele>
        <time>2021-04-03T09:07:58Z</time>
      </trkpt>
      <trkpt lat="47.24809" lon="6.0257">
        <ele>276</ele>
        <time>2021-04-03T09:08:04Z</time>
      </trkpt>
      <trkpt lat="47.24811" lon="6.02577">
        <ele>275.8</ele>
        <time>2021-04-03T09:08:05Z</time>
      </trkpt>
      <trkpt lat="47.24814" lon="6.02591">
        <ele>275.6</ele>
        <time>2021-04-03T09:08:07Z</time>
      </trkpt>
      <trkpt lat="47.24816" lon="6.02598">
        <ele>275.2</ele>
        <time>2021-04-03T09:08:08Z</time>
      </trkpt>
      <trkpt lat="47.24818" lon="6.02606">
        <ele>275.2</ele>
        <time>2021-04-03T09:08:09Z</time>
      </trkpt>
      <trkpt lat="47.24824" lon="6.02633">
        <ele>274.6</ele>
        <time>2021-04-03T09:08:13Z</time>
      </trkpt>
      <trkpt lat="47.24826" lon="6.02639">
        <ele>274.6</ele>
        <time>2021-04-03T09:08:14Z</time>
      </trkpt>
      <trkpt lat="47.24827" lon="6.02645">
        <ele>274.6</ele>
        <time>2021-04-03T09:08:15Z</time>
      </trkpt>
      <trkpt lat="47.24828" lon="6.0265">
        <ele>274.6</ele>
        <time>2021-04-03T09:08:16Z</time>
      </trkpt>
      <trkpt lat="47.24831" lon="6.02655">
        <ele>274.6</ele>
        <time>2021-04-03T09:08:17Z</time>
      </trkpt>
      <trkpt lat="47.24832" lon="6.0266">
        <ele>274.6</ele>
        <time>2021-04-03T09:08:18Z</time>
      </trkpt>
      <trkpt lat="47.24833" lon="6.02665">
        <ele>274.6</ele>
        <time>2021-04-03T09:08:19Z</time>
      </trkpt>
      <trkpt lat="47.24835" lon="6.0267">
        <ele>274.8</ele>
        <time>2021-04-03T09:08:20Z</time>
      </trkpt>
      <trkpt lat="47.24837" lon="6.02678">
        <ele>275.2</ele>
        <time>2021-04-03T09:08:22Z</time>
      </trkpt>
      <trkpt lat="47.24838" lon="6.02682">
        <ele>275.4</ele>
        <time>2021-04-03T09:08:23Z</time>
      </trkpt>
      <trkpt lat="47.24839" lon="6.02685">
        <ele>275.4</ele>
        <time>2021-04-03T09:08:24Z</time>
      </trkpt>
      <trkpt lat="47.24841" lon="6.02689">
        <ele>275.6</ele>
        <time>2021-04-03T09:08:25Z</time>
      </trkpt>
      <trkpt lat="47.24842" lon="6.02692">
        <ele>275.6</ele>
        <time>2021-04-03T09:08:26Z</time>
      </trkpt>
      <trkpt lat="47.24842" lon="6.02694">
        <ele>275.6</ele>
        <time>2021-04-03T09:08:27Z</time>
      </trkpt>
      <trkpt lat="47.24842" lon="6.02695">
        <ele>275.8</ele>
        <time>2021-04-03T09:08:28Z</time>
      </trkpt>
      <trkpt lat="47.24842" lon="6.02696">
        <ele>275.8</ele>
        <time>2021-04-03T09:08:29Z</time>
      </trkpt>
      <trkpt lat="47.24843" lon="6.02697">
        <ele>275.8</ele>
        <time>2021-04-03T09:08:30Z</time>
      </trkpt>
      <trkpt lat="47.24844" lon="6.02698">
        <ele>275.8</ele>
        <time>2021-04-03T09:08:31Z</time>
      </trkpt>
      <trkpt lat="47.24845" lon="6.02699">
        <ele>275.8</ele>
        <time>2021-04-03T09:08:32Z</time>
      </trkpt>
      <trkpt lat="47.24846" lon="6.02702">
        <ele>276</ele>
        <time>2021-04-03T09:08:33Z</time>
      </trkpt>
      <trkpt lat="47.24848" lon="6.02703">
        <ele>276</ele>
        <time>2021-04-03T09:08:34Z</time>
      </trkpt>
      <trkpt lat="47.2485" lon="6.02704">
        <ele>276</ele>
        <time>2021-04-03T09:08:35Z</time>
      </trkpt>
      <trkpt lat="47.24851" lon="6.02704">
        <ele>276</ele>
        <time>2021-04-03T09:08:36Z</time>
      </trkpt>
      <trkpt lat="47.24852" lon="6.02706">
        <ele>276.2</ele>
        <time>2021-04-03T09:08:37Z</time>
      </trkpt>
      <trkpt lat="47.24853" lon="6.02707">
        <ele>276.2</ele>
        <time>2021-04-03T09:08:38Z</time>
      </trkpt>
      <trkpt lat="47.24853" lon="6.02708">
        <ele>276.2</ele>
        <time>2021-04-03T09:08:39Z</time>
      </trkpt>
      <trkpt lat="47.24854" lon="6.02707">
        <ele>276.2</ele>
        <time>2021-04-03T09:08:40Z</time>
      </trkpt>
      <trkpt lat="47.24856" lon="6.02706">
        <ele>276.2</ele>
        <time>2021-04-03T09:08:41Z</time>
      </trkpt>
      <trkpt lat="47.24864" lon="6.02705">
        <ele>276.8</ele>
        <time>2021-04-03T09:08:45Z</time>
      </trkpt>
      <trkpt lat="47.24868" lon="6.02704">
        <ele>277.2</ele>
        <time>2021-04-03T09:08:47Z</time>
      </trkpt>
      <trkpt lat="47.24877" lon="6.02702">
        <ele>277.8</ele>
        <time>2021-04-03T09:08:51Z</time>
      </trkpt>
      <trkpt lat="47.24879" lon="6.02702">
        <ele>278.2</ele>
        <time>2021-04-03T09:08:52Z</time>
      </trkpt>
      <trkpt lat="47.24882" lon="6.02702">
        <ele>278.4</ele>
        <time>2021-04-03T09:08:53Z</time>
      </trkpt>
      <trkpt lat="47.24886" lon="6.02701">
        <ele>279</ele>
        <time>2021-04-03T09:08:55Z</time>
      </trkpt>
      <trkpt lat="47.24889" lon="6.027">
        <ele>279.2</ele>
        <time>2021-04-03T09:08:56Z</time>
      </trkpt>
      <trkpt lat="47.24891" lon="6.02699">
        <ele>279.4</ele>
        <time>2021-04-03T09:08:57Z</time>
      </trkpt>
      <trkpt lat="47.24893" lon="6.027">
        <ele>279.4</ele>
        <time>2021-04-03T09:08:58Z</time>
      </trkpt>
      <trkpt lat="47.24895" lon="6.027">
        <ele>279.4</ele>
        <time>2021-04-03T09:08:59Z</time>
      </trkpt>
      <trkpt lat="47.24897" lon="6.02699">
        <ele>279.6</ele>
        <time>2021-04-03T09:09:00Z</time>
      </trkpt>
      <trkpt lat="47.24899" lon="6.02699">
        <ele>279.6</ele>
        <time>2021-04-03T09:09:01Z</time>
      </trkpt>
      <trkpt lat="47.24901" lon="6.02699">
        <ele>279.6</ele>
        <time>2021-04-03T09:09:02Z</time>
      </trkpt>
      <trkpt lat="47.24903" lon="6.02699">
        <ele>279.6</ele>
        <time>2021-04-03T09:09:03Z</time>
      </trkpt>
      <trkpt lat="47.24905" lon="6.02699">
        <ele>279.6</ele>
        <time>2021-04-03T09:09:04Z</time>
      </trkpt>
      <trkpt lat="47.24906" lon="6.027">
        <ele>279.8</ele>
        <time>2021-04-03T09:09:05Z</time>
      </trkpt>
      <trkpt lat="47.24908" lon="6.027">
        <ele>279.8</ele>
        <time>2021-04-03T09:09:06Z</time>
      </trkpt>
      <trkpt lat="47.24909" lon="6.027">
        <ele>279.8</ele>
        <time>2021-04-03T09:09:07Z</time>
      </trkpt>
      <trkpt lat="47.24911" lon="6.02701">
        <ele>279.8</ele>
        <time>2021-04-03T09:09:08Z</time>
      </trkpt>
      <trkpt lat="47.24913" lon="6.02701">
        <ele>279.8</ele>
        <time>2021-04-03T09:09:09Z</time>
      </trkpt>
      <trkpt lat="47.24915" lon="6.027">
        <ele>280</ele>
        <time>2021-04-03T09:09:10Z</time>
      </trkpt>
      <trkpt lat="47.24918" lon="6.02699">
        <ele>280.2</ele>
        <time>2021-04-03T09:09:11Z</time>
      </trkpt>
      <trkpt lat="47.24921" lon="6.02698">
        <ele>280.4</ele>
        <time>2021-04-03T09:09:12Z</time>
      </trkpt>
      <trkpt lat="47.24924" lon="6.02697">
        <ele>280.4</ele>
        <time>2021-04-03T09:09:13Z</time>
      </trkpt>
      <trkpt lat="47.24927" lon="6.02696">
        <ele>280.6</ele>
        <time>2021-04-03T09:09:14Z</time>
      </trkpt>
      <trkpt lat="47.2493" lon="6.02695">
        <ele>280.6</ele>
        <time>2021-04-03T09:09:15Z</time>
      </trkpt>
      <trkpt lat="47.24933" lon="6.02694">
        <ele>280.6</ele>
        <time>2021-04-03T09:09:16Z</time>
      </trkpt>
      <trkpt lat="47.24935" lon="6.02693">
        <ele>280.8</ele>
        <time>2021-04-03T09:09:17Z</time>
      </trkpt>
      <trkpt lat="47.24938" lon="6.02692">
        <ele>281</ele>
        <time>2021-04-03T09:09:18Z</time>
      </trkpt>
      <trkpt lat="47.24941" lon="6.02691">
        <ele>281.4</ele>
        <time>2021-04-03T09:09:19Z</time>
      </trkpt>
      <trkpt lat="47.24943" lon="6.0269">
        <ele>281.4</ele>
        <time>2021-04-03T09:09:20Z</time>
      </trkpt>
      <trkpt lat="47.24946" lon="6.02689">
        <ele>281.6</ele>
        <time>2021-04-03T09:09:21Z</time>
      </trkpt>
      <trkpt lat="47.24949" lon="6.02689">
        <ele>281.8</ele>
        <time>2021-04-03T09:09:22Z</time>
      </trkpt>
      <trkpt lat="47.24952" lon="6.02687">
        <ele>282.2</ele>
        <time>2021-04-03T09:09:23Z</time>
      </trkpt>
      <trkpt lat="47.24955" lon="6.02684">
        <ele>282.2</ele>
        <time>2021-04-03T09:09:24Z</time>
      </trkpt>
      <trkpt lat="47.24957" lon="6.02682">
        <ele>282.4</ele>
        <time>2021-04-03T09:09:25Z</time>
      </trkpt>
      <trkpt lat="47.2496" lon="6.02679">
        <ele>282.4</ele>
        <time>2021-04-03T09:09:26Z</time>
      </trkpt>
      <trkpt lat="47.24962" lon="6.02676">
        <ele>282.6</ele>
        <time>2021-04-03T09:09:27Z</time>
      </trkpt>
      <trkpt lat="47.24966" lon="6.02672">
        <ele>282.6</ele>
        <time>2021-04-03T09:09:28Z</time>
      </trkpt>
      <trkpt lat="47.2497" lon="6.02669">
        <ele>282.6</ele>
        <time>2021-04-03T09:09:29Z</time>
      </trkpt>
      <trkpt lat="47.24974" lon="6.02666">
        <ele>282.6</ele>
        <time>2021-04-03T09:09:30Z</time>
      </trkpt>
      <trkpt lat="47.24979" lon="6.02661">
        <ele>282.6</ele>
        <time>2021-04-03T09:09:31Z</time>
      </trkpt>
      <trkpt lat="47.24983" lon="6.02655">
        <ele>282.4</ele>
        <time>2021-04-03T09:09:32Z</time>
      </trkpt>
      <trkpt lat="47.24988" lon="6.0265">
        <ele>282.4</ele>
        <time>2021-04-03T09:09:33Z</time>
      </trkpt>
      <trkpt lat="47.24992" lon="6.02647">
        <ele>282</ele>
        <time>2021-04-03T09:09:34Z</time>
      </trkpt>
      <trkpt lat="47.24996" lon="6.02644">
        <ele>281.8</ele>
        <time>2021-04-03T09:09:35Z</time>
      </trkpt>
      <trkpt lat="47.25" lon="6.02641">
        <ele>281.6</ele>
        <time>2021-04-03T09:09:36Z</time>
      </trkpt>
      <trkpt lat="47.25004" lon="6.02638">
        <ele>281.4</ele>
        <time>2021-04-03T09:09:37Z</time>
      </trkpt>
      <trkpt lat="47.25009" lon="6.02638">
        <ele>281.2</ele>
        <time>2021-04-03T09:09:39Z</time>
      </trkpt>
      <trkpt lat="47.25011" lon="6.02642">
        <ele>281</ele>
        <time>2021-04-03T09:09:40Z</time>
      </trkpt>
      <trkpt lat="47.25013" lon="6.02646">
        <ele>281</ele>
        <time>2021-04-03T09:09:41Z</time>
      </trkpt>
      <trkpt lat="47.25015" lon="6.02649">
        <ele>281</ele>
        <time>2021-04-03T09:09:42Z</time>
      </trkpt>
      <trkpt lat="47.25017" lon="6.02652">
        <ele>281</ele>
        <time>2021-04-03T09:09:43Z</time>
      </trkpt>
      <trkpt lat="47.25018" lon="6.02654">
        <ele>281</ele>
        <time>2021-04-03T09:09:44Z</time>
      </trkpt>
      <trkpt lat="47.25019" lon="6.02657">
        <ele>281.2</ele>
        <time>2021-04-03T09:09:45Z</time>
      </trkpt>
      <trkpt lat="47.2502" lon="6.02659">
        <ele>281.6</ele>
        <time>2021-04-03T09:09:46Z</time>
      </trkpt>
      <trkpt lat="47.25022" lon="6.02662">
        <ele>281.8</ele>
        <time>2021-04-03T09:09:47Z</time>
      </trkpt>
      <trkpt lat="47.25024" lon="6.02664">
        <ele>282.2</ele>
        <time>2021-04-03T09:09:48Z</time>
      </trkpt>
      <trkpt lat="47.25025" lon="6.02666">
        <ele>282.4</ele>
        <time>2021-04-03T09:09:49Z</time>
      </trkpt>
      <trkpt lat="47.25027" lon="6.02668">
        <ele>283</ele>
        <time>2021-04-03T09:09:50Z</time>
      </trkpt>
      <trkpt lat="47.25028" lon="6.0267">
        <ele>283.2</ele>
        <time>2021-04-03T09:09:51Z</time>
      </trkpt>
      <trkpt lat="47.2503" lon="6.02672">
        <ele>283.6</ele>
        <time>2021-04-03T09:09:52Z</time>
      </trkpt>
      <trkpt lat="47.25031" lon="6.02674">
        <ele>283.8</ele>
        <time>2021-04-03T09:09:53Z</time>
      </trkpt>
      <trkpt lat="47.25033" lon="6.02676">
        <ele>284.2</ele>
        <time>2021-04-03T09:09:54Z</time>
      </trkpt>
      <trkpt lat="47.25034" lon="6.02677">
        <ele>285</ele>
        <time>2021-04-03T09:09:55Z</time>
      </trkpt>
      <trkpt lat="47.25036" lon="6.02678">
        <ele>285.4</ele>
        <time>2021-04-03T09:09:56Z</time>
      </trkpt>
      <trkpt lat="47.25038" lon="6.02679">
        <ele>285.8</ele>
        <time>2021-04-03T09:09:57Z</time>
      </trkpt>
      <trkpt lat="47.2504" lon="6.0268">
        <ele>286</ele>
        <time>2021-04-03T09:09:58Z</time>
      </trkpt>
      <trkpt lat="47.25042" lon="6.0268">
        <ele>286.2</ele>
        <time>2021-04-03T09:09:59Z</time>
      </trkpt>
      <trkpt lat="47.25043" lon="6.0268">
        <ele>286.4</ele>
        <time>2021-04-03T09:10:00Z</time>
      </trkpt>
      <trkpt lat="47.25045" lon="6.02681">
        <ele>286.6</ele>
        <time>2021-04-03T09:10:01Z</time>
      </trkpt>
      <trkpt lat="47.25048" lon="6.02681">
        <ele>286.6</ele>
        <time>2021-04-03T09:10:02Z</time>
      </trkpt>
      <trkpt lat="47.2505" lon="6.02681">
        <ele>286.8</ele>
        <time>2021-04-03T09:10:03Z</time>
      </trkpt>
      <trkpt lat="47.25052" lon="6.02681">
        <ele>286.8</ele>
        <time>2021-04-03T09:10:04Z</time>
      </trkpt>
      <trkpt lat="47.25053" lon="6.02681">
        <ele>287</ele>
        <time>2021-04-03T09:10:05Z</time>
      </trkpt>
      <trkpt lat="47.25055" lon="6.02681">
        <ele>287</ele>
        <time>2021-04-03T09:10:06Z</time>
      </trkpt>
      <trkpt lat="47.25057" lon="6.02682">
        <ele>287.2</ele>
        <time>2021-04-03T09:10:07Z</time>
      </trkpt>
      <trkpt lat="47.25059" lon="6.02682">
        <ele>287.4</ele>
        <time>2021-04-03T09:10:08Z</time>
      </trkpt>
      <trkpt lat="47.25061" lon="6.02682">
        <ele>287.4</ele>
        <time>2021-04-03T09:10:09Z</time>
      </trkpt>
      <trkpt lat="47.25063" lon="6.02682">
        <ele>287.4</ele>
        <time>2021-04-03T09:10:10Z</time>
      </trkpt>
      <trkpt lat="47.25065" lon="6.02682">
        <ele>287.6</ele>
        <time>2021-04-03T09:10:11Z</time>
      </trkpt>
      <trkpt lat="47.25067" lon="6.02682">
        <ele>287.6</ele>
        <time>2021-04-03T09:10:12Z</time>
      </trkpt>
      <trkpt lat="47.25069" lon="6.02682">
        <ele>288</ele>
        <time>2021-04-03T09:10:13Z</time>
      </trkpt>
      <trkpt lat="47.25071" lon="6.02683">
        <ele>288</ele>
        <time>2021-04-03T09:10:14Z</time>
      </trkpt>
      <trkpt lat="47.25073" lon="6.02683">
        <ele>288.2</ele>
        <time>2021-04-03T09:10:15Z</time>
      </trkpt>
      <trkpt lat="47.25074" lon="6.02684">
        <ele>288.4</ele>
        <time>2021-04-03T09:10:16Z</time>
      </trkpt>
      <trkpt lat="47.25076" lon="6.02684">
        <ele>288.6</ele>
        <time>2021-04-03T09:10:17Z</time>
      </trkpt>
      <trkpt lat="47.25079" lon="6.02684">
        <ele>288.8</ele>
        <time>2021-04-03T09:10:18Z</time>
      </trkpt>
      <trkpt lat="47.2508" lon="6.02685">
        <ele>289</ele>
        <time>2021-04-03T09:10:19Z</time>
      </trkpt>
      <trkpt lat="47.25081" lon="6.02685">
        <ele>289</ele>
        <time>2021-04-03T09:10:20Z</time>
      </trkpt>
      <trkpt lat="47.25083" lon="6.02686">
        <ele>289.2</ele>
        <time>2021-04-03T09:10:21Z</time>
      </trkpt>
      <trkpt lat="47.25084" lon="6.02686">
        <ele>289.2</ele>
        <time>2021-04-03T09:10:22Z</time>
      </trkpt>
      <trkpt lat="47.25086" lon="6.02687">
        <ele>289.2</ele>
        <time>2021-04-03T09:10:23Z</time>
      </trkpt>
      <trkpt lat="47.25088" lon="6.02687">
        <ele>289.4</ele>
        <time>2021-04-03T09:10:24Z</time>
      </trkpt>
      <trkpt lat="47.2509" lon="6.02688">
        <ele>289.4</ele>
        <time>2021-04-03T09:10:25Z</time>
      </trkpt>
      <trkpt lat="47.25092" lon="6.02688">
        <ele>289.6</ele>
        <time>2021-04-03T09:10:26Z</time>
      </trkpt>
      <trkpt lat="47.25093" lon="6.02689">
        <ele>289.8</ele>
        <time>2021-04-03T09:10:27Z</time>
      </trkpt>
      <trkpt lat="47.25095" lon="6.02689">
        <ele>290</ele>
        <time>2021-04-03T09:10:28Z</time>
      </trkpt>
      <trkpt lat="47.25097" lon="6.0269">
        <ele>290</ele>
        <time>2021-04-03T09:10:29Z</time>
      </trkpt>
      <trkpt lat="47.25098" lon="6.0269">
        <ele>290.2</ele>
        <time>2021-04-03T09:10:30Z</time>
      </trkpt>
      <trkpt lat="47.25101" lon="6.02691">
        <ele>290.2</ele>
        <time>2021-04-03T09:10:31Z</time>
      </trkpt>
      <trkpt lat="47.25103" lon="6.02691">
        <ele>290.2</ele>
        <time>2021-04-03T09:10:32Z</time>
      </trkpt>
      <trkpt lat="47.25105" lon="6.02691">
        <ele>290.4</ele>
        <time>2021-04-03T09:10:33Z</time>
      </trkpt>
      <trkpt lat="47.25107" lon="6.02691">
        <ele>290.6</ele>
        <time>2021-04-03T09:10:34Z</time>
      </trkpt>
      <trkpt lat="47.2511" lon="6.02692">
        <ele>290.6</ele>
        <time>2021-04-03T09:10:35Z</time>
      </trkpt>
      <trkpt lat="47.25112" lon="6.02693">
        <ele>291</ele>
        <time>2021-04-03T09:10:36Z</time>
      </trkpt>
      <trkpt lat="47.25114" lon="6.02692">
        <ele>291.2</ele>
        <time>2021-04-03T09:10:37Z</time>
      </trkpt>
      <trkpt lat="47.25116" lon="6.02692">
        <ele>291.4</ele>
        <time>2021-04-03T09:10:38Z</time>
      </trkpt>
      <trkpt lat="47.25117" lon="6.02693">
        <ele>291.6</ele>
        <time>2021-04-03T09:10:39Z</time>
      </trkpt>
      <trkpt lat="47.25119" lon="6.02694">
        <ele>291.8</ele>
        <time>2021-04-03T09:10:40Z</time>
      </trkpt>
      <trkpt lat="47.25122" lon="6.02694">
        <ele>291.8</ele>
        <time>2021-04-03T09:10:41Z</time>
      </trkpt>
      <trkpt lat="47.25124" lon="6.02695">
        <ele>292</ele>
        <time>2021-04-03T09:10:42Z</time>
      </trkpt>
      <trkpt lat="47.25126" lon="6.02696">
        <ele>292</ele>
        <time>2021-04-03T09:10:43Z</time>
      </trkpt>
      <trkpt lat="47.25128" lon="6.02697">
        <ele>292</ele>
        <time>2021-04-03T09:10:44Z</time>
      </trkpt>
      <trkpt lat="47.2513" lon="6.02697">
        <ele>292</ele>
        <time>2021-04-03T09:10:45Z</time>
      </trkpt>
      <trkpt lat="47.25133" lon="6.02697">
        <ele>292.2</ele>
        <time>2021-04-03T09:10:46Z</time>
      </trkpt>
      <trkpt lat="47.25135" lon="6.02698">
        <ele>292.4</ele>
        <time>2021-04-03T09:10:47Z</time>
      </trkpt>
      <trkpt lat="47.25137" lon="6.02698">
        <ele>292.8</ele>
        <time>2021-04-03T09:10:48Z</time>
      </trkpt>
      <trkpt lat="47.25138" lon="6.02699">
        <ele>292.8</ele>
        <time>2021-04-03T09:10:49Z</time>
      </trkpt>
      <trkpt lat="47.2514" lon="6.02699">
        <ele>292.8</ele>
        <time>2021-04-03T09:10:50Z</time>
      </trkpt>
      <trkpt lat="47.25143" lon="6.02699">
        <ele>293</ele>
        <time>2021-04-03T09:10:51Z</time>
      </trkpt>
      <trkpt lat="47.25145" lon="6.027">
        <ele>293</ele>
        <time>2021-04-03T09:10:52Z</time>
      </trkpt>
      <trkpt lat="47.25146" lon="6.027">
        <ele>293.2</ele>
        <time>2021-04-03T09:10:53Z</time>
      </trkpt>
      <trkpt lat="47.25148" lon="6.027">
        <ele>293.2</ele>
        <time>2021-04-03T09:10:54Z</time>
      </trkpt>
      <trkpt lat="47.2515" lon="6.027">
        <ele>293.4</ele>
        <time>2021-04-03T09:10:55Z</time>
      </trkpt>
      <trkpt lat="47.25153" lon="6.02701">
        <ele>293.4</ele>
        <time>2021-04-03T09:10:56Z</time>
      </trkpt>
      <trkpt lat="47.25155" lon="6.02701">
        <ele>293.6</ele>
        <time>2021-04-03T09:10:57Z</time>
      </trkpt>
      <trkpt lat="47.25157" lon="6.02702">
        <ele>293.8</ele>
        <time>2021-04-03T09:10:58Z</time>
      </trkpt>
      <trkpt lat="47.25159" lon="6.02702">
        <ele>294</ele>
        <time>2021-04-03T09:10:59Z</time>
      </trkpt>
      <trkpt lat="47.25161" lon="6.02702">
        <ele>294</ele>
        <time>2021-04-03T09:11:00Z</time>
      </trkpt>
      <trkpt lat="47.25163" lon="6.02703">
        <ele>294</ele>
        <time>2021-04-03T09:11:01Z</time>
      </trkpt>
      <trkpt lat="47.25165" lon="6.02703">
        <ele>294.2</ele>
        <time>2021-04-03T09:11:02Z</time>
      </trkpt>
      <trkpt lat="47.25168" lon="6.02704">
        <ele>294.4</ele>
        <time>2021-04-03T09:11:03Z</time>
      </trkpt>
      <trkpt lat="47.2517" lon="6.02704">
        <ele>294.6</ele>
        <time>2021-04-03T09:11:04Z</time>
      </trkpt>
      <trkpt lat="47.25172" lon="6.02704">
        <ele>294.8</ele>
        <time>2021-04-03T09:11:05Z</time>
      </trkpt>
      <trkpt lat="47.25174" lon="6.02705">
        <ele>294.8</ele>
        <time>2021-04-03T09:11:06Z</time>
      </trkpt>
      <trkpt lat="47.25176" lon="6.02705">
        <ele>294.8</ele>
        <time>2021-04-03T09:11:07Z</time>
      </trkpt>
      <trkpt lat="47.25178" lon="6.02705">
        <ele>295</ele>
        <time>2021-04-03T09:11:08Z</time>
      </trkpt>
      <trkpt lat="47.2518" lon="6.02705">
        <ele>295</ele>
        <time>2021-04-03T09:11:09Z</time>
      </trkpt>
      <trkpt lat="47.25182" lon="6.02704">
        <ele>295</ele>
        <time>2021-04-03T09:11:10Z</time>
      </trkpt>
      <trkpt lat="47.25184" lon="6.02703">
        <ele>295</ele>
        <time>2021-04-03T09:11:11Z</time>
      </trkpt>
      <trkpt lat="47.25186" lon="6.02702">
        <ele>295.2</ele>
        <time>2021-04-03T09:11:12Z</time>
      </trkpt>
      <trkpt lat="47.25188" lon="6.02701">
        <ele>295.2</ele>
        <time>2021-04-03T09:11:13Z</time>
      </trkpt>
      <trkpt lat="47.2519" lon="6.02699">
        <ele>295.2</ele>
        <time>2021-04-03T09:11:14Z</time>
      </trkpt>
      <trkpt lat="47.25193" lon="6.02698">
        <ele>295.4</ele>
        <time>2021-04-03T09:11:15Z</time>
      </trkpt>
      <trkpt lat="47.25196" lon="6.02696">
        <ele>295.4</ele>
        <time>2021-04-03T09:11:16Z</time>
      </trkpt>
      <trkpt lat="47.25198" lon="6.02695">
        <ele>295.6</ele>
        <time>2021-04-03T09:11:17Z</time>
      </trkpt>
      <trkpt lat="47.252" lon="6.02694">
        <ele>295.6</ele>
        <time>2021-04-03T09:11:18Z</time>
      </trkpt>
      <trkpt lat="47.25202" lon="6.02693">
        <ele>295.8</ele>
        <time>2021-04-03T09:11:19Z</time>
      </trkpt>
      <trkpt lat="47.25204" lon="6.02692">
        <ele>295.8</ele>
        <time>2021-04-03T09:11:20Z</time>
      </trkpt>
      <trkpt lat="47.25207" lon="6.0269">
        <ele>296</ele>
        <time>2021-04-03T09:11:21Z</time>
      </trkpt>
      <trkpt lat="47.25209" lon="6.02688">
        <ele>296.2</ele>
        <time>2021-04-03T09:11:22Z</time>
      </trkpt>
      <trkpt lat="47.25225" lon="6.02681">
        <ele>296.8</ele>
        <time>2021-04-03T09:11:30Z</time>
      </trkpt>
      <trkpt lat="47.25227" lon="6.0268">
        <ele>296.8</ele>
        <time>2021-04-03T09:11:31Z</time>
      </trkpt>
      <trkpt lat="47.25228" lon="6.0268">
        <ele>296.8</ele>
        <time>2021-04-03T09:11:32Z</time>
      </trkpt>
      <trkpt lat="47.2523" lon="6.02679">
        <ele>296.8</ele>
        <time>2021-04-03T09:11:33Z</time>
      </trkpt>
      <trkpt lat="47.25232" lon="6.02679">
        <ele>297</ele>
        <time>2021-04-03T09:11:34Z</time>
      </trkpt>
      <trkpt lat="47.25234" lon="6.02679">
        <ele>297</ele>
        <time>2021-04-03T09:11:35Z</time>
      </trkpt>
      <trkpt lat="47.25236" lon="6.02678">
        <ele>297</ele>
        <time>2021-04-03T09:11:36Z</time>
      </trkpt>
      <trkpt lat="47.25239" lon="6.02676">
        <ele>297.2</ele>
        <time>2021-04-03T09:11:37Z</time>
      </trkpt>
      <trkpt lat="47.25246" lon="6.02675">
        <ele>297.6</ele>
        <time>2021-04-03T09:11:40Z</time>
      </trkpt>
      <trkpt lat="47.25249" lon="6.02676">
        <ele>298.2</ele>
        <time>2021-04-03T09:11:42Z</time>
      </trkpt>
      <trkpt lat="47.25259" lon="6.02677">
        <ele>298.8</ele>
        <time>2021-04-03T09:11:46Z</time>
      </trkpt>
      <trkpt lat="47.25262" lon="6.02678">
        <ele>299</ele>
        <time>2021-04-03T09:11:47Z</time>
      </trkpt>
      <trkpt lat="47.25263" lon="6.02679">
        <ele>299.2</ele>
        <time>2021-04-03T09:11:48Z</time>
      </trkpt>
      <trkpt lat="47.25265" lon="6.0268">
        <ele>299.2</ele>
        <time>2021-04-03T09:11:49Z</time>
      </trkpt>
      <trkpt lat="47.25268" lon="6.0268">
        <ele>299.4</ele>
        <time>2021-04-03T09:11:50Z</time>
      </trkpt>
      <trkpt lat="47.2527" lon="6.02681">
        <ele>299.4</ele>
        <time>2021-04-03T09:11:51Z</time>
      </trkpt>
      <trkpt lat="47.25271" lon="6.02682">
        <ele>299.6</ele>
        <time>2021-04-03T09:11:52Z</time>
      </trkpt>
      <trkpt lat="47.25274" lon="6.02683">
        <ele>299.8</ele>
        <time>2021-04-03T09:11:53Z</time>
      </trkpt>
      <trkpt lat="47.25276" lon="6.02683">
        <ele>299.8</ele>
        <time>2021-04-03T09:11:54Z</time>
      </trkpt>
      <trkpt lat="47.25279" lon="6.02684">
        <ele>300</ele>
        <time>2021-04-03T09:11:55Z</time>
      </trkpt>
      <trkpt lat="47.25281" lon="6.02685">
        <ele>300.2</ele>
        <time>2021-04-03T09:11:56Z</time>
      </trkpt>
      <trkpt lat="47.25283" lon="6.02686">
        <ele>300.4</ele>
        <time>2021-04-03T09:11:57Z</time>
      </trkpt>
      <trkpt lat="47.25284" lon="6.02687">
        <ele>300.4</ele>
        <time>2021-04-03T09:11:58Z</time>
      </trkpt>
      <trkpt lat="47.25286" lon="6.02687">
        <ele>300.6</ele>
        <time>2021-04-03T09:11:59Z</time>
      </trkpt>
      <trkpt lat="47.25289" lon="6.02688">
        <ele>300.6</ele>
        <time>2021-04-03T09:12:00Z</time>
      </trkpt>
      <trkpt lat="47.25291" lon="6.0269">
        <ele>300.8</ele>
        <time>2021-04-03T09:12:01Z</time>
      </trkpt>
      <trkpt lat="47.25293" lon="6.02691">
        <ele>300.8</ele>
        <time>2021-04-03T09:12:02Z</time>
      </trkpt>
      <trkpt lat="47.25295" lon="6.02692">
        <ele>300.8</ele>
        <time>2021-04-03T09:12:03Z</time>
      </trkpt>
      <trkpt lat="47.25297" lon="6.02693">
        <ele>301</ele>
        <time>2021-04-03T09:12:04Z</time>
      </trkpt>
      <trkpt lat="47.25299" lon="6.02693">
        <ele>301.2</ele>
        <time>2021-04-03T09:12:05Z</time>
      </trkpt>
      <trkpt lat="47.25301" lon="6.02694">
        <ele>301.6</ele>
        <time>2021-04-03T09:12:06Z</time>
      </trkpt>
      <trkpt lat="47.25302" lon="6.02695">
        <ele>301.8</ele>
        <time>2021-04-03T09:12:07Z</time>
      </trkpt>
      <trkpt lat="47.25304" lon="6.02696">
        <ele>301.8</ele>
        <time>2021-04-03T09:12:08Z</time>
      </trkpt>
      <trkpt lat="47.25305" lon="6.02697">
        <ele>302</ele>
        <time>2021-04-03T09:12:09Z</time>
      </trkpt>
      <trkpt lat="47.25307" lon="6.02698">
        <ele>302.2</ele>
        <time>2021-04-03T09:12:10Z</time>
      </trkpt>
      <trkpt lat="47.25309" lon="6.02699">
        <ele>302.4</ele>
        <time>2021-04-03T09:12:11Z</time>
      </trkpt>
      <trkpt lat="47.25311" lon="6.027">
        <ele>302.6</ele>
        <time>2021-04-03T09:12:12Z</time>
      </trkpt>
      <trkpt lat="47.25312" lon="6.02701">
        <ele>302.6</ele>
        <time>2021-04-03T09:12:13Z</time>
      </trkpt>
      <trkpt lat="47.25315" lon="6.02701">
        <ele>302.8</ele>
        <time>2021-04-03T09:12:14Z</time>
      </trkpt>
      <trkpt lat="47.25316" lon="6.02702">
        <ele>302.8</ele>
        <time>2021-04-03T09:12:15Z</time>
      </trkpt>
      <trkpt lat="47.25318" lon="6.02703">
        <ele>303</ele>
        <time>2021-04-03T09:12:16Z</time>
      </trkpt>
      <trkpt lat="47.25321" lon="6.02704">
        <ele>303</ele>
        <time>2021-04-03T09:12:17Z</time>
      </trkpt>
      <trkpt lat="47.25323" lon="6.02704">
        <ele>303.2</ele>
        <time>2021-04-03T09:12:18Z</time>
      </trkpt>
      <trkpt lat="47.25325" lon="6.02705">
        <ele>303.6</ele>
        <time>2021-04-03T09:12:19Z</time>
      </trkpt>
      <trkpt lat="47.25327" lon="6.02706">
        <ele>303.8</ele>
        <time>2021-04-03T09:12:20Z</time>
      </trkpt>
      <trkpt lat="47.25329" lon="6.02707">
        <ele>303.8</ele>
        <time>2021-04-03T09:12:21Z</time>
      </trkpt>
      <trkpt lat="47.25331" lon="6.02708">
        <ele>304</ele>
        <time>2021-04-03T09:12:22Z</time>
      </trkpt>
      <trkpt lat="47.25333" lon="6.0271">
        <ele>304.2</ele>
        <time>2021-04-03T09:12:23Z</time>
      </trkpt>
      <trkpt lat="47.25335" lon="6.0271">
        <ele>304.4</ele>
        <time>2021-04-03T09:12:24Z</time>
      </trkpt>
      <trkpt lat="47.25337" lon="6.02711">
        <ele>304.4</ele>
        <time>2021-04-03T09:12:25Z</time>
      </trkpt>
      <trkpt lat="47.25339" lon="6.02712">
        <ele>304.6</ele>
        <time>2021-04-03T09:12:26Z</time>
      </trkpt>
      <trkpt lat="47.25341" lon="6.02713">
        <ele>304.6</ele>
        <time>2021-04-03T09:12:27Z</time>
      </trkpt>
      <trkpt lat="47.25344" lon="6.02714">
        <ele>304.6</ele>
        <time>2021-04-03T09:12:28Z</time>
      </trkpt>
      <trkpt lat="47.25346" lon="6.02716">
        <ele>304.8</ele>
        <time>2021-04-03T09:12:29Z</time>
      </trkpt>
      <trkpt lat="47.25348" lon="6.02717">
        <ele>304.8</ele>
        <time>2021-04-03T09:12:30Z</time>
      </trkpt>
      <trkpt lat="47.2535" lon="6.02718">
        <ele>305</ele>
        <time>2021-04-03T09:12:31Z</time>
      </trkpt>
      <trkpt lat="47.25352" lon="6.0272">
        <ele>305</ele>
        <time>2021-04-03T09:12:32Z</time>
      </trkpt>
      <trkpt lat="47.25354" lon="6.02722">
        <ele>305</ele>
        <time>2021-04-03T09:12:33Z</time>
      </trkpt>
      <trkpt lat="47.25356" lon="6.02723">
        <ele>305</ele>
        <time>2021-04-03T09:12:34Z</time>
      </trkpt>
      <trkpt lat="47.25358" lon="6.02726">
        <ele>305.2</ele>
        <time>2021-04-03T09:12:35Z</time>
      </trkpt>
      <trkpt lat="47.2536" lon="6.02728">
        <ele>305.4</ele>
        <time>2021-04-03T09:12:36Z</time>
      </trkpt>
      <trkpt lat="47.25362" lon="6.0273">
        <ele>305.6</ele>
        <time>2021-04-03T09:12:37Z</time>
      </trkpt>
      <trkpt lat="47.25364" lon="6.02732">
        <ele>305.6</ele>
        <time>2021-04-03T09:12:38Z</time>
      </trkpt>
      <trkpt lat="47.25365" lon="6.02734">
        <ele>305.6</ele>
        <time>2021-04-03T09:12:39Z</time>
      </trkpt>
      <trkpt lat="47.25367" lon="6.02735">
        <ele>305.8</ele>
        <time>2021-04-03T09:12:40Z</time>
      </trkpt>
      <trkpt lat="47.2537" lon="6.02737">
        <ele>305.8</ele>
        <time>2021-04-03T09:12:41Z</time>
      </trkpt>
      <trkpt lat="47.25372" lon="6.02739">
        <ele>305.8</ele>
        <time>2021-04-03T09:12:42Z</time>
      </trkpt>
      <trkpt lat="47.25374" lon="6.02741">
        <ele>306</ele>
        <time>2021-04-03T09:12:43Z</time>
      </trkpt>
      <trkpt lat="47.25376" lon="6.02743">
        <ele>306</ele>
        <time>2021-04-03T09:12:44Z</time>
      </trkpt>
      <trkpt lat="47.25378" lon="6.02745">
        <ele>306</ele>
        <time>2021-04-03T09:12:45Z</time>
      </trkpt>
      <trkpt lat="47.2538" lon="6.02747">
        <ele>306.2</ele>
        <time>2021-04-03T09:12:46Z</time>
      </trkpt>
      <trkpt lat="47.25383" lon="6.02749">
        <ele>306.2</ele>
        <time>2021-04-03T09:12:47Z</time>
      </trkpt>
      <trkpt lat="47.25385" lon="6.02751">
        <ele>306.2</ele>
        <time>2021-04-03T09:12:48Z</time>
      </trkpt>
      <trkpt lat="47.25392" lon="6.02759">
        <ele>306.4</ele>
        <time>2021-04-03T09:12:52Z</time>
      </trkpt>
      <trkpt lat="47.25394" lon="6.02762">
        <ele>306.4</ele>
        <time>2021-04-03T09:12:53Z</time>
      </trkpt>
      <trkpt lat="47.25396" lon="6.02764">
        <ele>306.4</ele>
        <time>2021-04-03T09:12:54Z</time>
      </trkpt>
      <trkpt lat="47.25397" lon="6.02766">
        <ele>306.4</ele>
        <time>2021-04-03T09:12:55Z</time>
      </trkpt>
      <trkpt lat="47.25399" lon="6.02768">
        <ele>306.4</ele>
        <time>2021-04-03T09:12:56Z</time>
      </trkpt>
      <trkpt lat="47.25409" lon="6.02778">
        <ele>306.6</ele>
        <time>2021-04-03T09:13:01Z</time>
      </trkpt>
      <trkpt lat="47.25415" lon="6.02784">
        <ele>307.2</ele>
        <time>2021-04-03T09:13:04Z</time>
      </trkpt>
      <trkpt lat="47.25425" lon="6.02796">
        <ele>308</ele>
        <time>2021-04-03T09:13:10Z</time>
      </trkpt>
      <trkpt lat="47.25427" lon="6.02797">
        <ele>308.2</ele>
        <time>2021-04-03T09:13:11Z</time>
      </trkpt>
      <trkpt lat="47.25429" lon="6.02799">
        <ele>308.2</ele>
        <time>2021-04-03T09:13:12Z</time>
      </trkpt>
      <trkpt lat="47.2543" lon="6.02801">
        <ele>308.4</ele>
        <time>2021-04-03T09:13:13Z</time>
      </trkpt>
      <trkpt lat="47.25431" lon="6.02803">
        <ele>308.6</ele>
        <time>2021-04-03T09:13:14Z</time>
      </trkpt>
      <trkpt lat="47.25431" lon="6.02804">
        <ele>308.6</ele>
        <time>2021-04-03T09:13:15Z</time>
      </trkpt>
      <trkpt lat="47.25432" lon="6.02805">
        <ele>308.6</ele>
        <time>2021-04-03T09:13:16Z</time>
      </trkpt>
      <trkpt lat="47.25433" lon="6.02807">
        <ele>308.8</ele>
        <time>2021-04-03T09:13:17Z</time>
      </trkpt>
      <trkpt lat="47.25434" lon="6.0281">
        <ele>308.8</ele>
        <time>2021-04-03T09:13:19Z</time>
      </trkpt>
      <trkpt lat="47.25436" lon="6.02813">
        <ele>308.8</ele>
        <time>2021-04-03T09:13:20Z</time>
      </trkpt>
      <trkpt lat="47.25437" lon="6.02815">
        <ele>309</ele>
        <time>2021-04-03T09:13:21Z</time>
      </trkpt>
      <trkpt lat="47.25439" lon="6.02818">
        <ele>309</ele>
        <time>2021-04-03T09:13:22Z</time>
      </trkpt>
      <trkpt lat="47.2544" lon="6.0282">
        <ele>309</ele>
        <time>2021-04-03T09:13:23Z</time>
      </trkpt>
      <trkpt lat="47.25452" lon="6.02842">
        <ele>309</ele>
        <time>2021-04-03T09:13:31Z</time>
      </trkpt>
      <trkpt lat="47.25466" lon="6.02873">
        <ele>309.2</ele>
        <time>2021-04-03T09:13:41Z</time>
      </trkpt>
      <trkpt lat="47.25469" lon="6.02879">
        <ele>309.2</ele>
        <time>2021-04-03T09:13:43Z</time>
      </trkpt>
      <trkpt lat="47.25478" lon="6.029">
        <ele>309.6</ele>
        <time>2021-04-03T09:13:49Z</time>
      </trkpt>
      <trkpt lat="47.25486" lon="6.02921">
        <ele>309.8</ele>
        <time>2021-04-03T09:13:55Z</time>
      </trkpt>
      <trkpt lat="47.25489" lon="6.02928">
        <ele>310</ele>
        <time>2021-04-03T09:13:57Z</time>
      </trkpt>
      <trkpt lat="47.25492" lon="6.02935">
        <ele>310.2</ele>
        <time>2021-04-03T09:13:59Z</time>
      </trkpt>
      <trkpt lat="47.25505" lon="6.02966">
        <ele>310.6</ele>
        <time>2021-04-03T09:14:07Z</time>
      </trkpt>
      <trkpt lat="47.25518" lon="6.02987">
        <ele>310.6</ele>
        <time>2021-04-03T09:14:14Z</time>
      </trkpt>
      <trkpt lat="47.2552" lon="6.02989">
        <ele>310.6</ele>
        <time>2021-04-03T09:14:15Z</time>
      </trkpt>
      <trkpt lat="47.25522" lon="6.0299">
        <ele>310.6</ele>
        <time>2021-04-03T09:14:16Z</time>
      </trkpt>
      <trkpt lat="47.25524" lon="6.02991">
        <ele>310.6</ele>
        <time>2021-04-03T09:14:17Z</time>
      </trkpt>
      <trkpt lat="47.25525" lon="6.02992">
        <ele>310.6</ele>
        <time>2021-04-03T09:14:18Z</time>
      </trkpt>
      <trkpt lat="47.25525" lon="6.02992">
        <ele>310.6</ele>
        <time>2021-04-03T09:14:19Z</time>
      </trkpt>
      <trkpt lat="47.25525" lon="6.02992">
        <ele>310.6</ele>
        <time>2021-04-03T09:14:28Z</time>
      </trkpt>
      <trkpt lat="47.25525" lon="6.02992">
        <ele>310.6</ele>
        <time>2021-04-03T09:14:43Z</time>
      </trkpt>
      <trkpt lat="47.25531" lon="6.02993">
        <ele>310.6</ele>
        <time>2021-04-03T09:14:46Z</time>
      </trkpt>
      <trkpt lat="47.25544" lon="6.02995">
        <ele>310.8</ele>
        <time>2021-04-03T09:14:51Z</time>
      </trkpt>
      <trkpt lat="47.25546" lon="6.02995">
        <ele>310.6</ele>
        <time>2021-04-03T09:14:52Z</time>
      </trkpt>
      <trkpt lat="47.25549" lon="6.02995">
        <ele>310.6</ele>
        <time>2021-04-03T09:14:53Z</time>
      </trkpt>
      <trkpt lat="47.25567" lon="6.02999">
        <ele>310.6</ele>
        <time>2021-04-03T09:15:00Z</time>
      </trkpt>
      <trkpt lat="47.25577" lon="6.03">
        <ele>310.6</ele>
        <time>2021-04-03T09:15:04Z</time>
      </trkpt>
      <trkpt lat="47.25582" lon="6.03001">
        <ele>310.6</ele>
        <time>2021-04-03T09:15:06Z</time>
      </trkpt>
      <trkpt lat="47.25588" lon="6.03001">
        <ele>310.6</ele>
        <time>2021-04-03T09:15:08Z</time>
      </trkpt>
      <trkpt lat="47.25612" lon="6.03005">
        <ele>311.2</ele>
        <time>2021-04-03T09:15:17Z</time>
      </trkpt>
      <trkpt lat="47.25618" lon="6.03006">
        <ele>311.4</ele>
        <time>2021-04-03T09:15:19Z</time>
      </trkpt>
      <trkpt lat="47.25628" lon="6.03013">
        <ele>312</ele>
        <time>2021-04-03T09:15:23Z</time>
      </trkpt>
      <trkpt lat="47.2563" lon="6.03016">
        <ele>312</ele>
        <time>2021-04-03T09:15:24Z</time>
      </trkpt>
      <trkpt lat="47.25632" lon="6.0302">
        <ele>312.2</ele>
        <time>2021-04-03T09:15:25Z</time>
      </trkpt>
      <trkpt lat="47.25633" lon="6.03024">
        <ele>312.2</ele>
        <time>2021-04-03T09:15:26Z</time>
      </trkpt>
      <trkpt lat="47.25634" lon="6.03028">
        <ele>312.2</ele>
        <time>2021-04-03T09:15:27Z</time>
      </trkpt>
      <trkpt lat="47.25637" lon="6.03037">
        <ele>312.2</ele>
        <time>2021-04-03T09:15:29Z</time>
      </trkpt>
      <trkpt lat="47.25653" lon="6.03064">
        <ele>312.2</ele>
        <time>2021-04-03T09:15:36Z</time>
      </trkpt>
      <trkpt lat="47.25664" lon="6.0308">
        <ele>312.6</ele>
        <time>2021-04-03T09:15:40Z</time>
      </trkpt>
      <trkpt lat="47.25677" lon="6.031">
        <ele>313.8</ele>
        <time>2021-04-03T09:15:45Z</time>
      </trkpt>
      <trkpt lat="47.25691" lon="6.03125">
        <ele>313.8</ele>
        <time>2021-04-03T09:15:51Z</time>
      </trkpt>
      <trkpt lat="47.25698" lon="6.03137">
        <ele>313.8</ele>
        <time>2021-04-03T09:15:54Z</time>
      </trkpt>
      <trkpt lat="47.25701" lon="6.0314">
        <ele>313.8</ele>
        <time>2021-04-03T09:15:55Z</time>
      </trkpt>
      <trkpt lat="47.25703" lon="6.03144">
        <ele>313.8</ele>
        <time>2021-04-03T09:15:56Z</time>
      </trkpt>
      <trkpt lat="47.25707" lon="6.03151">
        <ele>313.8</ele>
        <time>2021-04-03T09:15:58Z</time>
      </trkpt>
      <trkpt lat="47.2571" lon="6.03154">
        <ele>313.8</ele>
        <time>2021-04-03T09:15:59Z</time>
      </trkpt>
      <trkpt lat="47.25712" lon="6.03157">
        <ele>313.8</ele>
        <time>2021-04-03T09:16:00Z</time>
      </trkpt>
      <trkpt lat="47.25714" lon="6.03161">
        <ele>313.8</ele>
        <time>2021-04-03T09:16:01Z</time>
      </trkpt>
      <trkpt lat="47.25717" lon="6.03164">
        <ele>314</ele>
        <time>2021-04-03T09:16:02Z</time>
      </trkpt>
      <trkpt lat="47.25719" lon="6.03167">
        <ele>314</ele>
        <time>2021-04-03T09:16:03Z</time>
      </trkpt>
      <trkpt lat="47.25721" lon="6.0317">
        <ele>314</ele>
        <time>2021-04-03T09:16:04Z</time>
      </trkpt>
      <trkpt lat="47.25724" lon="6.03173">
        <ele>314.2</ele>
        <time>2021-04-03T09:16:05Z</time>
      </trkpt>
      <trkpt lat="47.25726" lon="6.03176">
        <ele>314.2</ele>
        <time>2021-04-03T09:16:06Z</time>
      </trkpt>
      <trkpt lat="47.25728" lon="6.03179">
        <ele>314.4</ele>
        <time>2021-04-03T09:16:07Z</time>
      </trkpt>
      <trkpt lat="47.25731" lon="6.03182">
        <ele>314.6</ele>
        <time>2021-04-03T09:16:08Z</time>
      </trkpt>
      <trkpt lat="47.25733" lon="6.03184">
        <ele>314.6</ele>
        <time>2021-04-03T09:16:09Z</time>
      </trkpt>
      <trkpt lat="47.25736" lon="6.03187">
        <ele>314.8</ele>
        <time>2021-04-03T09:16:10Z</time>
      </trkpt>
      <trkpt lat="47.25738" lon="6.0319">
        <ele>314.8</ele>
        <time>2021-04-03T09:16:11Z</time>
      </trkpt>
      <trkpt lat="47.25743" lon="6.03195">
        <ele>315.2</ele>
        <time>2021-04-03T09:16:13Z</time>
      </trkpt>
      <trkpt lat="47.2575" lon="6.03204">
        <ele>315.8</ele>
        <time>2021-04-03T09:16:16Z</time>
      </trkpt>
      <trkpt lat="47.25752" lon="6.03207">
        <ele>316</ele>
        <time>2021-04-03T09:16:17Z</time>
      </trkpt>
      <trkpt lat="47.25766" lon="6.03225">
        <ele>316.4</ele>
        <time>2021-04-03T09:16:23Z</time>
      </trkpt>
      <trkpt lat="47.25768" lon="6.03228">
        <ele>316.6</ele>
        <time>2021-04-03T09:16:24Z</time>
      </trkpt>
      <trkpt lat="47.2577" lon="6.03231">
        <ele>316.6</ele>
        <time>2021-04-03T09:16:25Z</time>
      </trkpt>
      <trkpt lat="47.25773" lon="6.03234">
        <ele>316.6</ele>
        <time>2021-04-03T09:16:26Z</time>
      </trkpt>
      <trkpt lat="47.25775" lon="6.03238">
        <ele>316.8</ele>
        <time>2021-04-03T09:16:27Z</time>
      </trkpt>
      <trkpt lat="47.25777" lon="6.03241">
        <ele>316.8</ele>
        <time>2021-04-03T09:16:28Z</time>
      </trkpt>
      <trkpt lat="47.25779" lon="6.03244">
        <ele>317</ele>
        <time>2021-04-03T09:16:29Z</time>
      </trkpt>
      <trkpt lat="47.25782" lon="6.03248">
        <ele>317</ele>
        <time>2021-04-03T09:16:30Z</time>
      </trkpt>
      <trkpt lat="47.25784" lon="6.03251">
        <ele>317.2</ele>
        <time>2021-04-03T09:16:31Z</time>
      </trkpt>
      <trkpt lat="47.25787" lon="6.03253">
        <ele>317.2</ele>
        <time>2021-04-03T09:16:32Z</time>
      </trkpt>
      <trkpt lat="47.2579" lon="6.03256">
        <ele>317.4</ele>
        <time>2021-04-03T09:16:33Z</time>
      </trkpt>
      <trkpt lat="47.25793" lon="6.03258">
        <ele>317.4</ele>
        <time>2021-04-03T09:16:34Z</time>
      </trkpt>
      <trkpt lat="47.25797" lon="6.03263">
        <ele>317.6</ele>
        <time>2021-04-03T09:16:36Z</time>
      </trkpt>
      <trkpt lat="47.258" lon="6.03266">
        <ele>317.8</ele>
        <time>2021-04-03T09:16:37Z</time>
      </trkpt>
      <trkpt lat="47.25802" lon="6.03268">
        <ele>317.8</ele>
        <time>2021-04-03T09:16:38Z</time>
      </trkpt>
      <trkpt lat="47.25804" lon="6.03271">
        <ele>318</ele>
        <time>2021-04-03T09:16:39Z</time>
      </trkpt>
      <trkpt lat="47.25807" lon="6.03274">
        <ele>318</ele>
        <time>2021-04-03T09:16:40Z</time>
      </trkpt>
      <trkpt lat="47.25811" lon="6.0328">
        <ele>318.2</ele>
        <time>2021-04-03T09:16:42Z</time>
      </trkpt>
      <trkpt lat="47.25813" lon="6.03283">
        <ele>318.2</ele>
        <time>2021-04-03T09:16:43Z</time>
      </trkpt>
      <trkpt lat="47.25816" lon="6.03286">
        <ele>318.2</ele>
        <time>2021-04-03T09:16:44Z</time>
      </trkpt>
      <trkpt lat="47.25818" lon="6.03288">
        <ele>318.2</ele>
        <time>2021-04-03T09:16:45Z</time>
      </trkpt>
      <trkpt lat="47.25835" lon="6.03308">
        <ele>319</ele>
        <time>2021-04-03T09:16:52Z</time>
      </trkpt>
      <trkpt lat="47.25846" lon="6.03322">
        <ele>319.6</ele>
        <time>2021-04-03T09:16:57Z</time>
      </trkpt>
      <trkpt lat="47.25853" lon="6.03334">
        <ele>319.8</ele>
        <time>2021-04-03T09:17:01Z</time>
      </trkpt>
      <trkpt lat="47.25855" lon="6.03338">
        <ele>319.8</ele>
        <time>2021-04-03T09:17:02Z</time>
      </trkpt>
      <trkpt lat="47.25856" lon="6.03341">
        <ele>319.8</ele>
        <time>2021-04-03T09:17:03Z</time>
      </trkpt>
      <trkpt lat="47.25858" lon="6.03345">
        <ele>319.8</ele>
        <time>2021-04-03T09:17:04Z</time>
      </trkpt>
      <trkpt lat="47.25859" lon="6.0335">
        <ele>320</ele>
        <time>2021-04-03T09:17:05Z</time>
      </trkpt>
      <trkpt lat="47.25862" lon="6.03378">
        <ele>319.8</ele>
        <time>2021-04-03T09:17:10Z</time>
      </trkpt>
      <trkpt lat="47.25862" lon="6.03384">
        <ele>319.6</ele>
        <time>2021-04-03T09:17:11Z</time>
      </trkpt>
      <trkpt lat="47.25866" lon="6.03417">
        <ele>319.4</ele>
        <time>2021-04-03T09:17:17Z</time>
      </trkpt>
      <trkpt lat="47.25871" lon="6.03432">
        <ele>319.2</ele>
        <time>2021-04-03T09:17:20Z</time>
      </trkpt>
      <trkpt lat="47.25878" lon="6.03444">
        <ele>319.2</ele>
        <time>2021-04-03T09:17:23Z</time>
      </trkpt>
      <trkpt lat="47.2588" lon="6.03448">
        <ele>319.2</ele>
        <time>2021-04-03T09:17:24Z</time>
      </trkpt>
      <trkpt lat="47.25882" lon="6.03452">
        <ele>319.2</ele>
        <time>2021-04-03T09:17:25Z</time>
      </trkpt>
      <trkpt lat="47.25884" lon="6.03456">
        <ele>319.2</ele>
        <time>2021-04-03T09:17:26Z</time>
      </trkpt>
      <trkpt lat="47.25886" lon="6.03459">
        <ele>319.2</ele>
        <time>2021-04-03T09:17:27Z</time>
      </trkpt>
      <trkpt lat="47.25889" lon="6.03463">
        <ele>319.2</ele>
        <time>2021-04-03T09:17:28Z</time>
      </trkpt>
      <trkpt lat="47.25891" lon="6.03467">
        <ele>319.4</ele>
        <time>2021-04-03T09:17:29Z</time>
      </trkpt>
      <trkpt lat="47.25892" lon="6.03471">
        <ele>319.4</ele>
        <time>2021-04-03T09:17:30Z</time>
      </trkpt>
      <trkpt lat="47.25894" lon="6.03474">
        <ele>319.4</ele>
        <time>2021-04-03T09:17:31Z</time>
      </trkpt>
      <trkpt lat="47.25896" lon="6.03477">
        <ele>319.4</ele>
        <time>2021-04-03T09:17:32Z</time>
      </trkpt>
      <trkpt lat="47.25898" lon="6.03481">
        <ele>319.4</ele>
        <time>2021-04-03T09:17:33Z</time>
      </trkpt>
      <trkpt lat="47.259" lon="6.03485">
        <ele>319.4</ele>
        <time>2021-04-03T09:17:34Z</time>
      </trkpt>
      <trkpt lat="47.25902" lon="6.03488">
        <ele>319.4</ele>
        <time>2021-04-03T09:17:35Z</time>
      </trkpt>
      <trkpt lat="47.25904" lon="6.03492">
        <ele>319.4</ele>
        <time>2021-04-03T09:17:36Z</time>
      </trkpt>
      <trkpt lat="47.25905" lon="6.03495">
        <ele>319.6</ele>
        <time>2021-04-03T09:17:37Z</time>
      </trkpt>
      <trkpt lat="47.25907" lon="6.03499">
        <ele>320</ele>
        <time>2021-04-03T09:17:38Z</time>
      </trkpt>
      <trkpt lat="47.25909" lon="6.03502">
        <ele>320.2</ele>
        <time>2021-04-03T09:17:39Z</time>
      </trkpt>
      <trkpt lat="47.25911" lon="6.03506">
        <ele>320.2</ele>
        <time>2021-04-03T09:17:40Z</time>
      </trkpt>
      <trkpt lat="47.25913" lon="6.03509">
        <ele>320.4</ele>
        <time>2021-04-03T09:17:41Z</time>
      </trkpt>
      <trkpt lat="47.25914" lon="6.03513">
        <ele>320.4</ele>
        <time>2021-04-03T09:17:42Z</time>
      </trkpt>
      <trkpt lat="47.25916" lon="6.03516">
        <ele>320.6</ele>
        <time>2021-04-03T09:17:43Z</time>
      </trkpt>
      <trkpt lat="47.2592" lon="6.03523">
        <ele>320.8</ele>
        <time>2021-04-03T09:17:45Z</time>
      </trkpt>
      <trkpt lat="47.25922" lon="6.03526">
        <ele>321</ele>
        <time>2021-04-03T09:17:46Z</time>
      </trkpt>
      <trkpt lat="47.25924" lon="6.03529">
        <ele>321</ele>
        <time>2021-04-03T09:17:47Z</time>
      </trkpt>
      <trkpt lat="47.25927" lon="6.03536">
        <ele>321.2</ele>
        <time>2021-04-03T09:17:49Z</time>
      </trkpt>
      <trkpt lat="47.25934" lon="6.03549">
        <ele>321.6</ele>
        <time>2021-04-03T09:17:53Z</time>
      </trkpt>
      <trkpt lat="47.25941" lon="6.03562">
        <ele>322.2</ele>
        <time>2021-04-03T09:17:57Z</time>
      </trkpt>
      <trkpt lat="47.2595" lon="6.03579">
        <ele>323</ele>
        <time>2021-04-03T09:18:02Z</time>
      </trkpt>
      <trkpt lat="47.25952" lon="6.03582">
        <ele>323</ele>
        <time>2021-04-03T09:18:03Z</time>
      </trkpt>
      <trkpt lat="47.25953" lon="6.03585">
        <ele>323.2</ele>
        <time>2021-04-03T09:18:04Z</time>
      </trkpt>
      <trkpt lat="47.25955" lon="6.03588">
        <ele>323.2</ele>
        <time>2021-04-03T09:18:05Z</time>
      </trkpt>
      <trkpt lat="47.25957" lon="6.03591">
        <ele>323.4</ele>
        <time>2021-04-03T09:18:06Z</time>
      </trkpt>
      <trkpt lat="47.25959" lon="6.03594">
        <ele>323.6</ele>
        <time>2021-04-03T09:18:07Z</time>
      </trkpt>
      <trkpt lat="47.25961" lon="6.03597">
        <ele>323.6</ele>
        <time>2021-04-03T09:18:08Z</time>
      </trkpt>
      <trkpt lat="47.25962" lon="6.03601">
        <ele>323.8</ele>
        <time>2021-04-03T09:18:09Z</time>
      </trkpt>
      <trkpt lat="47.25964" lon="6.03604">
        <ele>323.6</ele>
        <time>2021-04-03T09:18:10Z</time>
      </trkpt>
      <trkpt lat="47.25965" lon="6.03608">
        <ele>324</ele>
        <time>2021-04-03T09:18:11Z</time>
      </trkpt>
      <trkpt lat="47.25966" lon="6.03612">
        <ele>324</ele>
        <time>2021-04-03T09:18:12Z</time>
      </trkpt>
      <trkpt lat="47.25967" lon="6.03615">
        <ele>324.2</ele>
        <time>2021-04-03T09:18:13Z</time>
      </trkpt>
      <trkpt lat="47.25968" lon="6.03619">
        <ele>324.4</ele>
        <time>2021-04-03T09:18:14Z</time>
      </trkpt>
      <trkpt lat="47.25969" lon="6.03623">
        <ele>324.6</ele>
        <time>2021-04-03T09:18:15Z</time>
      </trkpt>
      <trkpt lat="47.25971" lon="6.03627">
        <ele>324.6</ele>
        <time>2021-04-03T09:18:16Z</time>
      </trkpt>
      <trkpt lat="47.25972" lon="6.03632">
        <ele>324.8</ele>
        <time>2021-04-03T09:18:17Z</time>
      </trkpt>
      <trkpt lat="47.25973" lon="6.03636">
        <ele>324.8</ele>
        <time>2021-04-03T09:18:18Z</time>
      </trkpt>
      <trkpt lat="47.25975" lon="6.0364">
        <ele>324.8</ele>
        <time>2021-04-03T09:18:19Z</time>
      </trkpt>
      <trkpt lat="47.25976" lon="6.03644">
        <ele>325</ele>
        <time>2021-04-03T09:18:20Z</time>
      </trkpt>
      <trkpt lat="47.25977" lon="6.03648">
        <ele>325</ele>
        <time>2021-04-03T09:18:21Z</time>
      </trkpt>
      <trkpt lat="47.25978" lon="6.03652">
        <ele>325</ele>
        <time>2021-04-03T09:18:22Z</time>
      </trkpt>
      <trkpt lat="47.2598" lon="6.03656">
        <ele>325</ele>
        <time>2021-04-03T09:18:23Z</time>
      </trkpt>
      <trkpt lat="47.25981" lon="6.03661">
        <ele>325.2</ele>
        <time>2021-04-03T09:18:24Z</time>
      </trkpt>
      <trkpt lat="47.25982" lon="6.03665">
        <ele>325.2</ele>
        <time>2021-04-03T09:18:25Z</time>
      </trkpt>
      <trkpt lat="47.25983" lon="6.0367">
        <ele>325.2</ele>
        <time>2021-04-03T09:18:26Z</time>
      </trkpt>
      <trkpt lat="47.25983" lon="6.03674">
        <ele>325.2</ele>
        <time>2021-04-03T09:18:27Z</time>
      </trkpt>
      <trkpt lat="47.25985" lon="6.03678">
        <ele>325.2</ele>
        <time>2021-04-03T09:18:28Z</time>
      </trkpt>
      <trkpt lat="47.25986" lon="6.03682">
        <ele>325.2</ele>
        <time>2021-04-03T09:18:29Z</time>
      </trkpt>
      <trkpt lat="47.25987" lon="6.03686">
        <ele>325.2</ele>
        <time>2021-04-03T09:18:30Z</time>
      </trkpt>
      <trkpt lat="47.25988" lon="6.0369">
        <ele>325.2</ele>
        <time>2021-04-03T09:18:31Z</time>
      </trkpt>
      <trkpt lat="47.25989" lon="6.03699">
        <ele>325.2</ele>
        <time>2021-04-03T09:18:33Z</time>
      </trkpt>
      <trkpt lat="47.25993" lon="6.03713">
        <ele>325.4</ele>
        <time>2021-04-03T09:18:36Z</time>
      </trkpt>
      <trkpt lat="47.26002" lon="6.03739">
        <ele>325.4</ele>
        <time>2021-04-03T09:18:42Z</time>
      </trkpt>
      <trkpt lat="47.26005" lon="6.03747">
        <ele>325.4</ele>
        <time>2021-04-03T09:18:44Z</time>
      </trkpt>
      <trkpt lat="47.26006" lon="6.03751">
        <ele>325.4</ele>
        <time>2021-04-03T09:18:45Z</time>
      </trkpt>
      <trkpt lat="47.26007" lon="6.03755">
        <ele>325.4</ele>
        <time>2021-04-03T09:18:46Z</time>
      </trkpt>
      <trkpt lat="47.26008" lon="6.03759">
        <ele>325.4</ele>
        <time>2021-04-03T09:18:47Z</time>
      </trkpt>
      <trkpt lat="47.26009" lon="6.03762">
        <ele>325.2</ele>
        <time>2021-04-03T09:18:48Z</time>
      </trkpt>
      <trkpt lat="47.2601" lon="6.03766">
        <ele>325.2</ele>
        <time>2021-04-03T09:18:49Z</time>
      </trkpt>
      <trkpt lat="47.26011" lon="6.03769">
        <ele>325.2</ele>
        <time>2021-04-03T09:18:50Z</time>
      </trkpt>
      <trkpt lat="47.26012" lon="6.03772">
        <ele>325.2</ele>
        <time>2021-04-03T09:18:51Z</time>
      </trkpt>
      <trkpt lat="47.26013" lon="6.03776">
        <ele>325.2</ele>
        <time>2021-04-03T09:18:52Z</time>
      </trkpt>
      <trkpt lat="47.26014" lon="6.03779">
        <ele>325.2</ele>
        <time>2021-04-03T09:18:53Z</time>
      </trkpt>
      <trkpt lat="47.26015" lon="6.03783">
        <ele>325.2</ele>
        <time>2021-04-03T09:18:54Z</time>
      </trkpt>
      <trkpt lat="47.26017" lon="6.03787">
        <ele>325.2</ele>
        <time>2021-04-03T09:18:55Z</time>
      </trkpt>
      <trkpt lat="47.2602" lon="6.03798">
        <ele>325.2</ele>
        <time>2021-04-03T09:18:58Z</time>
      </trkpt>
      <trkpt lat="47.26021" lon="6.03802">
        <ele>325.2</ele>
        <time>2021-04-03T09:18:59Z</time>
      </trkpt>
      <trkpt lat="47.26028" lon="6.03821">
        <ele>325.4</ele>
        <time>2021-04-03T09:19:04Z</time>
      </trkpt>
      <trkpt lat="47.26041" lon="6.03867">
        <ele>326.2</ele>
        <time>2021-04-03T09:19:15Z</time>
      </trkpt>
      <trkpt lat="47.26045" lon="6.03884">
        <ele>326.2</ele>
        <time>2021-04-03T09:19:19Z</time>
      </trkpt>
      <trkpt lat="47.26046" lon="6.03889">
        <ele>326.2</ele>
        <time>2021-04-03T09:19:20Z</time>
      </trkpt>
      <trkpt lat="47.26047" lon="6.03893">
        <ele>326.2</ele>
        <time>2021-04-03T09:19:21Z</time>
      </trkpt>
      <trkpt lat="47.26048" lon="6.03897">
        <ele>326.2</ele>
        <time>2021-04-03T09:19:22Z</time>
      </trkpt>
      <trkpt lat="47.26053" lon="6.03909">
        <ele>326.2</ele>
        <time>2021-04-03T09:19:25Z</time>
      </trkpt>
      <trkpt lat="47.26065" lon="6.03956">
        <ele>327.2</ele>
        <time>2021-04-03T09:19:36Z</time>
      </trkpt>
      <trkpt lat="47.26067" lon="6.0396">
        <ele>327.2</ele>
        <time>2021-04-03T09:19:37Z</time>
      </trkpt>
      <trkpt lat="47.26068" lon="6.03964">
        <ele>327.4</ele>
        <time>2021-04-03T09:19:38Z</time>
      </trkpt>
      <trkpt lat="47.26069" lon="6.03968">
        <ele>327.4</ele>
        <time>2021-04-03T09:19:39Z</time>
      </trkpt>
      <trkpt lat="47.26076" lon="6.03988">
        <ele>328</ele>
        <time>2021-04-03T09:19:44Z</time>
      </trkpt>
      <trkpt lat="47.26077" lon="6.03992">
        <ele>328</ele>
        <time>2021-04-03T09:19:45Z</time>
      </trkpt>
      <trkpt lat="47.26083" lon="6.04013">
        <ele>328.4</ele>
        <time>2021-04-03T09:19:50Z</time>
      </trkpt>
      <trkpt lat="47.26088" lon="6.0403">
        <ele>328.8</ele>
        <time>2021-04-03T09:19:54Z</time>
      </trkpt>
      <trkpt lat="47.26097" lon="6.04053">
        <ele>329.4</ele>
        <time>2021-04-03T09:20:00Z</time>
      </trkpt>
      <trkpt lat="47.26098" lon="6.04058">
        <ele>329.6</ele>
        <time>2021-04-03T09:20:01Z</time>
      </trkpt>
      <trkpt lat="47.26105" lon="6.04078">
        <ele>330.4</ele>
        <time>2021-04-03T09:20:06Z</time>
      </trkpt>
      <trkpt lat="47.26106" lon="6.04082">
        <ele>330.6</ele>
        <time>2021-04-03T09:20:07Z</time>
      </trkpt>
      <trkpt lat="47.26107" lon="6.04086">
        <ele>330.6</ele>
        <time>2021-04-03T09:20:08Z</time>
      </trkpt>
      <trkpt lat="47.26109" lon="6.04089">
        <ele>330.8</ele>
        <time>2021-04-03T09:20:09Z</time>
      </trkpt>
      <trkpt lat="47.2611" lon="6.04093">
        <ele>330.8</ele>
        <time>2021-04-03T09:20:10Z</time>
      </trkpt>
      <trkpt lat="47.2611" lon="6.04097">
        <ele>331</ele>
        <time>2021-04-03T09:20:11Z</time>
      </trkpt>
      <trkpt lat="47.2611" lon="6.04101">
        <ele>331.2</ele>
        <time>2021-04-03T09:20:12Z</time>
      </trkpt>
      <trkpt lat="47.2611" lon="6.04105">
        <ele>331.2</ele>
        <time>2021-04-03T09:20:13Z</time>
      </trkpt>
      <trkpt lat="47.26111" lon="6.04109">
        <ele>331.4</ele>
        <time>2021-04-03T09:20:14Z</time>
      </trkpt>
      <trkpt lat="47.26111" lon="6.04113">
        <ele>331.4</ele>
        <time>2021-04-03T09:20:15Z</time>
      </trkpt>
      <trkpt lat="47.26112" lon="6.04117">
        <ele>331.4</ele>
        <time>2021-04-03T09:20:16Z</time>
      </trkpt>
      <trkpt lat="47.26112" lon="6.0412">
        <ele>331.4</ele>
        <time>2021-04-03T09:20:17Z</time>
      </trkpt>
      <trkpt lat="47.26113" lon="6.04122">
        <ele>331.4</ele>
        <time>2021-04-03T09:20:18Z</time>
      </trkpt>
      <trkpt lat="47.26113" lon="6.04124">
        <ele>331.4</ele>
        <time>2021-04-03T09:20:19Z</time>
      </trkpt>
      <trkpt lat="47.26114" lon="6.04126">
        <ele>331.4</ele>
        <time>2021-04-03T09:20:20Z</time>
      </trkpt>
      <trkpt lat="47.26115" lon="6.04129">
        <ele>331.4</ele>
        <time>2021-04-03T09:20:21Z</time>
      </trkpt>
      <trkpt lat="47.26117" lon="6.0413">
        <ele>331.4</ele>
        <time>2021-04-03T09:20:22Z</time>
      </trkpt>
      <trkpt lat="47.26119" lon="6.04131">
        <ele>331.4</ele>
        <time>2021-04-03T09:20:23Z</time>
      </trkpt>
      <trkpt lat="47.26121" lon="6.0413">
        <ele>331.4</ele>
        <time>2021-04-03T09:20:24Z</time>
      </trkpt>
      <trkpt lat="47.26124" lon="6.04128">
        <ele>331.4</ele>
        <time>2021-04-03T09:20:25Z</time>
      </trkpt>
      <trkpt lat="47.26125" lon="6.04126">
        <ele>331.4</ele>
        <time>2021-04-03T09:20:26Z</time>
      </trkpt>
      <trkpt lat="47.26127" lon="6.04124">
        <ele>331.4</ele>
        <time>2021-04-03T09:20:27Z</time>
      </trkpt>
      <trkpt lat="47.2613" lon="6.04121">
        <ele>331.4</ele>
        <time>2021-04-03T09:20:28Z</time>
      </trkpt>
      <trkpt lat="47.26142" lon="6.0411">
        <ele>331.6</ele>
        <time>2021-04-03T09:20:33Z</time>
      </trkpt>
      <trkpt lat="47.26145" lon="6.04107">
        <ele>331.8</ele>
        <time>2021-04-03T09:20:34Z</time>
      </trkpt>
      <trkpt lat="47.26167" lon="6.04089">
        <ele>332.6</ele>
        <time>2021-04-03T09:20:42Z</time>
      </trkpt>
      <trkpt lat="47.2617" lon="6.04087">
        <ele>332.8</ele>
        <time>2021-04-03T09:20:43Z</time>
      </trkpt>
      <trkpt lat="47.26193" lon="6.04069">
        <ele>333.6</ele>
        <time>2021-04-03T09:20:51Z</time>
      </trkpt>
      <trkpt lat="47.26205" lon="6.04059">
        <ele>334</ele>
        <time>2021-04-03T09:20:55Z</time>
      </trkpt>
      <trkpt lat="47.26214" lon="6.0405">
        <ele>334.6</ele>
        <time>2021-04-03T09:20:59Z</time>
      </trkpt>
      <trkpt lat="47.26216" lon="6.04049">
        <ele>334.8</ele>
        <time>2021-04-03T09:21:00Z</time>
      </trkpt>
      <trkpt lat="47.26219" lon="6.04047">
        <ele>334.8</ele>
        <time>2021-04-03T09:21:01Z</time>
      </trkpt>
      <trkpt lat="47.26224" lon="6.04043">
        <ele>335</ele>
        <time>2021-04-03T09:21:03Z</time>
      </trkpt>
      <trkpt lat="47.26226" lon="6.04041">
        <ele>335.2</ele>
        <time>2021-04-03T09:21:04Z</time>
      </trkpt>
      <trkpt lat="47.26229" lon="6.04039">
        <ele>335.4</ele>
        <time>2021-04-03T09:21:05Z</time>
      </trkpt>
      <trkpt lat="47.26232" lon="6.04037">
        <ele>335.4</ele>
        <time>2021-04-03T09:21:06Z</time>
      </trkpt>
      <trkpt lat="47.26235" lon="6.04035">
        <ele>335.6</ele>
        <time>2021-04-03T09:21:07Z</time>
      </trkpt>
      <trkpt lat="47.26238" lon="6.04032">
        <ele>335.6</ele>
        <time>2021-04-03T09:21:08Z</time>
      </trkpt>
      <trkpt lat="47.2624" lon="6.0403">
        <ele>335.6</ele>
        <time>2021-04-03T09:21:09Z</time>
      </trkpt>
      <trkpt lat="47.26243" lon="6.04028">
        <ele>335.6</ele>
        <time>2021-04-03T09:21:10Z</time>
      </trkpt>
      <trkpt lat="47.26246" lon="6.04025">
        <ele>335.8</ele>
        <time>2021-04-03T09:21:11Z</time>
      </trkpt>
      <trkpt lat="47.2625" lon="6.04022">
        <ele>335.8</ele>
        <time>2021-04-03T09:21:12Z</time>
      </trkpt>
      <trkpt lat="47.26254" lon="6.04019">
        <ele>336</ele>
        <time>2021-04-03T09:21:13Z</time>
      </trkpt>
      <trkpt lat="47.26256" lon="6.04016">
        <ele>336</ele>
        <time>2021-04-03T09:21:14Z</time>
      </trkpt>
      <trkpt lat="47.26258" lon="6.04014">
        <ele>336.2</ele>
        <time>2021-04-03T09:21:15Z</time>
      </trkpt>
      <trkpt lat="47.26261" lon="6.04011">
        <ele>336.2</ele>
        <time>2021-04-03T09:21:16Z</time>
      </trkpt>
      <trkpt lat="47.26264" lon="6.04009">
        <ele>336.4</ele>
        <time>2021-04-03T09:21:17Z</time>
      </trkpt>
      <trkpt lat="47.26266" lon="6.04006">
        <ele>336.4</ele>
        <time>2021-04-03T09:21:18Z</time>
      </trkpt>
      <trkpt lat="47.26269" lon="6.04004">
        <ele>336.4</ele>
        <time>2021-04-03T09:21:19Z</time>
      </trkpt>
      <trkpt lat="47.26271" lon="6.04002">
        <ele>336.6</ele>
        <time>2021-04-03T09:21:20Z</time>
      </trkpt>
      <trkpt lat="47.26274" lon="6.03999">
        <ele>336.6</ele>
        <time>2021-04-03T09:21:21Z</time>
      </trkpt>
      <trkpt lat="47.26276" lon="6.03997">
        <ele>336.8</ele>
        <time>2021-04-03T09:21:22Z</time>
      </trkpt>
      <trkpt lat="47.26279" lon="6.03996">
        <ele>337</ele>
        <time>2021-04-03T09:21:23Z</time>
      </trkpt>
      <trkpt lat="47.26281" lon="6.03994">
        <ele>337.2</ele>
        <time>2021-04-03T09:21:24Z</time>
      </trkpt>
      <trkpt lat="47.26284" lon="6.03992">
        <ele>337.4</ele>
        <time>2021-04-03T09:21:25Z</time>
      </trkpt>
      <trkpt lat="47.26286" lon="6.0399">
        <ele>337.8</ele>
        <time>2021-04-03T09:21:26Z</time>
      </trkpt>
      <trkpt lat="47.26288" lon="6.03989">
        <ele>338</ele>
        <time>2021-04-03T09:21:27Z</time>
      </trkpt>
      <trkpt lat="47.26291" lon="6.03986">
        <ele>338.4</ele>
        <time>2021-04-03T09:21:28Z</time>
      </trkpt>
      <trkpt lat="47.26293" lon="6.03984">
        <ele>338.8</ele>
        <time>2021-04-03T09:21:29Z</time>
      </trkpt>
      <trkpt lat="47.26295" lon="6.03982">
        <ele>338.8</ele>
        <time>2021-04-03T09:21:30Z</time>
      </trkpt>
      <trkpt lat="47.26297" lon="6.03981">
        <ele>339.2</ele>
        <time>2021-04-03T09:21:31Z</time>
      </trkpt>
      <trkpt lat="47.26299" lon="6.03979">
        <ele>339.4</ele>
        <time>2021-04-03T09:21:32Z</time>
      </trkpt>
      <trkpt lat="47.26301" lon="6.03977">
        <ele>339.6</ele>
        <time>2021-04-03T09:21:33Z</time>
      </trkpt>
      <trkpt lat="47.26303" lon="6.03975">
        <ele>339.6</ele>
        <time>2021-04-03T09:21:34Z</time>
      </trkpt>
      <trkpt lat="47.26305" lon="6.03973">
        <ele>339.8</ele>
        <time>2021-04-03T09:21:35Z</time>
      </trkpt>
      <trkpt lat="47.26307" lon="6.03971">
        <ele>339.8</ele>
        <time>2021-04-03T09:21:36Z</time>
      </trkpt>
      <trkpt lat="47.26309" lon="6.03969">
        <ele>340</ele>
        <time>2021-04-03T09:21:37Z</time>
      </trkpt>
      <trkpt lat="47.26311" lon="6.03967">
        <ele>340.2</ele>
        <time>2021-04-03T09:21:38Z</time>
      </trkpt>
      <trkpt lat="47.26314" lon="6.03965">
        <ele>340.4</ele>
        <time>2021-04-03T09:21:39Z</time>
      </trkpt>
      <trkpt lat="47.26316" lon="6.03963">
        <ele>340.8</ele>
        <time>2021-04-03T09:21:40Z</time>
      </trkpt>
      <trkpt lat="47.26318" lon="6.03962">
        <ele>340.8</ele>
        <time>2021-04-03T09:21:41Z</time>
      </trkpt>
      <trkpt lat="47.2632" lon="6.0396">
        <ele>341</ele>
        <time>2021-04-03T09:21:42Z</time>
      </trkpt>
      <trkpt lat="47.26323" lon="6.03959">
        <ele>341.2</ele>
        <time>2021-04-03T09:21:43Z</time>
      </trkpt>
      <trkpt lat="47.26325" lon="6.03957">
        <ele>341.4</ele>
        <time>2021-04-03T09:21:44Z</time>
      </trkpt>
      <trkpt lat="47.26326" lon="6.03955">
        <ele>341.6</ele>
        <time>2021-04-03T09:21:45Z</time>
      </trkpt>
      <trkpt lat="47.26328" lon="6.03953">
        <ele>341.8</ele>
        <time>2021-04-03T09:21:46Z</time>
      </trkpt>
      <trkpt lat="47.2633" lon="6.03952">
        <ele>342</ele>
        <time>2021-04-03T09:21:47Z</time>
      </trkpt>
      <trkpt lat="47.26332" lon="6.0395">
        <ele>342.4</ele>
        <time>2021-04-03T09:21:48Z</time>
      </trkpt>
      <trkpt lat="47.26334" lon="6.03948">
        <ele>342.6</ele>
        <time>2021-04-03T09:21:49Z</time>
      </trkpt>
      <trkpt lat="47.26335" lon="6.03946">
        <ele>343</ele>
        <time>2021-04-03T09:21:50Z</time>
      </trkpt>
      <trkpt lat="47.26337" lon="6.03945">
        <ele>343.2</ele>
        <time>2021-04-03T09:21:51Z</time>
      </trkpt>
      <trkpt lat="47.26339" lon="6.03943">
        <ele>343.4</ele>
        <time>2021-04-03T09:21:52Z</time>
      </trkpt>
      <trkpt lat="47.26341" lon="6.03942">
        <ele>343.4</ele>
        <time>2021-04-03T09:21:53Z</time>
      </trkpt>
      <trkpt lat="47.26342" lon="6.0394">
        <ele>343.6</ele>
        <time>2021-04-03T09:21:54Z</time>
      </trkpt>
      <trkpt lat="47.26344" lon="6.03939">
        <ele>343.8</ele>
        <time>2021-04-03T09:21:55Z</time>
      </trkpt>
      <trkpt lat="47.26345" lon="6.03938">
        <ele>343.8</ele>
        <time>2021-04-03T09:21:56Z</time>
      </trkpt>
      <trkpt lat="47.26347" lon="6.03936">
        <ele>344</ele>
        <time>2021-04-03T09:21:57Z</time>
      </trkpt>
      <trkpt lat="47.26349" lon="6.03935">
        <ele>344.2</ele>
        <time>2021-04-03T09:21:58Z</time>
      </trkpt>
      <trkpt lat="47.2635" lon="6.03935">
        <ele>344.4</ele>
        <time>2021-04-03T09:21:59Z</time>
      </trkpt>
      <trkpt lat="47.26353" lon="6.03935">
        <ele>344.4</ele>
        <time>2021-04-03T09:22:00Z</time>
      </trkpt>
      <trkpt lat="47.26354" lon="6.03937">
        <ele>344.6</ele>
        <time>2021-04-03T09:22:01Z</time>
      </trkpt>
      <trkpt lat="47.26356" lon="6.03938">
        <ele>344.8</ele>
        <time>2021-04-03T09:22:02Z</time>
      </trkpt>
      <trkpt lat="47.26358" lon="6.03939">
        <ele>345</ele>
        <time>2021-04-03T09:22:03Z</time>
      </trkpt>
      <trkpt lat="47.26359" lon="6.0394">
        <ele>345</ele>
        <time>2021-04-03T09:22:04Z</time>
      </trkpt>
      <trkpt lat="47.26361" lon="6.03941">
        <ele>345.2</ele>
        <time>2021-04-03T09:22:05Z</time>
      </trkpt>
      <trkpt lat="47.26363" lon="6.0394">
        <ele>345.4</ele>
        <time>2021-04-03T09:22:06Z</time>
      </trkpt>
      <trkpt lat="47.26366" lon="6.03939">
        <ele>345.6</ele>
        <time>2021-04-03T09:22:07Z</time>
      </trkpt>
      <trkpt lat="47.26368" lon="6.03937">
        <ele>345.6</ele>
        <time>2021-04-03T09:22:08Z</time>
      </trkpt>
      <trkpt lat="47.2637" lon="6.03936">
        <ele>345.8</ele>
        <time>2021-04-03T09:22:09Z</time>
      </trkpt>
      <trkpt lat="47.26372" lon="6.03934">
        <ele>346</ele>
        <time>2021-04-03T09:22:10Z</time>
      </trkpt>
      <trkpt lat="47.26375" lon="6.03933">
        <ele>346</ele>
        <time>2021-04-03T09:22:11Z</time>
      </trkpt>
      <trkpt lat="47.26377" lon="6.03932">
        <ele>346.2</ele>
        <time>2021-04-03T09:22:12Z</time>
      </trkpt>
      <trkpt lat="47.26379" lon="6.03932">
        <ele>346.2</ele>
        <time>2021-04-03T09:22:13Z</time>
      </trkpt>
      <trkpt lat="47.26381" lon="6.03933">
        <ele>346.2</ele>
        <time>2021-04-03T09:22:14Z</time>
      </trkpt>
      <trkpt lat="47.26383" lon="6.03936">
        <ele>346.4</ele>
        <time>2021-04-03T09:22:15Z</time>
      </trkpt>
      <trkpt lat="47.26384" lon="6.03939">
        <ele>346.4</ele>
        <time>2021-04-03T09:22:16Z</time>
      </trkpt>
      <trkpt lat="47.26385" lon="6.03942">
        <ele>346.4</ele>
        <time>2021-04-03T09:22:17Z</time>
      </trkpt>
      <trkpt lat="47.26387" lon="6.03946">
        <ele>346.4</ele>
        <time>2021-04-03T09:22:18Z</time>
      </trkpt>
      <trkpt lat="47.26388" lon="6.03949">
        <ele>346.4</ele>
        <time>2021-04-03T09:22:19Z</time>
      </trkpt>
      <trkpt lat="47.26389" lon="6.03952">
        <ele>346.4</ele>
        <time>2021-04-03T09:22:20Z</time>
      </trkpt>
      <trkpt lat="47.26391" lon="6.03956">
        <ele>346.4</ele>
        <time>2021-04-03T09:22:21Z</time>
      </trkpt>
      <trkpt lat="47.26393" lon="6.03959">
        <ele>346.6</ele>
        <time>2021-04-03T09:22:22Z</time>
      </trkpt>
      <trkpt lat="47.26394" lon="6.03963">
        <ele>346.6</ele>
        <time>2021-04-03T09:22:23Z</time>
      </trkpt>
      <trkpt lat="47.26396" lon="6.03966">
        <ele>346.4</ele>
        <time>2021-04-03T09:22:24Z</time>
      </trkpt>
      <trkpt lat="47.26398" lon="6.03969">
        <ele>346.4</ele>
        <time>2021-04-03T09:22:25Z</time>
      </trkpt>
      <trkpt lat="47.26399" lon="6.03973">
        <ele>346.4</ele>
        <time>2021-04-03T09:22:26Z</time>
      </trkpt>
      <trkpt lat="47.2641" lon="6.03995">
        <ele>346.4</ele>
        <time>2021-04-03T09:22:32Z</time>
      </trkpt>
      <trkpt lat="47.26415" lon="6.04005">
        <ele>346.4</ele>
        <time>2021-04-03T09:22:35Z</time>
      </trkpt>
      <trkpt lat="47.26421" lon="6.0402">
        <ele>346.6</ele>
        <time>2021-04-03T09:22:39Z</time>
      </trkpt>
      <trkpt lat="47.26423" lon="6.04023">
        <ele>346.6</ele>
        <time>2021-04-03T09:22:40Z</time>
      </trkpt>
      <trkpt lat="47.26426" lon="6.0403">
        <ele>346.4</ele>
        <time>2021-04-03T09:22:42Z</time>
      </trkpt>
      <trkpt lat="47.26433" lon="6.04048">
        <ele>346.8</ele>
        <time>2021-04-03T09:22:47Z</time>
      </trkpt>
      <trkpt lat="47.26435" lon="6.0405">
        <ele>346.8</ele>
        <time>2021-04-03T09:22:48Z</time>
      </trkpt>
      <trkpt lat="47.26436" lon="6.04052">
        <ele>346.8</ele>
        <time>2021-04-03T09:22:49Z</time>
      </trkpt>
      <trkpt lat="47.26438" lon="6.04054">
        <ele>346.8</ele>
        <time>2021-04-03T09:22:50Z</time>
      </trkpt>
      <trkpt lat="47.26439" lon="6.04056">
        <ele>346.8</ele>
        <time>2021-04-03T09:22:51Z</time>
      </trkpt>
      <trkpt lat="47.26442" lon="6.04061">
        <ele>346.6</ele>
        <time>2021-04-03T09:22:53Z</time>
      </trkpt>
      <trkpt lat="47.26443" lon="6.04064">
        <ele>346.8</ele>
        <time>2021-04-03T09:22:54Z</time>
      </trkpt>
      <trkpt lat="47.26444" lon="6.04067">
        <ele>346.8</ele>
        <time>2021-04-03T09:22:55Z</time>
      </trkpt>
      <trkpt lat="47.26445" lon="6.0407">
        <ele>346.6</ele>
        <time>2021-04-03T09:22:56Z</time>
      </trkpt>
      <trkpt lat="47.26447" lon="6.04072">
        <ele>346.6</ele>
        <time>2021-04-03T09:22:57Z</time>
      </trkpt>
      <trkpt lat="47.26448" lon="6.04075">
        <ele>346.6</ele>
        <time>2021-04-03T09:22:58Z</time>
      </trkpt>
      <trkpt lat="47.26455" lon="6.04088">
        <ele>346.8</ele>
        <time>2021-04-03T09:23:04Z</time>
      </trkpt>
      <trkpt lat="47.26456" lon="6.0409">
        <ele>346.8</ele>
        <time>2021-04-03T09:23:05Z</time>
      </trkpt>
      <trkpt lat="47.26458" lon="6.04092">
        <ele>346.8</ele>
        <time>2021-04-03T09:23:06Z</time>
      </trkpt>
      <trkpt lat="47.26458" lon="6.04094">
        <ele>347</ele>
        <time>2021-04-03T09:23:07Z</time>
      </trkpt>
      <trkpt lat="47.26459" lon="6.04095">
        <ele>347</ele>
        <time>2021-04-03T09:23:08Z</time>
      </trkpt>
      <trkpt lat="47.2646" lon="6.04097">
        <ele>347</ele>
        <time>2021-04-03T09:23:09Z</time>
      </trkpt>
      <trkpt lat="47.26461" lon="6.04099">
        <ele>347</ele>
        <time>2021-04-03T09:23:10Z</time>
      </trkpt>
      <trkpt lat="47.26462" lon="6.041">
        <ele>347.2</ele>
        <time>2021-04-03T09:23:11Z</time>
      </trkpt>
      <trkpt lat="47.26463" lon="6.04102">
        <ele>347.2</ele>
        <time>2021-04-03T09:23:12Z</time>
      </trkpt>
      <trkpt lat="47.26464" lon="6.04103">
        <ele>347.2</ele>
        <time>2021-04-03T09:23:13Z</time>
      </trkpt>
      <trkpt lat="47.26465" lon="6.04105">
        <ele>347.2</ele>
        <time>2021-04-03T09:23:14Z</time>
      </trkpt>
      <trkpt lat="47.26466" lon="6.04106">
        <ele>347.2</ele>
        <time>2021-04-03T09:23:15Z</time>
      </trkpt>
      <trkpt lat="47.26466" lon="6.04107">
        <ele>347.2</ele>
        <time>2021-04-03T09:23:16Z</time>
      </trkpt>
      <trkpt lat="47.26467" lon="6.04108">
        <ele>347.2</ele>
        <time>2021-04-03T09:23:17Z</time>
      </trkpt>
      <trkpt lat="47.26468" lon="6.04109">
        <ele>347</ele>
        <time>2021-04-03T09:23:18Z</time>
      </trkpt>
      <trkpt lat="47.26475" lon="6.0412">
        <ele>346.4</ele>
        <time>2021-04-03T09:23:24Z</time>
      </trkpt>
      <trkpt lat="47.26488" lon="6.04137">
        <ele>345.6</ele>
        <time>2021-04-03T09:23:32Z</time>
      </trkpt>
      <trkpt lat="47.26489" lon="6.04139">
        <ele>345.4</ele>
        <time>2021-04-03T09:23:33Z</time>
      </trkpt>
      <trkpt lat="47.26492" lon="6.04143">
        <ele>345.4</ele>
        <time>2021-04-03T09:23:35Z</time>
      </trkpt>
      <trkpt lat="47.26499" lon="6.04154">
        <ele>345</ele>
        <time>2021-04-03T09:23:40Z</time>
      </trkpt>
      <trkpt lat="47.26503" lon="6.04162">
        <ele>345</ele>
        <time>2021-04-03T09:23:43Z</time>
      </trkpt>
      <trkpt lat="47.26509" lon="6.04176">
        <ele>345.4</ele>
        <time>2021-04-03T09:23:48Z</time>
      </trkpt>
      <trkpt lat="47.26521" lon="6.04204">
        <ele>345.6</ele>
        <time>2021-04-03T09:23:56Z</time>
      </trkpt>
      <trkpt lat="47.26535" lon="6.0423">
        <ele>346</ele>
        <time>2021-04-03T09:24:04Z</time>
      </trkpt>
      <trkpt lat="47.26536" lon="6.04232">
        <ele>346.2</ele>
        <time>2021-04-03T09:24:05Z</time>
      </trkpt>
      <trkpt lat="47.26538" lon="6.04234">
        <ele>346.2</ele>
        <time>2021-04-03T09:24:06Z</time>
      </trkpt>
      <trkpt lat="47.26539" lon="6.04236">
        <ele>346.2</ele>
        <time>2021-04-03T09:24:07Z</time>
      </trkpt>
      <trkpt lat="47.26541" lon="6.04238">
        <ele>346.2</ele>
        <time>2021-04-03T09:24:08Z</time>
      </trkpt>
      <trkpt lat="47.26544" lon="6.04243">
        <ele>346.4</ele>
        <time>2021-04-03T09:24:10Z</time>
      </trkpt>
      <trkpt lat="47.26546" lon="6.04246">
        <ele>346.4</ele>
        <time>2021-04-03T09:24:11Z</time>
      </trkpt>
      <trkpt lat="47.26562" lon="6.04272">
        <ele>346.6</ele>
        <time>2021-04-03T09:24:19Z</time>
      </trkpt>
      <trkpt lat="47.2658" lon="6.043">
        <ele>346.6</ele>
        <time>2021-04-03T09:24:27Z</time>
      </trkpt>
      <trkpt lat="47.26607" lon="6.0434">
        <ele>346.4</ele>
        <time>2021-04-03T09:24:37Z</time>
      </trkpt>
      <trkpt lat="47.26634" lon="6.04381">
        <ele>346</ele>
        <time>2021-04-03T09:24:47Z</time>
      </trkpt>
      <trkpt lat="47.26637" lon="6.04385">
        <ele>345.8</ele>
        <time>2021-04-03T09:24:48Z</time>
      </trkpt>
      <trkpt lat="47.26639" lon="6.04389">
        <ele>345.8</ele>
        <time>2021-04-03T09:24:49Z</time>
      </trkpt>
      <trkpt lat="47.26641" lon="6.04393">
        <ele>345.8</ele>
        <time>2021-04-03T09:24:50Z</time>
      </trkpt>
      <trkpt lat="47.26643" lon="6.04397">
        <ele>345.8</ele>
        <time>2021-04-03T09:24:51Z</time>
      </trkpt>
      <trkpt lat="47.26645" lon="6.04401">
        <ele>345.8</ele>
        <time>2021-04-03T09:24:52Z</time>
      </trkpt>
      <trkpt lat="47.26651" lon="6.04415">
        <ele>345.8</ele>
        <time>2021-04-03T09:24:55Z</time>
      </trkpt>
      <trkpt lat="47.26652" lon="6.04419">
        <ele>345.8</ele>
        <time>2021-04-03T09:24:56Z</time>
      </trkpt>
      <trkpt lat="47.26667" lon="6.04451">
        <ele>345.6</ele>
        <time>2021-04-03T09:25:03Z</time>
      </trkpt>
      <trkpt lat="47.26672" lon="6.0446">
        <ele>345.4</ele>
        <time>2021-04-03T09:25:05Z</time>
      </trkpt>
      <trkpt lat="47.26686" lon="6.04493">
        <ele>344.6</ele>
        <time>2021-04-03T09:25:12Z</time>
      </trkpt>
      <trkpt lat="47.26692" lon="6.04506">
        <ele>344.2</ele>
        <time>2021-04-03T09:25:15Z</time>
      </trkpt>
      <trkpt lat="47.26694" lon="6.0451">
        <ele>344.2</ele>
        <time>2021-04-03T09:25:16Z</time>
      </trkpt>
      <trkpt lat="47.26696" lon="6.04514">
        <ele>344.2</ele>
        <time>2021-04-03T09:25:17Z</time>
      </trkpt>
      <trkpt lat="47.26699" lon="6.04518">
        <ele>344</ele>
        <time>2021-04-03T09:25:18Z</time>
      </trkpt>
      <trkpt lat="47.26704" lon="6.04526">
        <ele>344</ele>
        <time>2021-04-03T09:25:20Z</time>
      </trkpt>
      <trkpt lat="47.26731" lon="6.04549">
        <ele>343.4</ele>
        <time>2021-04-03T09:25:28Z</time>
      </trkpt>
      <trkpt lat="47.26734" lon="6.04551">
        <ele>343.4</ele>
        <time>2021-04-03T09:25:29Z</time>
      </trkpt>
      <trkpt lat="47.26744" lon="6.04565">
        <ele>343.4</ele>
        <time>2021-04-03T09:25:33Z</time>
      </trkpt>
      <trkpt lat="47.26746" lon="6.04569">
        <ele>343.4</ele>
        <time>2021-04-03T09:25:34Z</time>
      </trkpt>
      <trkpt lat="47.26758" lon="6.04596">
        <ele>343.6</ele>
        <time>2021-04-03T09:25:40Z</time>
      </trkpt>
      <trkpt lat="47.26761" lon="6.04611">
        <ele>343.6</ele>
        <time>2021-04-03T09:25:43Z</time>
      </trkpt>
      <trkpt lat="47.26761" lon="6.04614">
        <ele>343.6</ele>
        <time>2021-04-03T09:25:44Z</time>
      </trkpt>
      <trkpt lat="47.2676" lon="6.04617">
        <ele>343.8</ele>
        <time>2021-04-03T09:25:45Z</time>
      </trkpt>
      <trkpt lat="47.2676" lon="6.0462">
        <ele>344</ele>
        <time>2021-04-03T09:25:46Z</time>
      </trkpt>
      <trkpt lat="47.26759" lon="6.04622">
        <ele>344</ele>
        <time>2021-04-03T09:25:47Z</time>
      </trkpt>
      <trkpt lat="47.26758" lon="6.04624">
        <ele>344.2</ele>
        <time>2021-04-03T09:25:48Z</time>
      </trkpt>
      <trkpt lat="47.26757" lon="6.04626">
        <ele>344.4</ele>
        <time>2021-04-03T09:25:49Z</time>
      </trkpt>
      <trkpt lat="47.26755" lon="6.04628">
        <ele>344.4</ele>
        <time>2021-04-03T09:25:50Z</time>
      </trkpt>
      <trkpt lat="47.26741" lon="6.04638">
        <ele>344.8</ele>
        <time>2021-04-03T09:25:55Z</time>
      </trkpt>
      <trkpt lat="47.26732" lon="6.04645">
        <ele>345</ele>
        <time>2021-04-03T09:25:58Z</time>
      </trkpt>
      <trkpt lat="47.26716" lon="6.04656">
        <ele>345</ele>
        <time>2021-04-03T09:26:03Z</time>
      </trkpt>
      <trkpt lat="47.26707" lon="6.04664">
        <ele>345.4</ele>
        <time>2021-04-03T09:26:06Z</time>
      </trkpt>
      <trkpt lat="47.26699" lon="6.04672">
        <ele>345.6</ele>
        <time>2021-04-03T09:26:09Z</time>
      </trkpt>
      <trkpt lat="47.26696" lon="6.04673">
        <ele>345.6</ele>
        <time>2021-04-03T09:26:10Z</time>
      </trkpt>
      <trkpt lat="47.26694" lon="6.04676">
        <ele>345.6</ele>
        <time>2021-04-03T09:26:11Z</time>
      </trkpt>
      <trkpt lat="47.26692" lon="6.04677">
        <ele>345.6</ele>
        <time>2021-04-03T09:26:12Z</time>
      </trkpt>
      <trkpt lat="47.2669" lon="6.04679">
        <ele>345.6</ele>
        <time>2021-04-03T09:26:13Z</time>
      </trkpt>
      <trkpt lat="47.26688" lon="6.0468">
        <ele>345.6</ele>
        <time>2021-04-03T09:26:14Z</time>
      </trkpt>
      <trkpt lat="47.26687" lon="6.04683">
        <ele>345.6</ele>
        <time>2021-04-03T09:26:15Z</time>
      </trkpt>
      <trkpt lat="47.26686" lon="6.04686">
        <ele>345.6</ele>
        <time>2021-04-03T09:26:16Z</time>
      </trkpt>
      <trkpt lat="47.2669" lon="6.04693">
        <ele>345.4</ele>
        <time>2021-04-03T09:26:18Z</time>
      </trkpt>
      <trkpt lat="47.26705" lon="6.04708">
        <ele>345</ele>
        <time>2021-04-03T09:26:23Z</time>
      </trkpt>
      <trkpt lat="47.26716" lon="6.04717">
        <ele>345</ele>
        <time>2021-04-03T09:26:26Z</time>
      </trkpt>
      <trkpt lat="47.26736" lon="6.04733">
        <ele>344.6</ele>
        <time>2021-04-03T09:26:31Z</time>
      </trkpt>
      <trkpt lat="47.26748" lon="6.04745">
        <ele>344.2</ele>
        <time>2021-04-03T09:26:34Z</time>
      </trkpt>
      <trkpt lat="47.26755" lon="6.04751">
        <ele>344.2</ele>
        <time>2021-04-03T09:26:36Z</time>
      </trkpt>
      <trkpt lat="47.26765" lon="6.04765">
        <ele>344</ele>
        <time>2021-04-03T09:26:39Z</time>
      </trkpt>
      <trkpt lat="47.26793" lon="6.0481">
        <ele>343.4</ele>
        <time>2021-04-03T09:26:48Z</time>
      </trkpt>
      <trkpt lat="47.26795" lon="6.04814">
        <ele>343.2</ele>
        <time>2021-04-03T09:26:49Z</time>
      </trkpt>
      <trkpt lat="47.26797" lon="6.04817">
        <ele>343</ele>
        <time>2021-04-03T09:26:50Z</time>
      </trkpt>
      <trkpt lat="47.26799" lon="6.0482">
        <ele>343</ele>
        <time>2021-04-03T09:26:51Z</time>
      </trkpt>
      <trkpt lat="47.26801" lon="6.04822">
        <ele>343</ele>
        <time>2021-04-03T09:26:52Z</time>
      </trkpt>
      <trkpt lat="47.26802" lon="6.04825">
        <ele>343</ele>
        <time>2021-04-03T09:26:53Z</time>
      </trkpt>
      <trkpt lat="47.26803" lon="6.04827">
        <ele>343</ele>
        <time>2021-04-03T09:26:54Z</time>
      </trkpt>
      <trkpt lat="47.26805" lon="6.04828">
        <ele>343.2</ele>
        <time>2021-04-03T09:26:55Z</time>
      </trkpt>
      <trkpt lat="47.26807" lon="6.04829">
        <ele>343.4</ele>
        <time>2021-04-03T09:26:56Z</time>
      </trkpt>
      <trkpt lat="47.26811" lon="6.04828">
        <ele>343.4</ele>
        <time>2021-04-03T09:26:57Z</time>
      </trkpt>
      <trkpt lat="47.26817" lon="6.04821">
        <ele>343.4</ele>
        <time>2021-04-03T09:26:59Z</time>
      </trkpt>
      <trkpt lat="47.26821" lon="6.04815">
        <ele>343.6</ele>
        <time>2021-04-03T09:27:00Z</time>
      </trkpt>
      <trkpt lat="47.26826" lon="6.0481">
        <ele>343.6</ele>
        <time>2021-04-03T09:27:01Z</time>
      </trkpt>
      <trkpt lat="47.2683" lon="6.04804">
        <ele>343.6</ele>
        <time>2021-04-03T09:27:02Z</time>
      </trkpt>
      <trkpt lat="47.26849" lon="6.04779">
        <ele>342.6</ele>
        <time>2021-04-03T09:27:06Z</time>
      </trkpt>
      <trkpt lat="47.26858" lon="6.04767">
        <ele>342</ele>
        <time>2021-04-03T09:27:08Z</time>
      </trkpt>
      <trkpt lat="47.26867" lon="6.04757">
        <ele>341.6</ele>
        <time>2021-04-03T09:27:10Z</time>
      </trkpt>
      <trkpt lat="47.26872" lon="6.04754">
        <ele>341.2</ele>
        <time>2021-04-03T09:27:12Z</time>
      </trkpt>
      <trkpt lat="47.26881" lon="6.04747">
        <ele>341.2</ele>
        <time>2021-04-03T09:27:13Z</time>
      </trkpt>
      <trkpt lat="47.26886" lon="6.04744">
        <ele>341</ele>
        <time>2021-04-03T09:27:14Z</time>
      </trkpt>
      <trkpt lat="47.2689" lon="6.04741">
        <ele>341</ele>
        <time>2021-04-03T09:27:15Z</time>
      </trkpt>
      <trkpt lat="47.26894" lon="6.04738">
        <ele>341</ele>
        <time>2021-04-03T09:27:16Z</time>
      </trkpt>
      <trkpt lat="47.26897" lon="6.04735">
        <ele>341</ele>
        <time>2021-04-03T09:27:17Z</time>
      </trkpt>
      <trkpt lat="47.26901" lon="6.04733">
        <ele>341</ele>
        <time>2021-04-03T09:27:18Z</time>
      </trkpt>
      <trkpt lat="47.26913" lon="6.04726">
        <ele>341</ele>
        <time>2021-04-03T09:27:21Z</time>
      </trkpt>
      <trkpt lat="47.26916" lon="6.04723">
        <ele>340.8</ele>
        <time>2021-04-03T09:27:22Z</time>
      </trkpt>
      <trkpt lat="47.2692" lon="6.04721">
        <ele>340.8</ele>
        <time>2021-04-03T09:27:23Z</time>
      </trkpt>
      <trkpt lat="47.2696" lon="6.04701">
        <ele>340.4</ele>
        <time>2021-04-03T09:27:32Z</time>
      </trkpt>
      <trkpt lat="47.26983" lon="6.04691">
        <ele>340</ele>
        <time>2021-04-03T09:27:36Z</time>
      </trkpt>
      <trkpt lat="47.26996" lon="6.04685">
        <ele>339.6</ele>
        <time>2021-04-03T09:27:38Z</time>
      </trkpt>
      <trkpt lat="47.27016" lon="6.0467">
        <ele>338.4</ele>
        <time>2021-04-03T09:27:41Z</time>
      </trkpt>
      <trkpt lat="47.27023" lon="6.04663">
        <ele>337.8</ele>
        <time>2021-04-03T09:27:42Z</time>
      </trkpt>
      <trkpt lat="47.2703" lon="6.04656">
        <ele>337.4</ele>
        <time>2021-04-03T09:27:43Z</time>
      </trkpt>
      <trkpt lat="47.27038" lon="6.04646">
        <ele>336.6</ele>
        <time>2021-04-03T09:27:44Z</time>
      </trkpt>
      <trkpt lat="47.27044" lon="6.04638">
        <ele>336</ele>
        <time>2021-04-03T09:27:45Z</time>
      </trkpt>
      <trkpt lat="47.2705" lon="6.04628">
        <ele>335</ele>
        <time>2021-04-03T09:27:46Z</time>
      </trkpt>
      <trkpt lat="47.27062" lon="6.04607">
        <ele>333.6</ele>
        <time>2021-04-03T09:27:48Z</time>
      </trkpt>
      <trkpt lat="47.27075" lon="6.04586">
        <ele>332.6</ele>
        <time>2021-04-03T09:27:50Z</time>
      </trkpt>
      <trkpt lat="47.27088" lon="6.04566">
        <ele>331.6</ele>
        <time>2021-04-03T09:27:52Z</time>
      </trkpt>
      <trkpt lat="47.27094" lon="6.04557">
        <ele>331.2</ele>
        <time>2021-04-03T09:27:53Z</time>
      </trkpt>
      <trkpt lat="47.271" lon="6.04548">
        <ele>330.4</ele>
        <time>2021-04-03T09:27:54Z</time>
      </trkpt>
      <trkpt lat="47.27106" lon="6.0454">
        <ele>329.8</ele>
        <time>2021-04-03T09:27:55Z</time>
      </trkpt>
      <trkpt lat="47.27114" lon="6.04532">
        <ele>329.6</ele>
        <time>2021-04-03T09:27:56Z</time>
      </trkpt>
      <trkpt lat="47.27119" lon="6.04527">
        <ele>329.4</ele>
        <time>2021-04-03T09:27:57Z</time>
      </trkpt>
      <trkpt lat="47.27124" lon="6.04522">
        <ele>329.4</ele>
        <time>2021-04-03T09:27:58Z</time>
      </trkpt>
      <trkpt lat="47.27128" lon="6.04517">
        <ele>329.4</ele>
        <time>2021-04-03T09:27:59Z</time>
      </trkpt>
      <trkpt lat="47.27132" lon="6.04513">
        <ele>329.4</ele>
        <time>2021-04-03T09:28:00Z</time>
      </trkpt>
      <trkpt lat="47.27135" lon="6.0451">
        <ele>329.4</ele>
        <time>2021-04-03T09:28:01Z</time>
      </trkpt>
      <trkpt lat="47.27138" lon="6.04507">
        <ele>329.4</ele>
        <time>2021-04-03T09:28:02Z</time>
      </trkpt>
      <trkpt lat="47.2714" lon="6.04505">
        <ele>329.6</ele>
        <time>2021-04-03T09:28:03Z</time>
      </trkpt>
      <trkpt lat="47.27144" lon="6.04505">
        <ele>329.8</ele>
        <time>2021-04-03T09:28:04Z</time>
      </trkpt>
      <trkpt lat="47.27145" lon="6.04506">
        <ele>330.2</ele>
        <time>2021-04-03T09:28:05Z</time>
      </trkpt>
      <trkpt lat="47.27147" lon="6.04507">
        <ele>330.6</ele>
        <time>2021-04-03T09:28:06Z</time>
      </trkpt>
      <trkpt lat="47.27149" lon="6.04509">
        <ele>330.8</ele>
        <time>2021-04-03T09:28:07Z</time>
      </trkpt>
      <trkpt lat="47.2715" lon="6.04511">
        <ele>331</ele>
        <time>2021-04-03T09:28:08Z</time>
      </trkpt>
      <trkpt lat="47.27151" lon="6.04513">
        <ele>331.2</ele>
        <time>2021-04-03T09:28:09Z</time>
      </trkpt>
      <trkpt lat="47.27155" lon="6.04518">
        <ele>331.4</ele>
        <time>2021-04-03T09:28:11Z</time>
      </trkpt>
      <trkpt lat="47.27156" lon="6.04521">
        <ele>331.6</ele>
        <time>2021-04-03T09:28:12Z</time>
      </trkpt>
      <trkpt lat="47.27159" lon="6.04523">
        <ele>331.6</ele>
        <time>2021-04-03T09:28:13Z</time>
      </trkpt>
      <trkpt lat="47.27161" lon="6.04525">
        <ele>331.6</ele>
        <time>2021-04-03T09:28:14Z</time>
      </trkpt>
      <trkpt lat="47.27162" lon="6.04527">
        <ele>331.8</ele>
        <time>2021-04-03T09:28:15Z</time>
      </trkpt>
      <trkpt lat="47.27164" lon="6.04529">
        <ele>331.8</ele>
        <time>2021-04-03T09:28:16Z</time>
      </trkpt>
      <trkpt lat="47.27171" lon="6.04532">
        <ele>332</ele>
        <time>2021-04-03T09:28:19Z</time>
      </trkpt>
      <trkpt lat="47.27173" lon="6.04529">
        <ele>332</ele>
        <time>2021-04-03T09:28:20Z</time>
      </trkpt>
      <trkpt lat="47.27172" lon="6.04524">
        <ele>332</ele>
        <time>2021-04-03T09:28:22Z</time>
      </trkpt>
      <trkpt lat="47.2717" lon="6.04523">
        <ele>331.8</ele>
        <time>2021-04-03T09:28:23Z</time>
      </trkpt>
      <trkpt lat="47.27168" lon="6.04521">
        <ele>331.8</ele>
        <time>2021-04-03T09:28:24Z</time>
      </trkpt>
      <trkpt lat="47.27168" lon="6.04518">
        <ele>331.8</ele>
        <time>2021-04-03T09:28:25Z</time>
      </trkpt>
      <trkpt lat="47.27168" lon="6.04516">
        <ele>331.8</ele>
        <time>2021-04-03T09:28:26Z</time>
      </trkpt>
      <trkpt lat="47.27168" lon="6.04513">
        <ele>331.8</ele>
        <time>2021-04-03T09:28:27Z</time>
      </trkpt>
      <trkpt lat="47.27168" lon="6.04511">
        <ele>331.8</ele>
        <time>2021-04-03T09:28:28Z</time>
      </trkpt>
      <trkpt lat="47.27167" lon="6.04508">
        <ele>331.8</ele>
        <time>2021-04-03T09:28:29Z</time>
      </trkpt>
      <trkpt lat="47.27166" lon="6.04505">
        <ele>332</ele>
        <time>2021-04-03T09:28:30Z</time>
      </trkpt>
      <trkpt lat="47.27166" lon="6.04502">
        <ele>332</ele>
        <time>2021-04-03T09:28:31Z</time>
      </trkpt>
      <trkpt lat="47.27166" lon="6.04499">
        <ele>332</ele>
        <time>2021-04-03T09:28:32Z</time>
      </trkpt>
      <trkpt lat="47.27166" lon="6.04496">
        <ele>332.2</ele>
        <time>2021-04-03T09:28:33Z</time>
      </trkpt>
      <trkpt lat="47.27167" lon="6.04492">
        <ele>332</ele>
        <time>2021-04-03T09:28:34Z</time>
      </trkpt>
      <trkpt lat="47.27169" lon="6.04473">
        <ele>332.6</ele>
        <time>2021-04-03T09:28:39Z</time>
      </trkpt>
      <trkpt lat="47.2717" lon="6.04466">
        <ele>332.8</ele>
        <time>2021-04-03T09:28:41Z</time>
      </trkpt>
      <trkpt lat="47.27172" lon="6.04454">
        <ele>333.2</ele>
        <time>2021-04-03T09:28:45Z</time>
      </trkpt>
      <trkpt lat="47.27173" lon="6.04451">
        <ele>333.2</ele>
        <time>2021-04-03T09:28:46Z</time>
      </trkpt>
      <trkpt lat="47.27173" lon="6.04447">
        <ele>333.4</ele>
        <time>2021-04-03T09:28:47Z</time>
      </trkpt>
      <trkpt lat="47.27175" lon="6.04443">
        <ele>333.4</ele>
        <time>2021-04-03T09:28:48Z</time>
      </trkpt>
      <trkpt lat="47.27176" lon="6.0444">
        <ele>333.8</ele>
        <time>2021-04-03T09:28:49Z</time>
      </trkpt>
      <trkpt lat="47.27178" lon="6.04437">
        <ele>334</ele>
        <time>2021-04-03T09:28:50Z</time>
      </trkpt>
      <trkpt lat="47.2718" lon="6.04435">
        <ele>334.4</ele>
        <time>2021-04-03T09:28:51Z</time>
      </trkpt>
      <trkpt lat="47.27181" lon="6.04432">
        <ele>334.6</ele>
        <time>2021-04-03T09:28:52Z</time>
      </trkpt>
      <trkpt lat="47.27182" lon="6.0443">
        <ele>334.8</ele>
        <time>2021-04-03T09:28:53Z</time>
      </trkpt>
      <trkpt lat="47.27183" lon="6.04427">
        <ele>334.8</ele>
        <time>2021-04-03T09:28:54Z</time>
      </trkpt>
      <trkpt lat="47.27184" lon="6.04423">
        <ele>335</ele>
        <time>2021-04-03T09:28:55Z</time>
      </trkpt>
      <trkpt lat="47.27184" lon="6.0442">
        <ele>335</ele>
        <time>2021-04-03T09:28:56Z</time>
      </trkpt>
      <trkpt lat="47.27185" lon="6.04417">
        <ele>335</ele>
        <time>2021-04-03T09:28:57Z</time>
      </trkpt>
      <trkpt lat="47.27186" lon="6.04414">
        <ele>335.2</ele>
        <time>2021-04-03T09:28:58Z</time>
      </trkpt>
      <trkpt lat="47.27186" lon="6.04411">
        <ele>335.2</ele>
        <time>2021-04-03T09:28:59Z</time>
      </trkpt>
      <trkpt lat="47.27187" lon="6.04409">
        <ele>335.2</ele>
        <time>2021-04-03T09:29:00Z</time>
      </trkpt>
      <trkpt lat="47.27188" lon="6.04407">
        <ele>335.4</ele>
        <time>2021-04-03T09:29:01Z</time>
      </trkpt>
      <trkpt lat="47.2719" lon="6.04404">
        <ele>335.4</ele>
        <time>2021-04-03T09:29:02Z</time>
      </trkpt>
      <trkpt lat="47.27191" lon="6.04401">
        <ele>335.6</ele>
        <time>2021-04-03T09:29:03Z</time>
      </trkpt>
      <trkpt lat="47.27192" lon="6.04399">
        <ele>335.8</ele>
        <time>2021-04-03T09:29:04Z</time>
      </trkpt>
      <trkpt lat="47.27193" lon="6.04396">
        <ele>335.8</ele>
        <time>2021-04-03T09:29:05Z</time>
      </trkpt>
      <trkpt lat="47.27194" lon="6.04394">
        <ele>336.2</ele>
        <time>2021-04-03T09:29:06Z</time>
      </trkpt>
      <trkpt lat="47.27194" lon="6.04392">
        <ele>336.4</ele>
        <time>2021-04-03T09:29:07Z</time>
      </trkpt>
      <trkpt lat="47.27195" lon="6.0439">
        <ele>336.4</ele>
        <time>2021-04-03T09:29:08Z</time>
      </trkpt>
      <trkpt lat="47.27196" lon="6.04388">
        <ele>336.6</ele>
        <time>2021-04-03T09:29:09Z</time>
      </trkpt>
      <trkpt lat="47.27198" lon="6.04385">
        <ele>337</ele>
        <time>2021-04-03T09:29:10Z</time>
      </trkpt>
      <trkpt lat="47.27198" lon="6.04385">
        <ele>337.6</ele>
        <time>2021-04-03T09:29:11Z</time>
      </trkpt>
      <trkpt lat="47.27202" lon="6.04379">
        <ele>337.6</ele>
        <time>2021-04-03T09:29:12Z</time>
      </trkpt>
      <trkpt lat="47.27203" lon="6.04377">
        <ele>338</ele>
        <time>2021-04-03T09:29:13Z</time>
      </trkpt>
      <trkpt lat="47.27205" lon="6.04375">
        <ele>338.2</ele>
        <time>2021-04-03T09:29:14Z</time>
      </trkpt>
      <trkpt lat="47.27206" lon="6.04371">
        <ele>338.4</ele>
        <time>2021-04-03T09:29:15Z</time>
      </trkpt>
      <trkpt lat="47.27207" lon="6.04367">
        <ele>338.6</ele>
        <time>2021-04-03T09:29:16Z</time>
      </trkpt>
      <trkpt lat="47.27207" lon="6.04363">
        <ele>338.8</ele>
        <time>2021-04-03T09:29:17Z</time>
      </trkpt>
      <trkpt lat="47.27208" lon="6.0436">
        <ele>338.8</ele>
        <time>2021-04-03T09:29:18Z</time>
      </trkpt>
      <trkpt lat="47.27209" lon="6.04357">
        <ele>339</ele>
        <time>2021-04-03T09:29:19Z</time>
      </trkpt>
      <trkpt lat="47.27209" lon="6.04354">
        <ele>339.2</ele>
        <time>2021-04-03T09:29:20Z</time>
      </trkpt>
      <trkpt lat="47.2721" lon="6.04352">
        <ele>339.4</ele>
        <time>2021-04-03T09:29:21Z</time>
      </trkpt>
      <trkpt lat="47.27212" lon="6.04349">
        <ele>339.6</ele>
        <time>2021-04-03T09:29:22Z</time>
      </trkpt>
      <trkpt lat="47.27214" lon="6.04346">
        <ele>339.6</ele>
        <time>2021-04-03T09:29:23Z</time>
      </trkpt>
      <trkpt lat="47.27216" lon="6.04342">
        <ele>339.6</ele>
        <time>2021-04-03T09:29:24Z</time>
      </trkpt>
      <trkpt lat="47.27218" lon="6.04338">
        <ele>339.6</ele>
        <time>2021-04-03T09:29:25Z</time>
      </trkpt>
      <trkpt lat="47.2722" lon="6.04335">
        <ele>339.6</ele>
        <time>2021-04-03T09:29:26Z</time>
      </trkpt>
      <trkpt lat="47.2722" lon="6.04333">
        <ele>339.6</ele>
        <time>2021-04-03T09:29:27Z</time>
      </trkpt>
      <trkpt lat="47.27222" lon="6.04328">
        <ele>339.6</ele>
        <time>2021-04-03T09:29:28Z</time>
      </trkpt>
      <trkpt lat="47.27225" lon="6.04323">
        <ele>339.6</ele>
        <time>2021-04-03T09:29:29Z</time>
      </trkpt>
      <trkpt lat="47.27226" lon="6.04319">
        <ele>339.6</ele>
        <time>2021-04-03T09:29:30Z</time>
      </trkpt>
      <trkpt lat="47.27228" lon="6.04315">
        <ele>339.6</ele>
        <time>2021-04-03T09:29:31Z</time>
      </trkpt>
      <trkpt lat="47.27229" lon="6.04311">
        <ele>339.6</ele>
        <time>2021-04-03T09:29:32Z</time>
      </trkpt>
      <trkpt lat="47.27231" lon="6.04308">
        <ele>339.6</ele>
        <time>2021-04-03T09:29:33Z</time>
      </trkpt>
      <trkpt lat="47.27233" lon="6.04307">
        <ele>339.6</ele>
        <time>2021-04-03T09:29:34Z</time>
      </trkpt>
      <trkpt lat="47.27235" lon="6.04304">
        <ele>339.8</ele>
        <time>2021-04-03T09:29:35Z</time>
      </trkpt>
      <trkpt lat="47.27237" lon="6.04303">
        <ele>339.8</ele>
        <time>2021-04-03T09:29:36Z</time>
      </trkpt>
      <trkpt lat="47.27239" lon="6.04301">
        <ele>340</ele>
        <time>2021-04-03T09:29:37Z</time>
      </trkpt>
      <trkpt lat="47.2724" lon="6.04298">
        <ele>340.2</ele>
        <time>2021-04-03T09:29:38Z</time>
      </trkpt>
      <trkpt lat="47.27243" lon="6.04293">
        <ele>340.4</ele>
        <time>2021-04-03T09:29:40Z</time>
      </trkpt>
      <trkpt lat="47.27244" lon="6.0429">
        <ele>340.6</ele>
        <time>2021-04-03T09:29:41Z</time>
      </trkpt>
      <trkpt lat="47.27246" lon="6.04285">
        <ele>341</ele>
        <time>2021-04-03T09:29:43Z</time>
      </trkpt>
      <trkpt lat="47.27246" lon="6.04282">
        <ele>341</ele>
        <time>2021-04-03T09:29:44Z</time>
      </trkpt>
      <trkpt lat="47.27247" lon="6.04277">
        <ele>341.2</ele>
        <time>2021-04-03T09:29:46Z</time>
      </trkpt>
      <trkpt lat="47.27248" lon="6.0427">
        <ele>341.6</ele>
        <time>2021-04-03T09:29:49Z</time>
      </trkpt>
      <trkpt lat="47.27249" lon="6.04269">
        <ele>341.6</ele>
        <time>2021-04-03T09:29:50Z</time>
      </trkpt>
      <trkpt lat="47.2725" lon="6.04266">
        <ele>341.8</ele>
        <time>2021-04-03T09:29:51Z</time>
      </trkpt>
      <trkpt lat="47.27251" lon="6.04263">
        <ele>341.8</ele>
        <time>2021-04-03T09:29:52Z</time>
      </trkpt>
      <trkpt lat="47.27251" lon="6.0426">
        <ele>342</ele>
        <time>2021-04-03T09:29:53Z</time>
      </trkpt>
      <trkpt lat="47.27252" lon="6.04258">
        <ele>342</ele>
        <time>2021-04-03T09:29:54Z</time>
      </trkpt>
      <trkpt lat="47.27253" lon="6.04255">
        <ele>342</ele>
        <time>2021-04-03T09:29:55Z</time>
      </trkpt>
      <trkpt lat="47.27254" lon="6.04252">
        <ele>342.2</ele>
        <time>2021-04-03T09:29:56Z</time>
      </trkpt>
      <trkpt lat="47.27255" lon="6.04248">
        <ele>342.2</ele>
        <time>2021-04-03T09:29:57Z</time>
      </trkpt>
      <trkpt lat="47.27256" lon="6.04246">
        <ele>342.4</ele>
        <time>2021-04-03T09:29:58Z</time>
      </trkpt>
      <trkpt lat="47.27257" lon="6.04242">
        <ele>342.4</ele>
        <time>2021-04-03T09:29:59Z</time>
      </trkpt>
      <trkpt lat="47.27258" lon="6.04238">
        <ele>342.6</ele>
        <time>2021-04-03T09:30:00Z</time>
      </trkpt>
      <trkpt lat="47.27259" lon="6.04235">
        <ele>342.8</ele>
        <time>2021-04-03T09:30:01Z</time>
      </trkpt>
      <trkpt lat="47.27261" lon="6.04232">
        <ele>342.8</ele>
        <time>2021-04-03T09:30:02Z</time>
      </trkpt>
      <trkpt lat="47.27262" lon="6.04229">
        <ele>343</ele>
        <time>2021-04-03T09:30:03Z</time>
      </trkpt>
      <trkpt lat="47.27265" lon="6.04226">
        <ele>343.2</ele>
        <time>2021-04-03T09:30:04Z</time>
      </trkpt>
      <trkpt lat="47.27267" lon="6.04223">
        <ele>343.4</ele>
        <time>2021-04-03T09:30:05Z</time>
      </trkpt>
      <trkpt lat="47.27268" lon="6.0422">
        <ele>343.4</ele>
        <time>2021-04-03T09:30:06Z</time>
      </trkpt>
      <trkpt lat="47.2727" lon="6.04217">
        <ele>343.6</ele>
        <time>2021-04-03T09:30:07Z</time>
      </trkpt>
      <trkpt lat="47.27271" lon="6.04214">
        <ele>343.8</ele>
        <time>2021-04-03T09:30:08Z</time>
      </trkpt>
      <trkpt lat="47.27273" lon="6.0421">
        <ele>344</ele>
        <time>2021-04-03T09:30:09Z</time>
      </trkpt>
      <trkpt lat="47.27274" lon="6.04208">
        <ele>344</ele>
        <time>2021-04-03T09:30:10Z</time>
      </trkpt>
      <trkpt lat="47.27276" lon="6.04204">
        <ele>344</ele>
        <time>2021-04-03T09:30:11Z</time>
      </trkpt>
      <trkpt lat="47.27278" lon="6.04202">
        <ele>344.2</ele>
        <time>2021-04-03T09:30:12Z</time>
      </trkpt>
      <trkpt lat="47.27281" lon="6.04198">
        <ele>344.2</ele>
        <time>2021-04-03T09:30:13Z</time>
      </trkpt>
      <trkpt lat="47.27283" lon="6.04195">
        <ele>344.4</ele>
        <time>2021-04-03T09:30:14Z</time>
      </trkpt>
      <trkpt lat="47.27284" lon="6.04192">
        <ele>344.4</ele>
        <time>2021-04-03T09:30:15Z</time>
      </trkpt>
      <trkpt lat="47.27284" lon="6.04188">
        <ele>344.6</ele>
        <time>2021-04-03T09:30:16Z</time>
      </trkpt>
      <trkpt lat="47.27286" lon="6.04184">
        <ele>344.8</ele>
        <time>2021-04-03T09:30:17Z</time>
      </trkpt>
      <trkpt lat="47.27286" lon="6.0418">
        <ele>344.8</ele>
        <time>2021-04-03T09:30:18Z</time>
      </trkpt>
      <trkpt lat="47.27287" lon="6.04175">
        <ele>344.8</ele>
        <time>2021-04-03T09:30:19Z</time>
      </trkpt>
      <trkpt lat="47.27289" lon="6.0417">
        <ele>345</ele>
        <time>2021-04-03T09:30:20Z</time>
      </trkpt>
      <trkpt lat="47.2729" lon="6.04167">
        <ele>345</ele>
        <time>2021-04-03T09:30:21Z</time>
      </trkpt>
      <trkpt lat="47.27291" lon="6.04165">
        <ele>345.2</ele>
        <time>2021-04-03T09:30:22Z</time>
      </trkpt>
      <trkpt lat="47.27292" lon="6.04163">
        <ele>345.2</ele>
        <time>2021-04-03T09:30:23Z</time>
      </trkpt>
      <trkpt lat="47.27294" lon="6.04161">
        <ele>345.4</ele>
        <time>2021-04-03T09:30:24Z</time>
      </trkpt>
      <trkpt lat="47.27295" lon="6.04158">
        <ele>345.4</ele>
        <time>2021-04-03T09:30:25Z</time>
      </trkpt>
      <trkpt lat="47.27297" lon="6.04155">
        <ele>345.6</ele>
        <time>2021-04-03T09:30:26Z</time>
      </trkpt>
      <trkpt lat="47.27299" lon="6.04153">
        <ele>345.8</ele>
        <time>2021-04-03T09:30:27Z</time>
      </trkpt>
      <trkpt lat="47.27301" lon="6.04151">
        <ele>345.8</ele>
        <time>2021-04-03T09:30:28Z</time>
      </trkpt>
      <trkpt lat="47.27303" lon="6.04148">
        <ele>346</ele>
        <time>2021-04-03T09:30:29Z</time>
      </trkpt>
      <trkpt lat="47.27305" lon="6.04146">
        <ele>346</ele>
        <time>2021-04-03T09:30:30Z</time>
      </trkpt>
      <trkpt lat="47.27307" lon="6.04144">
        <ele>346.2</ele>
        <time>2021-04-03T09:30:31Z</time>
      </trkpt>
      <trkpt lat="47.27309" lon="6.04141">
        <ele>346.2</ele>
        <time>2021-04-03T09:30:32Z</time>
      </trkpt>
      <trkpt lat="47.2731" lon="6.04139">
        <ele>346.2</ele>
        <time>2021-04-03T09:30:33Z</time>
      </trkpt>
      <trkpt lat="47.27311" lon="6.04137">
        <ele>346.4</ele>
        <time>2021-04-03T09:30:34Z</time>
      </trkpt>
      <trkpt lat="47.27312" lon="6.04134">
        <ele>346.4</ele>
        <time>2021-04-03T09:30:35Z</time>
      </trkpt>
      <trkpt lat="47.27313" lon="6.04131">
        <ele>346.8</ele>
        <time>2021-04-03T09:30:36Z</time>
      </trkpt>
      <trkpt lat="47.27314" lon="6.04128">
        <ele>347</ele>
        <time>2021-04-03T09:30:37Z</time>
      </trkpt>
      <trkpt lat="47.27315" lon="6.04126">
        <ele>347.2</ele>
        <time>2021-04-03T09:30:38Z</time>
      </trkpt>
      <trkpt lat="47.27317" lon="6.04125">
        <ele>347.4</ele>
        <time>2021-04-03T09:30:39Z</time>
      </trkpt>
      <trkpt lat="47.27318" lon="6.04123">
        <ele>347.6</ele>
        <time>2021-04-03T09:30:40Z</time>
      </trkpt>
      <trkpt lat="47.27319" lon="6.04121">
        <ele>347.8</ele>
        <time>2021-04-03T09:30:41Z</time>
      </trkpt>
      <trkpt lat="47.2732" lon="6.04118">
        <ele>347.8</ele>
        <time>2021-04-03T09:30:42Z</time>
      </trkpt>
      <trkpt lat="47.27322" lon="6.04115">
        <ele>347.8</ele>
        <time>2021-04-03T09:30:43Z</time>
      </trkpt>
      <trkpt lat="47.27323" lon="6.04113">
        <ele>348</ele>
        <time>2021-04-03T09:30:44Z</time>
      </trkpt>
      <trkpt lat="47.27324" lon="6.0411">
        <ele>348.2</ele>
        <time>2021-04-03T09:30:45Z</time>
      </trkpt>
      <trkpt lat="47.27326" lon="6.04108">
        <ele>348.4</ele>
        <time>2021-04-03T09:30:46Z</time>
      </trkpt>
      <trkpt lat="47.27328" lon="6.04106">
        <ele>348.8</ele>
        <time>2021-04-03T09:30:47Z</time>
      </trkpt>
      <trkpt lat="47.2733" lon="6.04103">
        <ele>348.8</ele>
        <time>2021-04-03T09:30:48Z</time>
      </trkpt>
      <trkpt lat="47.27331" lon="6.041">
        <ele>348.8</ele>
        <time>2021-04-03T09:30:49Z</time>
      </trkpt>
      <trkpt lat="47.27333" lon="6.04097">
        <ele>349</ele>
        <time>2021-04-03T09:30:50Z</time>
      </trkpt>
      <trkpt lat="47.27334" lon="6.04094">
        <ele>349</ele>
        <time>2021-04-03T09:30:51Z</time>
      </trkpt>
      <trkpt lat="47.27336" lon="6.04092">
        <ele>349.2</ele>
        <time>2021-04-03T09:30:52Z</time>
      </trkpt>
      <trkpt lat="47.27336" lon="6.04092">
        <ele>349.2</ele>
        <time>2021-04-03T09:30:53Z</time>
      </trkpt>
      <trkpt lat="47.27339" lon="6.04086">
        <ele>349.2</ele>
        <time>2021-04-03T09:30:54Z</time>
      </trkpt>
      <trkpt lat="47.2734" lon="6.04084">
        <ele>349.4</ele>
        <time>2021-04-03T09:30:55Z</time>
      </trkpt>
      <trkpt lat="47.27341" lon="6.04081">
        <ele>349.4</ele>
        <time>2021-04-03T09:30:56Z</time>
      </trkpt>
      <trkpt lat="47.27342" lon="6.04078">
        <ele>349.4</ele>
        <time>2021-04-03T09:30:57Z</time>
      </trkpt>
      <trkpt lat="47.27343" lon="6.04075">
        <ele>349.4</ele>
        <time>2021-04-03T09:30:58Z</time>
      </trkpt>
      <trkpt lat="47.27345" lon="6.04073">
        <ele>349.4</ele>
        <time>2021-04-03T09:30:59Z</time>
      </trkpt>
      <trkpt lat="47.27346" lon="6.0407">
        <ele>349.6</ele>
        <time>2021-04-03T09:31:00Z</time>
      </trkpt>
      <trkpt lat="47.27347" lon="6.04068">
        <ele>349.6</ele>
        <time>2021-04-03T09:31:01Z</time>
      </trkpt>
      <trkpt lat="47.27349" lon="6.04065">
        <ele>349.6</ele>
        <time>2021-04-03T09:31:02Z</time>
      </trkpt>
      <trkpt lat="47.2735" lon="6.04063">
        <ele>349.6</ele>
        <time>2021-04-03T09:31:03Z</time>
      </trkpt>
      <trkpt lat="47.27352" lon="6.04059">
        <ele>349.6</ele>
        <time>2021-04-03T09:31:04Z</time>
      </trkpt>
      <trkpt lat="47.27355" lon="6.04055">
        <ele>349.6</ele>
        <time>2021-04-03T09:31:05Z</time>
      </trkpt>
      <trkpt lat="47.27357" lon="6.04051">
        <ele>349.8</ele>
        <time>2021-04-03T09:31:06Z</time>
      </trkpt>
      <trkpt lat="47.27358" lon="6.04046">
        <ele>349.8</ele>
        <time>2021-04-03T09:31:07Z</time>
      </trkpt>
      <trkpt lat="47.27359" lon="6.04042">
        <ele>349.8</ele>
        <time>2021-04-03T09:31:08Z</time>
      </trkpt>
      <trkpt lat="47.27369" lon="6.04013">
        <ele>349.8</ele>
        <time>2021-04-03T09:31:15Z</time>
      </trkpt>
      <trkpt lat="47.27374" lon="6.03998">
        <ele>349.6</ele>
        <time>2021-04-03T09:31:19Z</time>
      </trkpt>
      <trkpt lat="47.27375" lon="6.03995">
        <ele>349.6</ele>
        <time>2021-04-03T09:31:20Z</time>
      </trkpt>
      <trkpt lat="47.27377" lon="6.03991">
        <ele>349.6</ele>
        <time>2021-04-03T09:31:21Z</time>
      </trkpt>
      <trkpt lat="47.27379" lon="6.03987">
        <ele>349.6</ele>
        <time>2021-04-03T09:31:22Z</time>
      </trkpt>
      <trkpt lat="47.27381" lon="6.03983">
        <ele>349.8</ele>
        <time>2021-04-03T09:31:23Z</time>
      </trkpt>
      <trkpt lat="47.27383" lon="6.0398">
        <ele>349.8</ele>
        <time>2021-04-03T09:31:24Z</time>
      </trkpt>
      <trkpt lat="47.27387" lon="6.03975">
        <ele>350</ele>
        <time>2021-04-03T09:31:26Z</time>
      </trkpt>
      <trkpt lat="47.27389" lon="6.03973">
        <ele>350</ele>
        <time>2021-04-03T09:31:27Z</time>
      </trkpt>
      <trkpt lat="47.2739" lon="6.0397">
        <ele>350</ele>
        <time>2021-04-03T09:31:28Z</time>
      </trkpt>
      <trkpt lat="47.27391" lon="6.03967">
        <ele>350</ele>
        <time>2021-04-03T09:31:29Z</time>
      </trkpt>
      <trkpt lat="47.27392" lon="6.03964">
        <ele>350.2</ele>
        <time>2021-04-03T09:31:30Z</time>
      </trkpt>
      <trkpt lat="47.27395" lon="6.0396">
        <ele>350.8</ele>
        <time>2021-04-03T09:31:32Z</time>
      </trkpt>
      <trkpt lat="47.27397" lon="6.03957">
        <ele>351.2</ele>
        <time>2021-04-03T09:31:33Z</time>
      </trkpt>
      <trkpt lat="47.27399" lon="6.03956">
        <ele>351.4</ele>
        <time>2021-04-03T09:31:34Z</time>
      </trkpt>
      <trkpt lat="47.274" lon="6.03954">
        <ele>351.6</ele>
        <time>2021-04-03T09:31:35Z</time>
      </trkpt>
      <trkpt lat="47.27401" lon="6.03952">
        <ele>351.8</ele>
        <time>2021-04-03T09:31:36Z</time>
      </trkpt>
      <trkpt lat="47.27403" lon="6.0395">
        <ele>351.8</ele>
        <time>2021-04-03T09:31:37Z</time>
      </trkpt>
      <trkpt lat="47.27405" lon="6.03947">
        <ele>352</ele>
        <time>2021-04-03T09:31:38Z</time>
      </trkpt>
      <trkpt lat="47.27407" lon="6.03945">
        <ele>352.4</ele>
        <time>2021-04-03T09:31:39Z</time>
      </trkpt>
      <trkpt lat="47.27407" lon="6.03942">
        <ele>352.6</ele>
        <time>2021-04-03T09:31:40Z</time>
      </trkpt>
      <trkpt lat="47.27408" lon="6.03939">
        <ele>353.2</ele>
        <time>2021-04-03T09:31:41Z</time>
      </trkpt>
      <trkpt lat="47.2741" lon="6.03935">
        <ele>353.4</ele>
        <time>2021-04-03T09:31:42Z</time>
      </trkpt>
      <trkpt lat="47.2741" lon="6.03931">
        <ele>353.8</ele>
        <time>2021-04-03T09:31:43Z</time>
      </trkpt>
      <trkpt lat="47.2741" lon="6.03927">
        <ele>354.4</ele>
        <time>2021-04-03T09:31:44Z</time>
      </trkpt>
      <trkpt lat="47.27411" lon="6.03924">
        <ele>354.6</ele>
        <time>2021-04-03T09:31:45Z</time>
      </trkpt>
      <trkpt lat="47.27412" lon="6.03922">
        <ele>355</ele>
        <time>2021-04-03T09:31:46Z</time>
      </trkpt>
      <trkpt lat="47.27413" lon="6.03919">
        <ele>355.2</ele>
        <time>2021-04-03T09:31:47Z</time>
      </trkpt>
      <trkpt lat="47.27416" lon="6.03915">
        <ele>355.4</ele>
        <time>2021-04-03T09:31:48Z</time>
      </trkpt>
      <trkpt lat="47.27418" lon="6.03914">
        <ele>355.6</ele>
        <time>2021-04-03T09:31:49Z</time>
      </trkpt>
      <trkpt lat="47.27419" lon="6.03911">
        <ele>355.8</ele>
        <time>2021-04-03T09:31:50Z</time>
      </trkpt>
      <trkpt lat="47.27419" lon="6.0391">
        <ele>355.8</ele>
        <time>2021-04-03T09:31:51Z</time>
      </trkpt>
      <trkpt lat="47.27422" lon="6.03908">
        <ele>356</ele>
        <time>2021-04-03T09:31:52Z</time>
      </trkpt>
      <trkpt lat="47.27424" lon="6.03906">
        <ele>356.2</ele>
        <time>2021-04-03T09:31:53Z</time>
      </trkpt>
      <trkpt lat="47.27425" lon="6.03905">
        <ele>356.6</ele>
        <time>2021-04-03T09:31:54Z</time>
      </trkpt>
      <trkpt lat="47.27426" lon="6.03903">
        <ele>356.6</ele>
        <time>2021-04-03T09:31:55Z</time>
      </trkpt>
      <trkpt lat="47.27428" lon="6.03902">
        <ele>357</ele>
        <time>2021-04-03T09:31:56Z</time>
      </trkpt>
      <trkpt lat="47.27429" lon="6.039">
        <ele>357.4</ele>
        <time>2021-04-03T09:31:57Z</time>
      </trkpt>
      <trkpt lat="47.27429" lon="6.039">
        <ele>357.6</ele>
        <time>2021-04-03T09:31:58Z</time>
      </trkpt>
      <trkpt lat="47.27431" lon="6.03897">
        <ele>357.8</ele>
        <time>2021-04-03T09:31:59Z</time>
      </trkpt>
      <trkpt lat="47.27432" lon="6.03896">
        <ele>357.8</ele>
        <time>2021-04-03T09:32:00Z</time>
      </trkpt>
      <trkpt lat="47.27433" lon="6.03893">
        <ele>358</ele>
        <time>2021-04-03T09:32:01Z</time>
      </trkpt>
      <trkpt lat="47.27434" lon="6.03892">
        <ele>358.2</ele>
        <time>2021-04-03T09:32:02Z</time>
      </trkpt>
      <trkpt lat="47.27435" lon="6.0389">
        <ele>358.4</ele>
        <time>2021-04-03T09:32:03Z</time>
      </trkpt>
      <trkpt lat="47.27436" lon="6.03888">
        <ele>358.6</ele>
        <time>2021-04-03T09:32:04Z</time>
      </trkpt>
      <trkpt lat="47.27437" lon="6.03886">
        <ele>358.8</ele>
        <time>2021-04-03T09:32:05Z</time>
      </trkpt>
      <trkpt lat="47.27438" lon="6.03885">
        <ele>359</ele>
        <time>2021-04-03T09:32:06Z</time>
      </trkpt>
      <trkpt lat="47.27439" lon="6.03883">
        <ele>359.2</ele>
        <time>2021-04-03T09:32:07Z</time>
      </trkpt>
      <trkpt lat="47.27439" lon="6.03882">
        <ele>359.6</ele>
        <time>2021-04-03T09:32:08Z</time>
      </trkpt>
      <trkpt lat="47.2744" lon="6.0388">
        <ele>359.8</ele>
        <time>2021-04-03T09:32:09Z</time>
      </trkpt>
      <trkpt lat="47.27441" lon="6.03878">
        <ele>360</ele>
        <time>2021-04-03T09:32:10Z</time>
      </trkpt>
      <trkpt lat="47.27442" lon="6.03877">
        <ele>360.2</ele>
        <time>2021-04-03T09:32:11Z</time>
      </trkpt>
      <trkpt lat="47.27443" lon="6.03876">
        <ele>360.4</ele>
        <time>2021-04-03T09:32:12Z</time>
      </trkpt>
      <trkpt lat="47.27444" lon="6.03875">
        <ele>360.6</ele>
        <time>2021-04-03T09:32:13Z</time>
      </trkpt>
      <trkpt lat="47.27445" lon="6.03874">
        <ele>360.8</ele>
        <time>2021-04-03T09:32:14Z</time>
      </trkpt>
      <trkpt lat="47.27447" lon="6.03875">
        <ele>360.8</ele>
        <time>2021-04-03T09:32:15Z</time>
      </trkpt>
      <trkpt lat="47.27448" lon="6.03876">
        <ele>361</ele>
        <time>2021-04-03T09:32:16Z</time>
      </trkpt>
      <trkpt lat="47.27449" lon="6.03877">
        <ele>361</ele>
        <time>2021-04-03T09:32:17Z</time>
      </trkpt>
      <trkpt lat="47.2745" lon="6.03878">
        <ele>361.2</ele>
        <time>2021-04-03T09:32:18Z</time>
      </trkpt>
      <trkpt lat="47.2745" lon="6.03878">
        <ele>361.2</ele>
        <time>2021-04-03T09:32:19Z</time>
      </trkpt>
      <trkpt lat="47.27451" lon="6.0388">
        <ele>361.4</ele>
        <time>2021-04-03T09:32:20Z</time>
      </trkpt>
      <trkpt lat="47.27452" lon="6.0388">
        <ele>361.4</ele>
        <time>2021-04-03T09:32:21Z</time>
      </trkpt>
      <trkpt lat="47.27452" lon="6.0388">
        <ele>361.4</ele>
        <time>2021-04-03T09:32:22Z</time>
      </trkpt>
      <trkpt lat="47.27452" lon="6.0388">
        <ele>361.6</ele>
        <time>2021-04-03T09:32:23Z</time>
      </trkpt>
      <trkpt lat="47.27453" lon="6.0388">
        <ele>361.6</ele>
        <time>2021-04-03T09:32:24Z</time>
      </trkpt>
      <trkpt lat="47.27453" lon="6.0388">
        <ele>361.8</ele>
        <time>2021-04-03T09:32:35Z</time>
      </trkpt>
      <trkpt lat="47.27453" lon="6.0388">
        <ele>361.8</ele>
        <time>2021-04-03T09:32:49Z</time>
      </trkpt>
      <trkpt lat="47.27453" lon="6.0388">
        <ele>361.8</ele>
        <time>2021-04-03T09:33:44Z</time>
      </trkpt>
      <trkpt lat="47.27455" lon="6.03882">
        <ele>361.8</ele>
        <time>2021-04-03T09:33:45Z</time>
      </trkpt>
      <trkpt lat="47.27459" lon="6.03885">
        <ele>362</ele>
        <time>2021-04-03T09:33:47Z</time>
      </trkpt>
      <trkpt lat="47.27462" lon="6.03888">
        <ele>362</ele>
        <time>2021-04-03T09:33:49Z</time>
      </trkpt>
      <trkpt lat="47.27464" lon="6.03889">
        <ele>362</ele>
        <time>2021-04-03T09:33:50Z</time>
      </trkpt>
      <trkpt lat="47.27465" lon="6.0389">
        <ele>362</ele>
        <time>2021-04-03T09:33:51Z</time>
      </trkpt>
      <trkpt lat="47.27467" lon="6.03891">
        <ele>362</ele>
        <time>2021-04-03T09:33:52Z</time>
      </trkpt>
      <trkpt lat="47.27469" lon="6.03893">
        <ele>362</ele>
        <time>2021-04-03T09:33:53Z</time>
      </trkpt>
      <trkpt lat="47.27478" lon="6.03899">
        <ele>362</ele>
        <time>2021-04-03T09:33:58Z</time>
      </trkpt>
      <trkpt lat="47.2748" lon="6.039">
        <ele>362</ele>
        <time>2021-04-03T09:33:59Z</time>
      </trkpt>
      <trkpt lat="47.27484" lon="6.039">
        <ele>362.2</ele>
        <time>2021-04-03T09:34:00Z</time>
      </trkpt>
      <trkpt lat="47.27487" lon="6.039">
        <ele>362.2</ele>
        <time>2021-04-03T09:34:01Z</time>
      </trkpt>
      <trkpt lat="47.275" lon="6.03902">
        <ele>362.6</ele>
        <time>2021-04-03T09:34:06Z</time>
      </trkpt>
      <trkpt lat="47.27504" lon="6.03902">
        <ele>362.6</ele>
        <time>2021-04-03T09:34:07Z</time>
      </trkpt>
      <trkpt lat="47.27507" lon="6.03903">
        <ele>362.8</ele>
        <time>2021-04-03T09:34:08Z</time>
      </trkpt>
      <trkpt lat="47.27509" lon="6.03904">
        <ele>362.8</ele>
        <time>2021-04-03T09:34:09Z</time>
      </trkpt>
      <trkpt lat="47.27515" lon="6.03905">
        <ele>362.8</ele>
        <time>2021-04-03T09:34:11Z</time>
      </trkpt>
      <trkpt lat="47.27518" lon="6.03908">
        <ele>362.8</ele>
        <time>2021-04-03T09:34:12Z</time>
      </trkpt>
      <trkpt lat="47.27522" lon="6.03912">
        <ele>362.8</ele>
        <time>2021-04-03T09:34:14Z</time>
      </trkpt>
      <trkpt lat="47.27524" lon="6.03913">
        <ele>363</ele>
        <time>2021-04-03T09:34:15Z</time>
      </trkpt>
      <trkpt lat="47.27529" lon="6.03917">
        <ele>363</ele>
        <time>2021-04-03T09:34:18Z</time>
      </trkpt>
      <trkpt lat="47.27537" lon="6.03922">
        <ele>363</ele>
        <time>2021-04-03T09:34:23Z</time>
      </trkpt>
      <trkpt lat="47.27539" lon="6.03923">
        <ele>363</ele>
        <time>2021-04-03T09:34:24Z</time>
      </trkpt>
      <trkpt lat="47.27541" lon="6.03924">
        <ele>363</ele>
        <time>2021-04-03T09:34:25Z</time>
      </trkpt>
      <trkpt lat="47.27542" lon="6.03925">
        <ele>363.2</ele>
        <time>2021-04-03T09:34:26Z</time>
      </trkpt>
      <trkpt lat="47.27544" lon="6.03926">
        <ele>363.4</ele>
        <time>2021-04-03T09:34:27Z</time>
      </trkpt>
      <trkpt lat="47.27546" lon="6.03927">
        <ele>363.6</ele>
        <time>2021-04-03T09:34:28Z</time>
      </trkpt>
      <trkpt lat="47.27548" lon="6.03929">
        <ele>363.6</ele>
        <time>2021-04-03T09:34:29Z</time>
      </trkpt>
      <trkpt lat="47.2755" lon="6.03931">
        <ele>364</ele>
        <time>2021-04-03T09:34:30Z</time>
      </trkpt>
      <trkpt lat="47.27552" lon="6.03932">
        <ele>364.2</ele>
        <time>2021-04-03T09:34:31Z</time>
      </trkpt>
      <trkpt lat="47.27553" lon="6.03934">
        <ele>364.6</ele>
        <time>2021-04-03T09:34:32Z</time>
      </trkpt>
      <trkpt lat="47.27555" lon="6.03935">
        <ele>364.6</ele>
        <time>2021-04-03T09:34:33Z</time>
      </trkpt>
      <trkpt lat="47.27557" lon="6.03936">
        <ele>364.8</ele>
        <time>2021-04-03T09:34:34Z</time>
      </trkpt>
      <trkpt lat="47.2756" lon="6.03938">
        <ele>365</ele>
        <time>2021-04-03T09:34:36Z</time>
      </trkpt>
      <trkpt lat="47.27561" lon="6.03939">
        <ele>365.2</ele>
        <time>2021-04-03T09:34:37Z</time>
      </trkpt>
      <trkpt lat="47.2757" lon="6.03946">
        <ele>365.6</ele>
        <time>2021-04-03T09:34:41Z</time>
      </trkpt>
      <trkpt lat="47.27573" lon="6.03946">
        <ele>365.6</ele>
        <time>2021-04-03T09:34:42Z</time>
      </trkpt>
      <trkpt lat="47.27576" lon="6.03947">
        <ele>365.8</ele>
        <time>2021-04-03T09:34:43Z</time>
      </trkpt>
      <trkpt lat="47.27579" lon="6.03948">
        <ele>365.8</ele>
        <time>2021-04-03T09:34:44Z</time>
      </trkpt>
      <trkpt lat="47.27583" lon="6.03948">
        <ele>366.2</ele>
        <time>2021-04-03T09:34:45Z</time>
      </trkpt>
      <trkpt lat="47.27587" lon="6.03947">
        <ele>366.2</ele>
        <time>2021-04-03T09:34:46Z</time>
      </trkpt>
      <trkpt lat="47.27589" lon="6.03946">
        <ele>366.4</ele>
        <time>2021-04-03T09:34:47Z</time>
      </trkpt>
      <trkpt lat="47.27592" lon="6.03944">
        <ele>366.6</ele>
        <time>2021-04-03T09:34:48Z</time>
      </trkpt>
      <trkpt lat="47.27596" lon="6.03942">
        <ele>366.6</ele>
        <time>2021-04-03T09:34:49Z</time>
      </trkpt>
      <trkpt lat="47.27598" lon="6.03941">
        <ele>366.8</ele>
        <time>2021-04-03T09:34:50Z</time>
      </trkpt>
      <trkpt lat="47.276" lon="6.03939">
        <ele>367</ele>
        <time>2021-04-03T09:34:51Z</time>
      </trkpt>
      <trkpt lat="47.27601" lon="6.03936">
        <ele>367.4</ele>
        <time>2021-04-03T09:34:52Z</time>
      </trkpt>
      <trkpt lat="47.27602" lon="6.03933">
        <ele>367.6</ele>
        <time>2021-04-03T09:34:53Z</time>
      </trkpt>
      <trkpt lat="47.27604" lon="6.03928">
        <ele>368</ele>
        <time>2021-04-03T09:34:54Z</time>
      </trkpt>
      <trkpt lat="47.27607" lon="6.03925">
        <ele>368</ele>
        <time>2021-04-03T09:34:55Z</time>
      </trkpt>
      <trkpt lat="47.27609" lon="6.03922">
        <ele>368.2</ele>
        <time>2021-04-03T09:34:56Z</time>
      </trkpt>
      <trkpt lat="47.27611" lon="6.03919">
        <ele>368.2</ele>
        <time>2021-04-03T09:34:57Z</time>
      </trkpt>
      <trkpt lat="47.27613" lon="6.03917">
        <ele>368.8</ele>
        <time>2021-04-03T09:34:58Z</time>
      </trkpt>
      <trkpt lat="47.27617" lon="6.03914">
        <ele>369</ele>
        <time>2021-04-03T09:34:59Z</time>
      </trkpt>
      <trkpt lat="47.27619" lon="6.03912">
        <ele>369.4</ele>
        <time>2021-04-03T09:35:00Z</time>
      </trkpt>
      <trkpt lat="47.27621" lon="6.0391">
        <ele>369.6</ele>
        <time>2021-04-03T09:35:01Z</time>
      </trkpt>
      <trkpt lat="47.27623" lon="6.03907">
        <ele>369.8</ele>
        <time>2021-04-03T09:35:02Z</time>
      </trkpt>
      <trkpt lat="47.27625" lon="6.03905">
        <ele>370</ele>
        <time>2021-04-03T09:35:03Z</time>
      </trkpt>
      <trkpt lat="47.27627" lon="6.03903">
        <ele>370</ele>
        <time>2021-04-03T09:35:04Z</time>
      </trkpt>
      <trkpt lat="47.27627" lon="6.03901">
        <ele>370.2</ele>
        <time>2021-04-03T09:35:05Z</time>
      </trkpt>
      <trkpt lat="47.27627" lon="6.03899">
        <ele>370.4</ele>
        <time>2021-04-03T09:35:06Z</time>
      </trkpt>
      <trkpt lat="47.27628" lon="6.03897">
        <ele>370.4</ele>
        <time>2021-04-03T09:35:07Z</time>
      </trkpt>
      <trkpt lat="47.2763" lon="6.03894">
        <ele>370.6</ele>
        <time>2021-04-03T09:35:08Z</time>
      </trkpt>
      <trkpt lat="47.27631" lon="6.03892">
        <ele>370.8</ele>
        <time>2021-04-03T09:35:09Z</time>
      </trkpt>
      <trkpt lat="47.27631" lon="6.03889">
        <ele>370.8</ele>
        <time>2021-04-03T09:35:10Z</time>
      </trkpt>
      <trkpt lat="47.27632" lon="6.03887">
        <ele>371</ele>
        <time>2021-04-03T09:35:11Z</time>
      </trkpt>
      <trkpt lat="47.27633" lon="6.03885">
        <ele>371</ele>
        <time>2021-04-03T09:35:12Z</time>
      </trkpt>
      <trkpt lat="47.27633" lon="6.03883">
        <ele>371</ele>
        <time>2021-04-03T09:35:13Z</time>
      </trkpt>
      <trkpt lat="47.27633" lon="6.03883">
        <ele>371.2</ele>
        <time>2021-04-03T09:35:14Z</time>
      </trkpt>
      <trkpt lat="47.27633" lon="6.03882">
        <ele>371.2</ele>
        <time>2021-04-03T09:35:15Z</time>
      </trkpt>
      <trkpt lat="47.27634" lon="6.03881">
        <ele>371.2</ele>
        <time>2021-04-03T09:35:16Z</time>
      </trkpt>
      <trkpt lat="47.27635" lon="6.03879">
        <ele>371.2</ele>
        <time>2021-04-03T09:35:17Z</time>
      </trkpt>
      <trkpt lat="47.27635" lon="6.03878">
        <ele>371.4</ele>
        <time>2021-04-03T09:35:18Z</time>
      </trkpt>
      <trkpt lat="47.27636" lon="6.03876">
        <ele>371.4</ele>
        <time>2021-04-03T09:35:19Z</time>
      </trkpt>
      <trkpt lat="47.27637" lon="6.03873">
        <ele>371.4</ele>
        <time>2021-04-03T09:35:20Z</time>
      </trkpt>
      <trkpt lat="47.27638" lon="6.03871">
        <ele>371.6</ele>
        <time>2021-04-03T09:35:21Z</time>
      </trkpt>
      <trkpt lat="47.2764" lon="6.03868">
        <ele>371.6</ele>
        <time>2021-04-03T09:35:22Z</time>
      </trkpt>
      <trkpt lat="47.27641" lon="6.03865">
        <ele>371.8</ele>
        <time>2021-04-03T09:35:23Z</time>
      </trkpt>
      <trkpt lat="47.27642" lon="6.03861">
        <ele>371.8</ele>
        <time>2021-04-03T09:35:24Z</time>
      </trkpt>
      <trkpt lat="47.27645" lon="6.03856">
        <ele>371.8</ele>
        <time>2021-04-03T09:35:25Z</time>
      </trkpt>
      <trkpt lat="47.27647" lon="6.03851">
        <ele>371.8</ele>
        <time>2021-04-03T09:35:26Z</time>
      </trkpt>
      <trkpt lat="47.27651" lon="6.03844">
        <ele>371.8</ele>
        <time>2021-04-03T09:35:27Z</time>
      </trkpt>
      <trkpt lat="47.27655" lon="6.03837">
        <ele>371.6</ele>
        <time>2021-04-03T09:35:28Z</time>
      </trkpt>
      <trkpt lat="47.27659" lon="6.03828">
        <ele>371.4</ele>
        <time>2021-04-03T09:35:29Z</time>
      </trkpt>
      <trkpt lat="47.27663" lon="6.03817">
        <ele>371</ele>
        <time>2021-04-03T09:35:30Z</time>
      </trkpt>
      <trkpt lat="47.27678" lon="6.03781">
        <ele>369.6</ele>
        <time>2021-04-03T09:35:33Z</time>
      </trkpt>
      <trkpt lat="47.27691" lon="6.03751">
        <ele>367</ele>
        <time>2021-04-03T09:35:35Z</time>
      </trkpt>
      <trkpt lat="47.27698" lon="6.03736">
        <ele>365.8</ele>
        <time>2021-04-03T09:35:36Z</time>
      </trkpt>
      <trkpt lat="47.27702" lon="6.03725">
        <ele>364.6</ele>
        <time>2021-04-03T09:35:37Z</time>
      </trkpt>
      <trkpt lat="47.27706" lon="6.03718">
        <ele>363</ele>
        <time>2021-04-03T09:35:38Z</time>
      </trkpt>
      <trkpt lat="47.2771" lon="6.03711">
        <ele>362.4</ele>
        <time>2021-04-03T09:35:39Z</time>
      </trkpt>
      <trkpt lat="47.27713" lon="6.03705">
        <ele>362</ele>
        <time>2021-04-03T09:35:40Z</time>
      </trkpt>
      <trkpt lat="47.27716" lon="6.03699">
        <ele>362</ele>
        <time>2021-04-03T09:35:41Z</time>
      </trkpt>
      <trkpt lat="47.27717" lon="6.03696">
        <ele>362</ele>
        <time>2021-04-03T09:35:42Z</time>
      </trkpt>
      <trkpt lat="47.27719" lon="6.03693">
        <ele>361.8</ele>
        <time>2021-04-03T09:35:43Z</time>
      </trkpt>
      <trkpt lat="47.27721" lon="6.03689">
        <ele>362</ele>
        <time>2021-04-03T09:35:44Z</time>
      </trkpt>
      <trkpt lat="47.27722" lon="6.03686">
        <ele>362.6</ele>
        <time>2021-04-03T09:35:45Z</time>
      </trkpt>
      <trkpt lat="47.27724" lon="6.03683">
        <ele>363.6</ele>
        <time>2021-04-03T09:35:46Z</time>
      </trkpt>
      <trkpt lat="47.27725" lon="6.0368">
        <ele>364.6</ele>
        <time>2021-04-03T09:35:47Z</time>
      </trkpt>
      <trkpt lat="47.27726" lon="6.03678">
        <ele>365.2</ele>
        <time>2021-04-03T09:35:48Z</time>
      </trkpt>
      <trkpt lat="47.27727" lon="6.03675">
        <ele>365.8</ele>
        <time>2021-04-03T09:35:49Z</time>
      </trkpt>
      <trkpt lat="47.27728" lon="6.03672">
        <ele>366</ele>
        <time>2021-04-03T09:35:50Z</time>
      </trkpt>
      <trkpt lat="47.27732" lon="6.03665">
        <ele>367</ele>
        <time>2021-04-03T09:35:53Z</time>
      </trkpt>
      <trkpt lat="47.27733" lon="6.03662">
        <ele>367</ele>
        <time>2021-04-03T09:35:54Z</time>
      </trkpt>
      <trkpt lat="47.27734" lon="6.0366">
        <ele>367.4</ele>
        <time>2021-04-03T09:35:55Z</time>
      </trkpt>
      <trkpt lat="47.27736" lon="6.03657">
        <ele>367.6</ele>
        <time>2021-04-03T09:35:56Z</time>
      </trkpt>
      <trkpt lat="47.27737" lon="6.03654">
        <ele>368</ele>
        <time>2021-04-03T09:35:57Z</time>
      </trkpt>
      <trkpt lat="47.27738" lon="6.03651">
        <ele>368.2</ele>
        <time>2021-04-03T09:35:58Z</time>
      </trkpt>
      <trkpt lat="47.2774" lon="6.03645">
        <ele>369</ele>
        <time>2021-04-03T09:36:00Z</time>
      </trkpt>
      <trkpt lat="47.27742" lon="6.03639">
        <ele>369.4</ele>
        <time>2021-04-03T09:36:02Z</time>
      </trkpt>
      <trkpt lat="47.27744" lon="6.03637">
        <ele>369.4</ele>
        <time>2021-04-03T09:36:03Z</time>
      </trkpt>
      <trkpt lat="47.27745" lon="6.03634">
        <ele>369.8</ele>
        <time>2021-04-03T09:36:04Z</time>
      </trkpt>
      <trkpt lat="47.27746" lon="6.03633">
        <ele>370</ele>
        <time>2021-04-03T09:36:05Z</time>
      </trkpt>
      <trkpt lat="47.27746" lon="6.0363">
        <ele>370.2</ele>
        <time>2021-04-03T09:36:06Z</time>
      </trkpt>
      <trkpt lat="47.27747" lon="6.03628">
        <ele>370.4</ele>
        <time>2021-04-03T09:36:07Z</time>
      </trkpt>
      <trkpt lat="47.27748" lon="6.03626">
        <ele>370.4</ele>
        <time>2021-04-03T09:36:08Z</time>
      </trkpt>
      <trkpt lat="47.27749" lon="6.03624">
        <ele>370.4</ele>
        <time>2021-04-03T09:36:09Z</time>
      </trkpt>
      <trkpt lat="47.2775" lon="6.03621">
        <ele>370.4</ele>
        <time>2021-04-03T09:36:10Z</time>
      </trkpt>
      <trkpt lat="47.27751" lon="6.03619">
        <ele>370.6</ele>
        <time>2021-04-03T09:36:11Z</time>
      </trkpt>
      <trkpt lat="47.27752" lon="6.03616">
        <ele>370.6</ele>
        <time>2021-04-03T09:36:12Z</time>
      </trkpt>
      <trkpt lat="47.27753" lon="6.03614">
        <ele>370.6</ele>
        <time>2021-04-03T09:36:13Z</time>
      </trkpt>
      <trkpt lat="47.27754" lon="6.03611">
        <ele>370.6</ele>
        <time>2021-04-03T09:36:14Z</time>
      </trkpt>
      <trkpt lat="47.27755" lon="6.03609">
        <ele>370.6</ele>
        <time>2021-04-03T09:36:15Z</time>
      </trkpt>
      <trkpt lat="47.27756" lon="6.03607">
        <ele>370.6</ele>
        <time>2021-04-03T09:36:16Z</time>
      </trkpt>
      <trkpt lat="47.27757" lon="6.03604">
        <ele>370.6</ele>
        <time>2021-04-03T09:36:17Z</time>
      </trkpt>
      <trkpt lat="47.27757" lon="6.03602">
        <ele>370.4</ele>
        <time>2021-04-03T09:36:18Z</time>
      </trkpt>
      <trkpt lat="47.27758" lon="6.036">
        <ele>370.4</ele>
        <time>2021-04-03T09:36:19Z</time>
      </trkpt>
      <trkpt lat="47.27761" lon="6.03597">
        <ele>370.4</ele>
        <time>2021-04-03T09:36:20Z</time>
      </trkpt>
      <trkpt lat="47.27763" lon="6.03592">
        <ele>370.2</ele>
        <time>2021-04-03T09:36:21Z</time>
      </trkpt>
      <trkpt lat="47.27767" lon="6.03585">
        <ele>370.2</ele>
        <time>2021-04-03T09:36:22Z</time>
      </trkpt>
      <trkpt lat="47.2777" lon="6.03579">
        <ele>370.2</ele>
        <time>2021-04-03T09:36:23Z</time>
      </trkpt>
      <trkpt lat="47.27773" lon="6.03572">
        <ele>370</ele>
        <time>2021-04-03T09:36:24Z</time>
      </trkpt>
      <trkpt lat="47.27779" lon="6.03554">
        <ele>369.8</ele>
        <time>2021-04-03T09:36:26Z</time>
      </trkpt>
      <trkpt lat="47.27789" lon="6.03532">
        <ele>369</ele>
        <time>2021-04-03T09:36:28Z</time>
      </trkpt>
      <trkpt lat="47.27795" lon="6.03518">
        <ele>368.6</ele>
        <time>2021-04-03T09:36:29Z</time>
      </trkpt>
      <trkpt lat="47.27808" lon="6.03489">
        <ele>367.8</ele>
        <time>2021-04-03T09:36:31Z</time>
      </trkpt>
      <trkpt lat="47.27814" lon="6.03474">
        <ele>364.8</ele>
        <time>2021-04-03T09:36:32Z</time>
      </trkpt>
      <trkpt lat="47.27821" lon="6.0346">
        <ele>363</ele>
        <time>2021-04-03T09:36:33Z</time>
      </trkpt>
      <trkpt lat="47.27826" lon="6.03447">
        <ele>361.2</ele>
        <time>2021-04-03T09:36:34Z</time>
      </trkpt>
      <trkpt lat="47.2783" lon="6.03436">
        <ele>359</ele>
        <time>2021-04-03T09:36:35Z</time>
      </trkpt>
      <trkpt lat="47.27833" lon="6.03429">
        <ele>358.4</ele>
        <time>2021-04-03T09:36:36Z</time>
      </trkpt>
      <trkpt lat="47.27837" lon="6.03422">
        <ele>357.8</ele>
        <time>2021-04-03T09:36:37Z</time>
      </trkpt>
      <trkpt lat="47.27841" lon="6.03415">
        <ele>357.6</ele>
        <time>2021-04-03T09:36:38Z</time>
      </trkpt>
      <trkpt lat="47.27845" lon="6.03409">
        <ele>357.4</ele>
        <time>2021-04-03T09:36:39Z</time>
      </trkpt>
      <trkpt lat="47.27848" lon="6.03403">
        <ele>357.4</ele>
        <time>2021-04-03T09:36:40Z</time>
      </trkpt>
      <trkpt lat="47.2785" lon="6.03399">
        <ele>357.2</ele>
        <time>2021-04-03T09:36:41Z</time>
      </trkpt>
      <trkpt lat="47.27852" lon="6.03394">
        <ele>357.2</ele>
        <time>2021-04-03T09:36:42Z</time>
      </trkpt>
      <trkpt lat="47.27855" lon="6.03388">
        <ele>357.4</ele>
        <time>2021-04-03T09:36:43Z</time>
      </trkpt>
      <trkpt lat="47.27857" lon="6.03383">
        <ele>357.8</ele>
        <time>2021-04-03T09:36:44Z</time>
      </trkpt>
      <trkpt lat="47.27859" lon="6.03378">
        <ele>357.8</ele>
        <time>2021-04-03T09:36:45Z</time>
      </trkpt>
      <trkpt lat="47.27862" lon="6.03374">
        <ele>358</ele>
        <time>2021-04-03T09:36:46Z</time>
      </trkpt>
      <trkpt lat="47.27864" lon="6.03369">
        <ele>358.2</ele>
        <time>2021-04-03T09:36:47Z</time>
      </trkpt>
      <trkpt lat="47.27867" lon="6.03365">
        <ele>358.2</ele>
        <time>2021-04-03T09:36:48Z</time>
      </trkpt>
      <trkpt lat="47.27869" lon="6.03361">
        <ele>358.2</ele>
        <time>2021-04-03T09:36:49Z</time>
      </trkpt>
      <trkpt lat="47.27871" lon="6.03357">
        <ele>358.2</ele>
        <time>2021-04-03T09:36:50Z</time>
      </trkpt>
      <trkpt lat="47.27873" lon="6.03352">
        <ele>358.2</ele>
        <time>2021-04-03T09:36:51Z</time>
      </trkpt>
      <trkpt lat="47.27875" lon="6.03348">
        <ele>358.2</ele>
        <time>2021-04-03T09:36:52Z</time>
      </trkpt>
      <trkpt lat="47.27877" lon="6.03344">
        <ele>358.2</ele>
        <time>2021-04-03T09:36:53Z</time>
      </trkpt>
      <trkpt lat="47.27878" lon="6.03339">
        <ele>358</ele>
        <time>2021-04-03T09:36:54Z</time>
      </trkpt>
      <trkpt lat="47.27895" lon="6.03308">
        <ele>356.8</ele>
        <time>2021-04-03T09:37:00Z</time>
      </trkpt>
      <trkpt lat="47.27898" lon="6.03302">
        <ele>356.6</ele>
        <time>2021-04-03T09:37:01Z</time>
      </trkpt>
      <trkpt lat="47.27901" lon="6.03297">
        <ele>356.4</ele>
        <time>2021-04-03T09:37:02Z</time>
      </trkpt>
      <trkpt lat="47.27903" lon="6.03293">
        <ele>356.4</ele>
        <time>2021-04-03T09:37:03Z</time>
      </trkpt>
      <trkpt lat="47.27906" lon="6.03289">
        <ele>356.2</ele>
        <time>2021-04-03T09:37:04Z</time>
      </trkpt>
      <trkpt lat="47.27914" lon="6.03275">
        <ele>356</ele>
        <time>2021-04-03T09:37:06Z</time>
      </trkpt>
      <trkpt lat="47.27924" lon="6.03254">
        <ele>355.6</ele>
        <time>2021-04-03T09:37:09Z</time>
      </trkpt>
      <trkpt lat="47.27933" lon="6.03237">
        <ele>355.4</ele>
        <time>2021-04-03T09:37:11Z</time>
      </trkpt>
      <trkpt lat="47.27938" lon="6.03227">
        <ele>355.2</ele>
        <time>2021-04-03T09:37:12Z</time>
      </trkpt>
      <trkpt lat="47.27946" lon="6.03208">
        <ele>354.6</ele>
        <time>2021-04-03T09:37:14Z</time>
      </trkpt>
      <trkpt lat="47.2795" lon="6.032">
        <ele>354.4</ele>
        <time>2021-04-03T09:37:15Z</time>
      </trkpt>
      <trkpt lat="47.27954" lon="6.03195">
        <ele>354</ele>
        <time>2021-04-03T09:37:16Z</time>
      </trkpt>
      <trkpt lat="47.27956" lon="6.03191">
        <ele>354</ele>
        <time>2021-04-03T09:37:17Z</time>
      </trkpt>
      <trkpt lat="47.27958" lon="6.03187">
        <ele>353.8</ele>
        <time>2021-04-03T09:37:18Z</time>
      </trkpt>
      <trkpt lat="47.27961" lon="6.03184">
        <ele>353.6</ele>
        <time>2021-04-03T09:37:19Z</time>
      </trkpt>
      <trkpt lat="47.27963" lon="6.03182">
        <ele>353.4</ele>
        <time>2021-04-03T09:37:20Z</time>
      </trkpt>
      <trkpt lat="47.27965" lon="6.03181">
        <ele>353.2</ele>
        <time>2021-04-03T09:37:21Z</time>
      </trkpt>
      <trkpt lat="47.27968" lon="6.0318">
        <ele>353.2</ele>
        <time>2021-04-03T09:37:22Z</time>
      </trkpt>
      <trkpt lat="47.27972" lon="6.0318">
        <ele>353</ele>
        <time>2021-04-03T09:37:23Z</time>
      </trkpt>
      <trkpt lat="47.27977" lon="6.03178">
        <ele>352.8</ele>
        <time>2021-04-03T09:37:24Z</time>
      </trkpt>
      <trkpt lat="47.27986" lon="6.03174">
        <ele>352.4</ele>
        <time>2021-04-03T09:37:27Z</time>
      </trkpt>
      <trkpt lat="47.27988" lon="6.03174">
        <ele>352.4</ele>
        <time>2021-04-03T09:37:28Z</time>
      </trkpt>
      <trkpt lat="47.2799" lon="6.03174">
        <ele>352.2</ele>
        <time>2021-04-03T09:37:29Z</time>
      </trkpt>
      <trkpt lat="47.27993" lon="6.03175">
        <ele>352</ele>
        <time>2021-04-03T09:37:30Z</time>
      </trkpt>
      <trkpt lat="47.28007" lon="6.03174">
        <ele>351.8</ele>
        <time>2021-04-03T09:37:33Z</time>
      </trkpt>
      <trkpt lat="47.28021" lon="6.03173">
        <ele>351.2</ele>
        <time>2021-04-03T09:37:37Z</time>
      </trkpt>
      <trkpt lat="47.28024" lon="6.03173">
        <ele>351.2</ele>
        <time>2021-04-03T09:37:38Z</time>
      </trkpt>
      <trkpt lat="47.28028" lon="6.03173">
        <ele>351.2</ele>
        <time>2021-04-03T09:37:39Z</time>
      </trkpt>
      <trkpt lat="47.2803" lon="6.03173">
        <ele>351.2</ele>
        <time>2021-04-03T09:37:40Z</time>
      </trkpt>
      <trkpt lat="47.28033" lon="6.03173">
        <ele>351</ele>
        <time>2021-04-03T09:37:41Z</time>
      </trkpt>
      <trkpt lat="47.28036" lon="6.03172">
        <ele>351</ele>
        <time>2021-04-03T09:37:42Z</time>
      </trkpt>
      <trkpt lat="47.28042" lon="6.0317">
        <ele>351</ele>
        <time>2021-04-03T09:37:44Z</time>
      </trkpt>
      <trkpt lat="47.28048" lon="6.03168">
        <ele>350.8</ele>
        <time>2021-04-03T09:37:46Z</time>
      </trkpt>
      <trkpt lat="47.28053" lon="6.03166">
        <ele>350.8</ele>
        <time>2021-04-03T09:37:47Z</time>
      </trkpt>
      <trkpt lat="47.28072" lon="6.0316">
        <ele>350.4</ele>
        <time>2021-04-03T09:37:52Z</time>
      </trkpt>
      <trkpt lat="47.28079" lon="6.03157">
        <ele>350</ele>
        <time>2021-04-03T09:37:54Z</time>
      </trkpt>
      <trkpt lat="47.28082" lon="6.03156">
        <ele>349.8</ele>
        <time>2021-04-03T09:37:55Z</time>
      </trkpt>
      <trkpt lat="47.2809" lon="6.03153">
        <ele>349.6</ele>
        <time>2021-04-03T09:37:57Z</time>
      </trkpt>
      <trkpt lat="47.2812" lon="6.03138">
        <ele>349.2</ele>
        <time>2021-04-03T09:38:04Z</time>
      </trkpt>
      <trkpt lat="47.28125" lon="6.03137">
        <ele>349</ele>
        <time>2021-04-03T09:38:05Z</time>
      </trkpt>
      <trkpt lat="47.28133" lon="6.03136">
        <ele>349</ele>
        <time>2021-04-03T09:38:07Z</time>
      </trkpt>
      <trkpt lat="47.28136" lon="6.03134">
        <ele>349</ele>
        <time>2021-04-03T09:38:08Z</time>
      </trkpt>
      <trkpt lat="47.28139" lon="6.03132">
        <ele>349</ele>
        <time>2021-04-03T09:38:09Z</time>
      </trkpt>
      <trkpt lat="47.28148" lon="6.03127">
        <ele>349</ele>
        <time>2021-04-03T09:38:11Z</time>
      </trkpt>
      <trkpt lat="47.28154" lon="6.03125">
        <ele>349</ele>
        <time>2021-04-03T09:38:12Z</time>
      </trkpt>
      <trkpt lat="47.2816" lon="6.03125">
        <ele>349</ele>
        <time>2021-04-03T09:38:13Z</time>
      </trkpt>
      <trkpt lat="47.28163" lon="6.03124">
        <ele>349</ele>
        <time>2021-04-03T09:38:14Z</time>
      </trkpt>
      <trkpt lat="47.28167" lon="6.03123">
        <ele>349</ele>
        <time>2021-04-03T09:38:15Z</time>
      </trkpt>
      <trkpt lat="47.2817" lon="6.03121">
        <ele>349</ele>
        <time>2021-04-03T09:38:16Z</time>
      </trkpt>
      <trkpt lat="47.28191" lon="6.03115">
        <ele>349.8</ele>
        <time>2021-04-03T09:38:22Z</time>
      </trkpt>
      <trkpt lat="47.28193" lon="6.03115">
        <ele>349.8</ele>
        <time>2021-04-03T09:38:23Z</time>
      </trkpt>
      <trkpt lat="47.28197" lon="6.03114">
        <ele>350</ele>
        <time>2021-04-03T09:38:24Z</time>
      </trkpt>
      <trkpt lat="47.282" lon="6.03113">
        <ele>350.2</ele>
        <time>2021-04-03T09:38:25Z</time>
      </trkpt>
      <trkpt lat="47.28203" lon="6.03112">
        <ele>350.6</ele>
        <time>2021-04-03T09:38:26Z</time>
      </trkpt>
      <trkpt lat="47.28204" lon="6.03112">
        <ele>351</ele>
        <time>2021-04-03T09:38:27Z</time>
      </trkpt>
      <trkpt lat="47.28206" lon="6.03112">
        <ele>351</ele>
        <time>2021-04-03T09:38:28Z</time>
      </trkpt>
      <trkpt lat="47.28209" lon="6.03113">
        <ele>351.2</ele>
        <time>2021-04-03T09:38:29Z</time>
      </trkpt>
      <trkpt lat="47.28226" lon="6.0311">
        <ele>351.6</ele>
        <time>2021-04-03T09:38:34Z</time>
      </trkpt>
      <trkpt lat="47.28249" lon="6.03105">
        <ele>351.6</ele>
        <time>2021-04-03T09:38:39Z</time>
      </trkpt>
      <trkpt lat="47.28253" lon="6.03104">
        <ele>351.6</ele>
        <time>2021-04-03T09:38:40Z</time>
      </trkpt>
      <trkpt lat="47.28285" lon="6.03099">
        <ele>351.4</ele>
        <time>2021-04-03T09:38:46Z</time>
      </trkpt>
      <trkpt lat="47.28295" lon="6.03098">
        <ele>351.2</ele>
        <time>2021-04-03T09:38:48Z</time>
      </trkpt>
      <trkpt lat="47.28298" lon="6.03099">
        <ele>351</ele>
        <time>2021-04-03T09:38:49Z</time>
      </trkpt>
      <trkpt lat="47.28303" lon="6.03099">
        <ele>351</ele>
        <time>2021-04-03T09:38:50Z</time>
      </trkpt>
      <trkpt lat="47.28307" lon="6.03099">
        <ele>351.2</ele>
        <time>2021-04-03T09:38:51Z</time>
      </trkpt>
      <trkpt lat="47.28316" lon="6.03098">
        <ele>351.2</ele>
        <time>2021-04-03T09:38:53Z</time>
      </trkpt>
      <trkpt lat="47.28326" lon="6.03097">
        <ele>351.2</ele>
        <time>2021-04-03T09:38:55Z</time>
      </trkpt>
      <trkpt lat="47.28331" lon="6.03096">
        <ele>351.2</ele>
        <time>2021-04-03T09:38:56Z</time>
      </trkpt>
      <trkpt lat="47.28334" lon="6.03095">
        <ele>351.4</ele>
        <time>2021-04-03T09:38:57Z</time>
      </trkpt>
      <trkpt lat="47.28338" lon="6.03094">
        <ele>351.4</ele>
        <time>2021-04-03T09:38:58Z</time>
      </trkpt>
      <trkpt lat="47.28341" lon="6.03093">
        <ele>351.6</ele>
        <time>2021-04-03T09:38:59Z</time>
      </trkpt>
      <trkpt lat="47.28344" lon="6.03093">
        <ele>351.6</ele>
        <time>2021-04-03T09:39:00Z</time>
      </trkpt>
      <trkpt lat="47.28347" lon="6.03094">
        <ele>351.8</ele>
        <time>2021-04-03T09:39:01Z</time>
      </trkpt>
      <trkpt lat="47.2835" lon="6.03094">
        <ele>352.2</ele>
        <time>2021-04-03T09:39:02Z</time>
      </trkpt>
      <trkpt lat="47.28354" lon="6.03094">
        <ele>352.2</ele>
        <time>2021-04-03T09:39:03Z</time>
      </trkpt>
      <trkpt lat="47.28365" lon="6.03089">
        <ele>353</ele>
        <time>2021-04-03T09:39:06Z</time>
      </trkpt>
      <trkpt lat="47.28371" lon="6.03086">
        <ele>352.8</ele>
        <time>2021-04-03T09:39:07Z</time>
      </trkpt>
      <trkpt lat="47.28375" lon="6.03086">
        <ele>353</ele>
        <time>2021-04-03T09:39:08Z</time>
      </trkpt>
      <trkpt lat="47.28377" lon="6.03085">
        <ele>353</ele>
        <time>2021-04-03T09:39:09Z</time>
      </trkpt>
      <trkpt lat="47.28404" lon="6.0308">
        <ele>353</ele>
        <time>2021-04-03T09:39:15Z</time>
      </trkpt>
      <trkpt lat="47.28417" lon="6.03081">
        <ele>353.2</ele>
        <time>2021-04-03T09:39:18Z</time>
      </trkpt>
      <trkpt lat="47.28421" lon="6.0308">
        <ele>353.2</ele>
        <time>2021-04-03T09:39:19Z</time>
      </trkpt>
      <trkpt lat="47.28425" lon="6.03078">
        <ele>353.2</ele>
        <time>2021-04-03T09:39:20Z</time>
      </trkpt>
      <trkpt lat="47.28444" lon="6.03071">
        <ele>353.8</ele>
        <time>2021-04-03T09:39:26Z</time>
      </trkpt>
      <trkpt lat="47.28447" lon="6.0307">
        <ele>353.8</ele>
        <time>2021-04-03T09:39:27Z</time>
      </trkpt>
      <trkpt lat="47.2845" lon="6.0307">
        <ele>354.2</ele>
        <time>2021-04-03T09:39:28Z</time>
      </trkpt>
      <trkpt lat="47.28452" lon="6.03069">
        <ele>354.4</ele>
        <time>2021-04-03T09:39:29Z</time>
      </trkpt>
      <trkpt lat="47.28454" lon="6.03069">
        <ele>354.6</ele>
        <time>2021-04-03T09:39:30Z</time>
      </trkpt>
      <trkpt lat="47.28457" lon="6.03068">
        <ele>354.8</ele>
        <time>2021-04-03T09:39:31Z</time>
      </trkpt>
      <trkpt lat="47.28459" lon="6.03067">
        <ele>355.2</ele>
        <time>2021-04-03T09:39:32Z</time>
      </trkpt>
      <trkpt lat="47.28464" lon="6.03066">
        <ele>355.4</ele>
        <time>2021-04-03T09:39:34Z</time>
      </trkpt>
      <trkpt lat="47.28469" lon="6.03064">
        <ele>355.8</ele>
        <time>2021-04-03T09:39:36Z</time>
      </trkpt>
      <trkpt lat="47.28471" lon="6.03063">
        <ele>356</ele>
        <time>2021-04-03T09:39:37Z</time>
      </trkpt>
      <trkpt lat="47.28474" lon="6.03062">
        <ele>356.2</ele>
        <time>2021-04-03T09:39:38Z</time>
      </trkpt>
      <trkpt lat="47.28476" lon="6.0306">
        <ele>356.6</ele>
        <time>2021-04-03T09:39:39Z</time>
      </trkpt>
      <trkpt lat="47.28479" lon="6.03059">
        <ele>356.8</ele>
        <time>2021-04-03T09:39:40Z</time>
      </trkpt>
      <trkpt lat="47.28481" lon="6.03059">
        <ele>357</ele>
        <time>2021-04-03T09:39:41Z</time>
      </trkpt>
      <trkpt lat="47.28482" lon="6.03057">
        <ele>357.2</ele>
        <time>2021-04-03T09:39:42Z</time>
      </trkpt>
      <trkpt lat="47.28484" lon="6.03056">
        <ele>357.6</ele>
        <time>2021-04-03T09:39:43Z</time>
      </trkpt>
      <trkpt lat="47.28487" lon="6.03055">
        <ele>357.8</ele>
        <time>2021-04-03T09:39:44Z</time>
      </trkpt>
      <trkpt lat="47.28489" lon="6.03054">
        <ele>358</ele>
        <time>2021-04-03T09:39:45Z</time>
      </trkpt>
      <trkpt lat="47.28491" lon="6.03052">
        <ele>358.2</ele>
        <time>2021-04-03T09:39:46Z</time>
      </trkpt>
      <trkpt lat="47.28493" lon="6.0305">
        <ele>358.4</ele>
        <time>2021-04-03T09:39:47Z</time>
      </trkpt>
      <trkpt lat="47.28496" lon="6.03048">
        <ele>358.4</ele>
        <time>2021-04-03T09:39:48Z</time>
      </trkpt>
      <trkpt lat="47.28499" lon="6.03046">
        <ele>358.4</ele>
        <time>2021-04-03T09:39:49Z</time>
      </trkpt>
      <trkpt lat="47.28502" lon="6.03044">
        <ele>358.6</ele>
        <time>2021-04-03T09:39:50Z</time>
      </trkpt>
      <trkpt lat="47.28505" lon="6.03041">
        <ele>358.6</ele>
        <time>2021-04-03T09:39:51Z</time>
      </trkpt>
      <trkpt lat="47.28508" lon="6.03039">
        <ele>358.6</ele>
        <time>2021-04-03T09:39:52Z</time>
      </trkpt>
      <trkpt lat="47.28511" lon="6.03037">
        <ele>358.6</ele>
        <time>2021-04-03T09:39:53Z</time>
      </trkpt>
      <trkpt lat="47.28514" lon="6.03034">
        <ele>358.6</ele>
        <time>2021-04-03T09:39:54Z</time>
      </trkpt>
      <trkpt lat="47.28517" lon="6.03032">
        <ele>358.6</ele>
        <time>2021-04-03T09:39:55Z</time>
      </trkpt>
      <trkpt lat="47.28521" lon="6.0303">
        <ele>358.6</ele>
        <time>2021-04-03T09:39:56Z</time>
      </trkpt>
      <trkpt lat="47.28525" lon="6.03029">
        <ele>358.6</ele>
        <time>2021-04-03T09:39:57Z</time>
      </trkpt>
      <trkpt lat="47.28529" lon="6.03027">
        <ele>358.6</ele>
        <time>2021-04-03T09:39:58Z</time>
      </trkpt>
      <trkpt lat="47.28533" lon="6.03026">
        <ele>358.6</ele>
        <time>2021-04-03T09:39:59Z</time>
      </trkpt>
      <trkpt lat="47.28537" lon="6.03025">
        <ele>358.6</ele>
        <time>2021-04-03T09:40:00Z</time>
      </trkpt>
      <trkpt lat="47.28541" lon="6.03025">
        <ele>358.6</ele>
        <time>2021-04-03T09:40:01Z</time>
      </trkpt>
      <trkpt lat="47.28546" lon="6.03026">
        <ele>358.6</ele>
        <time>2021-04-03T09:40:02Z</time>
      </trkpt>
      <trkpt lat="47.28549" lon="6.03026">
        <ele>358.6</ele>
        <time>2021-04-03T09:40:03Z</time>
      </trkpt>
      <trkpt lat="47.28553" lon="6.03026">
        <ele>358.6</ele>
        <time>2021-04-03T09:40:04Z</time>
      </trkpt>
      <trkpt lat="47.28557" lon="6.03026">
        <ele>358.6</ele>
        <time>2021-04-03T09:40:05Z</time>
      </trkpt>
      <trkpt lat="47.28573" lon="6.03026">
        <ele>358.6</ele>
        <time>2021-04-03T09:40:08Z</time>
      </trkpt>
      <trkpt lat="47.28597" lon="6.03027">
        <ele>358.4</ele>
        <time>2021-04-03T09:40:14Z</time>
      </trkpt>
      <trkpt lat="47.28608" lon="6.03028">
        <ele>358.2</ele>
        <time>2021-04-03T09:40:16Z</time>
      </trkpt>
      <trkpt lat="47.2861" lon="6.03029">
        <ele>358.2</ele>
        <time>2021-04-03T09:40:17Z</time>
      </trkpt>
      <trkpt lat="47.28612" lon="6.03029">
        <ele>358</ele>
        <time>2021-04-03T09:40:18Z</time>
      </trkpt>
      <trkpt lat="47.28614" lon="6.03029">
        <ele>358</ele>
        <time>2021-04-03T09:40:19Z</time>
      </trkpt>
      <trkpt lat="47.28618" lon="6.03031">
        <ele>358</ele>
        <time>2021-04-03T09:40:20Z</time>
      </trkpt>
      <trkpt lat="47.28622" lon="6.03031">
        <ele>358</ele>
        <time>2021-04-03T09:40:21Z</time>
      </trkpt>
      <trkpt lat="47.28632" lon="6.03031">
        <ele>358</ele>
        <time>2021-04-03T09:40:25Z</time>
      </trkpt>
      <trkpt lat="47.28636" lon="6.03031">
        <ele>358</ele>
        <time>2021-04-03T09:40:26Z</time>
      </trkpt>
      <trkpt lat="47.28641" lon="6.03029">
        <ele>358</ele>
        <time>2021-04-03T09:40:27Z</time>
      </trkpt>
      <trkpt lat="47.2866" lon="6.03026">
        <ele>358.2</ele>
        <time>2021-04-03T09:40:31Z</time>
      </trkpt>
      <trkpt lat="47.28672" lon="6.03023">
        <ele>358.4</ele>
        <time>2021-04-03T09:40:34Z</time>
      </trkpt>
      <trkpt lat="47.28685" lon="6.03019">
        <ele>358.6</ele>
        <time>2021-04-03T09:40:37Z</time>
      </trkpt>
      <trkpt lat="47.2871" lon="6.03012">
        <ele>358.8</ele>
        <time>2021-04-03T09:40:42Z</time>
      </trkpt>
      <trkpt lat="47.2872" lon="6.03011">
        <ele>358.6</ele>
        <time>2021-04-03T09:40:44Z</time>
      </trkpt>
      <trkpt lat="47.28746" lon="6.03007">
        <ele>357.8</ele>
        <time>2021-04-03T09:40:49Z</time>
      </trkpt>
      <trkpt lat="47.2875" lon="6.03007">
        <ele>357.8</ele>
        <time>2021-04-03T09:40:50Z</time>
      </trkpt>
      <trkpt lat="47.28753" lon="6.03007">
        <ele>357.6</ele>
        <time>2021-04-03T09:40:51Z</time>
      </trkpt>
      <trkpt lat="47.28756" lon="6.03007">
        <ele>357.6</ele>
        <time>2021-04-03T09:40:52Z</time>
      </trkpt>
      <trkpt lat="47.28759" lon="6.03007">
        <ele>357.6</ele>
        <time>2021-04-03T09:40:53Z</time>
      </trkpt>
      <trkpt lat="47.28762" lon="6.03007">
        <ele>357.6</ele>
        <time>2021-04-03T09:40:54Z</time>
      </trkpt>
      <trkpt lat="47.28764" lon="6.03007">
        <ele>357.8</ele>
        <time>2021-04-03T09:40:55Z</time>
      </trkpt>
      <trkpt lat="47.28766" lon="6.03007">
        <ele>357.8</ele>
        <time>2021-04-03T09:40:56Z</time>
      </trkpt>
      <trkpt lat="47.28768" lon="6.03007">
        <ele>357.8</ele>
        <time>2021-04-03T09:40:57Z</time>
      </trkpt>
      <trkpt lat="47.28769" lon="6.03007">
        <ele>358</ele>
        <time>2021-04-03T09:40:58Z</time>
      </trkpt>
      <trkpt lat="47.28771" lon="6.03006">
        <ele>358</ele>
        <time>2021-04-03T09:40:59Z</time>
      </trkpt>
      <trkpt lat="47.28782" lon="6.03002">
        <ele>358.4</ele>
        <time>2021-04-03T09:41:03Z</time>
      </trkpt>
      <trkpt lat="47.28785" lon="6.03001">
        <ele>359</ele>
        <time>2021-04-03T09:41:04Z</time>
      </trkpt>
      <trkpt lat="47.28789" lon="6.03">
        <ele>359.2</ele>
        <time>2021-04-03T09:41:05Z</time>
      </trkpt>
      <trkpt lat="47.28791" lon="6.02999">
        <ele>359.6</ele>
        <time>2021-04-03T09:41:06Z</time>
      </trkpt>
      <trkpt lat="47.28795" lon="6.02999">
        <ele>359.6</ele>
        <time>2021-04-03T09:41:07Z</time>
      </trkpt>
      <trkpt lat="47.28804" lon="6.02998">
        <ele>360.2</ele>
        <time>2021-04-03T09:41:11Z</time>
      </trkpt>
      <trkpt lat="47.28806" lon="6.02998">
        <ele>360.2</ele>
        <time>2021-04-03T09:41:12Z</time>
      </trkpt>
      <trkpt lat="47.28808" lon="6.02997">
        <ele>360.4</ele>
        <time>2021-04-03T09:41:13Z</time>
      </trkpt>
      <trkpt lat="47.28811" lon="6.02997">
        <ele>360.6</ele>
        <time>2021-04-03T09:41:14Z</time>
      </trkpt>
      <trkpt lat="47.28813" lon="6.02998">
        <ele>360.6</ele>
        <time>2021-04-03T09:41:15Z</time>
      </trkpt>
      <trkpt lat="47.28814" lon="6.02998">
        <ele>360.8</ele>
        <time>2021-04-03T09:41:16Z</time>
      </trkpt>
      <trkpt lat="47.28817" lon="6.02997">
        <ele>361</ele>
        <time>2021-04-03T09:41:17Z</time>
      </trkpt>
      <trkpt lat="47.28819" lon="6.02996">
        <ele>361</ele>
        <time>2021-04-03T09:41:18Z</time>
      </trkpt>
      <trkpt lat="47.28821" lon="6.02997">
        <ele>361.2</ele>
        <time>2021-04-03T09:41:19Z</time>
      </trkpt>
      <trkpt lat="47.28823" lon="6.02998">
        <ele>361.4</ele>
        <time>2021-04-03T09:41:20Z</time>
      </trkpt>
      <trkpt lat="47.28825" lon="6.02997">
        <ele>361.6</ele>
        <time>2021-04-03T09:41:21Z</time>
      </trkpt>
      <trkpt lat="47.28827" lon="6.02996">
        <ele>361.6</ele>
        <time>2021-04-03T09:41:22Z</time>
      </trkpt>
      <trkpt lat="47.28829" lon="6.02995">
        <ele>361.8</ele>
        <time>2021-04-03T09:41:23Z</time>
      </trkpt>
      <trkpt lat="47.28832" lon="6.02995">
        <ele>361.8</ele>
        <time>2021-04-03T09:41:24Z</time>
      </trkpt>
      <trkpt lat="47.28835" lon="6.02994">
        <ele>361.8</ele>
        <time>2021-04-03T09:41:25Z</time>
      </trkpt>
      <trkpt lat="47.28838" lon="6.02993">
        <ele>362</ele>
        <time>2021-04-03T09:41:26Z</time>
      </trkpt>
      <trkpt lat="47.28841" lon="6.02992">
        <ele>362</ele>
        <time>2021-04-03T09:41:27Z</time>
      </trkpt>
      <trkpt lat="47.28844" lon="6.02994">
        <ele>362</ele>
        <time>2021-04-03T09:41:28Z</time>
      </trkpt>
      <trkpt lat="47.28848" lon="6.02994">
        <ele>362</ele>
        <time>2021-04-03T09:41:29Z</time>
      </trkpt>
      <trkpt lat="47.28853" lon="6.02994">
        <ele>362</ele>
        <time>2021-04-03T09:41:30Z</time>
      </trkpt>
      <trkpt lat="47.28858" lon="6.02994">
        <ele>362</ele>
        <time>2021-04-03T09:41:31Z</time>
      </trkpt>
      <trkpt lat="47.28863" lon="6.02994">
        <ele>361.8</ele>
        <time>2021-04-03T09:41:32Z</time>
      </trkpt>
      <trkpt lat="47.28866" lon="6.02994">
        <ele>361.6</ele>
        <time>2021-04-03T09:41:33Z</time>
      </trkpt>
      <trkpt lat="47.2887" lon="6.02996">
        <ele>361.6</ele>
        <time>2021-04-03T09:41:34Z</time>
      </trkpt>
      <trkpt lat="47.2888" lon="6.02997">
        <ele>361.4</ele>
        <time>2021-04-03T09:41:37Z</time>
      </trkpt>
      <trkpt lat="47.28911" lon="6.02987">
        <ele>361.6</ele>
        <time>2021-04-03T09:41:43Z</time>
      </trkpt>
      <trkpt lat="47.28913" lon="6.02985">
        <ele>361.6</ele>
        <time>2021-04-03T09:41:44Z</time>
      </trkpt>
      <trkpt lat="47.28915" lon="6.02983">
        <ele>361.8</ele>
        <time>2021-04-03T09:41:45Z</time>
      </trkpt>
      <trkpt lat="47.28918" lon="6.02981">
        <ele>361.8</ele>
        <time>2021-04-03T09:41:46Z</time>
      </trkpt>
      <trkpt lat="47.28921" lon="6.02977">
        <ele>362</ele>
        <time>2021-04-03T09:41:48Z</time>
      </trkpt>
      <trkpt lat="47.28923" lon="6.02977">
        <ele>362</ele>
        <time>2021-04-03T09:41:49Z</time>
      </trkpt>
      <trkpt lat="47.28924" lon="6.02976">
        <ele>362.2</ele>
        <time>2021-04-03T09:41:50Z</time>
      </trkpt>
      <trkpt lat="47.28926" lon="6.02975">
        <ele>362.2</ele>
        <time>2021-04-03T09:41:51Z</time>
      </trkpt>
      <trkpt lat="47.28927" lon="6.02974">
        <ele>362.4</ele>
        <time>2021-04-03T09:41:52Z</time>
      </trkpt>
      <trkpt lat="47.2893" lon="6.02972">
        <ele>362.4</ele>
        <time>2021-04-03T09:41:53Z</time>
      </trkpt>
      <trkpt lat="47.28932" lon="6.0297">
        <ele>362.4</ele>
        <time>2021-04-03T09:41:54Z</time>
      </trkpt>
      <trkpt lat="47.28934" lon="6.0297">
        <ele>362.6</ele>
        <time>2021-04-03T09:41:55Z</time>
      </trkpt>
      <trkpt lat="47.28936" lon="6.02969">
        <ele>362.6</ele>
        <time>2021-04-03T09:41:56Z</time>
      </trkpt>
      <trkpt lat="47.28938" lon="6.02968">
        <ele>362.8</ele>
        <time>2021-04-03T09:41:57Z</time>
      </trkpt>
      <trkpt lat="47.2894" lon="6.02967">
        <ele>363</ele>
        <time>2021-04-03T09:41:58Z</time>
      </trkpt>
      <trkpt lat="47.28947" lon="6.02965">
        <ele>363.4</ele>
        <time>2021-04-03T09:42:01Z</time>
      </trkpt>
      <trkpt lat="47.28949" lon="6.02963">
        <ele>363.6</ele>
        <time>2021-04-03T09:42:02Z</time>
      </trkpt>
      <trkpt lat="47.28957" lon="6.02964">
        <ele>363.8</ele>
        <time>2021-04-03T09:42:05Z</time>
      </trkpt>
      <trkpt lat="47.28963" lon="6.02963">
        <ele>364</ele>
        <time>2021-04-03T09:42:07Z</time>
      </trkpt>
      <trkpt lat="47.28973" lon="6.02963">
        <ele>364.4</ele>
        <time>2021-04-03T09:42:10Z</time>
      </trkpt>
      <trkpt lat="47.28983" lon="6.02959">
        <ele>364.8</ele>
        <time>2021-04-03T09:42:14Z</time>
      </trkpt>
      <trkpt lat="47.28986" lon="6.02958">
        <ele>364.8</ele>
        <time>2021-04-03T09:42:15Z</time>
      </trkpt>
      <trkpt lat="47.28989" lon="6.02957">
        <ele>365</ele>
        <time>2021-04-03T09:42:16Z</time>
      </trkpt>
      <trkpt lat="47.28993" lon="6.02956">
        <ele>365.2</ele>
        <time>2021-04-03T09:42:17Z</time>
      </trkpt>
      <trkpt lat="47.28997" lon="6.02954">
        <ele>365.6</ele>
        <time>2021-04-03T09:42:18Z</time>
      </trkpt>
      <trkpt lat="47.29" lon="6.02954">
        <ele>365.8</ele>
        <time>2021-04-03T09:42:19Z</time>
      </trkpt>
      <trkpt lat="47.29003" lon="6.02954">
        <ele>366</ele>
        <time>2021-04-03T09:42:20Z</time>
      </trkpt>
      <trkpt lat="47.29005" lon="6.02954">
        <ele>366.2</ele>
        <time>2021-04-03T09:42:21Z</time>
      </trkpt>
      <trkpt lat="47.29006" lon="6.02955">
        <ele>366.4</ele>
        <time>2021-04-03T09:42:22Z</time>
      </trkpt>
      <trkpt lat="47.29009" lon="6.02955">
        <ele>366.4</ele>
        <time>2021-04-03T09:42:23Z</time>
      </trkpt>
      <trkpt lat="47.29014" lon="6.02955">
        <ele>366.6</ele>
        <time>2021-04-03T09:42:24Z</time>
      </trkpt>
      <trkpt lat="47.29016" lon="6.02954">
        <ele>366.8</ele>
        <time>2021-04-03T09:42:25Z</time>
      </trkpt>
      <trkpt lat="47.29018" lon="6.02954">
        <ele>367</ele>
        <time>2021-04-03T09:42:26Z</time>
      </trkpt>
      <trkpt lat="47.29019" lon="6.02954">
        <ele>367.4</ele>
        <time>2021-04-03T09:42:27Z</time>
      </trkpt>
      <trkpt lat="47.29021" lon="6.02955">
        <ele>367.4</ele>
        <time>2021-04-03T09:42:28Z</time>
      </trkpt>
      <trkpt lat="47.29022" lon="6.02955">
        <ele>367.8</ele>
        <time>2021-04-03T09:42:29Z</time>
      </trkpt>
      <trkpt lat="47.29024" lon="6.02954">
        <ele>368</ele>
        <time>2021-04-03T09:42:30Z</time>
      </trkpt>
      <trkpt lat="47.29028" lon="6.02954">
        <ele>368</ele>
        <time>2021-04-03T09:42:31Z</time>
      </trkpt>
      <trkpt lat="47.29033" lon="6.02955">
        <ele>368.4</ele>
        <time>2021-04-03T09:42:32Z</time>
      </trkpt>
      <trkpt lat="47.29035" lon="6.02954">
        <ele>368.4</ele>
        <time>2021-04-03T09:42:33Z</time>
      </trkpt>
      <trkpt lat="47.29037" lon="6.02954">
        <ele>368.6</ele>
        <time>2021-04-03T09:42:34Z</time>
      </trkpt>
      <trkpt lat="47.29042" lon="6.02953">
        <ele>368.6</ele>
        <time>2021-04-03T09:42:35Z</time>
      </trkpt>
      <trkpt lat="47.29044" lon="6.02953">
        <ele>368.8</ele>
        <time>2021-04-03T09:42:36Z</time>
      </trkpt>
      <trkpt lat="47.29046" lon="6.02952">
        <ele>368.8</ele>
        <time>2021-04-03T09:42:37Z</time>
      </trkpt>
      <trkpt lat="47.29048" lon="6.02951">
        <ele>369</ele>
        <time>2021-04-03T09:42:38Z</time>
      </trkpt>
      <trkpt lat="47.29051" lon="6.02951">
        <ele>369.2</ele>
        <time>2021-04-03T09:42:39Z</time>
      </trkpt>
      <trkpt lat="47.29054" lon="6.0295">
        <ele>369.4</ele>
        <time>2021-04-03T09:42:40Z</time>
      </trkpt>
      <trkpt lat="47.29056" lon="6.02951">
        <ele>369.6</ele>
        <time>2021-04-03T09:42:41Z</time>
      </trkpt>
      <trkpt lat="47.2906" lon="6.02951">
        <ele>369.8</ele>
        <time>2021-04-03T09:42:42Z</time>
      </trkpt>
      <trkpt lat="47.29063" lon="6.02951">
        <ele>370</ele>
        <time>2021-04-03T09:42:43Z</time>
      </trkpt>
      <trkpt lat="47.29066" lon="6.02951">
        <ele>370</ele>
        <time>2021-04-03T09:42:44Z</time>
      </trkpt>
      <trkpt lat="47.29069" lon="6.02953">
        <ele>370.2</ele>
        <time>2021-04-03T09:42:45Z</time>
      </trkpt>
      <trkpt lat="47.29072" lon="6.02955">
        <ele>370.2</ele>
        <time>2021-04-03T09:42:46Z</time>
      </trkpt>
      <trkpt lat="47.29074" lon="6.02955">
        <ele>370.6</ele>
        <time>2021-04-03T09:42:47Z</time>
      </trkpt>
      <trkpt lat="47.29077" lon="6.02956">
        <ele>370.8</ele>
        <time>2021-04-03T09:42:48Z</time>
      </trkpt>
      <trkpt lat="47.29079" lon="6.02957">
        <ele>371</ele>
        <time>2021-04-03T09:42:49Z</time>
      </trkpt>
      <trkpt lat="47.29081" lon="6.02958">
        <ele>371</ele>
        <time>2021-04-03T09:42:50Z</time>
      </trkpt>
      <trkpt lat="47.29084" lon="6.02958">
        <ele>371.2</ele>
        <time>2021-04-03T09:42:51Z</time>
      </trkpt>
      <trkpt lat="47.29085" lon="6.02958">
        <ele>371.2</ele>
        <time>2021-04-03T09:42:52Z</time>
      </trkpt>
      <trkpt lat="47.29087" lon="6.02958">
        <ele>371.4</ele>
        <time>2021-04-03T09:42:53Z</time>
      </trkpt>
      <trkpt lat="47.29088" lon="6.02958">
        <ele>371.6</ele>
        <time>2021-04-03T09:42:54Z</time>
      </trkpt>
      <trkpt lat="47.29089" lon="6.02959">
        <ele>371.6</ele>
        <time>2021-04-03T09:42:55Z</time>
      </trkpt>
      <trkpt lat="47.29091" lon="6.02959">
        <ele>371.8</ele>
        <time>2021-04-03T09:42:56Z</time>
      </trkpt>
      <trkpt lat="47.29092" lon="6.02959">
        <ele>371.8</ele>
        <time>2021-04-03T09:42:57Z</time>
      </trkpt>
      <trkpt lat="47.29093" lon="6.0296">
        <ele>372</ele>
        <time>2021-04-03T09:42:58Z</time>
      </trkpt>
      <trkpt lat="47.29094" lon="6.02961">
        <ele>372</ele>
        <time>2021-04-03T09:42:59Z</time>
      </trkpt>
      <trkpt lat="47.29096" lon="6.02961">
        <ele>372</ele>
        <time>2021-04-03T09:43:00Z</time>
      </trkpt>
      <trkpt lat="47.29097" lon="6.02962">
        <ele>372</ele>
        <time>2021-04-03T09:43:01Z</time>
      </trkpt>
      <trkpt lat="47.29099" lon="6.02963">
        <ele>372.4</ele>
        <time>2021-04-03T09:43:02Z</time>
      </trkpt>
      <trkpt lat="47.291" lon="6.02965">
        <ele>372.4</ele>
        <time>2021-04-03T09:43:03Z</time>
      </trkpt>
      <trkpt lat="47.29102" lon="6.02966">
        <ele>373</ele>
        <time>2021-04-03T09:43:04Z</time>
      </trkpt>
      <trkpt lat="47.29104" lon="6.02967">
        <ele>373.4</ele>
        <time>2021-04-03T09:43:05Z</time>
      </trkpt>
      <trkpt lat="47.29105" lon="6.02968">
        <ele>373.6</ele>
        <time>2021-04-03T09:43:06Z</time>
      </trkpt>
      <trkpt lat="47.29106" lon="6.02968">
        <ele>373.6</ele>
        <time>2021-04-03T09:43:07Z</time>
      </trkpt>
      <trkpt lat="47.29107" lon="6.02968">
        <ele>373.8</ele>
        <time>2021-04-03T09:43:08Z</time>
      </trkpt>
      <trkpt lat="47.29109" lon="6.02969">
        <ele>373.8</ele>
        <time>2021-04-03T09:43:09Z</time>
      </trkpt>
      <trkpt lat="47.29113" lon="6.0297">
        <ele>373.8</ele>
        <time>2021-04-03T09:43:10Z</time>
      </trkpt>
      <trkpt lat="47.29116" lon="6.02971">
        <ele>374</ele>
        <time>2021-04-03T09:43:11Z</time>
      </trkpt>
      <trkpt lat="47.29118" lon="6.02972">
        <ele>374</ele>
        <time>2021-04-03T09:43:12Z</time>
      </trkpt>
      <trkpt lat="47.29119" lon="6.02973">
        <ele>374.2</ele>
        <time>2021-04-03T09:43:13Z</time>
      </trkpt>
      <trkpt lat="47.29121" lon="6.02974">
        <ele>374.4</ele>
        <time>2021-04-03T09:43:14Z</time>
      </trkpt>
      <trkpt lat="47.29124" lon="6.02975">
        <ele>374.6</ele>
        <time>2021-04-03T09:43:15Z</time>
      </trkpt>
      <trkpt lat="47.29128" lon="6.02976">
        <ele>374.8</ele>
        <time>2021-04-03T09:43:16Z</time>
      </trkpt>
      <trkpt lat="47.2913" lon="6.02975">
        <ele>375</ele>
        <time>2021-04-03T09:43:17Z</time>
      </trkpt>
      <trkpt lat="47.29135" lon="6.02975">
        <ele>375.4</ele>
        <time>2021-04-03T09:43:18Z</time>
      </trkpt>
      <trkpt lat="47.29138" lon="6.02974">
        <ele>375.6</ele>
        <time>2021-04-03T09:43:19Z</time>
      </trkpt>
      <trkpt lat="47.29141" lon="6.02973">
        <ele>375.8</ele>
        <time>2021-04-03T09:43:20Z</time>
      </trkpt>
      <trkpt lat="47.29145" lon="6.02972">
        <ele>376</ele>
        <time>2021-04-03T09:43:21Z</time>
      </trkpt>
      <trkpt lat="47.29148" lon="6.02971">
        <ele>376.2</ele>
        <time>2021-04-03T09:43:22Z</time>
      </trkpt>
      <trkpt lat="47.29151" lon="6.02971">
        <ele>376.2</ele>
        <time>2021-04-03T09:43:23Z</time>
      </trkpt>
      <trkpt lat="47.29153" lon="6.02971">
        <ele>376.2</ele>
        <time>2021-04-03T09:43:24Z</time>
      </trkpt>
      <trkpt lat="47.29156" lon="6.0297">
        <ele>376.4</ele>
        <time>2021-04-03T09:43:25Z</time>
      </trkpt>
      <trkpt lat="47.29159" lon="6.02969">
        <ele>376.4</ele>
        <time>2021-04-03T09:43:26Z</time>
      </trkpt>
      <trkpt lat="47.29161" lon="6.02968">
        <ele>376.4</ele>
        <time>2021-04-03T09:43:27Z</time>
      </trkpt>
      <trkpt lat="47.29163" lon="6.02967">
        <ele>376.6</ele>
        <time>2021-04-03T09:43:28Z</time>
      </trkpt>
      <trkpt lat="47.29165" lon="6.02967">
        <ele>376.8</ele>
        <time>2021-04-03T09:43:29Z</time>
      </trkpt>
      <trkpt lat="47.29167" lon="6.02966">
        <ele>376.8</ele>
        <time>2021-04-03T09:43:30Z</time>
      </trkpt>
      <trkpt lat="47.2917" lon="6.02964">
        <ele>376.8</ele>
        <time>2021-04-03T09:43:31Z</time>
      </trkpt>
      <trkpt lat="47.29172" lon="6.02963">
        <ele>377</ele>
        <time>2021-04-03T09:43:32Z</time>
      </trkpt>
      <trkpt lat="47.29175" lon="6.02962">
        <ele>377.2</ele>
        <time>2021-04-03T09:43:33Z</time>
      </trkpt>
      <trkpt lat="47.29178" lon="6.0296">
        <ele>377.2</ele>
        <time>2021-04-03T09:43:34Z</time>
      </trkpt>
      <trkpt lat="47.29181" lon="6.02958">
        <ele>377.2</ele>
        <time>2021-04-03T09:43:35Z</time>
      </trkpt>
      <trkpt lat="47.29184" lon="6.02956">
        <ele>377.4</ele>
        <time>2021-04-03T09:43:36Z</time>
      </trkpt>
      <trkpt lat="47.29186" lon="6.02955">
        <ele>377.6</ele>
        <time>2021-04-03T09:43:37Z</time>
      </trkpt>
      <trkpt lat="47.29188" lon="6.02952">
        <ele>377.6</ele>
        <time>2021-04-03T09:43:38Z</time>
      </trkpt>
      <trkpt lat="47.2919" lon="6.0295">
        <ele>377.8</ele>
        <time>2021-04-03T09:43:39Z</time>
      </trkpt>
      <trkpt lat="47.29192" lon="6.02947">
        <ele>378</ele>
        <time>2021-04-03T09:43:40Z</time>
      </trkpt>
      <trkpt lat="47.29195" lon="6.02945">
        <ele>378.2</ele>
        <time>2021-04-03T09:43:41Z</time>
      </trkpt>
      <trkpt lat="47.29198" lon="6.02942">
        <ele>378.2</ele>
        <time>2021-04-03T09:43:42Z</time>
      </trkpt>
      <trkpt lat="47.29201" lon="6.0294">
        <ele>378.4</ele>
        <time>2021-04-03T09:43:43Z</time>
      </trkpt>
      <trkpt lat="47.29204" lon="6.0294">
        <ele>378.6</ele>
        <time>2021-04-03T09:43:44Z</time>
      </trkpt>
      <trkpt lat="47.29208" lon="6.02937">
        <ele>378.6</ele>
        <time>2021-04-03T09:43:45Z</time>
      </trkpt>
      <trkpt lat="47.29211" lon="6.02936">
        <ele>378.8</ele>
        <time>2021-04-03T09:43:46Z</time>
      </trkpt>
      <trkpt lat="47.29215" lon="6.02934">
        <ele>378.8</ele>
        <time>2021-04-03T09:43:47Z</time>
      </trkpt>
      <trkpt lat="47.29218" lon="6.02932">
        <ele>378.8</ele>
        <time>2021-04-03T09:43:48Z</time>
      </trkpt>
      <trkpt lat="47.2922" lon="6.0293">
        <ele>379</ele>
        <time>2021-04-03T09:43:49Z</time>
      </trkpt>
      <trkpt lat="47.29221" lon="6.02929">
        <ele>379</ele>
        <time>2021-04-03T09:43:50Z</time>
      </trkpt>
      <trkpt lat="47.29224" lon="6.02928">
        <ele>379</ele>
        <time>2021-04-03T09:43:51Z</time>
      </trkpt>
      <trkpt lat="47.29227" lon="6.02925">
        <ele>379.2</ele>
        <time>2021-04-03T09:43:52Z</time>
      </trkpt>
      <trkpt lat="47.2923" lon="6.02923">
        <ele>379.2</ele>
        <time>2021-04-03T09:43:53Z</time>
      </trkpt>
      <trkpt lat="47.29233" lon="6.02921">
        <ele>379.2</ele>
        <time>2021-04-03T09:43:54Z</time>
      </trkpt>
      <trkpt lat="47.29235" lon="6.0292">
        <ele>379.4</ele>
        <time>2021-04-03T09:43:55Z</time>
      </trkpt>
      <trkpt lat="47.29237" lon="6.02919">
        <ele>379.4</ele>
        <time>2021-04-03T09:43:56Z</time>
      </trkpt>
      <trkpt lat="47.2924" lon="6.02917">
        <ele>379.4</ele>
        <time>2021-04-03T09:43:57Z</time>
      </trkpt>
      <trkpt lat="47.29242" lon="6.02915">
        <ele>379.6</ele>
        <time>2021-04-03T09:43:58Z</time>
      </trkpt>
      <trkpt lat="47.29243" lon="6.02913">
        <ele>379.6</ele>
        <time>2021-04-03T09:43:59Z</time>
      </trkpt>
      <trkpt lat="47.29244" lon="6.02911">
        <ele>379.6</ele>
        <time>2021-04-03T09:44:00Z</time>
      </trkpt>
      <trkpt lat="47.29246" lon="6.0291">
        <ele>379.8</ele>
        <time>2021-04-03T09:44:01Z</time>
      </trkpt>
      <trkpt lat="47.29248" lon="6.0291">
        <ele>379.8</ele>
        <time>2021-04-03T09:44:02Z</time>
      </trkpt>
      <trkpt lat="47.29249" lon="6.02909">
        <ele>379.8</ele>
        <time>2021-04-03T09:44:03Z</time>
      </trkpt>
      <trkpt lat="47.29251" lon="6.02909">
        <ele>379.8</ele>
        <time>2021-04-03T09:44:04Z</time>
      </trkpt>
      <trkpt lat="47.29253" lon="6.02908">
        <ele>379.8</ele>
        <time>2021-04-03T09:44:05Z</time>
      </trkpt>
      <trkpt lat="47.2926" lon="6.02904">
        <ele>380</ele>
        <time>2021-04-03T09:44:09Z</time>
      </trkpt>
      <trkpt lat="47.29267" lon="6.02901">
        <ele>380</ele>
        <time>2021-04-03T09:44:12Z</time>
      </trkpt>
      <trkpt lat="47.29282" lon="6.02898">
        <ele>380.2</ele>
        <time>2021-04-03T09:44:17Z</time>
      </trkpt>
      <trkpt lat="47.29293" lon="6.02896">
        <ele>380.8</ele>
        <time>2021-04-03T09:44:21Z</time>
      </trkpt>
      <trkpt lat="47.29307" lon="6.02897">
        <ele>381.2</ele>
        <time>2021-04-03T09:44:26Z</time>
      </trkpt>
      <trkpt lat="47.29312" lon="6.02898">
        <ele>381.2</ele>
        <time>2021-04-03T09:44:28Z</time>
      </trkpt>
      <trkpt lat="47.29315" lon="6.02899">
        <ele>381.2</ele>
        <time>2021-04-03T09:44:29Z</time>
      </trkpt>
      <trkpt lat="47.29327" lon="6.029">
        <ele>381.6</ele>
        <time>2021-04-03T09:44:33Z</time>
      </trkpt>
      <trkpt lat="47.29328" lon="6.02899">
        <ele>381.6</ele>
        <time>2021-04-03T09:44:34Z</time>
      </trkpt>
      <trkpt lat="47.29329" lon="6.029">
        <ele>381.8</ele>
        <time>2021-04-03T09:44:35Z</time>
      </trkpt>
      <trkpt lat="47.29341" lon="6.02903">
        <ele>382.4</ele>
        <time>2021-04-03T09:44:40Z</time>
      </trkpt>
      <trkpt lat="47.29342" lon="6.02903">
        <ele>382.6</ele>
        <time>2021-04-03T09:44:41Z</time>
      </trkpt>
      <trkpt lat="47.29343" lon="6.02903">
        <ele>382.8</ele>
        <time>2021-04-03T09:44:42Z</time>
      </trkpt>
      <trkpt lat="47.29345" lon="6.02904">
        <ele>383</ele>
        <time>2021-04-03T09:44:43Z</time>
      </trkpt>
      <trkpt lat="47.29346" lon="6.02904">
        <ele>383</ele>
        <time>2021-04-03T09:44:44Z</time>
      </trkpt>
      <trkpt lat="47.2935" lon="6.02903">
        <ele>383.2</ele>
        <time>2021-04-03T09:44:46Z</time>
      </trkpt>
      <trkpt lat="47.29352" lon="6.02903">
        <ele>383.4</ele>
        <time>2021-04-03T09:44:47Z</time>
      </trkpt>
      <trkpt lat="47.29353" lon="6.02903">
        <ele>383.6</ele>
        <time>2021-04-03T09:44:48Z</time>
      </trkpt>
      <trkpt lat="47.29355" lon="6.02903">
        <ele>383.8</ele>
        <time>2021-04-03T09:44:49Z</time>
      </trkpt>
      <trkpt lat="47.29358" lon="6.02903">
        <ele>384</ele>
        <time>2021-04-03T09:44:50Z</time>
      </trkpt>
      <trkpt lat="47.2936" lon="6.02903">
        <ele>384</ele>
        <time>2021-04-03T09:44:51Z</time>
      </trkpt>
      <trkpt lat="47.29363" lon="6.02904">
        <ele>384.4</ele>
        <time>2021-04-03T09:44:52Z</time>
      </trkpt>
      <trkpt lat="47.29366" lon="6.02905">
        <ele>384.4</ele>
        <time>2021-04-03T09:44:53Z</time>
      </trkpt>
      <trkpt lat="47.29369" lon="6.02905">
        <ele>384.8</ele>
        <time>2021-04-03T09:44:54Z</time>
      </trkpt>
      <trkpt lat="47.29371" lon="6.02906">
        <ele>384.8</ele>
        <time>2021-04-03T09:44:55Z</time>
      </trkpt>
      <trkpt lat="47.29375" lon="6.02906">
        <ele>385</ele>
        <time>2021-04-03T09:44:56Z</time>
      </trkpt>
      <trkpt lat="47.29377" lon="6.02907">
        <ele>385.2</ele>
        <time>2021-04-03T09:44:57Z</time>
      </trkpt>
      <trkpt lat="47.29379" lon="6.02908">
        <ele>385.2</ele>
        <time>2021-04-03T09:44:58Z</time>
      </trkpt>
      <trkpt lat="47.29381" lon="6.02909">
        <ele>385.4</ele>
        <time>2021-04-03T09:44:59Z</time>
      </trkpt>
      <trkpt lat="47.29383" lon="6.0291">
        <ele>385.4</ele>
        <time>2021-04-03T09:45:00Z</time>
      </trkpt>
      <trkpt lat="47.29385" lon="6.02912">
        <ele>385.6</ele>
        <time>2021-04-03T09:45:01Z</time>
      </trkpt>
      <trkpt lat="47.29387" lon="6.02913">
        <ele>385.6</ele>
        <time>2021-04-03T09:45:02Z</time>
      </trkpt>
      <trkpt lat="47.2939" lon="6.02913">
        <ele>385.8</ele>
        <time>2021-04-03T09:45:03Z</time>
      </trkpt>
      <trkpt lat="47.29391" lon="6.02914">
        <ele>385.8</ele>
        <time>2021-04-03T09:45:04Z</time>
      </trkpt>
      <trkpt lat="47.29393" lon="6.02915">
        <ele>385.8</ele>
        <time>2021-04-03T09:45:05Z</time>
      </trkpt>
      <trkpt lat="47.29396" lon="6.02917">
        <ele>385.8</ele>
        <time>2021-04-03T09:45:06Z</time>
      </trkpt>
      <trkpt lat="47.29398" lon="6.02919">
        <ele>385.8</ele>
        <time>2021-04-03T09:45:07Z</time>
      </trkpt>
      <trkpt lat="47.29401" lon="6.0292">
        <ele>386</ele>
        <time>2021-04-03T09:45:08Z</time>
      </trkpt>
      <trkpt lat="47.29401" lon="6.0292">
        <ele>386</ele>
        <time>2021-04-03T09:45:09Z</time>
      </trkpt>
      <trkpt lat="47.29404" lon="6.02921">
        <ele>386.2</ele>
        <time>2021-04-03T09:45:10Z</time>
      </trkpt>
      <trkpt lat="47.29408" lon="6.02921">
        <ele>386.6</ele>
        <time>2021-04-03T09:45:11Z</time>
      </trkpt>
      <trkpt lat="47.29411" lon="6.02921">
        <ele>386.6</ele>
        <time>2021-04-03T09:45:12Z</time>
      </trkpt>
      <trkpt lat="47.29414" lon="6.02922">
        <ele>386.8</ele>
        <time>2021-04-03T09:45:13Z</time>
      </trkpt>
      <trkpt lat="47.29416" lon="6.02923">
        <ele>387</ele>
        <time>2021-04-03T09:45:14Z</time>
      </trkpt>
      <trkpt lat="47.29417" lon="6.02924">
        <ele>387.2</ele>
        <time>2021-04-03T09:45:15Z</time>
      </trkpt>
      <trkpt lat="47.29419" lon="6.02926">
        <ele>387.4</ele>
        <time>2021-04-03T09:45:16Z</time>
      </trkpt>
      <trkpt lat="47.29421" lon="6.02927">
        <ele>387.6</ele>
        <time>2021-04-03T09:45:17Z</time>
      </trkpt>
      <trkpt lat="47.29422" lon="6.02927">
        <ele>387.4</ele>
        <time>2021-04-03T09:45:18Z</time>
      </trkpt>
      <trkpt lat="47.29424" lon="6.02927">
        <ele>387.6</ele>
        <time>2021-04-03T09:45:19Z</time>
      </trkpt>
      <trkpt lat="47.29429" lon="6.02927">
        <ele>387.8</ele>
        <time>2021-04-03T09:45:20Z</time>
      </trkpt>
      <trkpt lat="47.29433" lon="6.02927">
        <ele>387.8</ele>
        <time>2021-04-03T09:45:21Z</time>
      </trkpt>
      <trkpt lat="47.29436" lon="6.02926">
        <ele>387.8</ele>
        <time>2021-04-03T09:45:22Z</time>
      </trkpt>
      <trkpt lat="47.29437" lon="6.02927">
        <ele>387.8</ele>
        <time>2021-04-03T09:45:23Z</time>
      </trkpt>
      <trkpt lat="47.2944" lon="6.02928">
        <ele>388</ele>
        <time>2021-04-03T09:45:24Z</time>
      </trkpt>
      <trkpt lat="47.29442" lon="6.02929">
        <ele>387.8</ele>
        <time>2021-04-03T09:45:25Z</time>
      </trkpt>
      <trkpt lat="47.29445" lon="6.0293">
        <ele>388</ele>
        <time>2021-04-03T09:45:26Z</time>
      </trkpt>
      <trkpt lat="47.29448" lon="6.02932">
        <ele>388</ele>
        <time>2021-04-03T09:45:27Z</time>
      </trkpt>
      <trkpt lat="47.29451" lon="6.02932">
        <ele>388.4</ele>
        <time>2021-04-03T09:45:28Z</time>
      </trkpt>
      <trkpt lat="47.29451" lon="6.02932">
        <ele>388.4</ele>
        <time>2021-04-03T09:45:29Z</time>
      </trkpt>
      <trkpt lat="47.29455" lon="6.02932">
        <ele>388.4</ele>
        <time>2021-04-03T09:45:30Z</time>
      </trkpt>
      <trkpt lat="47.29458" lon="6.02931">
        <ele>388.6</ele>
        <time>2021-04-03T09:45:31Z</time>
      </trkpt>
      <trkpt lat="47.29461" lon="6.0293">
        <ele>388.6</ele>
        <time>2021-04-03T09:45:32Z</time>
      </trkpt>
      <trkpt lat="47.29463" lon="6.0293">
        <ele>388.6</ele>
        <time>2021-04-03T09:45:33Z</time>
      </trkpt>
      <trkpt lat="47.29463" lon="6.0293">
        <ele>388.6</ele>
        <time>2021-04-03T09:45:34Z</time>
      </trkpt>
      <trkpt lat="47.29467" lon="6.02933">
        <ele>388.8</ele>
        <time>2021-04-03T09:45:35Z</time>
      </trkpt>
      <trkpt lat="47.29469" lon="6.02934">
        <ele>388.8</ele>
        <time>2021-04-03T09:45:36Z</time>
      </trkpt>
      <trkpt lat="47.29472" lon="6.02935">
        <ele>388.8</ele>
        <time>2021-04-03T09:45:37Z</time>
      </trkpt>
      <trkpt lat="47.29474" lon="6.02935">
        <ele>388.8</ele>
        <time>2021-04-03T09:45:38Z</time>
      </trkpt>
      <trkpt lat="47.29476" lon="6.02935">
        <ele>388.8</ele>
        <time>2021-04-03T09:45:39Z</time>
      </trkpt>
      <trkpt lat="47.29478" lon="6.02936">
        <ele>388.8</ele>
        <time>2021-04-03T09:45:40Z</time>
      </trkpt>
      <trkpt lat="47.29484" lon="6.0294">
        <ele>388.6</ele>
        <time>2021-04-03T09:45:43Z</time>
      </trkpt>
      <trkpt lat="47.295" lon="6.0295">
        <ele>389</ele>
        <time>2021-04-03T09:45:51Z</time>
      </trkpt>
      <trkpt lat="47.29507" lon="6.02956">
        <ele>389.4</ele>
        <time>2021-04-03T09:45:54Z</time>
      </trkpt>
      <trkpt lat="47.29515" lon="6.02962">
        <ele>389.4</ele>
        <time>2021-04-03T09:45:58Z</time>
      </trkpt>
      <trkpt lat="47.2952" lon="6.02966">
        <ele>389.4</ele>
        <time>2021-04-03T09:46:00Z</time>
      </trkpt>
      <trkpt lat="47.2954" lon="6.02986">
        <ele>389</ele>
        <time>2021-04-03T09:46:08Z</time>
      </trkpt>
      <trkpt lat="47.29555" lon="6.03005">
        <ele>388.8</ele>
        <time>2021-04-03T09:46:14Z</time>
      </trkpt>
      <trkpt lat="47.29558" lon="6.03008">
        <ele>388.8</ele>
        <time>2021-04-03T09:46:15Z</time>
      </trkpt>
      <trkpt lat="47.2956" lon="6.0301">
        <ele>388.8</ele>
        <time>2021-04-03T09:46:16Z</time>
      </trkpt>
      <trkpt lat="47.29562" lon="6.03013">
        <ele>388.8</ele>
        <time>2021-04-03T09:46:17Z</time>
      </trkpt>
      <trkpt lat="47.29571" lon="6.03024">
        <ele>388.6</ele>
        <time>2021-04-03T09:46:21Z</time>
      </trkpt>
      <trkpt lat="47.29589" lon="6.03045">
        <ele>388.6</ele>
        <time>2021-04-03T09:46:27Z</time>
      </trkpt>
      <trkpt lat="47.29601" lon="6.03056">
        <ele>388.2</ele>
        <time>2021-04-03T09:46:30Z</time>
      </trkpt>
      <trkpt lat="47.29611" lon="6.03064">
        <ele>387.8</ele>
        <time>2021-04-03T09:46:32Z</time>
      </trkpt>
      <trkpt lat="47.29622" lon="6.03071">
        <ele>386.8</ele>
        <time>2021-04-03T09:46:34Z</time>
      </trkpt>
      <trkpt lat="47.29627" lon="6.03074">
        <ele>386.4</ele>
        <time>2021-04-03T09:46:35Z</time>
      </trkpt>
      <trkpt lat="47.29643" lon="6.03084">
        <ele>385.6</ele>
        <time>2021-04-03T09:46:38Z</time>
      </trkpt>
      <trkpt lat="47.29654" lon="6.03091">
        <ele>385</ele>
        <time>2021-04-03T09:46:40Z</time>
      </trkpt>
      <trkpt lat="47.29668" lon="6.03104">
        <ele>384.6</ele>
        <time>2021-04-03T09:46:43Z</time>
      </trkpt>
      <trkpt lat="47.29675" lon="6.03112">
        <ele>384.2</ele>
        <time>2021-04-03T09:46:45Z</time>
      </trkpt>
      <trkpt lat="47.29679" lon="6.03116">
        <ele>384</ele>
        <time>2021-04-03T09:46:46Z</time>
      </trkpt>
      <trkpt lat="47.29683" lon="6.03118">
        <ele>384</ele>
        <time>2021-04-03T09:46:47Z</time>
      </trkpt>
      <trkpt lat="47.29687" lon="6.03121">
        <ele>384</ele>
        <time>2021-04-03T09:46:48Z</time>
      </trkpt>
      <trkpt lat="47.29691" lon="6.03124">
        <ele>383.8</ele>
        <time>2021-04-03T09:46:49Z</time>
      </trkpt>
      <trkpt lat="47.29695" lon="6.03127">
        <ele>383.8</ele>
        <time>2021-04-03T09:46:50Z</time>
      </trkpt>
      <trkpt lat="47.29699" lon="6.03129">
        <ele>383.8</ele>
        <time>2021-04-03T09:46:51Z</time>
      </trkpt>
      <trkpt lat="47.29707" lon="6.03134">
        <ele>383.8</ele>
        <time>2021-04-03T09:46:53Z</time>
      </trkpt>
      <trkpt lat="47.29726" lon="6.03142">
        <ele>383.6</ele>
        <time>2021-04-03T09:46:57Z</time>
      </trkpt>
      <trkpt lat="47.2973" lon="6.03143">
        <ele>383.6</ele>
        <time>2021-04-03T09:46:58Z</time>
      </trkpt>
      <trkpt lat="47.29734" lon="6.03145">
        <ele>383.6</ele>
        <time>2021-04-03T09:46:59Z</time>
      </trkpt>
      <trkpt lat="47.29738" lon="6.03146">
        <ele>383.6</ele>
        <time>2021-04-03T09:47:00Z</time>
      </trkpt>
      <trkpt lat="47.29741" lon="6.03148">
        <ele>383.6</ele>
        <time>2021-04-03T09:47:01Z</time>
      </trkpt>
      <trkpt lat="47.29744" lon="6.0315">
        <ele>383.6</ele>
        <time>2021-04-03T09:47:02Z</time>
      </trkpt>
      <trkpt lat="47.29748" lon="6.03151">
        <ele>383.6</ele>
        <time>2021-04-03T09:47:03Z</time>
      </trkpt>
      <trkpt lat="47.29763" lon="6.03156">
        <ele>384</ele>
        <time>2021-04-03T09:47:07Z</time>
      </trkpt>
      <trkpt lat="47.29766" lon="6.03156">
        <ele>384</ele>
        <time>2021-04-03T09:47:08Z</time>
      </trkpt>
      <trkpt lat="47.29769" lon="6.03157">
        <ele>384</ele>
        <time>2021-04-03T09:47:09Z</time>
      </trkpt>
      <trkpt lat="47.29772" lon="6.03157">
        <ele>384.2</ele>
        <time>2021-04-03T09:47:10Z</time>
      </trkpt>
      <trkpt lat="47.29775" lon="6.03157">
        <ele>384.4</ele>
        <time>2021-04-03T09:47:11Z</time>
      </trkpt>
      <trkpt lat="47.29782" lon="6.03156">
        <ele>384.6</ele>
        <time>2021-04-03T09:47:13Z</time>
      </trkpt>
      <trkpt lat="47.29785" lon="6.03156">
        <ele>384.8</ele>
        <time>2021-04-03T09:47:14Z</time>
      </trkpt>
      <trkpt lat="47.29788" lon="6.03155">
        <ele>384.8</ele>
        <time>2021-04-03T09:47:15Z</time>
      </trkpt>
      <trkpt lat="47.29791" lon="6.03154">
        <ele>385</ele>
        <time>2021-04-03T09:47:16Z</time>
      </trkpt>
      <trkpt lat="47.29794" lon="6.03153">
        <ele>385</ele>
        <time>2021-04-03T09:47:17Z</time>
      </trkpt>
      <trkpt lat="47.29796" lon="6.03153">
        <ele>385.2</ele>
        <time>2021-04-03T09:47:18Z</time>
      </trkpt>
      <trkpt lat="47.29807" lon="6.03151">
        <ele>385.6</ele>
        <time>2021-04-03T09:47:22Z</time>
      </trkpt>
      <trkpt lat="47.29809" lon="6.03151">
        <ele>385.8</ele>
        <time>2021-04-03T09:47:23Z</time>
      </trkpt>
      <trkpt lat="47.29811" lon="6.0315">
        <ele>385.8</ele>
        <time>2021-04-03T09:47:24Z</time>
      </trkpt>
      <trkpt lat="47.29812" lon="6.03149">
        <ele>386.2</ele>
        <time>2021-04-03T09:47:25Z</time>
      </trkpt>
      <trkpt lat="47.29814" lon="6.03148">
        <ele>386.4</ele>
        <time>2021-04-03T09:47:26Z</time>
      </trkpt>
      <trkpt lat="47.29816" lon="6.03148">
        <ele>386.6</ele>
        <time>2021-04-03T09:47:27Z</time>
      </trkpt>
      <trkpt lat="47.29816" lon="6.03148">
        <ele>386.8</ele>
        <time>2021-04-03T09:47:28Z</time>
      </trkpt>
      <trkpt lat="47.29819" lon="6.03146">
        <ele>387</ele>
        <time>2021-04-03T09:47:29Z</time>
      </trkpt>
      <trkpt lat="47.29822" lon="6.03145">
        <ele>387.4</ele>
        <time>2021-04-03T09:47:31Z</time>
      </trkpt>
      <trkpt lat="47.29824" lon="6.03144">
        <ele>387.4</ele>
        <time>2021-04-03T09:47:32Z</time>
      </trkpt>
      <trkpt lat="47.29825" lon="6.03143">
        <ele>387.8</ele>
        <time>2021-04-03T09:47:33Z</time>
      </trkpt>
      <trkpt lat="47.29826" lon="6.03142">
        <ele>388</ele>
        <time>2021-04-03T09:47:34Z</time>
      </trkpt>
      <trkpt lat="47.29828" lon="6.03141">
        <ele>388</ele>
        <time>2021-04-03T09:47:35Z</time>
      </trkpt>
      <trkpt lat="47.29828" lon="6.03141">
        <ele>388.2</ele>
        <time>2021-04-03T09:47:36Z</time>
      </trkpt>
      <trkpt lat="47.29831" lon="6.03141">
        <ele>388.2</ele>
        <time>2021-04-03T09:47:37Z</time>
      </trkpt>
      <trkpt lat="47.29834" lon="6.0314">
        <ele>388.4</ele>
        <time>2021-04-03T09:47:38Z</time>
      </trkpt>
      <trkpt lat="47.29835" lon="6.03139">
        <ele>388.4</ele>
        <time>2021-04-03T09:47:39Z</time>
      </trkpt>
      <trkpt lat="47.29837" lon="6.03138">
        <ele>388.2</ele>
        <time>2021-04-03T09:47:40Z</time>
      </trkpt>
      <trkpt lat="47.29839" lon="6.03138">
        <ele>388.4</ele>
        <time>2021-04-03T09:47:41Z</time>
      </trkpt>
      <trkpt lat="47.2984" lon="6.03137">
        <ele>388.6</ele>
        <time>2021-04-03T09:47:42Z</time>
      </trkpt>
      <trkpt lat="47.29842" lon="6.03136">
        <ele>388.8</ele>
        <time>2021-04-03T09:47:43Z</time>
      </trkpt>
      <trkpt lat="47.29844" lon="6.03135">
        <ele>389</ele>
        <time>2021-04-03T09:47:44Z</time>
      </trkpt>
      <trkpt lat="47.29847" lon="6.03134">
        <ele>389</ele>
        <time>2021-04-03T09:47:45Z</time>
      </trkpt>
      <trkpt lat="47.29848" lon="6.03133">
        <ele>389</ele>
        <time>2021-04-03T09:47:46Z</time>
      </trkpt>
      <trkpt lat="47.29849" lon="6.03133">
        <ele>389.4</ele>
        <time>2021-04-03T09:47:47Z</time>
      </trkpt>
      <trkpt lat="47.29851" lon="6.03131">
        <ele>389.4</ele>
        <time>2021-04-03T09:47:48Z</time>
      </trkpt>
      <trkpt lat="47.29853" lon="6.0313">
        <ele>389.6</ele>
        <time>2021-04-03T09:47:49Z</time>
      </trkpt>
      <trkpt lat="47.29855" lon="6.03129">
        <ele>389.6</ele>
        <time>2021-04-03T09:47:50Z</time>
      </trkpt>
      <trkpt lat="47.29857" lon="6.03127">
        <ele>389.8</ele>
        <time>2021-04-03T09:47:51Z</time>
      </trkpt>
      <trkpt lat="47.29859" lon="6.03126">
        <ele>390</ele>
        <time>2021-04-03T09:47:52Z</time>
      </trkpt>
      <trkpt lat="47.29862" lon="6.03125">
        <ele>390.2</ele>
        <time>2021-04-03T09:47:53Z</time>
      </trkpt>
      <trkpt lat="47.29866" lon="6.03124">
        <ele>390.2</ele>
        <time>2021-04-03T09:47:54Z</time>
      </trkpt>
      <trkpt lat="47.29867" lon="6.03124">
        <ele>390.4</ele>
        <time>2021-04-03T09:47:55Z</time>
      </trkpt>
      <trkpt lat="47.29869" lon="6.03123">
        <ele>390.6</ele>
        <time>2021-04-03T09:47:56Z</time>
      </trkpt>
      <trkpt lat="47.29871" lon="6.03123">
        <ele>390.8</ele>
        <time>2021-04-03T09:47:57Z</time>
      </trkpt>
      <trkpt lat="47.29873" lon="6.03121">
        <ele>391</ele>
        <time>2021-04-03T09:47:58Z</time>
      </trkpt>
      <trkpt lat="47.29875" lon="6.0312">
        <ele>391.2</ele>
        <time>2021-04-03T09:47:59Z</time>
      </trkpt>
      <trkpt lat="47.29876" lon="6.0312">
        <ele>391.6</ele>
        <time>2021-04-03T09:48:00Z</time>
      </trkpt>
      <trkpt lat="47.29877" lon="6.03118">
        <ele>391.6</ele>
        <time>2021-04-03T09:48:01Z</time>
      </trkpt>
      <trkpt lat="47.29877" lon="6.03117">
        <ele>392</ele>
        <time>2021-04-03T09:48:02Z</time>
      </trkpt>
      <trkpt lat="47.29878" lon="6.03115">
        <ele>392</ele>
        <time>2021-04-03T09:48:03Z</time>
      </trkpt>
      <trkpt lat="47.29881" lon="6.03113">
        <ele>392.4</ele>
        <time>2021-04-03T09:48:04Z</time>
      </trkpt>
      <trkpt lat="47.29884" lon="6.03112">
        <ele>392.6</ele>
        <time>2021-04-03T09:48:05Z</time>
      </trkpt>
      <trkpt lat="47.29887" lon="6.0311">
        <ele>392.8</ele>
        <time>2021-04-03T09:48:06Z</time>
      </trkpt>
      <trkpt lat="47.29888" lon="6.0311">
        <ele>393</ele>
        <time>2021-04-03T09:48:07Z</time>
      </trkpt>
      <trkpt lat="47.2989" lon="6.03111">
        <ele>393.2</ele>
        <time>2021-04-03T09:48:08Z</time>
      </trkpt>
      <trkpt lat="47.29891" lon="6.03109">
        <ele>393.4</ele>
        <time>2021-04-03T09:48:09Z</time>
      </trkpt>
      <trkpt lat="47.29892" lon="6.03108">
        <ele>393.6</ele>
        <time>2021-04-03T09:48:10Z</time>
      </trkpt>
      <trkpt lat="47.29894" lon="6.03106">
        <ele>393.8</ele>
        <time>2021-04-03T09:48:11Z</time>
      </trkpt>
      <trkpt lat="47.29896" lon="6.03104">
        <ele>393.8</ele>
        <time>2021-04-03T09:48:12Z</time>
      </trkpt>
      <trkpt lat="47.29898" lon="6.03103">
        <ele>394</ele>
        <time>2021-04-03T09:48:13Z</time>
      </trkpt>
      <trkpt lat="47.29902" lon="6.03102">
        <ele>394</ele>
        <time>2021-04-03T09:48:14Z</time>
      </trkpt>
      <trkpt lat="47.29903" lon="6.03101">
        <ele>394</ele>
        <time>2021-04-03T09:48:15Z</time>
      </trkpt>
      <trkpt lat="47.29904" lon="6.031">
        <ele>394.2</ele>
        <time>2021-04-03T09:48:16Z</time>
      </trkpt>
      <trkpt lat="47.29903" lon="6.03099">
        <ele>394.2</ele>
        <time>2021-04-03T09:48:17Z</time>
      </trkpt>
      <trkpt lat="47.29905" lon="6.03099">
        <ele>394.2</ele>
        <time>2021-04-03T09:48:18Z</time>
      </trkpt>
      <trkpt lat="47.29907" lon="6.03098">
        <ele>394.2</ele>
        <time>2021-04-03T09:48:19Z</time>
      </trkpt>
      <trkpt lat="47.29908" lon="6.03096">
        <ele>394.4</ele>
        <time>2021-04-03T09:48:20Z</time>
      </trkpt>
      <trkpt lat="47.2991" lon="6.03095">
        <ele>394.6</ele>
        <time>2021-04-03T09:48:21Z</time>
      </trkpt>
      <trkpt lat="47.29912" lon="6.03094">
        <ele>395</ele>
        <time>2021-04-03T09:48:22Z</time>
      </trkpt>
      <trkpt lat="47.29914" lon="6.03093">
        <ele>395.2</ele>
        <time>2021-04-03T09:48:23Z</time>
      </trkpt>
      <trkpt lat="47.29916" lon="6.03091">
        <ele>395.4</ele>
        <time>2021-04-03T09:48:24Z</time>
      </trkpt>
      <trkpt lat="47.29918" lon="6.0309">
        <ele>395.6</ele>
        <time>2021-04-03T09:48:25Z</time>
      </trkpt>
      <trkpt lat="47.2992" lon="6.03089">
        <ele>396</ele>
        <time>2021-04-03T09:48:26Z</time>
      </trkpt>
      <trkpt lat="47.29922" lon="6.03088">
        <ele>396.2</ele>
        <time>2021-04-03T09:48:27Z</time>
      </trkpt>
      <trkpt lat="47.29925" lon="6.03087">
        <ele>396.4</ele>
        <time>2021-04-03T09:48:28Z</time>
      </trkpt>
      <trkpt lat="47.29927" lon="6.03086">
        <ele>396.6</ele>
        <time>2021-04-03T09:48:29Z</time>
      </trkpt>
      <trkpt lat="47.29929" lon="6.03084">
        <ele>396.6</ele>
        <time>2021-04-03T09:48:30Z</time>
      </trkpt>
      <trkpt lat="47.2993" lon="6.03082">
        <ele>396.6</ele>
        <time>2021-04-03T09:48:31Z</time>
      </trkpt>
      <trkpt lat="47.2993" lon="6.03082">
        <ele>396.8</ele>
        <time>2021-04-03T09:48:32Z</time>
      </trkpt>
      <trkpt lat="47.29931" lon="6.03082">
        <ele>397</ele>
        <time>2021-04-03T09:48:33Z</time>
      </trkpt>
      <trkpt lat="47.29931" lon="6.03083">
        <ele>397</ele>
        <time>2021-04-03T09:48:34Z</time>
      </trkpt>
      <trkpt lat="47.29931" lon="6.03084">
        <ele>397.2</ele>
        <time>2021-04-03T09:48:35Z</time>
      </trkpt>
      <trkpt lat="47.29931" lon="6.03085">
        <ele>397.2</ele>
        <time>2021-04-03T09:48:36Z</time>
      </trkpt>
      <trkpt lat="47.29932" lon="6.03085">
        <ele>397.4</ele>
        <time>2021-04-03T09:48:40Z</time>
      </trkpt>
      <trkpt lat="47.29933" lon="6.03084">
        <ele>397.4</ele>
        <time>2021-04-03T09:48:41Z</time>
      </trkpt>
      <trkpt lat="47.29934" lon="6.03083">
        <ele>397.4</ele>
        <time>2021-04-03T09:48:42Z</time>
      </trkpt>
      <trkpt lat="47.29934" lon="6.03083">
        <ele>397.4</ele>
        <time>2021-04-03T09:48:43Z</time>
      </trkpt>
      <trkpt lat="47.29935" lon="6.03083">
        <ele>397.4</ele>
        <time>2021-04-03T09:48:44Z</time>
      </trkpt>
      <trkpt lat="47.29936" lon="6.03083">
        <ele>397.4</ele>
        <time>2021-04-03T09:48:45Z</time>
      </trkpt>
      <trkpt lat="47.29937" lon="6.03083">
        <ele>397.6</ele>
        <time>2021-04-03T09:48:46Z</time>
      </trkpt>
      <trkpt lat="47.29938" lon="6.03083">
        <ele>397.6</ele>
        <time>2021-04-03T09:48:47Z</time>
      </trkpt>
      <trkpt lat="47.29939" lon="6.03083">
        <ele>397.6</ele>
        <time>2021-04-03T09:48:48Z</time>
      </trkpt>
      <trkpt lat="47.2994" lon="6.03084">
        <ele>397.6</ele>
        <time>2021-04-03T09:48:49Z</time>
      </trkpt>
      <trkpt lat="47.29941" lon="6.03083">
        <ele>397.6</ele>
        <time>2021-04-03T09:48:50Z</time>
      </trkpt>
      <trkpt lat="47.29941" lon="6.03083">
        <ele>397.6</ele>
        <time>2021-04-03T09:48:51Z</time>
      </trkpt>
      <trkpt lat="47.29942" lon="6.03082">
        <ele>397.8</ele>
        <time>2021-04-03T09:48:52Z</time>
      </trkpt>
      <trkpt lat="47.29944" lon="6.03082">
        <ele>397.8</ele>
        <time>2021-04-03T09:48:55Z</time>
      </trkpt>
      <trkpt lat="47.29945" lon="6.03083">
        <ele>398</ele>
        <time>2021-04-03T09:48:59Z</time>
      </trkpt>
      <trkpt lat="47.29945" lon="6.03083">
        <ele>397.8</ele>
        <time>2021-04-03T09:49:12Z</time>
      </trkpt>
      <trkpt lat="47.29945" lon="6.03083">
        <ele>397</ele>
        <time>2021-04-03T09:49:42Z</time>
      </trkpt>
      <trkpt lat="47.29945" lon="6.03083">
        <ele>397.6</ele>
        <time>2021-04-03T09:50:05Z</time>
      </trkpt>
      <trkpt lat="47.29946" lon="6.03082">
        <ele>397.6</ele>
        <time>2021-04-03T09:50:31Z</time>
      </trkpt>
      <trkpt lat="47.2995" lon="6.03079">
        <ele>397.8</ele>
        <time>2021-04-03T09:50:34Z</time>
      </trkpt>
      <trkpt lat="47.29951" lon="6.03078">
        <ele>397.8</ele>
        <time>2021-04-03T09:50:35Z</time>
      </trkpt>
      <trkpt lat="47.29954" lon="6.03077">
        <ele>398</ele>
        <time>2021-04-03T09:50:37Z</time>
      </trkpt>
      <trkpt lat="47.29956" lon="6.03076">
        <ele>398</ele>
        <time>2021-04-03T09:50:38Z</time>
      </trkpt>
      <trkpt lat="47.29958" lon="6.03074">
        <ele>398.4</ele>
        <time>2021-04-03T09:50:40Z</time>
      </trkpt>
      <trkpt lat="47.29963" lon="6.03072">
        <ele>398.8</ele>
        <time>2021-04-03T09:50:43Z</time>
      </trkpt>
      <trkpt lat="47.29967" lon="6.03071">
        <ele>399.2</ele>
        <time>2021-04-03T09:50:45Z</time>
      </trkpt>
      <trkpt lat="47.2997" lon="6.03069">
        <ele>399.4</ele>
        <time>2021-04-03T09:50:47Z</time>
      </trkpt>
      <trkpt lat="47.29988" lon="6.03059">
        <ele>399.8</ele>
        <time>2021-04-03T09:50:56Z</time>
      </trkpt>
      <trkpt lat="47.29996" lon="6.03056">
        <ele>400.2</ele>
        <time>2021-04-03T09:51:00Z</time>
      </trkpt>
      <trkpt lat="47.3" lon="6.03056">
        <ele>400.4</ele>
        <time>2021-04-03T09:51:02Z</time>
      </trkpt>
      <trkpt lat="47.30002" lon="6.03057">
        <ele>400.6</ele>
        <time>2021-04-03T09:51:03Z</time>
      </trkpt>
      <trkpt lat="47.30003" lon="6.03058">
        <ele>400.6</ele>
        <time>2021-04-03T09:51:04Z</time>
      </trkpt>
      <trkpt lat="47.30005" lon="6.03059">
        <ele>400.8</ele>
        <time>2021-04-03T09:51:05Z</time>
      </trkpt>
      <trkpt lat="47.30007" lon="6.0306">
        <ele>400.8</ele>
        <time>2021-04-03T09:51:06Z</time>
      </trkpt>
      <trkpt lat="47.30012" lon="6.03065">
        <ele>401.2</ele>
        <time>2021-04-03T09:51:09Z</time>
      </trkpt>
      <trkpt lat="47.30013" lon="6.03067">
        <ele>401.4</ele>
        <time>2021-04-03T09:51:10Z</time>
      </trkpt>
      <trkpt lat="47.30016" lon="6.03074">
        <ele>402.2</ele>
        <time>2021-04-03T09:51:13Z</time>
      </trkpt>
      <trkpt lat="47.30017" lon="6.03076">
        <ele>402.2</ele>
        <time>2021-04-03T09:51:14Z</time>
      </trkpt>
      <trkpt lat="47.30019" lon="6.03079">
        <ele>402.4</ele>
        <time>2021-04-03T09:51:15Z</time>
      </trkpt>
      <trkpt lat="47.3002" lon="6.03081">
        <ele>402.6</ele>
        <time>2021-04-03T09:51:16Z</time>
      </trkpt>
      <trkpt lat="47.30021" lon="6.03083">
        <ele>402.8</ele>
        <time>2021-04-03T09:51:17Z</time>
      </trkpt>
      <trkpt lat="47.30022" lon="6.03085">
        <ele>403</ele>
        <time>2021-04-03T09:51:18Z</time>
      </trkpt>
      <trkpt lat="47.30023" lon="6.03086">
        <ele>403.2</ele>
        <time>2021-04-03T09:51:19Z</time>
      </trkpt>
      <trkpt lat="47.30025" lon="6.03089">
        <ele>403.6</ele>
        <time>2021-04-03T09:51:20Z</time>
      </trkpt>
      <trkpt lat="47.30026" lon="6.0309">
        <ele>403.8</ele>
        <time>2021-04-03T09:51:21Z</time>
      </trkpt>
      <trkpt lat="47.30027" lon="6.03092">
        <ele>404</ele>
        <time>2021-04-03T09:51:22Z</time>
      </trkpt>
      <trkpt lat="47.30028" lon="6.03094">
        <ele>404.2</ele>
        <time>2021-04-03T09:51:23Z</time>
      </trkpt>
      <trkpt lat="47.30028" lon="6.03096">
        <ele>404.6</ele>
        <time>2021-04-03T09:51:24Z</time>
      </trkpt>
      <trkpt lat="47.3003" lon="6.03098">
        <ele>404.8</ele>
        <time>2021-04-03T09:51:25Z</time>
      </trkpt>
      <trkpt lat="47.3003" lon="6.031">
        <ele>405.2</ele>
        <time>2021-04-03T09:51:26Z</time>
      </trkpt>
      <trkpt lat="47.30031" lon="6.03102">
        <ele>405.4</ele>
        <time>2021-04-03T09:51:27Z</time>
      </trkpt>
      <trkpt lat="47.30031" lon="6.03104">
        <ele>405.8</ele>
        <time>2021-04-03T09:51:28Z</time>
      </trkpt>
      <trkpt lat="47.30032" lon="6.03106">
        <ele>405.8</ele>
        <time>2021-04-03T09:51:29Z</time>
      </trkpt>
      <trkpt lat="47.30033" lon="6.03109">
        <ele>406</ele>
        <time>2021-04-03T09:51:30Z</time>
      </trkpt>
      <trkpt lat="47.30034" lon="6.03111">
        <ele>406.4</ele>
        <time>2021-04-03T09:51:31Z</time>
      </trkpt>
      <trkpt lat="47.30035" lon="6.03112">
        <ele>406.8</ele>
        <time>2021-04-03T09:51:32Z</time>
      </trkpt>
      <trkpt lat="47.30036" lon="6.03113">
        <ele>407</ele>
        <time>2021-04-03T09:51:33Z</time>
      </trkpt>
      <trkpt lat="47.30037" lon="6.03115">
        <ele>407.2</ele>
        <time>2021-04-03T09:51:34Z</time>
      </trkpt>
      <trkpt lat="47.30039" lon="6.03117">
        <ele>407.4</ele>
        <time>2021-04-03T09:51:35Z</time>
      </trkpt>
      <trkpt lat="47.3004" lon="6.03119">
        <ele>407.6</ele>
        <time>2021-04-03T09:51:36Z</time>
      </trkpt>
      <trkpt lat="47.30041" lon="6.03121">
        <ele>408</ele>
        <time>2021-04-03T09:51:37Z</time>
      </trkpt>
      <trkpt lat="47.30042" lon="6.03123">
        <ele>408.2</ele>
        <time>2021-04-03T09:51:38Z</time>
      </trkpt>
      <trkpt lat="47.30043" lon="6.03124">
        <ele>408.4</ele>
        <time>2021-04-03T09:51:39Z</time>
      </trkpt>
      <trkpt lat="47.30045" lon="6.03126">
        <ele>408.6</ele>
        <time>2021-04-03T09:51:40Z</time>
      </trkpt>
      <trkpt lat="47.30046" lon="6.03127">
        <ele>408.8</ele>
        <time>2021-04-03T09:51:41Z</time>
      </trkpt>
      <trkpt lat="47.30047" lon="6.03128">
        <ele>409.2</ele>
        <time>2021-04-03T09:51:42Z</time>
      </trkpt>
      <trkpt lat="47.30048" lon="6.0313">
        <ele>409.4</ele>
        <time>2021-04-03T09:51:43Z</time>
      </trkpt>
      <trkpt lat="47.30049" lon="6.03131">
        <ele>409.4</ele>
        <time>2021-04-03T09:51:44Z</time>
      </trkpt>
      <trkpt lat="47.30051" lon="6.03132">
        <ele>409.6</ele>
        <time>2021-04-03T09:51:45Z</time>
      </trkpt>
      <trkpt lat="47.30052" lon="6.03134">
        <ele>409.6</ele>
        <time>2021-04-03T09:51:46Z</time>
      </trkpt>
      <trkpt lat="47.30053" lon="6.03135">
        <ele>409.6</ele>
        <time>2021-04-03T09:51:47Z</time>
      </trkpt>
      <trkpt lat="47.30054" lon="6.03137">
        <ele>409.8</ele>
        <time>2021-04-03T09:51:48Z</time>
      </trkpt>
      <trkpt lat="47.30056" lon="6.03138">
        <ele>409.8</ele>
        <time>2021-04-03T09:51:49Z</time>
      </trkpt>
      <trkpt lat="47.30057" lon="6.03139">
        <ele>409.8</ele>
        <time>2021-04-03T09:51:50Z</time>
      </trkpt>
      <trkpt lat="47.30058" lon="6.0314">
        <ele>410</ele>
        <time>2021-04-03T09:51:51Z</time>
      </trkpt>
      <trkpt lat="47.30059" lon="6.03141">
        <ele>410</ele>
        <time>2021-04-03T09:51:52Z</time>
      </trkpt>
      <trkpt lat="47.3006" lon="6.03142">
        <ele>410.4</ele>
        <time>2021-04-03T09:51:53Z</time>
      </trkpt>
      <trkpt lat="47.30061" lon="6.03144">
        <ele>410.6</ele>
        <time>2021-04-03T09:51:54Z</time>
      </trkpt>
      <trkpt lat="47.30062" lon="6.03145">
        <ele>410.8</ele>
        <time>2021-04-03T09:51:55Z</time>
      </trkpt>
      <trkpt lat="47.30063" lon="6.03145">
        <ele>411</ele>
        <time>2021-04-03T09:51:56Z</time>
      </trkpt>
      <trkpt lat="47.30064" lon="6.03146">
        <ele>411.2</ele>
        <time>2021-04-03T09:51:57Z</time>
      </trkpt>
      <trkpt lat="47.30066" lon="6.03146">
        <ele>411.4</ele>
        <time>2021-04-03T09:51:58Z</time>
      </trkpt>
      <trkpt lat="47.30068" lon="6.03147">
        <ele>411.6</ele>
        <time>2021-04-03T09:51:59Z</time>
      </trkpt>
      <trkpt lat="47.30069" lon="6.03147">
        <ele>411.6</ele>
        <time>2021-04-03T09:52:00Z</time>
      </trkpt>
      <trkpt lat="47.30071" lon="6.03148">
        <ele>411.8</ele>
        <time>2021-04-03T09:52:01Z</time>
      </trkpt>
      <trkpt lat="47.30073" lon="6.03149">
        <ele>411.8</ele>
        <time>2021-04-03T09:52:02Z</time>
      </trkpt>
      <trkpt lat="47.30075" lon="6.0315">
        <ele>411.8</ele>
        <time>2021-04-03T09:52:03Z</time>
      </trkpt>
      <trkpt lat="47.30076" lon="6.0315">
        <ele>411.8</ele>
        <time>2021-04-03T09:52:04Z</time>
      </trkpt>
      <trkpt lat="47.30078" lon="6.03151">
        <ele>411.8</ele>
        <time>2021-04-03T09:52:05Z</time>
      </trkpt>
      <trkpt lat="47.3008" lon="6.03152">
        <ele>411.8</ele>
        <time>2021-04-03T09:52:06Z</time>
      </trkpt>
      <trkpt lat="47.30081" lon="6.03152">
        <ele>411.8</ele>
        <time>2021-04-03T09:52:07Z</time>
      </trkpt>
      <trkpt lat="47.30083" lon="6.03153">
        <ele>411.8</ele>
        <time>2021-04-03T09:52:08Z</time>
      </trkpt>
      <trkpt lat="47.30086" lon="6.03154">
        <ele>411.8</ele>
        <time>2021-04-03T09:52:09Z</time>
      </trkpt>
      <trkpt lat="47.30088" lon="6.03154">
        <ele>412</ele>
        <time>2021-04-03T09:52:10Z</time>
      </trkpt>
      <trkpt lat="47.3009" lon="6.03154">
        <ele>412</ele>
        <time>2021-04-03T09:52:11Z</time>
      </trkpt>
      <trkpt lat="47.30091" lon="6.03154">
        <ele>412</ele>
        <time>2021-04-03T09:52:12Z</time>
      </trkpt>
      <trkpt lat="47.30093" lon="6.03154">
        <ele>412.2</ele>
        <time>2021-04-03T09:52:13Z</time>
      </trkpt>
      <trkpt lat="47.30095" lon="6.03154">
        <ele>412.2</ele>
        <time>2021-04-03T09:52:14Z</time>
      </trkpt>
      <trkpt lat="47.30096" lon="6.03155">
        <ele>412.6</ele>
        <time>2021-04-03T09:52:15Z</time>
      </trkpt>
      <trkpt lat="47.30098" lon="6.03155">
        <ele>412.8</ele>
        <time>2021-04-03T09:52:16Z</time>
      </trkpt>
      <trkpt lat="47.30099" lon="6.03155">
        <ele>413</ele>
        <time>2021-04-03T09:52:17Z</time>
      </trkpt>
      <trkpt lat="47.301" lon="6.03155">
        <ele>413.2</ele>
        <time>2021-04-03T09:52:18Z</time>
      </trkpt>
      <trkpt lat="47.30102" lon="6.03155">
        <ele>413.2</ele>
        <time>2021-04-03T09:52:19Z</time>
      </trkpt>
      <trkpt lat="47.30104" lon="6.03155">
        <ele>413.2</ele>
        <time>2021-04-03T09:52:20Z</time>
      </trkpt>
      <trkpt lat="47.30105" lon="6.03154">
        <ele>413.4</ele>
        <time>2021-04-03T09:52:21Z</time>
      </trkpt>
      <trkpt lat="47.30107" lon="6.03154">
        <ele>413.6</ele>
        <time>2021-04-03T09:52:22Z</time>
      </trkpt>
      <trkpt lat="47.30109" lon="6.03153">
        <ele>413.6</ele>
        <time>2021-04-03T09:52:23Z</time>
      </trkpt>
      <trkpt lat="47.30111" lon="6.03153">
        <ele>413.6</ele>
        <time>2021-04-03T09:52:24Z</time>
      </trkpt>
      <trkpt lat="47.30113" lon="6.03152">
        <ele>413.6</ele>
        <time>2021-04-03T09:52:25Z</time>
      </trkpt>
      <trkpt lat="47.30116" lon="6.03151">
        <ele>413.8</ele>
        <time>2021-04-03T09:52:26Z</time>
      </trkpt>
      <trkpt lat="47.30118" lon="6.0315">
        <ele>413.8</ele>
        <time>2021-04-03T09:52:27Z</time>
      </trkpt>
      <trkpt lat="47.30121" lon="6.03151">
        <ele>413.8</ele>
        <time>2021-04-03T09:52:28Z</time>
      </trkpt>
      <trkpt lat="47.30123" lon="6.0315">
        <ele>413.8</ele>
        <time>2021-04-03T09:52:29Z</time>
      </trkpt>
      <trkpt lat="47.30125" lon="6.0315">
        <ele>414</ele>
        <time>2021-04-03T09:52:30Z</time>
      </trkpt>
      <trkpt lat="47.30131" lon="6.0315">
        <ele>414</ele>
        <time>2021-04-03T09:52:33Z</time>
      </trkpt>
      <trkpt lat="47.30137" lon="6.03147">
        <ele>414</ele>
        <time>2021-04-03T09:52:37Z</time>
      </trkpt>
      <trkpt lat="47.30138" lon="6.03148">
        <ele>414</ele>
        <time>2021-04-03T09:52:38Z</time>
      </trkpt>
      <trkpt lat="47.3014" lon="6.03147">
        <ele>414</ele>
        <time>2021-04-03T09:52:39Z</time>
      </trkpt>
      <trkpt lat="47.30141" lon="6.03147">
        <ele>414</ele>
        <time>2021-04-03T09:52:40Z</time>
      </trkpt>
      <trkpt lat="47.30143" lon="6.03147">
        <ele>414</ele>
        <time>2021-04-03T09:52:41Z</time>
      </trkpt>
      <trkpt lat="47.30144" lon="6.03147">
        <ele>413.8</ele>
        <time>2021-04-03T09:52:42Z</time>
      </trkpt>
      <trkpt lat="47.30146" lon="6.03146">
        <ele>413.8</ele>
        <time>2021-04-03T09:52:43Z</time>
      </trkpt>
      <trkpt lat="47.30147" lon="6.03146">
        <ele>413.8</ele>
        <time>2021-04-03T09:52:44Z</time>
      </trkpt>
      <trkpt lat="47.3015" lon="6.03146">
        <ele>414</ele>
        <time>2021-04-03T09:52:46Z</time>
      </trkpt>
      <trkpt lat="47.30152" lon="6.03146">
        <ele>414</ele>
        <time>2021-04-03T09:52:47Z</time>
      </trkpt>
      <trkpt lat="47.30154" lon="6.03145">
        <ele>414.4</ele>
        <time>2021-04-03T09:52:48Z</time>
      </trkpt>
      <trkpt lat="47.30156" lon="6.03145">
        <ele>414.8</ele>
        <time>2021-04-03T09:52:49Z</time>
      </trkpt>
      <trkpt lat="47.30157" lon="6.03145">
        <ele>415.4</ele>
        <time>2021-04-03T09:52:50Z</time>
      </trkpt>
      <trkpt lat="47.30163" lon="6.03144">
        <ele>415.8</ele>
        <time>2021-04-03T09:52:53Z</time>
      </trkpt>
      <trkpt lat="47.3017" lon="6.03143">
        <ele>416</ele>
        <time>2021-04-03T09:52:57Z</time>
      </trkpt>
      <trkpt lat="47.30173" lon="6.03142">
        <ele>416</ele>
        <time>2021-04-03T09:52:59Z</time>
      </trkpt>
      <trkpt lat="47.30175" lon="6.03142">
        <ele>416</ele>
        <time>2021-04-03T09:53:00Z</time>
      </trkpt>
      <trkpt lat="47.30182" lon="6.03142">
        <ele>416.2</ele>
        <time>2021-04-03T09:53:05Z</time>
      </trkpt>
      <trkpt lat="47.30183" lon="6.03143">
        <ele>416.4</ele>
        <time>2021-04-03T09:53:06Z</time>
      </trkpt>
      <trkpt lat="47.30185" lon="6.03143">
        <ele>416.4</ele>
        <time>2021-04-03T09:53:07Z</time>
      </trkpt>
      <trkpt lat="47.30189" lon="6.03142">
        <ele>416.8</ele>
        <time>2021-04-03T09:53:10Z</time>
      </trkpt>
      <trkpt lat="47.30192" lon="6.03141">
        <ele>416.8</ele>
        <time>2021-04-03T09:53:12Z</time>
      </trkpt>
      <trkpt lat="47.30194" lon="6.03141">
        <ele>416.8</ele>
        <time>2021-04-03T09:53:13Z</time>
      </trkpt>
      <trkpt lat="47.30196" lon="6.03141">
        <ele>416.8</ele>
        <time>2021-04-03T09:53:14Z</time>
      </trkpt>
      <trkpt lat="47.30198" lon="6.03142">
        <ele>417</ele>
        <time>2021-04-03T09:53:15Z</time>
      </trkpt>
      <trkpt lat="47.30199" lon="6.03142">
        <ele>417</ele>
        <time>2021-04-03T09:53:16Z</time>
      </trkpt>
      <trkpt lat="47.30205" lon="6.03145">
        <ele>417.4</ele>
        <time>2021-04-03T09:53:20Z</time>
      </trkpt>
      <trkpt lat="47.30209" lon="6.03147">
        <ele>418</ele>
        <time>2021-04-03T09:53:22Z</time>
      </trkpt>
      <trkpt lat="47.30215" lon="6.03151">
        <ele>419.2</ele>
        <time>2021-04-03T09:53:26Z</time>
      </trkpt>
      <trkpt lat="47.30217" lon="6.03153">
        <ele>419</ele>
        <time>2021-04-03T09:53:27Z</time>
      </trkpt>
      <trkpt lat="47.30219" lon="6.03154">
        <ele>419.2</ele>
        <time>2021-04-03T09:53:28Z</time>
      </trkpt>
      <trkpt lat="47.3022" lon="6.03156">
        <ele>419.4</ele>
        <time>2021-04-03T09:53:29Z</time>
      </trkpt>
      <trkpt lat="47.30222" lon="6.03158">
        <ele>419.6</ele>
        <time>2021-04-03T09:53:30Z</time>
      </trkpt>
      <trkpt lat="47.30223" lon="6.03159">
        <ele>419.6</ele>
        <time>2021-04-03T09:53:31Z</time>
      </trkpt>
      <trkpt lat="47.30225" lon="6.03161">
        <ele>419.8</ele>
        <time>2021-04-03T09:53:32Z</time>
      </trkpt>
      <trkpt lat="47.30227" lon="6.03162">
        <ele>419.8</ele>
        <time>2021-04-03T09:53:33Z</time>
      </trkpt>
      <trkpt lat="47.30228" lon="6.03164">
        <ele>419.8</ele>
        <time>2021-04-03T09:53:34Z</time>
      </trkpt>
      <trkpt lat="47.3023" lon="6.03165">
        <ele>419.8</ele>
        <time>2021-04-03T09:53:35Z</time>
      </trkpt>
      <trkpt lat="47.30232" lon="6.03167">
        <ele>420</ele>
        <time>2021-04-03T09:53:36Z</time>
      </trkpt>
      <trkpt lat="47.30234" lon="6.03169">
        <ele>420</ele>
        <time>2021-04-03T09:53:37Z</time>
      </trkpt>
      <trkpt lat="47.30236" lon="6.0317">
        <ele>420</ele>
        <time>2021-04-03T09:53:38Z</time>
      </trkpt>
      <trkpt lat="47.30237" lon="6.03172">
        <ele>420</ele>
        <time>2021-04-03T09:53:39Z</time>
      </trkpt>
      <trkpt lat="47.30239" lon="6.03173">
        <ele>420</ele>
        <time>2021-04-03T09:53:40Z</time>
      </trkpt>
      <trkpt lat="47.30241" lon="6.03175">
        <ele>420.2</ele>
        <time>2021-04-03T09:53:41Z</time>
      </trkpt>
      <trkpt lat="47.30242" lon="6.03176">
        <ele>420.2</ele>
        <time>2021-04-03T09:53:42Z</time>
      </trkpt>
      <trkpt lat="47.30244" lon="6.03177">
        <ele>420.2</ele>
        <time>2021-04-03T09:53:43Z</time>
      </trkpt>
      <trkpt lat="47.30245" lon="6.03179">
        <ele>420.4</ele>
        <time>2021-04-03T09:53:44Z</time>
      </trkpt>
      <trkpt lat="47.30246" lon="6.0318">
        <ele>420.4</ele>
        <time>2021-04-03T09:53:45Z</time>
      </trkpt>
      <trkpt lat="47.30247" lon="6.0318">
        <ele>420.4</ele>
        <time>2021-04-03T09:53:46Z</time>
      </trkpt>
      <trkpt lat="47.30248" lon="6.03181">
        <ele>420.4</ele>
        <time>2021-04-03T09:53:47Z</time>
      </trkpt>
      <trkpt lat="47.30249" lon="6.03182">
        <ele>420.6</ele>
        <time>2021-04-03T09:53:48Z</time>
      </trkpt>
      <trkpt lat="47.3025" lon="6.03183">
        <ele>420.6</ele>
        <time>2021-04-03T09:53:49Z</time>
      </trkpt>
      <trkpt lat="47.30252" lon="6.03184">
        <ele>420.8</ele>
        <time>2021-04-03T09:53:50Z</time>
      </trkpt>
      <trkpt lat="47.30253" lon="6.03185">
        <ele>420.8</ele>
        <time>2021-04-03T09:53:51Z</time>
      </trkpt>
      <trkpt lat="47.30254" lon="6.03186">
        <ele>421</ele>
        <time>2021-04-03T09:53:52Z</time>
      </trkpt>
      <trkpt lat="47.30256" lon="6.03187">
        <ele>421.4</ele>
        <time>2021-04-03T09:53:53Z</time>
      </trkpt>
      <trkpt lat="47.30257" lon="6.03189">
        <ele>421.8</ele>
        <time>2021-04-03T09:53:54Z</time>
      </trkpt>
      <trkpt lat="47.30259" lon="6.03191">
        <ele>422.2</ele>
        <time>2021-04-03T09:53:56Z</time>
      </trkpt>
      <trkpt lat="47.3026" lon="6.03192">
        <ele>422.4</ele>
        <time>2021-04-03T09:53:57Z</time>
      </trkpt>
      <trkpt lat="47.30261" lon="6.03193">
        <ele>422.8</ele>
        <time>2021-04-03T09:53:58Z</time>
      </trkpt>
      <trkpt lat="47.30262" lon="6.03194">
        <ele>423</ele>
        <time>2021-04-03T09:53:59Z</time>
      </trkpt>
      <trkpt lat="47.30264" lon="6.03195">
        <ele>423</ele>
        <time>2021-04-03T09:54:00Z</time>
      </trkpt>
      <trkpt lat="47.30265" lon="6.03196">
        <ele>423.2</ele>
        <time>2021-04-03T09:54:01Z</time>
      </trkpt>
      <trkpt lat="47.30267" lon="6.03197">
        <ele>423.4</ele>
        <time>2021-04-03T09:54:02Z</time>
      </trkpt>
      <trkpt lat="47.30268" lon="6.03199">
        <ele>423.4</ele>
        <time>2021-04-03T09:54:03Z</time>
      </trkpt>
      <trkpt lat="47.3027" lon="6.03201">
        <ele>423.6</ele>
        <time>2021-04-03T09:54:04Z</time>
      </trkpt>
      <trkpt lat="47.30271" lon="6.03203">
        <ele>423.8</ele>
        <time>2021-04-03T09:54:05Z</time>
      </trkpt>
      <trkpt lat="47.30273" lon="6.03205">
        <ele>423.8</ele>
        <time>2021-04-03T09:54:06Z</time>
      </trkpt>
      <trkpt lat="47.30274" lon="6.03207">
        <ele>424</ele>
        <time>2021-04-03T09:54:07Z</time>
      </trkpt>
      <trkpt lat="47.30275" lon="6.03209">
        <ele>424.2</ele>
        <time>2021-04-03T09:54:08Z</time>
      </trkpt>
      <trkpt lat="47.30277" lon="6.0321">
        <ele>424.4</ele>
        <time>2021-04-03T09:54:09Z</time>
      </trkpt>
      <trkpt lat="47.30278" lon="6.03211">
        <ele>424.8</ele>
        <time>2021-04-03T09:54:10Z</time>
      </trkpt>
      <trkpt lat="47.30279" lon="6.03211">
        <ele>424.8</ele>
        <time>2021-04-03T09:54:11Z</time>
      </trkpt>
      <trkpt lat="47.30282" lon="6.03212">
        <ele>425.2</ele>
        <time>2021-04-03T09:54:12Z</time>
      </trkpt>
      <trkpt lat="47.30285" lon="6.03214">
        <ele>425.4</ele>
        <time>2021-04-03T09:54:13Z</time>
      </trkpt>
      <trkpt lat="47.30286" lon="6.03216">
        <ele>425.6</ele>
        <time>2021-04-03T09:54:14Z</time>
      </trkpt>
      <trkpt lat="47.30288" lon="6.03218">
        <ele>425.8</ele>
        <time>2021-04-03T09:54:15Z</time>
      </trkpt>
      <trkpt lat="47.30289" lon="6.03219">
        <ele>425.8</ele>
        <time>2021-04-03T09:54:16Z</time>
      </trkpt>
      <trkpt lat="47.3029" lon="6.03221">
        <ele>426</ele>
        <time>2021-04-03T09:54:17Z</time>
      </trkpt>
      <trkpt lat="47.30292" lon="6.03222">
        <ele>426.4</ele>
        <time>2021-04-03T09:54:18Z</time>
      </trkpt>
      <trkpt lat="47.30293" lon="6.03224">
        <ele>426.8</ele>
        <time>2021-04-03T09:54:19Z</time>
      </trkpt>
      <trkpt lat="47.30295" lon="6.03225">
        <ele>426.8</ele>
        <time>2021-04-03T09:54:20Z</time>
      </trkpt>
      <trkpt lat="47.30296" lon="6.03227">
        <ele>427.2</ele>
        <time>2021-04-03T09:54:21Z</time>
      </trkpt>
      <trkpt lat="47.30297" lon="6.03228">
        <ele>427.2</ele>
        <time>2021-04-03T09:54:22Z</time>
      </trkpt>
      <trkpt lat="47.30298" lon="6.0323">
        <ele>427.4</ele>
        <time>2021-04-03T09:54:23Z</time>
      </trkpt>
      <trkpt lat="47.30299" lon="6.03231">
        <ele>427.6</ele>
        <time>2021-04-03T09:54:24Z</time>
      </trkpt>
      <trkpt lat="47.30301" lon="6.03233">
        <ele>427.6</ele>
        <time>2021-04-03T09:54:25Z</time>
      </trkpt>
      <trkpt lat="47.30302" lon="6.03235">
        <ele>427.8</ele>
        <time>2021-04-03T09:54:26Z</time>
      </trkpt>
      <trkpt lat="47.30304" lon="6.03237">
        <ele>427.8</ele>
        <time>2021-04-03T09:54:27Z</time>
      </trkpt>
      <trkpt lat="47.30305" lon="6.03238">
        <ele>427.8</ele>
        <time>2021-04-03T09:54:28Z</time>
      </trkpt>
      <trkpt lat="47.30307" lon="6.0324">
        <ele>428</ele>
        <time>2021-04-03T09:54:29Z</time>
      </trkpt>
      <trkpt lat="47.30308" lon="6.03242">
        <ele>428.2</ele>
        <time>2021-04-03T09:54:30Z</time>
      </trkpt>
      <trkpt lat="47.30309" lon="6.03243">
        <ele>428.2</ele>
        <time>2021-04-03T09:54:31Z</time>
      </trkpt>
      <trkpt lat="47.30311" lon="6.03245">
        <ele>428.4</ele>
        <time>2021-04-03T09:54:32Z</time>
      </trkpt>
      <trkpt lat="47.30312" lon="6.03247">
        <ele>428.6</ele>
        <time>2021-04-03T09:54:33Z</time>
      </trkpt>
      <trkpt lat="47.30314" lon="6.03248">
        <ele>429</ele>
        <time>2021-04-03T09:54:34Z</time>
      </trkpt>
      <trkpt lat="47.30316" lon="6.0325">
        <ele>429</ele>
        <time>2021-04-03T09:54:35Z</time>
      </trkpt>
      <trkpt lat="47.30318" lon="6.03251">
        <ele>429.2</ele>
        <time>2021-04-03T09:54:36Z</time>
      </trkpt>
      <trkpt lat="47.30319" lon="6.03253">
        <ele>429.2</ele>
        <time>2021-04-03T09:54:37Z</time>
      </trkpt>
      <trkpt lat="47.3032" lon="6.03254">
        <ele>429.4</ele>
        <time>2021-04-03T09:54:38Z</time>
      </trkpt>
      <trkpt lat="47.30322" lon="6.03256">
        <ele>429.4</ele>
        <time>2021-04-03T09:54:39Z</time>
      </trkpt>
      <trkpt lat="47.30323" lon="6.03257">
        <ele>429.6</ele>
        <time>2021-04-03T09:54:40Z</time>
      </trkpt>
      <trkpt lat="47.30324" lon="6.03259">
        <ele>429.8</ele>
        <time>2021-04-03T09:54:41Z</time>
      </trkpt>
      <trkpt lat="47.30325" lon="6.03261">
        <ele>429.8</ele>
        <time>2021-04-03T09:54:42Z</time>
      </trkpt>
      <trkpt lat="47.30327" lon="6.03263">
        <ele>430</ele>
        <time>2021-04-03T09:54:43Z</time>
      </trkpt>
      <trkpt lat="47.30328" lon="6.03264">
        <ele>430</ele>
        <time>2021-04-03T09:54:44Z</time>
      </trkpt>
      <trkpt lat="47.3033" lon="6.03265">
        <ele>430</ele>
        <time>2021-04-03T09:54:45Z</time>
      </trkpt>
      <trkpt lat="47.30331" lon="6.03267">
        <ele>430.2</ele>
        <time>2021-04-03T09:54:46Z</time>
      </trkpt>
      <trkpt lat="47.30333" lon="6.03269">
        <ele>430.2</ele>
        <time>2021-04-03T09:54:47Z</time>
      </trkpt>
      <trkpt lat="47.30334" lon="6.0327">
        <ele>430.2</ele>
        <time>2021-04-03T09:54:48Z</time>
      </trkpt>
      <trkpt lat="47.30335" lon="6.03272">
        <ele>430.2</ele>
        <time>2021-04-03T09:54:49Z</time>
      </trkpt>
      <trkpt lat="47.30337" lon="6.03273">
        <ele>430.4</ele>
        <time>2021-04-03T09:54:50Z</time>
      </trkpt>
      <trkpt lat="47.30338" lon="6.03275">
        <ele>430.4</ele>
        <time>2021-04-03T09:54:51Z</time>
      </trkpt>
      <trkpt lat="47.30339" lon="6.03276">
        <ele>430.8</ele>
        <time>2021-04-03T09:54:52Z</time>
      </trkpt>
      <trkpt lat="47.3034" lon="6.03278">
        <ele>431</ele>
        <time>2021-04-03T09:54:53Z</time>
      </trkpt>
      <trkpt lat="47.30341" lon="6.0328">
        <ele>431</ele>
        <time>2021-04-03T09:54:54Z</time>
      </trkpt>
      <trkpt lat="47.30343" lon="6.03281">
        <ele>431</ele>
        <time>2021-04-03T09:54:55Z</time>
      </trkpt>
      <trkpt lat="47.30344" lon="6.03282">
        <ele>431.4</ele>
        <time>2021-04-03T09:54:56Z</time>
      </trkpt>
      <trkpt lat="47.30345" lon="6.03284">
        <ele>431.4</ele>
        <time>2021-04-03T09:54:57Z</time>
      </trkpt>
      <trkpt lat="47.30346" lon="6.03285">
        <ele>431.6</ele>
        <time>2021-04-03T09:54:58Z</time>
      </trkpt>
      <trkpt lat="47.30347" lon="6.03286">
        <ele>431.8</ele>
        <time>2021-04-03T09:54:59Z</time>
      </trkpt>
      <trkpt lat="47.30348" lon="6.03287">
        <ele>432.2</ele>
        <time>2021-04-03T09:55:00Z</time>
      </trkpt>
      <trkpt lat="47.30349" lon="6.03289">
        <ele>432.4</ele>
        <time>2021-04-03T09:55:01Z</time>
      </trkpt>
      <trkpt lat="47.3035" lon="6.03291">
        <ele>432.6</ele>
        <time>2021-04-03T09:55:02Z</time>
      </trkpt>
      <trkpt lat="47.30351" lon="6.03293">
        <ele>432.8</ele>
        <time>2021-04-03T09:55:03Z</time>
      </trkpt>
      <trkpt lat="47.30352" lon="6.03295">
        <ele>433</ele>
        <time>2021-04-03T09:55:04Z</time>
      </trkpt>
      <trkpt lat="47.30353" lon="6.03296">
        <ele>433</ele>
        <time>2021-04-03T09:55:05Z</time>
      </trkpt>
      <trkpt lat="47.30355" lon="6.03297">
        <ele>433.2</ele>
        <time>2021-04-03T09:55:06Z</time>
      </trkpt>
      <trkpt lat="47.30356" lon="6.03299">
        <ele>433.2</ele>
        <time>2021-04-03T09:55:07Z</time>
      </trkpt>
      <trkpt lat="47.30357" lon="6.033">
        <ele>433.2</ele>
        <time>2021-04-03T09:55:08Z</time>
      </trkpt>
      <trkpt lat="47.30359" lon="6.03302">
        <ele>433.4</ele>
        <time>2021-04-03T09:55:09Z</time>
      </trkpt>
      <trkpt lat="47.3036" lon="6.03303">
        <ele>433.6</ele>
        <time>2021-04-03T09:55:10Z</time>
      </trkpt>
      <trkpt lat="47.3036" lon="6.03305">
        <ele>433.8</ele>
        <time>2021-04-03T09:55:11Z</time>
      </trkpt>
      <trkpt lat="47.30361" lon="6.03307">
        <ele>434</ele>
        <time>2021-04-03T09:55:12Z</time>
      </trkpt>
      <trkpt lat="47.30363" lon="6.03309">
        <ele>434.2</ele>
        <time>2021-04-03T09:55:13Z</time>
      </trkpt>
      <trkpt lat="47.30364" lon="6.03311">
        <ele>434.6</ele>
        <time>2021-04-03T09:55:14Z</time>
      </trkpt>
      <trkpt lat="47.30364" lon="6.03313">
        <ele>434.8</ele>
        <time>2021-04-03T09:55:15Z</time>
      </trkpt>
      <trkpt lat="47.30366" lon="6.03314">
        <ele>435</ele>
        <time>2021-04-03T09:55:16Z</time>
      </trkpt>
      <trkpt lat="47.30367" lon="6.03316">
        <ele>435</ele>
        <time>2021-04-03T09:55:17Z</time>
      </trkpt>
      <trkpt lat="47.30369" lon="6.03318">
        <ele>435.2</ele>
        <time>2021-04-03T09:55:18Z</time>
      </trkpt>
      <trkpt lat="47.3037" lon="6.03319">
        <ele>435.4</ele>
        <time>2021-04-03T09:55:19Z</time>
      </trkpt>
      <trkpt lat="47.30371" lon="6.0332">
        <ele>435.4</ele>
        <time>2021-04-03T09:55:20Z</time>
      </trkpt>
      <trkpt lat="47.30372" lon="6.03321">
        <ele>435.6</ele>
        <time>2021-04-03T09:55:21Z</time>
      </trkpt>
      <trkpt lat="47.30373" lon="6.03323">
        <ele>435.6</ele>
        <time>2021-04-03T09:55:22Z</time>
      </trkpt>
      <trkpt lat="47.30375" lon="6.03324">
        <ele>435.8</ele>
        <time>2021-04-03T09:55:23Z</time>
      </trkpt>
      <trkpt lat="47.30376" lon="6.03326">
        <ele>435.8</ele>
        <time>2021-04-03T09:55:24Z</time>
      </trkpt>
      <trkpt lat="47.30378" lon="6.03327">
        <ele>435.8</ele>
        <time>2021-04-03T09:55:25Z</time>
      </trkpt>
      <trkpt lat="47.30379" lon="6.03328">
        <ele>436</ele>
        <time>2021-04-03T09:55:26Z</time>
      </trkpt>
      <trkpt lat="47.3038" lon="6.03329">
        <ele>436.4</ele>
        <time>2021-04-03T09:55:27Z</time>
      </trkpt>
      <trkpt lat="47.30382" lon="6.03331">
        <ele>436.6</ele>
        <time>2021-04-03T09:55:28Z</time>
      </trkpt>
      <trkpt lat="47.30384" lon="6.03333">
        <ele>436.6</ele>
        <time>2021-04-03T09:55:29Z</time>
      </trkpt>
      <trkpt lat="47.30386" lon="6.03334">
        <ele>436.8</ele>
        <time>2021-04-03T09:55:30Z</time>
      </trkpt>
      <trkpt lat="47.30388" lon="6.03336">
        <ele>437</ele>
        <time>2021-04-03T09:55:31Z</time>
      </trkpt>
      <trkpt lat="47.30389" lon="6.03337">
        <ele>437.2</ele>
        <time>2021-04-03T09:55:32Z</time>
      </trkpt>
      <trkpt lat="47.30391" lon="6.03339">
        <ele>437.4</ele>
        <time>2021-04-03T09:55:33Z</time>
      </trkpt>
      <trkpt lat="47.30393" lon="6.03341">
        <ele>437.6</ele>
        <time>2021-04-03T09:55:34Z</time>
      </trkpt>
      <trkpt lat="47.30394" lon="6.03343">
        <ele>437.8</ele>
        <time>2021-04-03T09:55:35Z</time>
      </trkpt>
      <trkpt lat="47.30395" lon="6.03346">
        <ele>438</ele>
        <time>2021-04-03T09:55:36Z</time>
      </trkpt>
      <trkpt lat="47.30396" lon="6.03348">
        <ele>438</ele>
        <time>2021-04-03T09:55:37Z</time>
      </trkpt>
      <trkpt lat="47.30398" lon="6.0335">
        <ele>438.2</ele>
        <time>2021-04-03T09:55:38Z</time>
      </trkpt>
      <trkpt lat="47.30399" lon="6.03352">
        <ele>438.2</ele>
        <time>2021-04-03T09:55:39Z</time>
      </trkpt>
      <trkpt lat="47.304" lon="6.03353">
        <ele>438.4</ele>
        <time>2021-04-03T09:55:40Z</time>
      </trkpt>
      <trkpt lat="47.30401" lon="6.03355">
        <ele>438.4</ele>
        <time>2021-04-03T09:55:41Z</time>
      </trkpt>
      <trkpt lat="47.30402" lon="6.03358">
        <ele>438.6</ele>
        <time>2021-04-03T09:55:42Z</time>
      </trkpt>
      <trkpt lat="47.30403" lon="6.0336">
        <ele>438.8</ele>
        <time>2021-04-03T09:55:43Z</time>
      </trkpt>
      <trkpt lat="47.30404" lon="6.03362">
        <ele>438.8</ele>
        <time>2021-04-03T09:55:44Z</time>
      </trkpt>
      <trkpt lat="47.30405" lon="6.03364">
        <ele>438.8</ele>
        <time>2021-04-03T09:55:45Z</time>
      </trkpt>
      <trkpt lat="47.30406" lon="6.03367">
        <ele>438.8</ele>
        <time>2021-04-03T09:55:46Z</time>
      </trkpt>
      <trkpt lat="47.30407" lon="6.03369">
        <ele>439</ele>
        <time>2021-04-03T09:55:47Z</time>
      </trkpt>
      <trkpt lat="47.30408" lon="6.03371">
        <ele>439.2</ele>
        <time>2021-04-03T09:55:48Z</time>
      </trkpt>
      <trkpt lat="47.30409" lon="6.03373">
        <ele>439.4</ele>
        <time>2021-04-03T09:55:49Z</time>
      </trkpt>
      <trkpt lat="47.30409" lon="6.03375">
        <ele>439.4</ele>
        <time>2021-04-03T09:55:50Z</time>
      </trkpt>
      <trkpt lat="47.30409" lon="6.03376">
        <ele>439.6</ele>
        <time>2021-04-03T09:55:51Z</time>
      </trkpt>
      <trkpt lat="47.3041" lon="6.03379">
        <ele>439.8</ele>
        <time>2021-04-03T09:55:52Z</time>
      </trkpt>
      <trkpt lat="47.30411" lon="6.03381">
        <ele>439.8</ele>
        <time>2021-04-03T09:55:53Z</time>
      </trkpt>
      <trkpt lat="47.30413" lon="6.03383">
        <ele>440</ele>
        <time>2021-04-03T09:55:54Z</time>
      </trkpt>
      <trkpt lat="47.30414" lon="6.03385">
        <ele>440</ele>
        <time>2021-04-03T09:55:55Z</time>
      </trkpt>
      <trkpt lat="47.30415" lon="6.03387">
        <ele>440</ele>
        <time>2021-04-03T09:55:56Z</time>
      </trkpt>
      <trkpt lat="47.30416" lon="6.0339">
        <ele>440</ele>
        <time>2021-04-03T09:55:57Z</time>
      </trkpt>
      <trkpt lat="47.30416" lon="6.03392">
        <ele>440</ele>
        <time>2021-04-03T09:55:58Z</time>
      </trkpt>
      <trkpt lat="47.30417" lon="6.03395">
        <ele>440</ele>
        <time>2021-04-03T09:55:59Z</time>
      </trkpt>
      <trkpt lat="47.30418" lon="6.03397">
        <ele>440</ele>
        <time>2021-04-03T09:56:00Z</time>
      </trkpt>
      <trkpt lat="47.3042" lon="6.03401">
        <ele>440.2</ele>
        <time>2021-04-03T09:56:01Z</time>
      </trkpt>
      <trkpt lat="47.30421" lon="6.03404">
        <ele>440.2</ele>
        <time>2021-04-03T09:56:02Z</time>
      </trkpt>
      <trkpt lat="47.30422" lon="6.03407">
        <ele>440.2</ele>
        <time>2021-04-03T09:56:03Z</time>
      </trkpt>
      <trkpt lat="47.30423" lon="6.03409">
        <ele>440.2</ele>
        <time>2021-04-03T09:56:04Z</time>
      </trkpt>
      <trkpt lat="47.30423" lon="6.03412">
        <ele>440.4</ele>
        <time>2021-04-03T09:56:05Z</time>
      </trkpt>
      <trkpt lat="47.30428" lon="6.0342">
        <ele>440.8</ele>
        <time>2021-04-03T09:56:09Z</time>
      </trkpt>
      <trkpt lat="47.3043" lon="6.03423">
        <ele>441</ele>
        <time>2021-04-03T09:56:11Z</time>
      </trkpt>
      <trkpt lat="47.30431" lon="6.03425">
        <ele>441</ele>
        <time>2021-04-03T09:56:12Z</time>
      </trkpt>
      <trkpt lat="47.30432" lon="6.03425">
        <ele>441.2</ele>
        <time>2021-04-03T09:56:13Z</time>
      </trkpt>
      <trkpt lat="47.30433" lon="6.03425">
        <ele>441.4</ele>
        <time>2021-04-03T09:56:14Z</time>
      </trkpt>
      <trkpt lat="47.30434" lon="6.03425">
        <ele>441.4</ele>
        <time>2021-04-03T09:56:15Z</time>
      </trkpt>
      <trkpt lat="47.30435" lon="6.03426">
        <ele>441.6</ele>
        <time>2021-04-03T09:56:16Z</time>
      </trkpt>
      <trkpt lat="47.30437" lon="6.03426">
        <ele>441.6</ele>
        <time>2021-04-03T09:56:17Z</time>
      </trkpt>
      <trkpt lat="47.30441" lon="6.03424">
        <ele>441.8</ele>
        <time>2021-04-03T09:56:19Z</time>
      </trkpt>
      <trkpt lat="47.30442" lon="6.03421">
        <ele>442</ele>
        <time>2021-04-03T09:56:20Z</time>
      </trkpt>
      <trkpt lat="47.30444" lon="6.0342">
        <ele>442</ele>
        <time>2021-04-03T09:56:21Z</time>
      </trkpt>
      <trkpt lat="47.30445" lon="6.03418">
        <ele>442</ele>
        <time>2021-04-03T09:56:22Z</time>
      </trkpt>
      <trkpt lat="47.30446" lon="6.03415">
        <ele>442.2</ele>
        <time>2021-04-03T09:56:23Z</time>
      </trkpt>
      <trkpt lat="47.30448" lon="6.03407">
        <ele>442.2</ele>
        <time>2021-04-03T09:56:26Z</time>
      </trkpt>
      <trkpt lat="47.30448" lon="6.03404">
        <ele>442.6</ele>
        <time>2021-04-03T09:56:27Z</time>
      </trkpt>
      <trkpt lat="47.30448" lon="6.03401">
        <ele>442.6</ele>
        <time>2021-04-03T09:56:28Z</time>
      </trkpt>
      <trkpt lat="47.30448" lon="6.03398">
        <ele>442.8</ele>
        <time>2021-04-03T09:56:29Z</time>
      </trkpt>
      <trkpt lat="47.30447" lon="6.03395">
        <ele>442.8</ele>
        <time>2021-04-03T09:56:30Z</time>
      </trkpt>
      <trkpt lat="47.30447" lon="6.03393">
        <ele>443.2</ele>
        <time>2021-04-03T09:56:31Z</time>
      </trkpt>
      <trkpt lat="47.30446" lon="6.0339">
        <ele>443.4</ele>
        <time>2021-04-03T09:56:32Z</time>
      </trkpt>
      <trkpt lat="47.30445" lon="6.03386">
        <ele>443.8</ele>
        <time>2021-04-03T09:56:34Z</time>
      </trkpt>
      <trkpt lat="47.30444" lon="6.03384">
        <ele>444</ele>
        <time>2021-04-03T09:56:35Z</time>
      </trkpt>
      <trkpt lat="47.30445" lon="6.03382">
        <ele>444.2</ele>
        <time>2021-04-03T09:56:36Z</time>
      </trkpt>
      <trkpt lat="47.30444" lon="6.0338">
        <ele>444.4</ele>
        <time>2021-04-03T09:56:37Z</time>
      </trkpt>
      <trkpt lat="47.30443" lon="6.03378">
        <ele>444.4</ele>
        <time>2021-04-03T09:56:38Z</time>
      </trkpt>
      <trkpt lat="47.30442" lon="6.03376">
        <ele>444.6</ele>
        <time>2021-04-03T09:56:39Z</time>
      </trkpt>
      <trkpt lat="47.30442" lon="6.03373">
        <ele>444.6</ele>
        <time>2021-04-03T09:56:40Z</time>
      </trkpt>
      <trkpt lat="47.30441" lon="6.03371">
        <ele>444.6</ele>
        <time>2021-04-03T09:56:41Z</time>
      </trkpt>
      <trkpt lat="47.30441" lon="6.03369">
        <ele>444.8</ele>
        <time>2021-04-03T09:56:42Z</time>
      </trkpt>
      <trkpt lat="47.30439" lon="6.03366">
        <ele>444.6</ele>
        <time>2021-04-03T09:56:43Z</time>
      </trkpt>
      <trkpt lat="47.30437" lon="6.03363">
        <ele>445</ele>
        <time>2021-04-03T09:56:44Z</time>
      </trkpt>
      <trkpt lat="47.30435" lon="6.0336">
        <ele>445</ele>
        <time>2021-04-03T09:56:45Z</time>
      </trkpt>
      <trkpt lat="47.30434" lon="6.03358">
        <ele>445.2</ele>
        <time>2021-04-03T09:56:46Z</time>
      </trkpt>
      <trkpt lat="47.30433" lon="6.03356">
        <ele>445</ele>
        <time>2021-04-03T09:56:47Z</time>
      </trkpt>
      <trkpt lat="47.30433" lon="6.03352">
        <ele>445</ele>
        <time>2021-04-03T09:56:48Z</time>
      </trkpt>
      <trkpt lat="47.30432" lon="6.03349">
        <ele>445.2</ele>
        <time>2021-04-03T09:56:49Z</time>
      </trkpt>
      <trkpt lat="47.3043" lon="6.03346">
        <ele>445.2</ele>
        <time>2021-04-03T09:56:50Z</time>
      </trkpt>
      <trkpt lat="47.30428" lon="6.03343">
        <ele>445.2</ele>
        <time>2021-04-03T09:56:51Z</time>
      </trkpt>
      <trkpt lat="47.30427" lon="6.0334">
        <ele>445.4</ele>
        <time>2021-04-03T09:56:52Z</time>
      </trkpt>
      <trkpt lat="47.30425" lon="6.03338">
        <ele>445.4</ele>
        <time>2021-04-03T09:56:53Z</time>
      </trkpt>
      <trkpt lat="47.30425" lon="6.03337">
        <ele>445.6</ele>
        <time>2021-04-03T09:56:54Z</time>
      </trkpt>
      <trkpt lat="47.30423" lon="6.03333">
        <ele>445.8</ele>
        <time>2021-04-03T09:56:55Z</time>
      </trkpt>
      <trkpt lat="47.30422" lon="6.0333">
        <ele>445.8</ele>
        <time>2021-04-03T09:56:56Z</time>
      </trkpt>
      <trkpt lat="47.30421" lon="6.03328">
        <ele>445.8</ele>
        <time>2021-04-03T09:56:57Z</time>
      </trkpt>
      <trkpt lat="47.30421" lon="6.03327">
        <ele>446</ele>
        <time>2021-04-03T09:56:58Z</time>
      </trkpt>
      <trkpt lat="47.30421" lon="6.03327">
        <ele>446</ele>
        <time>2021-04-03T09:56:59Z</time>
      </trkpt>
      <trkpt lat="47.3042" lon="6.03325">
        <ele>446.2</ele>
        <time>2021-04-03T09:57:00Z</time>
      </trkpt>
      <trkpt lat="47.3042" lon="6.03322">
        <ele>446.4</ele>
        <time>2021-04-03T09:57:01Z</time>
      </trkpt>
      <trkpt lat="47.3042" lon="6.0332">
        <ele>446.4</ele>
        <time>2021-04-03T09:57:02Z</time>
      </trkpt>
      <trkpt lat="47.3042" lon="6.03317">
        <ele>446.4</ele>
        <time>2021-04-03T09:57:03Z</time>
      </trkpt>
      <trkpt lat="47.30419" lon="6.03314">
        <ele>446.6</ele>
        <time>2021-04-03T09:57:04Z</time>
      </trkpt>
      <trkpt lat="47.30419" lon="6.03311">
        <ele>446.8</ele>
        <time>2021-04-03T09:57:05Z</time>
      </trkpt>
      <trkpt lat="47.30418" lon="6.03308">
        <ele>446.8</ele>
        <time>2021-04-03T09:57:06Z</time>
      </trkpt>
      <trkpt lat="47.30417" lon="6.03305">
        <ele>447</ele>
        <time>2021-04-03T09:57:07Z</time>
      </trkpt>
      <trkpt lat="47.30416" lon="6.03302">
        <ele>447</ele>
        <time>2021-04-03T09:57:08Z</time>
      </trkpt>
      <trkpt lat="47.30416" lon="6.033">
        <ele>447.2</ele>
        <time>2021-04-03T09:57:09Z</time>
      </trkpt>
      <trkpt lat="47.30415" lon="6.03297">
        <ele>447.4</ele>
        <time>2021-04-03T09:57:10Z</time>
      </trkpt>
      <trkpt lat="47.30414" lon="6.03294">
        <ele>447.4</ele>
        <time>2021-04-03T09:57:11Z</time>
      </trkpt>
      <trkpt lat="47.30413" lon="6.03292">
        <ele>447.4</ele>
        <time>2021-04-03T09:57:12Z</time>
      </trkpt>
      <trkpt lat="47.30413" lon="6.03288">
        <ele>447.6</ele>
        <time>2021-04-03T09:57:13Z</time>
      </trkpt>
      <trkpt lat="47.30412" lon="6.03286">
        <ele>447.6</ele>
        <time>2021-04-03T09:57:14Z</time>
      </trkpt>
      <trkpt lat="47.30412" lon="6.03283">
        <ele>447.8</ele>
        <time>2021-04-03T09:57:15Z</time>
      </trkpt>
      <trkpt lat="47.30411" lon="6.0328">
        <ele>447.8</ele>
        <time>2021-04-03T09:57:16Z</time>
      </trkpt>
      <trkpt lat="47.3041" lon="6.03278">
        <ele>448</ele>
        <time>2021-04-03T09:57:17Z</time>
      </trkpt>
      <trkpt lat="47.30409" lon="6.03275">
        <ele>448</ele>
        <time>2021-04-03T09:57:18Z</time>
      </trkpt>
      <trkpt lat="47.30409" lon="6.03272">
        <ele>448.2</ele>
        <time>2021-04-03T09:57:19Z</time>
      </trkpt>
      <trkpt lat="47.30408" lon="6.0327">
        <ele>448.2</ele>
        <time>2021-04-03T09:57:20Z</time>
      </trkpt>
      <trkpt lat="47.30408" lon="6.03267">
        <ele>448.4</ele>
        <time>2021-04-03T09:57:21Z</time>
      </trkpt>
      <trkpt lat="47.30408" lon="6.03264">
        <ele>448.6</ele>
        <time>2021-04-03T09:57:22Z</time>
      </trkpt>
      <trkpt lat="47.30408" lon="6.03262">
        <ele>448.8</ele>
        <time>2021-04-03T09:57:23Z</time>
      </trkpt>
      <trkpt lat="47.30407" lon="6.0326">
        <ele>449.2</ele>
        <time>2021-04-03T09:57:24Z</time>
      </trkpt>
      <trkpt lat="47.30406" lon="6.03257">
        <ele>449.4</ele>
        <time>2021-04-03T09:57:25Z</time>
      </trkpt>
      <trkpt lat="47.30407" lon="6.03254">
        <ele>449.4</ele>
        <time>2021-04-03T09:57:26Z</time>
      </trkpt>
      <trkpt lat="47.30407" lon="6.03252">
        <ele>449.6</ele>
        <time>2021-04-03T09:57:27Z</time>
      </trkpt>
      <trkpt lat="47.30407" lon="6.03249">
        <ele>449.8</ele>
        <time>2021-04-03T09:57:28Z</time>
      </trkpt>
      <trkpt lat="47.30406" lon="6.03246">
        <ele>449.8</ele>
        <time>2021-04-03T09:57:29Z</time>
      </trkpt>
      <trkpt lat="47.30405" lon="6.03244">
        <ele>450</ele>
        <time>2021-04-03T09:57:30Z</time>
      </trkpt>
      <trkpt lat="47.30404" lon="6.03241">
        <ele>450.4</ele>
        <time>2021-04-03T09:57:31Z</time>
      </trkpt>
      <trkpt lat="47.30404" lon="6.03238">
        <ele>450.6</ele>
        <time>2021-04-03T09:57:32Z</time>
      </trkpt>
      <trkpt lat="47.30403" lon="6.03234">
        <ele>450.8</ele>
        <time>2021-04-03T09:57:33Z</time>
      </trkpt>
      <trkpt lat="47.30403" lon="6.03231">
        <ele>451.2</ele>
        <time>2021-04-03T09:57:34Z</time>
      </trkpt>
      <trkpt lat="47.30402" lon="6.03228">
        <ele>451.4</ele>
        <time>2021-04-03T09:57:35Z</time>
      </trkpt>
      <trkpt lat="47.30401" lon="6.03225">
        <ele>451.6</ele>
        <time>2021-04-03T09:57:36Z</time>
      </trkpt>
      <trkpt lat="47.30401" lon="6.03223">
        <ele>451.8</ele>
        <time>2021-04-03T09:57:37Z</time>
      </trkpt>
      <trkpt lat="47.30402" lon="6.03221">
        <ele>452</ele>
        <time>2021-04-03T09:57:38Z</time>
      </trkpt>
      <trkpt lat="47.30402" lon="6.03218">
        <ele>452.2</ele>
        <time>2021-04-03T09:57:39Z</time>
      </trkpt>
      <trkpt lat="47.30402" lon="6.03216">
        <ele>452.4</ele>
        <time>2021-04-03T09:57:40Z</time>
      </trkpt>
      <trkpt lat="47.30403" lon="6.03214">
        <ele>452.4</ele>
        <time>2021-04-03T09:57:41Z</time>
      </trkpt>
      <trkpt lat="47.30402" lon="6.03212">
        <ele>452.6</ele>
        <time>2021-04-03T09:57:42Z</time>
      </trkpt>
      <trkpt lat="47.30402" lon="6.0321">
        <ele>452.6</ele>
        <time>2021-04-03T09:57:43Z</time>
      </trkpt>
      <trkpt lat="47.30402" lon="6.03208">
        <ele>452.6</ele>
        <time>2021-04-03T09:57:44Z</time>
      </trkpt>
      <trkpt lat="47.30402" lon="6.03207">
        <ele>452.8</ele>
        <time>2021-04-03T09:57:45Z</time>
      </trkpt>
      <trkpt lat="47.30402" lon="6.03204">
        <ele>452.8</ele>
        <time>2021-04-03T09:57:46Z</time>
      </trkpt>
      <trkpt lat="47.30403" lon="6.03203">
        <ele>453</ele>
        <time>2021-04-03T09:57:47Z</time>
      </trkpt>
      <trkpt lat="47.30403" lon="6.032">
        <ele>453</ele>
        <time>2021-04-03T09:57:48Z</time>
      </trkpt>
      <trkpt lat="47.30403" lon="6.03198">
        <ele>453</ele>
        <time>2021-04-03T09:57:49Z</time>
      </trkpt>
      <trkpt lat="47.30403" lon="6.03196">
        <ele>453</ele>
        <time>2021-04-03T09:57:50Z</time>
      </trkpt>
      <trkpt lat="47.30403" lon="6.03193">
        <ele>453.2</ele>
        <time>2021-04-03T09:57:51Z</time>
      </trkpt>
      <trkpt lat="47.30402" lon="6.03191">
        <ele>453.2</ele>
        <time>2021-04-03T09:57:52Z</time>
      </trkpt>
      <trkpt lat="47.30402" lon="6.03188">
        <ele>453.2</ele>
        <time>2021-04-03T09:57:53Z</time>
      </trkpt>
      <trkpt lat="47.30402" lon="6.03187">
        <ele>453.4</ele>
        <time>2021-04-03T09:57:54Z</time>
      </trkpt>
      <trkpt lat="47.30401" lon="6.03184">
        <ele>453.4</ele>
        <time>2021-04-03T09:57:55Z</time>
      </trkpt>
      <trkpt lat="47.30399" lon="6.03182">
        <ele>453.4</ele>
        <time>2021-04-03T09:57:56Z</time>
      </trkpt>
      <trkpt lat="47.30398" lon="6.03179">
        <ele>453.4</ele>
        <time>2021-04-03T09:57:57Z</time>
      </trkpt>
      <trkpt lat="47.30396" lon="6.03177">
        <ele>453.4</ele>
        <time>2021-04-03T09:57:58Z</time>
      </trkpt>
      <trkpt lat="47.30396" lon="6.03175">
        <ele>453.4</ele>
        <time>2021-04-03T09:57:59Z</time>
      </trkpt>
      <trkpt lat="47.30395" lon="6.03173">
        <ele>453.6</ele>
        <time>2021-04-03T09:58:00Z</time>
      </trkpt>
      <trkpt lat="47.30394" lon="6.0317">
        <ele>453.6</ele>
        <time>2021-04-03T09:58:01Z</time>
      </trkpt>
      <trkpt lat="47.30393" lon="6.03168">
        <ele>453.6</ele>
        <time>2021-04-03T09:58:02Z</time>
      </trkpt>
      <trkpt lat="47.30393" lon="6.03165">
        <ele>453.6</ele>
        <time>2021-04-03T09:58:03Z</time>
      </trkpt>
      <trkpt lat="47.30392" lon="6.03162">
        <ele>453.8</ele>
        <time>2021-04-03T09:58:04Z</time>
      </trkpt>
      <trkpt lat="47.30392" lon="6.03157">
        <ele>454</ele>
        <time>2021-04-03T09:58:06Z</time>
      </trkpt>
      <trkpt lat="47.30392" lon="6.03154">
        <ele>454</ele>
        <time>2021-04-03T09:58:07Z</time>
      </trkpt>
      <trkpt lat="47.30384" lon="6.03135">
        <ele>454.2</ele>
        <time>2021-04-03T09:58:12Z</time>
      </trkpt>
      <trkpt lat="47.30373" lon="6.03106">
        <ele>454.8</ele>
        <time>2021-04-03T09:58:20Z</time>
      </trkpt>
      <trkpt lat="47.30373" lon="6.03104">
        <ele>454.8</ele>
        <time>2021-04-03T09:58:21Z</time>
      </trkpt>
      <trkpt lat="47.30374" lon="6.03102">
        <ele>455</ele>
        <time>2021-04-03T09:58:22Z</time>
      </trkpt>
      <trkpt lat="47.30374" lon="6.03094">
        <ele>455</ele>
        <time>2021-04-03T09:58:25Z</time>
      </trkpt>
      <trkpt lat="47.30373" lon="6.03091">
        <ele>455</ele>
        <time>2021-04-03T09:58:26Z</time>
      </trkpt>
      <trkpt lat="47.30374" lon="6.03088">
        <ele>455.2</ele>
        <time>2021-04-03T09:58:27Z</time>
      </trkpt>
      <trkpt lat="47.30377" lon="6.03084">
        <ele>455.4</ele>
        <time>2021-04-03T09:58:29Z</time>
      </trkpt>
      <trkpt lat="47.30378" lon="6.03082">
        <ele>455.6</ele>
        <time>2021-04-03T09:58:30Z</time>
      </trkpt>
      <trkpt lat="47.3038" lon="6.03081">
        <ele>455.8</ele>
        <time>2021-04-03T09:58:31Z</time>
      </trkpt>
      <trkpt lat="47.30382" lon="6.03081">
        <ele>456</ele>
        <time>2021-04-03T09:58:32Z</time>
      </trkpt>
      <trkpt lat="47.30383" lon="6.0308">
        <ele>456.2</ele>
        <time>2021-04-03T09:58:33Z</time>
      </trkpt>
      <trkpt lat="47.30385" lon="6.0308">
        <ele>456.2</ele>
        <time>2021-04-03T09:58:34Z</time>
      </trkpt>
      <trkpt lat="47.30386" lon="6.03081">
        <ele>456.4</ele>
        <time>2021-04-03T09:58:35Z</time>
      </trkpt>
      <trkpt lat="47.30387" lon="6.03082">
        <ele>456.4</ele>
        <time>2021-04-03T09:58:36Z</time>
      </trkpt>
      <trkpt lat="47.30389" lon="6.03083">
        <ele>456.6</ele>
        <time>2021-04-03T09:58:37Z</time>
      </trkpt>
      <trkpt lat="47.3039" lon="6.03085">
        <ele>456.6</ele>
        <time>2021-04-03T09:58:38Z</time>
      </trkpt>
      <trkpt lat="47.30392" lon="6.03087">
        <ele>456.6</ele>
        <time>2021-04-03T09:58:39Z</time>
      </trkpt>
      <trkpt lat="47.30393" lon="6.03089">
        <ele>456.8</ele>
        <time>2021-04-03T09:58:40Z</time>
      </trkpt>
      <trkpt lat="47.30393" lon="6.03091">
        <ele>457</ele>
        <time>2021-04-03T09:58:41Z</time>
      </trkpt>
      <trkpt lat="47.30394" lon="6.03093">
        <ele>457.2</ele>
        <time>2021-04-03T09:58:42Z</time>
      </trkpt>
      <trkpt lat="47.30394" lon="6.03095">
        <ele>457.4</ele>
        <time>2021-04-03T09:58:43Z</time>
      </trkpt>
      <trkpt lat="47.30394" lon="6.03097">
        <ele>457.8</ele>
        <time>2021-04-03T09:58:44Z</time>
      </trkpt>
      <trkpt lat="47.30394" lon="6.031">
        <ele>458</ele>
        <time>2021-04-03T09:58:45Z</time>
      </trkpt>
      <trkpt lat="47.30394" lon="6.03102">
        <ele>458</ele>
        <time>2021-04-03T09:58:46Z</time>
      </trkpt>
      <trkpt lat="47.30395" lon="6.03105">
        <ele>458.4</ele>
        <time>2021-04-03T09:58:47Z</time>
      </trkpt>
      <trkpt lat="47.30395" lon="6.03108">
        <ele>458.4</ele>
        <time>2021-04-03T09:58:48Z</time>
      </trkpt>
      <trkpt lat="47.30396" lon="6.03111">
        <ele>458.6</ele>
        <time>2021-04-03T09:58:49Z</time>
      </trkpt>
      <trkpt lat="47.30397" lon="6.03114">
        <ele>458.6</ele>
        <time>2021-04-03T09:58:50Z</time>
      </trkpt>
      <trkpt lat="47.30398" lon="6.03116">
        <ele>458.6</ele>
        <time>2021-04-03T09:58:51Z</time>
      </trkpt>
      <trkpt lat="47.30399" lon="6.03119">
        <ele>458.8</ele>
        <time>2021-04-03T09:58:52Z</time>
      </trkpt>
      <trkpt lat="47.304" lon="6.03122">
        <ele>459</ele>
        <time>2021-04-03T09:58:53Z</time>
      </trkpt>
      <trkpt lat="47.30401" lon="6.03125">
        <ele>459</ele>
        <time>2021-04-03T09:58:54Z</time>
      </trkpt>
      <trkpt lat="47.30402" lon="6.03128">
        <ele>459</ele>
        <time>2021-04-03T09:58:55Z</time>
      </trkpt>
      <trkpt lat="47.30403" lon="6.0313">
        <ele>459.2</ele>
        <time>2021-04-03T09:58:56Z</time>
      </trkpt>
      <trkpt lat="47.30404" lon="6.03133">
        <ele>459.2</ele>
        <time>2021-04-03T09:58:57Z</time>
      </trkpt>
      <trkpt lat="47.30405" lon="6.03135">
        <ele>459.2</ele>
        <time>2021-04-03T09:58:58Z</time>
      </trkpt>
      <trkpt lat="47.30406" lon="6.03138">
        <ele>459.2</ele>
        <time>2021-04-03T09:58:59Z</time>
      </trkpt>
      <trkpt lat="47.30407" lon="6.0314">
        <ele>459.2</ele>
        <time>2021-04-03T09:59:00Z</time>
      </trkpt>
      <trkpt lat="47.30409" lon="6.03142">
        <ele>459.2</ele>
        <time>2021-04-03T09:59:01Z</time>
      </trkpt>
      <trkpt lat="47.3041" lon="6.03144">
        <ele>459.2</ele>
        <time>2021-04-03T09:59:02Z</time>
      </trkpt>
      <trkpt lat="47.30412" lon="6.03146">
        <ele>459.2</ele>
        <time>2021-04-03T09:59:03Z</time>
      </trkpt>
      <trkpt lat="47.30414" lon="6.03148">
        <ele>459.2</ele>
        <time>2021-04-03T09:59:04Z</time>
      </trkpt>
      <trkpt lat="47.30416" lon="6.03151">
        <ele>459.2</ele>
        <time>2021-04-03T09:59:05Z</time>
      </trkpt>
      <trkpt lat="47.30417" lon="6.03153">
        <ele>459.4</ele>
        <time>2021-04-03T09:59:06Z</time>
      </trkpt>
      <trkpt lat="47.30418" lon="6.03156">
        <ele>459.4</ele>
        <time>2021-04-03T09:59:07Z</time>
      </trkpt>
      <trkpt lat="47.30426" lon="6.0317">
        <ele>460.2</ele>
        <time>2021-04-03T09:59:13Z</time>
      </trkpt>
      <trkpt lat="47.30429" lon="6.03179">
        <ele>460.6</ele>
        <time>2021-04-03T09:59:16Z</time>
      </trkpt>
      <trkpt lat="47.30429" lon="6.03181">
        <ele>460.6</ele>
        <time>2021-04-03T09:59:17Z</time>
      </trkpt>
      <trkpt lat="47.3043" lon="6.03183">
        <ele>460.6</ele>
        <time>2021-04-03T09:59:18Z</time>
      </trkpt>
      <trkpt lat="47.3043" lon="6.03185">
        <ele>460.8</ele>
        <time>2021-04-03T09:59:19Z</time>
      </trkpt>
      <trkpt lat="47.30431" lon="6.03188">
        <ele>461</ele>
        <time>2021-04-03T09:59:20Z</time>
      </trkpt>
      <trkpt lat="47.30432" lon="6.03191">
        <ele>461</ele>
        <time>2021-04-03T09:59:21Z</time>
      </trkpt>
      <trkpt lat="47.30434" lon="6.03196">
        <ele>461.2</ele>
        <time>2021-04-03T09:59:23Z</time>
      </trkpt>
      <trkpt lat="47.30436" lon="6.03199">
        <ele>461.2</ele>
        <time>2021-04-03T09:59:24Z</time>
      </trkpt>
      <trkpt lat="47.30437" lon="6.03202">
        <ele>461.4</ele>
        <time>2021-04-03T09:59:25Z</time>
      </trkpt>
      <trkpt lat="47.30438" lon="6.03205">
        <ele>461.4</ele>
        <time>2021-04-03T09:59:26Z</time>
      </trkpt>
      <trkpt lat="47.30445" lon="6.03232">
        <ele>461.6</ele>
        <time>2021-04-03T09:59:34Z</time>
      </trkpt>
      <trkpt lat="47.30456" lon="6.03258">
        <ele>461.6</ele>
        <time>2021-04-03T09:59:42Z</time>
      </trkpt>
      <trkpt lat="47.30458" lon="6.0326">
        <ele>461.6</ele>
        <time>2021-04-03T09:59:43Z</time>
      </trkpt>
      <trkpt lat="47.3046" lon="6.03261">
        <ele>461.6</ele>
        <time>2021-04-03T09:59:44Z</time>
      </trkpt>
      <trkpt lat="47.30463" lon="6.03261">
        <ele>461.6</ele>
        <time>2021-04-03T09:59:45Z</time>
      </trkpt>
      <trkpt lat="47.30464" lon="6.03261">
        <ele>461.6</ele>
        <time>2021-04-03T09:59:46Z</time>
      </trkpt>
      <trkpt lat="47.30466" lon="6.0326">
        <ele>462</ele>
        <time>2021-04-03T09:59:47Z</time>
      </trkpt>
      <trkpt lat="47.30471" lon="6.03252">
        <ele>462.2</ele>
        <time>2021-04-03T09:59:50Z</time>
      </trkpt>
      <trkpt lat="47.30473" lon="6.03249">
        <ele>462.2</ele>
        <time>2021-04-03T09:59:51Z</time>
      </trkpt>
      <trkpt lat="47.30473" lon="6.03246">
        <ele>462.2</ele>
        <time>2021-04-03T09:59:52Z</time>
      </trkpt>
      <trkpt lat="47.30474" lon="6.03243">
        <ele>462.2</ele>
        <time>2021-04-03T09:59:53Z</time>
      </trkpt>
      <trkpt lat="47.30474" lon="6.0324">
        <ele>462.2</ele>
        <time>2021-04-03T09:59:54Z</time>
      </trkpt>
      <trkpt lat="47.30475" lon="6.03237">
        <ele>462.2</ele>
        <time>2021-04-03T09:59:55Z</time>
      </trkpt>
      <trkpt lat="47.30475" lon="6.0323">
        <ele>462.4</ele>
        <time>2021-04-03T09:59:57Z</time>
      </trkpt>
      <trkpt lat="47.30475" lon="6.03227">
        <ele>462.4</ele>
        <time>2021-04-03T09:59:58Z</time>
      </trkpt>
      <trkpt lat="47.30475" lon="6.03225">
        <ele>462.6</ele>
        <time>2021-04-03T09:59:59Z</time>
      </trkpt>
      <trkpt lat="47.30474" lon="6.03222">
        <ele>462.8</ele>
        <time>2021-04-03T10:00:00Z</time>
      </trkpt>
      <trkpt lat="47.30473" lon="6.03218">
        <ele>463</ele>
        <time>2021-04-03T10:00:01Z</time>
      </trkpt>
      <trkpt lat="47.30471" lon="6.03216">
        <ele>463.4</ele>
        <time>2021-04-03T10:00:02Z</time>
      </trkpt>
      <trkpt lat="47.30469" lon="6.03212">
        <ele>463.6</ele>
        <time>2021-04-03T10:00:03Z</time>
      </trkpt>
      <trkpt lat="47.30468" lon="6.03209">
        <ele>463.6</ele>
        <time>2021-04-03T10:00:04Z</time>
      </trkpt>
      <trkpt lat="47.30467" lon="6.03207">
        <ele>464</ele>
        <time>2021-04-03T10:00:05Z</time>
      </trkpt>
      <trkpt lat="47.30464" lon="6.03204">
        <ele>464.2</ele>
        <time>2021-04-03T10:00:06Z</time>
      </trkpt>
      <trkpt lat="47.30461" lon="6.032">
        <ele>464.6</ele>
        <time>2021-04-03T10:00:07Z</time>
      </trkpt>
      <trkpt lat="47.3046" lon="6.03197">
        <ele>464.6</ele>
        <time>2021-04-03T10:00:08Z</time>
      </trkpt>
      <trkpt lat="47.30458" lon="6.03193">
        <ele>464.8</ele>
        <time>2021-04-03T10:00:09Z</time>
      </trkpt>
      <trkpt lat="47.30456" lon="6.0319">
        <ele>465</ele>
        <time>2021-04-03T10:00:10Z</time>
      </trkpt>
      <trkpt lat="47.30455" lon="6.03187">
        <ele>465.2</ele>
        <time>2021-04-03T10:00:11Z</time>
      </trkpt>
      <trkpt lat="47.30454" lon="6.03184">
        <ele>465.4</ele>
        <time>2021-04-03T10:00:12Z</time>
      </trkpt>
      <trkpt lat="47.30453" lon="6.0318">
        <ele>465.6</ele>
        <time>2021-04-03T10:00:13Z</time>
      </trkpt>
      <trkpt lat="47.3045" lon="6.03177">
        <ele>465.8</ele>
        <time>2021-04-03T10:00:14Z</time>
      </trkpt>
      <trkpt lat="47.30449" lon="6.03173">
        <ele>465.8</ele>
        <time>2021-04-03T10:00:15Z</time>
      </trkpt>
      <trkpt lat="47.30449" lon="6.03171">
        <ele>466</ele>
        <time>2021-04-03T10:00:16Z</time>
      </trkpt>
      <trkpt lat="47.30449" lon="6.03168">
        <ele>466.2</ele>
        <time>2021-04-03T10:00:17Z</time>
      </trkpt>
      <trkpt lat="47.30448" lon="6.03165">
        <ele>466.2</ele>
        <time>2021-04-03T10:00:18Z</time>
      </trkpt>
      <trkpt lat="47.30448" lon="6.03163">
        <ele>466.4</ele>
        <time>2021-04-03T10:00:19Z</time>
      </trkpt>
      <trkpt lat="47.30446" lon="6.03158">
        <ele>466.6</ele>
        <time>2021-04-03T10:00:20Z</time>
      </trkpt>
      <trkpt lat="47.30445" lon="6.03156">
        <ele>466.6</ele>
        <time>2021-04-03T10:00:21Z</time>
      </trkpt>
      <trkpt lat="47.30444" lon="6.03153">
        <ele>466.6</ele>
        <time>2021-04-03T10:00:22Z</time>
      </trkpt>
      <trkpt lat="47.30444" lon="6.03148">
        <ele>466.8</ele>
        <time>2021-04-03T10:00:23Z</time>
      </trkpt>
      <trkpt lat="47.30442" lon="6.03144">
        <ele>466.8</ele>
        <time>2021-04-03T10:00:24Z</time>
      </trkpt>
      <trkpt lat="47.30441" lon="6.03141">
        <ele>467</ele>
        <time>2021-04-03T10:00:25Z</time>
      </trkpt>
      <trkpt lat="47.3044" lon="6.03138">
        <ele>467</ele>
        <time>2021-04-03T10:00:26Z</time>
      </trkpt>
      <trkpt lat="47.30441" lon="6.03136">
        <ele>467.4</ele>
        <time>2021-04-03T10:00:27Z</time>
      </trkpt>
      <trkpt lat="47.30438" lon="6.03133">
        <ele>467.4</ele>
        <time>2021-04-03T10:00:28Z</time>
      </trkpt>
      <trkpt lat="47.30436" lon="6.0313">
        <ele>467.8</ele>
        <time>2021-04-03T10:00:29Z</time>
      </trkpt>
      <trkpt lat="47.30435" lon="6.03126">
        <ele>468</ele>
        <time>2021-04-03T10:00:30Z</time>
      </trkpt>
      <trkpt lat="47.30433" lon="6.03122">
        <ele>468.2</ele>
        <time>2021-04-03T10:00:31Z</time>
      </trkpt>
      <trkpt lat="47.30433" lon="6.03119">
        <ele>468.2</ele>
        <time>2021-04-03T10:00:32Z</time>
      </trkpt>
      <trkpt lat="47.30432" lon="6.03116">
        <ele>468.4</ele>
        <time>2021-04-03T10:00:33Z</time>
      </trkpt>
      <trkpt lat="47.30433" lon="6.03114">
        <ele>468.6</ele>
        <time>2021-04-03T10:00:34Z</time>
      </trkpt>
      <trkpt lat="47.30434" lon="6.03113">
        <ele>468.8</ele>
        <time>2021-04-03T10:00:35Z</time>
      </trkpt>
      <trkpt lat="47.30435" lon="6.03111">
        <ele>469</ele>
        <time>2021-04-03T10:00:36Z</time>
      </trkpt>
      <trkpt lat="47.30436" lon="6.03108">
        <ele>469.2</ele>
        <time>2021-04-03T10:00:37Z</time>
      </trkpt>
      <trkpt lat="47.30436" lon="6.03105">
        <ele>469.4</ele>
        <time>2021-04-03T10:00:38Z</time>
      </trkpt>
      <trkpt lat="47.30436" lon="6.03103">
        <ele>469.6</ele>
        <time>2021-04-03T10:00:39Z</time>
      </trkpt>
      <trkpt lat="47.30435" lon="6.031">
        <ele>470</ele>
        <time>2021-04-03T10:00:40Z</time>
      </trkpt>
      <trkpt lat="47.30434" lon="6.03096">
        <ele>470.2</ele>
        <time>2021-04-03T10:00:41Z</time>
      </trkpt>
      <trkpt lat="47.30434" lon="6.03094">
        <ele>470.6</ele>
        <time>2021-04-03T10:00:42Z</time>
      </trkpt>
      <trkpt lat="47.30434" lon="6.03092">
        <ele>470.8</ele>
        <time>2021-04-03T10:00:43Z</time>
      </trkpt>
      <trkpt lat="47.30433" lon="6.03089">
        <ele>470.8</ele>
        <time>2021-04-03T10:00:44Z</time>
      </trkpt>
      <trkpt lat="47.30434" lon="6.03088">
        <ele>471</ele>
        <time>2021-04-03T10:00:45Z</time>
      </trkpt>
      <trkpt lat="47.30433" lon="6.03086">
        <ele>471</ele>
        <time>2021-04-03T10:00:46Z</time>
      </trkpt>
      <trkpt lat="47.30434" lon="6.03084">
        <ele>471.4</ele>
        <time>2021-04-03T10:00:47Z</time>
      </trkpt>
      <trkpt lat="47.30435" lon="6.03082">
        <ele>471.4</ele>
        <time>2021-04-03T10:00:48Z</time>
      </trkpt>
      <trkpt lat="47.30434" lon="6.03078">
        <ele>471.6</ele>
        <time>2021-04-03T10:00:49Z</time>
      </trkpt>
      <trkpt lat="47.30432" lon="6.03075">
        <ele>471.8</ele>
        <time>2021-04-03T10:00:50Z</time>
      </trkpt>
      <trkpt lat="47.30431" lon="6.03072">
        <ele>471.8</ele>
        <time>2021-04-03T10:00:51Z</time>
      </trkpt>
      <trkpt lat="47.3043" lon="6.03069">
        <ele>472</ele>
        <time>2021-04-03T10:00:52Z</time>
      </trkpt>
      <trkpt lat="47.30428" lon="6.03066">
        <ele>472</ele>
        <time>2021-04-03T10:00:53Z</time>
      </trkpt>
      <trkpt lat="47.30426" lon="6.03063">
        <ele>472.2</ele>
        <time>2021-04-03T10:00:54Z</time>
      </trkpt>
      <trkpt lat="47.30425" lon="6.03061">
        <ele>472.2</ele>
        <time>2021-04-03T10:00:55Z</time>
      </trkpt>
      <trkpt lat="47.30424" lon="6.03059">
        <ele>472.2</ele>
        <time>2021-04-03T10:00:56Z</time>
      </trkpt>
      <trkpt lat="47.30423" lon="6.03057">
        <ele>472.4</ele>
        <time>2021-04-03T10:00:57Z</time>
      </trkpt>
      <trkpt lat="47.30422" lon="6.03055">
        <ele>472.6</ele>
        <time>2021-04-03T10:00:58Z</time>
      </trkpt>
      <trkpt lat="47.30419" lon="6.03052">
        <ele>472.8</ele>
        <time>2021-04-03T10:00:59Z</time>
      </trkpt>
      <trkpt lat="47.30418" lon="6.0305">
        <ele>473</ele>
        <time>2021-04-03T10:01:00Z</time>
      </trkpt>
      <trkpt lat="47.30416" lon="6.03048">
        <ele>473.2</ele>
        <time>2021-04-03T10:01:01Z</time>
      </trkpt>
      <trkpt lat="47.30415" lon="6.03046">
        <ele>473.4</ele>
        <time>2021-04-03T10:01:02Z</time>
      </trkpt>
      <trkpt lat="47.30414" lon="6.03045">
        <ele>473.6</ele>
        <time>2021-04-03T10:01:03Z</time>
      </trkpt>
      <trkpt lat="47.30413" lon="6.03043">
        <ele>473.8</ele>
        <time>2021-04-03T10:01:04Z</time>
      </trkpt>
      <trkpt lat="47.30412" lon="6.03041">
        <ele>473.8</ele>
        <time>2021-04-03T10:01:05Z</time>
      </trkpt>
      <trkpt lat="47.30411" lon="6.03038">
        <ele>473.8</ele>
        <time>2021-04-03T10:01:06Z</time>
      </trkpt>
      <trkpt lat="47.30409" lon="6.03035">
        <ele>474</ele>
        <time>2021-04-03T10:01:07Z</time>
      </trkpt>
      <trkpt lat="47.30407" lon="6.03033">
        <ele>474</ele>
        <time>2021-04-03T10:01:08Z</time>
      </trkpt>
      <trkpt lat="47.30406" lon="6.03031">
        <ele>474</ele>
        <time>2021-04-03T10:01:09Z</time>
      </trkpt>
      <trkpt lat="47.30406" lon="6.03029">
        <ele>474.2</ele>
        <time>2021-04-03T10:01:10Z</time>
      </trkpt>
      <trkpt lat="47.30406" lon="6.03028">
        <ele>474.2</ele>
        <time>2021-04-03T10:01:11Z</time>
      </trkpt>
      <trkpt lat="47.30405" lon="6.03026">
        <ele>474.2</ele>
        <time>2021-04-03T10:01:12Z</time>
      </trkpt>
      <trkpt lat="47.30406" lon="6.03025">
        <ele>474.4</ele>
        <time>2021-04-03T10:01:13Z</time>
      </trkpt>
      <trkpt lat="47.30406" lon="6.03023">
        <ele>474.4</ele>
        <time>2021-04-03T10:01:14Z</time>
      </trkpt>
      <trkpt lat="47.30406" lon="6.03021">
        <ele>474.6</ele>
        <time>2021-04-03T10:01:15Z</time>
      </trkpt>
      <trkpt lat="47.30407" lon="6.03018">
        <ele>474.6</ele>
        <time>2021-04-03T10:01:16Z</time>
      </trkpt>
      <trkpt lat="47.30407" lon="6.03015">
        <ele>474.6</ele>
        <time>2021-04-03T10:01:17Z</time>
      </trkpt>
      <trkpt lat="47.30408" lon="6.03012">
        <ele>474.8</ele>
        <time>2021-04-03T10:01:18Z</time>
      </trkpt>
      <trkpt lat="47.30409" lon="6.03011">
        <ele>475</ele>
        <time>2021-04-03T10:01:19Z</time>
      </trkpt>
      <trkpt lat="47.3041" lon="6.03009">
        <ele>475.4</ele>
        <time>2021-04-03T10:01:20Z</time>
      </trkpt>
      <trkpt lat="47.30411" lon="6.03008">
        <ele>475.4</ele>
        <time>2021-04-03T10:01:21Z</time>
      </trkpt>
      <trkpt lat="47.30412" lon="6.03007">
        <ele>475.6</ele>
        <time>2021-04-03T10:01:22Z</time>
      </trkpt>
      <trkpt lat="47.30414" lon="6.03007">
        <ele>475.8</ele>
        <time>2021-04-03T10:01:23Z</time>
      </trkpt>
      <trkpt lat="47.30416" lon="6.03006">
        <ele>475.8</ele>
        <time>2021-04-03T10:01:24Z</time>
      </trkpt>
      <trkpt lat="47.30418" lon="6.03007">
        <ele>476</ele>
        <time>2021-04-03T10:01:25Z</time>
      </trkpt>
      <trkpt lat="47.30419" lon="6.03007">
        <ele>476</ele>
        <time>2021-04-03T10:01:26Z</time>
      </trkpt>
      <trkpt lat="47.3042" lon="6.03008">
        <ele>476.2</ele>
        <time>2021-04-03T10:01:27Z</time>
      </trkpt>
      <trkpt lat="47.30422" lon="6.0301">
        <ele>476.2</ele>
        <time>2021-04-03T10:01:28Z</time>
      </trkpt>
      <trkpt lat="47.30423" lon="6.03011">
        <ele>476.4</ele>
        <time>2021-04-03T10:01:29Z</time>
      </trkpt>
      <trkpt lat="47.30424" lon="6.03012">
        <ele>476.4</ele>
        <time>2021-04-03T10:01:30Z</time>
      </trkpt>
      <trkpt lat="47.30425" lon="6.03014">
        <ele>476.6</ele>
        <time>2021-04-03T10:01:31Z</time>
      </trkpt>
      <trkpt lat="47.30426" lon="6.03016">
        <ele>476.8</ele>
        <time>2021-04-03T10:01:32Z</time>
      </trkpt>
      <trkpt lat="47.30428" lon="6.03018">
        <ele>476.8</ele>
        <time>2021-04-03T10:01:33Z</time>
      </trkpt>
      <trkpt lat="47.30429" lon="6.0302">
        <ele>477</ele>
        <time>2021-04-03T10:01:34Z</time>
      </trkpt>
      <trkpt lat="47.3043" lon="6.03022">
        <ele>477</ele>
        <time>2021-04-03T10:01:35Z</time>
      </trkpt>
      <trkpt lat="47.3043" lon="6.03024">
        <ele>477</ele>
        <time>2021-04-03T10:01:36Z</time>
      </trkpt>
      <trkpt lat="47.30431" lon="6.03026">
        <ele>477</ele>
        <time>2021-04-03T10:01:37Z</time>
      </trkpt>
      <trkpt lat="47.30432" lon="6.03028">
        <ele>477</ele>
        <time>2021-04-03T10:01:38Z</time>
      </trkpt>
      <trkpt lat="47.30433" lon="6.03031">
        <ele>477.2</ele>
        <time>2021-04-03T10:01:39Z</time>
      </trkpt>
      <trkpt lat="47.30434" lon="6.03033">
        <ele>477.2</ele>
        <time>2021-04-03T10:01:40Z</time>
      </trkpt>
      <trkpt lat="47.30436" lon="6.03036">
        <ele>477.4</ele>
        <time>2021-04-03T10:01:41Z</time>
      </trkpt>
      <trkpt lat="47.30436" lon="6.03036">
        <ele>477.4</ele>
        <time>2021-04-03T10:01:42Z</time>
      </trkpt>
      <trkpt lat="47.30439" lon="6.03042">
        <ele>477.4</ele>
        <time>2021-04-03T10:01:43Z</time>
      </trkpt>
      <trkpt lat="47.30441" lon="6.03044">
        <ele>477.6</ele>
        <time>2021-04-03T10:01:44Z</time>
      </trkpt>
      <trkpt lat="47.30442" lon="6.03047">
        <ele>477.8</ele>
        <time>2021-04-03T10:01:45Z</time>
      </trkpt>
      <trkpt lat="47.30445" lon="6.03052">
        <ele>478</ele>
        <time>2021-04-03T10:01:47Z</time>
      </trkpt>
      <trkpt lat="47.30457" lon="6.03069">
        <ele>478.4</ele>
        <time>2021-04-03T10:01:55Z</time>
      </trkpt>
      <trkpt lat="47.30458" lon="6.0307">
        <ele>478.6</ele>
        <time>2021-04-03T10:01:56Z</time>
      </trkpt>
      <trkpt lat="47.30459" lon="6.03072">
        <ele>478.6</ele>
        <time>2021-04-03T10:01:57Z</time>
      </trkpt>
      <trkpt lat="47.30461" lon="6.03073">
        <ele>478.8</ele>
        <time>2021-04-03T10:01:58Z</time>
      </trkpt>
      <trkpt lat="47.30462" lon="6.03075">
        <ele>478.8</ele>
        <time>2021-04-03T10:01:59Z</time>
      </trkpt>
      <trkpt lat="47.30464" lon="6.03078">
        <ele>479</ele>
        <time>2021-04-03T10:02:00Z</time>
      </trkpt>
      <trkpt lat="47.30466" lon="6.03081">
        <ele>479</ele>
        <time>2021-04-03T10:02:01Z</time>
      </trkpt>
      <trkpt lat="47.30468" lon="6.03083">
        <ele>479</ele>
        <time>2021-04-03T10:02:02Z</time>
      </trkpt>
      <trkpt lat="47.30474" lon="6.03092">
        <ele>479</ele>
        <time>2021-04-03T10:02:05Z</time>
      </trkpt>
      <trkpt lat="47.30474" lon="6.03093">
        <ele>479.2</ele>
        <time>2021-04-03T10:02:06Z</time>
      </trkpt>
      <trkpt lat="47.30475" lon="6.03094">
        <ele>479.2</ele>
        <time>2021-04-03T10:02:07Z</time>
      </trkpt>
      <trkpt lat="47.30479" lon="6.03098">
        <ele>479.4</ele>
        <time>2021-04-03T10:02:09Z</time>
      </trkpt>
      <trkpt lat="47.30482" lon="6.03102">
        <ele>479.6</ele>
        <time>2021-04-03T10:02:11Z</time>
      </trkpt>
      <trkpt lat="47.30486" lon="6.03104">
        <ele>479.6</ele>
        <time>2021-04-03T10:02:12Z</time>
      </trkpt>
      <trkpt lat="47.30489" lon="6.03107">
        <ele>479.6</ele>
        <time>2021-04-03T10:02:13Z</time>
      </trkpt>
      <trkpt lat="47.3049" lon="6.03109">
        <ele>479.8</ele>
        <time>2021-04-03T10:02:14Z</time>
      </trkpt>
      <trkpt lat="47.3049" lon="6.03109">
        <ele>480</ele>
        <time>2021-04-03T10:02:15Z</time>
      </trkpt>
      <trkpt lat="47.30491" lon="6.03111">
        <ele>480.2</ele>
        <time>2021-04-03T10:02:16Z</time>
      </trkpt>
      <trkpt lat="47.30492" lon="6.03113">
        <ele>480.2</ele>
        <time>2021-04-03T10:02:17Z</time>
      </trkpt>
      <trkpt lat="47.30493" lon="6.03115">
        <ele>480.4</ele>
        <time>2021-04-03T10:02:18Z</time>
      </trkpt>
      <trkpt lat="47.30494" lon="6.03117">
        <ele>480.4</ele>
        <time>2021-04-03T10:02:19Z</time>
      </trkpt>
      <trkpt lat="47.30496" lon="6.03118">
        <ele>480.6</ele>
        <time>2021-04-03T10:02:20Z</time>
      </trkpt>
      <trkpt lat="47.305" lon="6.03123">
        <ele>481</ele>
        <time>2021-04-03T10:02:23Z</time>
      </trkpt>
      <trkpt lat="47.30504" lon="6.03127">
        <ele>481.6</ele>
        <time>2021-04-03T10:02:25Z</time>
      </trkpt>
      <trkpt lat="47.30505" lon="6.0313">
        <ele>481.8</ele>
        <time>2021-04-03T10:02:27Z</time>
      </trkpt>
      <trkpt lat="47.30506" lon="6.03132">
        <ele>482</ele>
        <time>2021-04-03T10:02:28Z</time>
      </trkpt>
      <trkpt lat="47.30507" lon="6.03133">
        <ele>482</ele>
        <time>2021-04-03T10:02:29Z</time>
      </trkpt>
      <trkpt lat="47.30509" lon="6.03136">
        <ele>482.2</ele>
        <time>2021-04-03T10:02:30Z</time>
      </trkpt>
      <trkpt lat="47.3051" lon="6.03138">
        <ele>482.2</ele>
        <time>2021-04-03T10:02:31Z</time>
      </trkpt>
      <trkpt lat="47.30512" lon="6.0314">
        <ele>482.4</ele>
        <time>2021-04-03T10:02:32Z</time>
      </trkpt>
      <trkpt lat="47.30513" lon="6.03141">
        <ele>482.6</ele>
        <time>2021-04-03T10:02:33Z</time>
      </trkpt>
      <trkpt lat="47.30514" lon="6.03143">
        <ele>483</ele>
        <time>2021-04-03T10:02:34Z</time>
      </trkpt>
      <trkpt lat="47.30516" lon="6.03145">
        <ele>483.2</ele>
        <time>2021-04-03T10:02:35Z</time>
      </trkpt>
      <trkpt lat="47.30518" lon="6.03147">
        <ele>483.4</ele>
        <time>2021-04-03T10:02:36Z</time>
      </trkpt>
      <trkpt lat="47.30521" lon="6.0315">
        <ele>483.4</ele>
        <time>2021-04-03T10:02:37Z</time>
      </trkpt>
      <trkpt lat="47.30523" lon="6.03153">
        <ele>483.6</ele>
        <time>2021-04-03T10:02:38Z</time>
      </trkpt>
      <trkpt lat="47.30524" lon="6.03154">
        <ele>483.8</ele>
        <time>2021-04-03T10:02:39Z</time>
      </trkpt>
      <trkpt lat="47.30525" lon="6.03157">
        <ele>484</ele>
        <time>2021-04-03T10:02:40Z</time>
      </trkpt>
      <trkpt lat="47.30527" lon="6.0316">
        <ele>484.2</ele>
        <time>2021-04-03T10:02:41Z</time>
      </trkpt>
      <trkpt lat="47.30529" lon="6.03162">
        <ele>484.2</ele>
        <time>2021-04-03T10:02:42Z</time>
      </trkpt>
      <trkpt lat="47.30531" lon="6.03164">
        <ele>484.6</ele>
        <time>2021-04-03T10:02:43Z</time>
      </trkpt>
      <trkpt lat="47.30534" lon="6.03167">
        <ele>484.6</ele>
        <time>2021-04-03T10:02:44Z</time>
      </trkpt>
      <trkpt lat="47.30536" lon="6.0317">
        <ele>484.8</ele>
        <time>2021-04-03T10:02:45Z</time>
      </trkpt>
      <trkpt lat="47.30537" lon="6.03172">
        <ele>485</ele>
        <time>2021-04-03T10:02:46Z</time>
      </trkpt>
      <trkpt lat="47.3054" lon="6.03174">
        <ele>485.2</ele>
        <time>2021-04-03T10:02:47Z</time>
      </trkpt>
      <trkpt lat="47.30543" lon="6.03178">
        <ele>485.2</ele>
        <time>2021-04-03T10:02:48Z</time>
      </trkpt>
      <trkpt lat="47.30546" lon="6.0318">
        <ele>485.4</ele>
        <time>2021-04-03T10:02:49Z</time>
      </trkpt>
      <trkpt lat="47.30548" lon="6.03182">
        <ele>485.4</ele>
        <time>2021-04-03T10:02:50Z</time>
      </trkpt>
      <trkpt lat="47.30551" lon="6.03183">
        <ele>485.6</ele>
        <time>2021-04-03T10:02:51Z</time>
      </trkpt>
      <trkpt lat="47.30552" lon="6.03186">
        <ele>485.6</ele>
        <time>2021-04-03T10:02:52Z</time>
      </trkpt>
      <trkpt lat="47.30554" lon="6.03188">
        <ele>485.8</ele>
        <time>2021-04-03T10:02:53Z</time>
      </trkpt>
      <trkpt lat="47.30554" lon="6.0319">
        <ele>486</ele>
        <time>2021-04-03T10:02:54Z</time>
      </trkpt>
      <trkpt lat="47.30555" lon="6.03192">
        <ele>486</ele>
        <time>2021-04-03T10:02:55Z</time>
      </trkpt>
      <trkpt lat="47.30557" lon="6.03195">
        <ele>486.2</ele>
        <time>2021-04-03T10:02:56Z</time>
      </trkpt>
      <trkpt lat="47.30558" lon="6.03196">
        <ele>486.4</ele>
        <time>2021-04-03T10:02:57Z</time>
      </trkpt>
      <trkpt lat="47.30559" lon="6.03198">
        <ele>486.6</ele>
        <time>2021-04-03T10:02:58Z</time>
      </trkpt>
      <trkpt lat="47.3056" lon="6.032">
        <ele>486.6</ele>
        <time>2021-04-03T10:02:59Z</time>
      </trkpt>
      <trkpt lat="47.30561" lon="6.03201">
        <ele>487</ele>
        <time>2021-04-03T10:03:00Z</time>
      </trkpt>
      <trkpt lat="47.30563" lon="6.03203">
        <ele>487.2</ele>
        <time>2021-04-03T10:03:01Z</time>
      </trkpt>
      <trkpt lat="47.30564" lon="6.03204">
        <ele>487.4</ele>
        <time>2021-04-03T10:03:02Z</time>
      </trkpt>
      <trkpt lat="47.30565" lon="6.03205">
        <ele>487.6</ele>
        <time>2021-04-03T10:03:03Z</time>
      </trkpt>
      <trkpt lat="47.30567" lon="6.03207">
        <ele>487.8</ele>
        <time>2021-04-03T10:03:04Z</time>
      </trkpt>
      <trkpt lat="47.30568" lon="6.03209">
        <ele>488</ele>
        <time>2021-04-03T10:03:05Z</time>
      </trkpt>
      <trkpt lat="47.30569" lon="6.03211">
        <ele>488</ele>
        <time>2021-04-03T10:03:06Z</time>
      </trkpt>
      <trkpt lat="47.3057" lon="6.03213">
        <ele>488.2</ele>
        <time>2021-04-03T10:03:07Z</time>
      </trkpt>
      <trkpt lat="47.30571" lon="6.03214">
        <ele>488.2</ele>
        <time>2021-04-03T10:03:08Z</time>
      </trkpt>
      <trkpt lat="47.30571" lon="6.03216">
        <ele>488.4</ele>
        <time>2021-04-03T10:03:09Z</time>
      </trkpt>
      <trkpt lat="47.30572" lon="6.03218">
        <ele>488.4</ele>
        <time>2021-04-03T10:03:10Z</time>
      </trkpt>
      <trkpt lat="47.30574" lon="6.0322">
        <ele>488.4</ele>
        <time>2021-04-03T10:03:11Z</time>
      </trkpt>
      <trkpt lat="47.30577" lon="6.03223">
        <ele>488.6</ele>
        <time>2021-04-03T10:03:12Z</time>
      </trkpt>
      <trkpt lat="47.30579" lon="6.03226">
        <ele>488.6</ele>
        <time>2021-04-03T10:03:13Z</time>
      </trkpt>
      <trkpt lat="47.30582" lon="6.03228">
        <ele>488.8</ele>
        <time>2021-04-03T10:03:14Z</time>
      </trkpt>
      <trkpt lat="47.30582" lon="6.03231">
        <ele>489</ele>
        <time>2021-04-03T10:03:15Z</time>
      </trkpt>
      <trkpt lat="47.30583" lon="6.03232">
        <ele>489</ele>
        <time>2021-04-03T10:03:16Z</time>
      </trkpt>
      <trkpt lat="47.30583" lon="6.03234">
        <ele>489.2</ele>
        <time>2021-04-03T10:03:17Z</time>
      </trkpt>
      <trkpt lat="47.30584" lon="6.03236">
        <ele>489.4</ele>
        <time>2021-04-03T10:03:18Z</time>
      </trkpt>
      <trkpt lat="47.30586" lon="6.03239">
        <ele>489.6</ele>
        <time>2021-04-03T10:03:19Z</time>
      </trkpt>
      <trkpt lat="47.30587" lon="6.03241">
        <ele>489.8</ele>
        <time>2021-04-03T10:03:20Z</time>
      </trkpt>
      <trkpt lat="47.30588" lon="6.03243">
        <ele>490</ele>
        <time>2021-04-03T10:03:21Z</time>
      </trkpt>
      <trkpt lat="47.30588" lon="6.03245">
        <ele>490</ele>
        <time>2021-04-03T10:03:22Z</time>
      </trkpt>
      <trkpt lat="47.3059" lon="6.03247">
        <ele>490.2</ele>
        <time>2021-04-03T10:03:23Z</time>
      </trkpt>
      <trkpt lat="47.30591" lon="6.03249">
        <ele>490.2</ele>
        <time>2021-04-03T10:03:24Z</time>
      </trkpt>
      <trkpt lat="47.30593" lon="6.03251">
        <ele>490.2</ele>
        <time>2021-04-03T10:03:25Z</time>
      </trkpt>
      <trkpt lat="47.30594" lon="6.03253">
        <ele>490.2</ele>
        <time>2021-04-03T10:03:26Z</time>
      </trkpt>
      <trkpt lat="47.30596" lon="6.03256">
        <ele>490.4</ele>
        <time>2021-04-03T10:03:27Z</time>
      </trkpt>
      <trkpt lat="47.30597" lon="6.03257">
        <ele>490.4</ele>
        <time>2021-04-03T10:03:28Z</time>
      </trkpt>
      <trkpt lat="47.30598" lon="6.03259">
        <ele>490.6</ele>
        <time>2021-04-03T10:03:29Z</time>
      </trkpt>
      <trkpt lat="47.30599" lon="6.03262">
        <ele>490.6</ele>
        <time>2021-04-03T10:03:30Z</time>
      </trkpt>
      <trkpt lat="47.30601" lon="6.03264">
        <ele>490.8</ele>
        <time>2021-04-03T10:03:31Z</time>
      </trkpt>
      <trkpt lat="47.30604" lon="6.03268">
        <ele>491</ele>
        <time>2021-04-03T10:03:32Z</time>
      </trkpt>
      <trkpt lat="47.30607" lon="6.03271">
        <ele>491</ele>
        <time>2021-04-03T10:03:33Z</time>
      </trkpt>
      <trkpt lat="47.30608" lon="6.03273">
        <ele>491.2</ele>
        <time>2021-04-03T10:03:34Z</time>
      </trkpt>
      <trkpt lat="47.30609" lon="6.03275">
        <ele>491.2</ele>
        <time>2021-04-03T10:03:35Z</time>
      </trkpt>
      <trkpt lat="47.30611" lon="6.03277">
        <ele>491.4</ele>
        <time>2021-04-03T10:03:36Z</time>
      </trkpt>
      <trkpt lat="47.30614" lon="6.03281">
        <ele>491.4</ele>
        <time>2021-04-03T10:03:37Z</time>
      </trkpt>
      <trkpt lat="47.30615" lon="6.03284">
        <ele>491.4</ele>
        <time>2021-04-03T10:03:38Z</time>
      </trkpt>
      <trkpt lat="47.30616" lon="6.03287">
        <ele>491.6</ele>
        <time>2021-04-03T10:03:39Z</time>
      </trkpt>
      <trkpt lat="47.30616" lon="6.03289">
        <ele>491.8</ele>
        <time>2021-04-03T10:03:40Z</time>
      </trkpt>
      <trkpt lat="47.30616" lon="6.03291">
        <ele>491.8</ele>
        <time>2021-04-03T10:03:41Z</time>
      </trkpt>
      <trkpt lat="47.30617" lon="6.03294">
        <ele>491.8</ele>
        <time>2021-04-03T10:03:42Z</time>
      </trkpt>
      <trkpt lat="47.30617" lon="6.03299">
        <ele>492</ele>
        <time>2021-04-03T10:03:43Z</time>
      </trkpt>
      <trkpt lat="47.30618" lon="6.03301">
        <ele>492</ele>
        <time>2021-04-03T10:03:44Z</time>
      </trkpt>
      <trkpt lat="47.30618" lon="6.03303">
        <ele>492.2</ele>
        <time>2021-04-03T10:03:45Z</time>
      </trkpt>
      <trkpt lat="47.30618" lon="6.03304">
        <ele>492.2</ele>
        <time>2021-04-03T10:03:46Z</time>
      </trkpt>
      <trkpt lat="47.30618" lon="6.03305">
        <ele>492.4</ele>
        <time>2021-04-03T10:03:47Z</time>
      </trkpt>
      <trkpt lat="47.30617" lon="6.03307">
        <ele>492.4</ele>
        <time>2021-04-03T10:03:48Z</time>
      </trkpt>
      <trkpt lat="47.30616" lon="6.03311">
        <ele>492.6</ele>
        <time>2021-04-03T10:03:49Z</time>
      </trkpt>
      <trkpt lat="47.30617" lon="6.03313">
        <ele>492.6</ele>
        <time>2021-04-03T10:03:50Z</time>
      </trkpt>
      <trkpt lat="47.30618" lon="6.03316">
        <ele>492.8</ele>
        <time>2021-04-03T10:03:51Z</time>
      </trkpt>
      <trkpt lat="47.3062" lon="6.03317">
        <ele>493</ele>
        <time>2021-04-03T10:03:52Z</time>
      </trkpt>
      <trkpt lat="47.3062" lon="6.0332">
        <ele>493</ele>
        <time>2021-04-03T10:03:53Z</time>
      </trkpt>
      <trkpt lat="47.30621" lon="6.03321">
        <ele>493.2</ele>
        <time>2021-04-03T10:03:54Z</time>
      </trkpt>
      <trkpt lat="47.30623" lon="6.03324">
        <ele>493.2</ele>
        <time>2021-04-03T10:03:55Z</time>
      </trkpt>
      <trkpt lat="47.30623" lon="6.03326">
        <ele>493.4</ele>
        <time>2021-04-03T10:03:56Z</time>
      </trkpt>
      <trkpt lat="47.30624" lon="6.03328">
        <ele>493.4</ele>
        <time>2021-04-03T10:03:57Z</time>
      </trkpt>
      <trkpt lat="47.30626" lon="6.03331">
        <ele>493.4</ele>
        <time>2021-04-03T10:03:58Z</time>
      </trkpt>
      <trkpt lat="47.30627" lon="6.03333">
        <ele>493.4</ele>
        <time>2021-04-03T10:03:59Z</time>
      </trkpt>
      <trkpt lat="47.30627" lon="6.03335">
        <ele>493.6</ele>
        <time>2021-04-03T10:04:00Z</time>
      </trkpt>
      <trkpt lat="47.30628" lon="6.03337">
        <ele>493.6</ele>
        <time>2021-04-03T10:04:01Z</time>
      </trkpt>
      <trkpt lat="47.30629" lon="6.03338">
        <ele>493.6</ele>
        <time>2021-04-03T10:04:02Z</time>
      </trkpt>
      <trkpt lat="47.3063" lon="6.03341">
        <ele>493.8</ele>
        <time>2021-04-03T10:04:03Z</time>
      </trkpt>
      <trkpt lat="47.30631" lon="6.03344">
        <ele>494.2</ele>
        <time>2021-04-03T10:04:05Z</time>
      </trkpt>
      <trkpt lat="47.30631" lon="6.03345">
        <ele>494.4</ele>
        <time>2021-04-03T10:04:06Z</time>
      </trkpt>
      <trkpt lat="47.3063" lon="6.03346">
        <ele>494.4</ele>
        <time>2021-04-03T10:04:07Z</time>
      </trkpt>
      <trkpt lat="47.3063" lon="6.03348">
        <ele>494.6</ele>
        <time>2021-04-03T10:04:08Z</time>
      </trkpt>
      <trkpt lat="47.30631" lon="6.03351">
        <ele>494.6</ele>
        <time>2021-04-03T10:04:09Z</time>
      </trkpt>
      <trkpt lat="47.30633" lon="6.03354">
        <ele>494.8</ele>
        <time>2021-04-03T10:04:10Z</time>
      </trkpt>
      <trkpt lat="47.30635" lon="6.03357">
        <ele>495</ele>
        <time>2021-04-03T10:04:11Z</time>
      </trkpt>
      <trkpt lat="47.30636" lon="6.0336">
        <ele>495</ele>
        <time>2021-04-03T10:04:12Z</time>
      </trkpt>
      <trkpt lat="47.30637" lon="6.03361">
        <ele>495.2</ele>
        <time>2021-04-03T10:04:13Z</time>
      </trkpt>
      <trkpt lat="47.30639" lon="6.03364">
        <ele>495.2</ele>
        <time>2021-04-03T10:04:14Z</time>
      </trkpt>
      <trkpt lat="47.30639" lon="6.03367">
        <ele>495.2</ele>
        <time>2021-04-03T10:04:15Z</time>
      </trkpt>
      <trkpt lat="47.30641" lon="6.0337">
        <ele>495.4</ele>
        <time>2021-04-03T10:04:16Z</time>
      </trkpt>
      <trkpt lat="47.30642" lon="6.03373">
        <ele>495.6</ele>
        <time>2021-04-03T10:04:17Z</time>
      </trkpt>
      <trkpt lat="47.30644" lon="6.03375">
        <ele>495.8</ele>
        <time>2021-04-03T10:04:18Z</time>
      </trkpt>
      <trkpt lat="47.30645" lon="6.03378">
        <ele>496</ele>
        <time>2021-04-03T10:04:19Z</time>
      </trkpt>
      <trkpt lat="47.30647" lon="6.03381">
        <ele>496.2</ele>
        <time>2021-04-03T10:04:20Z</time>
      </trkpt>
      <trkpt lat="47.30649" lon="6.03385">
        <ele>496.4</ele>
        <time>2021-04-03T10:04:21Z</time>
      </trkpt>
      <trkpt lat="47.3065" lon="6.03389">
        <ele>496.4</ele>
        <time>2021-04-03T10:04:22Z</time>
      </trkpt>
      <trkpt lat="47.30652" lon="6.03392">
        <ele>496.4</ele>
        <time>2021-04-03T10:04:23Z</time>
      </trkpt>
      <trkpt lat="47.30651" lon="6.03396">
        <ele>496.4</ele>
        <time>2021-04-03T10:04:24Z</time>
      </trkpt>
      <trkpt lat="47.30652" lon="6.03399">
        <ele>496.6</ele>
        <time>2021-04-03T10:04:25Z</time>
      </trkpt>
      <trkpt lat="47.30653" lon="6.03402">
        <ele>496.6</ele>
        <time>2021-04-03T10:04:26Z</time>
      </trkpt>
      <trkpt lat="47.30655" lon="6.03406">
        <ele>496.6</ele>
        <time>2021-04-03T10:04:27Z</time>
      </trkpt>
      <trkpt lat="47.30655" lon="6.03407">
        <ele>496.8</ele>
        <time>2021-04-03T10:04:28Z</time>
      </trkpt>
      <trkpt lat="47.30656" lon="6.0341">
        <ele>496.8</ele>
        <time>2021-04-03T10:04:29Z</time>
      </trkpt>
      <trkpt lat="47.30656" lon="6.03411">
        <ele>496.8</ele>
        <time>2021-04-03T10:04:30Z</time>
      </trkpt>
      <trkpt lat="47.30656" lon="6.03413">
        <ele>496.8</ele>
        <time>2021-04-03T10:04:31Z</time>
      </trkpt>
      <trkpt lat="47.30656" lon="6.03416">
        <ele>497</ele>
        <time>2021-04-03T10:04:32Z</time>
      </trkpt>
      <trkpt lat="47.30656" lon="6.03418">
        <ele>497.2</ele>
        <time>2021-04-03T10:04:33Z</time>
      </trkpt>
      <trkpt lat="47.30659" lon="6.03421">
        <ele>497.6</ele>
        <time>2021-04-03T10:04:34Z</time>
      </trkpt>
      <trkpt lat="47.30661" lon="6.03424">
        <ele>497.8</ele>
        <time>2021-04-03T10:04:35Z</time>
      </trkpt>
      <trkpt lat="47.30663" lon="6.03426">
        <ele>498.2</ele>
        <time>2021-04-03T10:04:36Z</time>
      </trkpt>
      <trkpt lat="47.30664" lon="6.03428">
        <ele>498.6</ele>
        <time>2021-04-03T10:04:37Z</time>
      </trkpt>
      <trkpt lat="47.30666" lon="6.0343">
        <ele>498.6</ele>
        <time>2021-04-03T10:04:38Z</time>
      </trkpt>
      <trkpt lat="47.30667" lon="6.03432">
        <ele>498.8</ele>
        <time>2021-04-03T10:04:39Z</time>
      </trkpt>
      <trkpt lat="47.30667" lon="6.03433">
        <ele>498.8</ele>
        <time>2021-04-03T10:04:40Z</time>
      </trkpt>
      <trkpt lat="47.30668" lon="6.03435">
        <ele>498.8</ele>
        <time>2021-04-03T10:04:41Z</time>
      </trkpt>
      <trkpt lat="47.30669" lon="6.03438">
        <ele>498.8</ele>
        <time>2021-04-03T10:04:42Z</time>
      </trkpt>
      <trkpt lat="47.3067" lon="6.03439">
        <ele>498.8</ele>
        <time>2021-04-03T10:04:43Z</time>
      </trkpt>
      <trkpt lat="47.30672" lon="6.03442">
        <ele>498.8</ele>
        <time>2021-04-03T10:04:44Z</time>
      </trkpt>
      <trkpt lat="47.30673" lon="6.03444">
        <ele>498.8</ele>
        <time>2021-04-03T10:04:45Z</time>
      </trkpt>
      <trkpt lat="47.30674" lon="6.03447">
        <ele>499</ele>
        <time>2021-04-03T10:04:46Z</time>
      </trkpt>
      <trkpt lat="47.30676" lon="6.03449">
        <ele>499</ele>
        <time>2021-04-03T10:04:47Z</time>
      </trkpt>
      <trkpt lat="47.30677" lon="6.03451">
        <ele>499</ele>
        <time>2021-04-03T10:04:48Z</time>
      </trkpt>
      <trkpt lat="47.30679" lon="6.03453">
        <ele>499</ele>
        <time>2021-04-03T10:04:49Z</time>
      </trkpt>
      <trkpt lat="47.30681" lon="6.03455">
        <ele>499.2</ele>
        <time>2021-04-03T10:04:50Z</time>
      </trkpt>
      <trkpt lat="47.30682" lon="6.03458">
        <ele>499.2</ele>
        <time>2021-04-03T10:04:51Z</time>
      </trkpt>
      <trkpt lat="47.30684" lon="6.03461">
        <ele>499.4</ele>
        <time>2021-04-03T10:04:52Z</time>
      </trkpt>
      <trkpt lat="47.30685" lon="6.03464">
        <ele>499.8</ele>
        <time>2021-04-03T10:04:53Z</time>
      </trkpt>
      <trkpt lat="47.30686" lon="6.03467">
        <ele>500</ele>
        <time>2021-04-03T10:04:54Z</time>
      </trkpt>
      <trkpt lat="47.30686" lon="6.03469">
        <ele>500.2</ele>
        <time>2021-04-03T10:04:55Z</time>
      </trkpt>
      <trkpt lat="47.30687" lon="6.03471">
        <ele>500.4</ele>
        <time>2021-04-03T10:04:56Z</time>
      </trkpt>
      <trkpt lat="47.30687" lon="6.03473">
        <ele>500.6</ele>
        <time>2021-04-03T10:04:57Z</time>
      </trkpt>
      <trkpt lat="47.30688" lon="6.03475">
        <ele>500.8</ele>
        <time>2021-04-03T10:04:58Z</time>
      </trkpt>
      <trkpt lat="47.30689" lon="6.03478">
        <ele>501</ele>
        <time>2021-04-03T10:04:59Z</time>
      </trkpt>
      <trkpt lat="47.30688" lon="6.0348">
        <ele>501</ele>
        <time>2021-04-03T10:05:00Z</time>
      </trkpt>
      <trkpt lat="47.30689" lon="6.03482">
        <ele>501.4</ele>
        <time>2021-04-03T10:05:01Z</time>
      </trkpt>
      <trkpt lat="47.3069" lon="6.03484">
        <ele>501.4</ele>
        <time>2021-04-03T10:05:02Z</time>
      </trkpt>
      <trkpt lat="47.30691" lon="6.03486">
        <ele>501.6</ele>
        <time>2021-04-03T10:05:03Z</time>
      </trkpt>
      <trkpt lat="47.30692" lon="6.03489">
        <ele>501.6</ele>
        <time>2021-04-03T10:05:04Z</time>
      </trkpt>
      <trkpt lat="47.30692" lon="6.03491">
        <ele>501.8</ele>
        <time>2021-04-03T10:05:05Z</time>
      </trkpt>
      <trkpt lat="47.30693" lon="6.03494">
        <ele>501.8</ele>
        <time>2021-04-03T10:05:06Z</time>
      </trkpt>
      <trkpt lat="47.30695" lon="6.03496">
        <ele>501.8</ele>
        <time>2021-04-03T10:05:07Z</time>
      </trkpt>
      <trkpt lat="47.30697" lon="6.03499">
        <ele>502</ele>
        <time>2021-04-03T10:05:08Z</time>
      </trkpt>
      <trkpt lat="47.30699" lon="6.03502">
        <ele>502</ele>
        <time>2021-04-03T10:05:09Z</time>
      </trkpt>
      <trkpt lat="47.30701" lon="6.03507">
        <ele>502.2</ele>
        <time>2021-04-03T10:05:10Z</time>
      </trkpt>
      <trkpt lat="47.30703" lon="6.03512">
        <ele>502.4</ele>
        <time>2021-04-03T10:05:11Z</time>
      </trkpt>
      <trkpt lat="47.30702" lon="6.03514">
        <ele>502.4</ele>
        <time>2021-04-03T10:05:12Z</time>
      </trkpt>
      <trkpt lat="47.30703" lon="6.03518">
        <ele>502.4</ele>
        <time>2021-04-03T10:05:13Z</time>
      </trkpt>
      <trkpt lat="47.30704" lon="6.03521">
        <ele>502.6</ele>
        <time>2021-04-03T10:05:14Z</time>
      </trkpt>
      <trkpt lat="47.30705" lon="6.03524">
        <ele>502.6</ele>
        <time>2021-04-03T10:05:15Z</time>
      </trkpt>
      <trkpt lat="47.30706" lon="6.03527">
        <ele>502.8</ele>
        <time>2021-04-03T10:05:16Z</time>
      </trkpt>
      <trkpt lat="47.30707" lon="6.03529">
        <ele>502.8</ele>
        <time>2021-04-03T10:05:17Z</time>
      </trkpt>
      <trkpt lat="47.30708" lon="6.03531">
        <ele>502.8</ele>
        <time>2021-04-03T10:05:18Z</time>
      </trkpt>
      <trkpt lat="47.30708" lon="6.03532">
        <ele>502.8</ele>
        <time>2021-04-03T10:05:19Z</time>
      </trkpt>
      <trkpt lat="47.30709" lon="6.03534">
        <ele>503</ele>
        <time>2021-04-03T10:05:20Z</time>
      </trkpt>
      <trkpt lat="47.3071" lon="6.03535">
        <ele>503</ele>
        <time>2021-04-03T10:05:21Z</time>
      </trkpt>
      <trkpt lat="47.30711" lon="6.03537">
        <ele>503</ele>
        <time>2021-04-03T10:05:22Z</time>
      </trkpt>
      <trkpt lat="47.30713" lon="6.03539">
        <ele>503.2</ele>
        <time>2021-04-03T10:05:23Z</time>
      </trkpt>
      <trkpt lat="47.30714" lon="6.03541">
        <ele>503.4</ele>
        <time>2021-04-03T10:05:24Z</time>
      </trkpt>
      <trkpt lat="47.30715" lon="6.03543">
        <ele>503.8</ele>
        <time>2021-04-03T10:05:25Z</time>
      </trkpt>
      <trkpt lat="47.30716" lon="6.03544">
        <ele>504</ele>
        <time>2021-04-03T10:05:26Z</time>
      </trkpt>
      <trkpt lat="47.30716" lon="6.03547">
        <ele>504.2</ele>
        <time>2021-04-03T10:05:27Z</time>
      </trkpt>
      <trkpt lat="47.30717" lon="6.03548">
        <ele>504.4</ele>
        <time>2021-04-03T10:05:28Z</time>
      </trkpt>
      <trkpt lat="47.30718" lon="6.0355">
        <ele>504.4</ele>
        <time>2021-04-03T10:05:29Z</time>
      </trkpt>
      <trkpt lat="47.30719" lon="6.03552">
        <ele>504.6</ele>
        <time>2021-04-03T10:05:30Z</time>
      </trkpt>
      <trkpt lat="47.30721" lon="6.03555">
        <ele>504.8</ele>
        <time>2021-04-03T10:05:31Z</time>
      </trkpt>
      <trkpt lat="47.30723" lon="6.03557">
        <ele>505</ele>
        <time>2021-04-03T10:05:32Z</time>
      </trkpt>
      <trkpt lat="47.30724" lon="6.03559">
        <ele>505</ele>
        <time>2021-04-03T10:05:33Z</time>
      </trkpt>
      <trkpt lat="47.30725" lon="6.03561">
        <ele>505.2</ele>
        <time>2021-04-03T10:05:34Z</time>
      </trkpt>
      <trkpt lat="47.30726" lon="6.03563">
        <ele>505.6</ele>
        <time>2021-04-03T10:05:35Z</time>
      </trkpt>
      <trkpt lat="47.30727" lon="6.03565">
        <ele>505.6</ele>
        <time>2021-04-03T10:05:36Z</time>
      </trkpt>
      <trkpt lat="47.30728" lon="6.03567">
        <ele>505.8</ele>
        <time>2021-04-03T10:05:37Z</time>
      </trkpt>
      <trkpt lat="47.30728" lon="6.03569">
        <ele>505.8</ele>
        <time>2021-04-03T10:05:38Z</time>
      </trkpt>
      <trkpt lat="47.30729" lon="6.03572">
        <ele>506</ele>
        <time>2021-04-03T10:05:39Z</time>
      </trkpt>
      <trkpt lat="47.3073" lon="6.03574">
        <ele>506</ele>
        <time>2021-04-03T10:05:40Z</time>
      </trkpt>
      <trkpt lat="47.30731" lon="6.03577">
        <ele>506.2</ele>
        <time>2021-04-03T10:05:41Z</time>
      </trkpt>
      <trkpt lat="47.30732" lon="6.03579">
        <ele>506.4</ele>
        <time>2021-04-03T10:05:42Z</time>
      </trkpt>
      <trkpt lat="47.30733" lon="6.03582">
        <ele>506.4</ele>
        <time>2021-04-03T10:05:43Z</time>
      </trkpt>
      <trkpt lat="47.30734" lon="6.03584">
        <ele>506.6</ele>
        <time>2021-04-03T10:05:44Z</time>
      </trkpt>
      <trkpt lat="47.30736" lon="6.03586">
        <ele>506.8</ele>
        <time>2021-04-03T10:05:45Z</time>
      </trkpt>
      <trkpt lat="47.30737" lon="6.03588">
        <ele>506.8</ele>
        <time>2021-04-03T10:05:46Z</time>
      </trkpt>
      <trkpt lat="47.30738" lon="6.0359">
        <ele>506.8</ele>
        <time>2021-04-03T10:05:47Z</time>
      </trkpt>
      <trkpt lat="47.30739" lon="6.03592">
        <ele>507</ele>
        <time>2021-04-03T10:05:48Z</time>
      </trkpt>
      <trkpt lat="47.30739" lon="6.03594">
        <ele>507.2</ele>
        <time>2021-04-03T10:05:49Z</time>
      </trkpt>
      <trkpt lat="47.3074" lon="6.03598">
        <ele>507.4</ele>
        <time>2021-04-03T10:05:50Z</time>
      </trkpt>
      <trkpt lat="47.30743" lon="6.03601">
        <ele>507.6</ele>
        <time>2021-04-03T10:05:51Z</time>
      </trkpt>
      <trkpt lat="47.30745" lon="6.03604">
        <ele>507.6</ele>
        <time>2021-04-03T10:05:52Z</time>
      </trkpt>
      <trkpt lat="47.30747" lon="6.03607">
        <ele>507.8</ele>
        <time>2021-04-03T10:05:53Z</time>
      </trkpt>
      <trkpt lat="47.30749" lon="6.0361">
        <ele>508</ele>
        <time>2021-04-03T10:05:54Z</time>
      </trkpt>
      <trkpt lat="47.30749" lon="6.03613">
        <ele>508.2</ele>
        <time>2021-04-03T10:05:55Z</time>
      </trkpt>
      <trkpt lat="47.3075" lon="6.03615">
        <ele>508.4</ele>
        <time>2021-04-03T10:05:56Z</time>
      </trkpt>
      <trkpt lat="47.3075" lon="6.03616">
        <ele>508.6</ele>
        <time>2021-04-03T10:05:57Z</time>
      </trkpt>
      <trkpt lat="47.30749" lon="6.03619">
        <ele>508.6</ele>
        <time>2021-04-03T10:05:58Z</time>
      </trkpt>
      <trkpt lat="47.30749" lon="6.0362">
        <ele>508.8</ele>
        <time>2021-04-03T10:05:59Z</time>
      </trkpt>
      <trkpt lat="47.3075" lon="6.03622">
        <ele>508.8</ele>
        <time>2021-04-03T10:06:00Z</time>
      </trkpt>
      <trkpt lat="47.3075" lon="6.03624">
        <ele>509</ele>
        <time>2021-04-03T10:06:01Z</time>
      </trkpt>
      <trkpt lat="47.30751" lon="6.03626">
        <ele>509</ele>
        <time>2021-04-03T10:06:02Z</time>
      </trkpt>
      <trkpt lat="47.30751" lon="6.03628">
        <ele>509.2</ele>
        <time>2021-04-03T10:06:03Z</time>
      </trkpt>
      <trkpt lat="47.30752" lon="6.0363">
        <ele>509.4</ele>
        <time>2021-04-03T10:06:04Z</time>
      </trkpt>
      <trkpt lat="47.30752" lon="6.03632">
        <ele>509.4</ele>
        <time>2021-04-03T10:06:05Z</time>
      </trkpt>
      <trkpt lat="47.30752" lon="6.03634">
        <ele>509.6</ele>
        <time>2021-04-03T10:06:06Z</time>
      </trkpt>
      <trkpt lat="47.30753" lon="6.03636">
        <ele>509.8</ele>
        <time>2021-04-03T10:06:07Z</time>
      </trkpt>
      <trkpt lat="47.30755" lon="6.03639">
        <ele>510</ele>
        <time>2021-04-03T10:06:08Z</time>
      </trkpt>
      <trkpt lat="47.30756" lon="6.03641">
        <ele>510</ele>
        <time>2021-04-03T10:06:09Z</time>
      </trkpt>
      <trkpt lat="47.30756" lon="6.03643">
        <ele>510.4</ele>
        <time>2021-04-03T10:06:10Z</time>
      </trkpt>
      <trkpt lat="47.30757" lon="6.03645">
        <ele>510.4</ele>
        <time>2021-04-03T10:06:11Z</time>
      </trkpt>
      <trkpt lat="47.30758" lon="6.03647">
        <ele>510.6</ele>
        <time>2021-04-03T10:06:12Z</time>
      </trkpt>
      <trkpt lat="47.30759" lon="6.03649">
        <ele>510.8</ele>
        <time>2021-04-03T10:06:13Z</time>
      </trkpt>
      <trkpt lat="47.3076" lon="6.03652">
        <ele>511</ele>
        <time>2021-04-03T10:06:14Z</time>
      </trkpt>
      <trkpt lat="47.30761" lon="6.03654">
        <ele>511</ele>
        <time>2021-04-03T10:06:15Z</time>
      </trkpt>
      <trkpt lat="47.30761" lon="6.03656">
        <ele>511</ele>
        <time>2021-04-03T10:06:16Z</time>
      </trkpt>
      <trkpt lat="47.30761" lon="6.03658">
        <ele>511.2</ele>
        <time>2021-04-03T10:06:17Z</time>
      </trkpt>
      <trkpt lat="47.30761" lon="6.03659">
        <ele>511.4</ele>
        <time>2021-04-03T10:06:18Z</time>
      </trkpt>
      <trkpt lat="47.30762" lon="6.03662">
        <ele>511.4</ele>
        <time>2021-04-03T10:06:19Z</time>
      </trkpt>
      <trkpt lat="47.30763" lon="6.03664">
        <ele>511.6</ele>
        <time>2021-04-03T10:06:20Z</time>
      </trkpt>
      <trkpt lat="47.30764" lon="6.03667">
        <ele>511.8</ele>
        <time>2021-04-03T10:06:21Z</time>
      </trkpt>
      <trkpt lat="47.30766" lon="6.0367">
        <ele>512</ele>
        <time>2021-04-03T10:06:22Z</time>
      </trkpt>
      <trkpt lat="47.30769" lon="6.03675">
        <ele>512</ele>
        <time>2021-04-03T10:06:23Z</time>
      </trkpt>
      <trkpt lat="47.3077" lon="6.03679">
        <ele>512.2</ele>
        <time>2021-04-03T10:06:24Z</time>
      </trkpt>
      <trkpt lat="47.30771" lon="6.03681">
        <ele>512.2</ele>
        <time>2021-04-03T10:06:25Z</time>
      </trkpt>
      <trkpt lat="47.30772" lon="6.03684">
        <ele>512.2</ele>
        <time>2021-04-03T10:06:26Z</time>
      </trkpt>
      <trkpt lat="47.30773" lon="6.03687">
        <ele>512.2</ele>
        <time>2021-04-03T10:06:27Z</time>
      </trkpt>
      <trkpt lat="47.30775" lon="6.03691">
        <ele>512.6</ele>
        <time>2021-04-03T10:06:28Z</time>
      </trkpt>
      <trkpt lat="47.30779" lon="6.03697">
        <ele>512.6</ele>
        <time>2021-04-03T10:06:29Z</time>
      </trkpt>
      <trkpt lat="47.3078" lon="6.03699">
        <ele>512.8</ele>
        <time>2021-04-03T10:06:30Z</time>
      </trkpt>
      <trkpt lat="47.3078" lon="6.03701">
        <ele>512.8</ele>
        <time>2021-04-03T10:06:31Z</time>
      </trkpt>
      <trkpt lat="47.30781" lon="6.03704">
        <ele>513</ele>
        <time>2021-04-03T10:06:32Z</time>
      </trkpt>
      <trkpt lat="47.3078" lon="6.03708">
        <ele>513.2</ele>
        <time>2021-04-03T10:06:33Z</time>
      </trkpt>
      <trkpt lat="47.30782" lon="6.03711">
        <ele>513.2</ele>
        <time>2021-04-03T10:06:34Z</time>
      </trkpt>
      <trkpt lat="47.30783" lon="6.03714">
        <ele>513.4</ele>
        <time>2021-04-03T10:06:35Z</time>
      </trkpt>
      <trkpt lat="47.30783" lon="6.03717">
        <ele>513.4</ele>
        <time>2021-04-03T10:06:36Z</time>
      </trkpt>
      <trkpt lat="47.30787" lon="6.03722">
        <ele>513.8</ele>
        <time>2021-04-03T10:06:37Z</time>
      </trkpt>
      <trkpt lat="47.30788" lon="6.03725">
        <ele>513.8</ele>
        <time>2021-04-03T10:06:38Z</time>
      </trkpt>
      <trkpt lat="47.3079" lon="6.03729">
        <ele>514</ele>
        <time>2021-04-03T10:06:39Z</time>
      </trkpt>
      <trkpt lat="47.30792" lon="6.03733">
        <ele>514</ele>
        <time>2021-04-03T10:06:40Z</time>
      </trkpt>
      <trkpt lat="47.30792" lon="6.03735">
        <ele>514.2</ele>
        <time>2021-04-03T10:06:41Z</time>
      </trkpt>
      <trkpt lat="47.30792" lon="6.03738">
        <ele>514.2</ele>
        <time>2021-04-03T10:06:42Z</time>
      </trkpt>
      <trkpt lat="47.30793" lon="6.03741">
        <ele>514.4</ele>
        <time>2021-04-03T10:06:43Z</time>
      </trkpt>
      <trkpt lat="47.30794" lon="6.03744">
        <ele>514.4</ele>
        <time>2021-04-03T10:06:44Z</time>
      </trkpt>
      <trkpt lat="47.30795" lon="6.03746">
        <ele>514.4</ele>
        <time>2021-04-03T10:06:45Z</time>
      </trkpt>
      <trkpt lat="47.30796" lon="6.0375">
        <ele>514.6</ele>
        <time>2021-04-03T10:06:46Z</time>
      </trkpt>
      <trkpt lat="47.30795" lon="6.03752">
        <ele>514.6</ele>
        <time>2021-04-03T10:06:47Z</time>
      </trkpt>
      <trkpt lat="47.30795" lon="6.03754">
        <ele>514.8</ele>
        <time>2021-04-03T10:06:48Z</time>
      </trkpt>
      <trkpt lat="47.30794" lon="6.03758">
        <ele>515</ele>
        <time>2021-04-03T10:06:49Z</time>
      </trkpt>
      <trkpt lat="47.30794" lon="6.0376">
        <ele>515</ele>
        <time>2021-04-03T10:06:50Z</time>
      </trkpt>
      <trkpt lat="47.30794" lon="6.03762">
        <ele>515</ele>
        <time>2021-04-03T10:06:51Z</time>
      </trkpt>
      <trkpt lat="47.30794" lon="6.03764">
        <ele>515.2</ele>
        <time>2021-04-03T10:06:52Z</time>
      </trkpt>
      <trkpt lat="47.30794" lon="6.03766">
        <ele>515.4</ele>
        <time>2021-04-03T10:06:53Z</time>
      </trkpt>
      <trkpt lat="47.30795" lon="6.03767">
        <ele>515.4</ele>
        <time>2021-04-03T10:06:54Z</time>
      </trkpt>
      <trkpt lat="47.30795" lon="6.03769">
        <ele>515.6</ele>
        <time>2021-04-03T10:06:55Z</time>
      </trkpt>
      <trkpt lat="47.30796" lon="6.03771">
        <ele>515.6</ele>
        <time>2021-04-03T10:06:56Z</time>
      </trkpt>
      <trkpt lat="47.30796" lon="6.03773">
        <ele>515.6</ele>
        <time>2021-04-03T10:06:57Z</time>
      </trkpt>
      <trkpt lat="47.30796" lon="6.03774">
        <ele>515.8</ele>
        <time>2021-04-03T10:06:58Z</time>
      </trkpt>
      <trkpt lat="47.30797" lon="6.03775">
        <ele>516</ele>
        <time>2021-04-03T10:06:59Z</time>
      </trkpt>
      <trkpt lat="47.30797" lon="6.03777">
        <ele>516</ele>
        <time>2021-04-03T10:07:00Z</time>
      </trkpt>
      <trkpt lat="47.30798" lon="6.03779">
        <ele>516</ele>
        <time>2021-04-03T10:07:01Z</time>
      </trkpt>
      <trkpt lat="47.30798" lon="6.03782">
        <ele>516.2</ele>
        <time>2021-04-03T10:07:02Z</time>
      </trkpt>
      <trkpt lat="47.30798" lon="6.03784">
        <ele>516.2</ele>
        <time>2021-04-03T10:07:03Z</time>
      </trkpt>
      <trkpt lat="47.30798" lon="6.03786">
        <ele>516.2</ele>
        <time>2021-04-03T10:07:04Z</time>
      </trkpt>
      <trkpt lat="47.30798" lon="6.03789">
        <ele>516.2</ele>
        <time>2021-04-03T10:07:05Z</time>
      </trkpt>
      <trkpt lat="47.30798" lon="6.03791">
        <ele>516.4</ele>
        <time>2021-04-03T10:07:06Z</time>
      </trkpt>
      <trkpt lat="47.30799" lon="6.03805">
        <ele>517</ele>
        <time>2021-04-03T10:07:12Z</time>
      </trkpt>
      <trkpt lat="47.30799" lon="6.03807">
        <ele>517.2</ele>
        <time>2021-04-03T10:07:13Z</time>
      </trkpt>
      <trkpt lat="47.30802" lon="6.03814">
        <ele>517.4</ele>
        <time>2021-04-03T10:07:16Z</time>
      </trkpt>
      <trkpt lat="47.30802" lon="6.03816">
        <ele>517.4</ele>
        <time>2021-04-03T10:07:17Z</time>
      </trkpt>
      <trkpt lat="47.30803" lon="6.03818">
        <ele>517.6</ele>
        <time>2021-04-03T10:07:18Z</time>
      </trkpt>
      <trkpt lat="47.30804" lon="6.0382">
        <ele>517.8</ele>
        <time>2021-04-03T10:07:19Z</time>
      </trkpt>
      <trkpt lat="47.30804" lon="6.03822">
        <ele>517.8</ele>
        <time>2021-04-03T10:07:20Z</time>
      </trkpt>
      <trkpt lat="47.30804" lon="6.03824">
        <ele>518</ele>
        <time>2021-04-03T10:07:21Z</time>
      </trkpt>
      <trkpt lat="47.30803" lon="6.03828">
        <ele>518</ele>
        <time>2021-04-03T10:07:22Z</time>
      </trkpt>
      <trkpt lat="47.30803" lon="6.03829">
        <ele>518</ele>
        <time>2021-04-03T10:07:23Z</time>
      </trkpt>
      <trkpt lat="47.30803" lon="6.03829">
        <ele>518.4</ele>
        <time>2021-04-03T10:07:27Z</time>
      </trkpt>
      <trkpt lat="47.30803" lon="6.03829">
        <ele>519</ele>
        <time>2021-04-03T10:08:28Z</time>
      </trkpt>
      <trkpt lat="47.30803" lon="6.03829">
        <ele>519</ele>
        <time>2021-04-03T10:08:40Z</time>
      </trkpt>
      <trkpt lat="47.30805" lon="6.03842">
        <ele>519</ele>
        <time>2021-04-03T10:08:44Z</time>
      </trkpt>
      <trkpt lat="47.30807" lon="6.03855">
        <ele>519.2</ele>
        <time>2021-04-03T10:08:48Z</time>
      </trkpt>
      <trkpt lat="47.30808" lon="6.03857">
        <ele>519.4</ele>
        <time>2021-04-03T10:08:49Z</time>
      </trkpt>
      <trkpt lat="47.30808" lon="6.03861">
        <ele>519.6</ele>
        <time>2021-04-03T10:08:50Z</time>
      </trkpt>
      <trkpt lat="47.30808" lon="6.03864">
        <ele>520</ele>
        <time>2021-04-03T10:08:51Z</time>
      </trkpt>
      <trkpt lat="47.30809" lon="6.03866">
        <ele>520</ele>
        <time>2021-04-03T10:08:52Z</time>
      </trkpt>
      <trkpt lat="47.3081" lon="6.03871">
        <ele>520.4</ele>
        <time>2021-04-03T10:08:54Z</time>
      </trkpt>
      <trkpt lat="47.3081" lon="6.03874">
        <ele>520.6</ele>
        <time>2021-04-03T10:08:55Z</time>
      </trkpt>
      <trkpt lat="47.3081" lon="6.03877">
        <ele>520.6</ele>
        <time>2021-04-03T10:08:56Z</time>
      </trkpt>
      <trkpt lat="47.3081" lon="6.03877">
        <ele>520.8</ele>
        <time>2021-04-03T10:08:57Z</time>
      </trkpt>
      <trkpt lat="47.30811" lon="6.03891">
        <ele>521</ele>
        <time>2021-04-03T10:09:00Z</time>
      </trkpt>
      <trkpt lat="47.30811" lon="6.03894">
        <ele>521.2</ele>
        <time>2021-04-03T10:09:01Z</time>
      </trkpt>
      <trkpt lat="47.30811" lon="6.03894">
        <ele>521.4</ele>
        <time>2021-04-03T10:09:02Z</time>
      </trkpt>
      <trkpt lat="47.30814" lon="6.039">
        <ele>521.4</ele>
        <time>2021-04-03T10:09:03Z</time>
      </trkpt>
      <trkpt lat="47.30814" lon="6.03903">
        <ele>521.6</ele>
        <time>2021-04-03T10:09:04Z</time>
      </trkpt>
      <trkpt lat="47.30814" lon="6.03907">
        <ele>521.8</ele>
        <time>2021-04-03T10:09:05Z</time>
      </trkpt>
      <trkpt lat="47.30813" lon="6.03916">
        <ele>522.4</ele>
        <time>2021-04-03T10:09:08Z</time>
      </trkpt>
      <trkpt lat="47.30813" lon="6.03919">
        <ele>522.4</ele>
        <time>2021-04-03T10:09:09Z</time>
      </trkpt>
      <trkpt lat="47.30813" lon="6.03922">
        <ele>522.6</ele>
        <time>2021-04-03T10:09:10Z</time>
      </trkpt>
      <trkpt lat="47.30814" lon="6.03925">
        <ele>522.8</ele>
        <time>2021-04-03T10:09:11Z</time>
      </trkpt>
      <trkpt lat="47.30817" lon="6.03929">
        <ele>522.8</ele>
        <time>2021-04-03T10:09:12Z</time>
      </trkpt>
      <trkpt lat="47.30818" lon="6.03931">
        <ele>522.8</ele>
        <time>2021-04-03T10:09:13Z</time>
      </trkpt>
      <trkpt lat="47.30818" lon="6.03933">
        <ele>522.8</ele>
        <time>2021-04-03T10:09:14Z</time>
      </trkpt>
      <trkpt lat="47.30817" lon="6.03936">
        <ele>523</ele>
        <time>2021-04-03T10:09:15Z</time>
      </trkpt>
      <trkpt lat="47.30818" lon="6.03938">
        <ele>523.2</ele>
        <time>2021-04-03T10:09:16Z</time>
      </trkpt>
      <trkpt lat="47.30821" lon="6.03944">
        <ele>523.2</ele>
        <time>2021-04-03T10:09:17Z</time>
      </trkpt>
      <trkpt lat="47.30822" lon="6.03948">
        <ele>523.4</ele>
        <time>2021-04-03T10:09:18Z</time>
      </trkpt>
      <trkpt lat="47.30823" lon="6.0395">
        <ele>523.4</ele>
        <time>2021-04-03T10:09:19Z</time>
      </trkpt>
      <trkpt lat="47.30823" lon="6.03953">
        <ele>523.6</ele>
        <time>2021-04-03T10:09:20Z</time>
      </trkpt>
      <trkpt lat="47.30824" lon="6.03956">
        <ele>523.6</ele>
        <time>2021-04-03T10:09:21Z</time>
      </trkpt>
      <trkpt lat="47.30825" lon="6.03958">
        <ele>523.8</ele>
        <time>2021-04-03T10:09:22Z</time>
      </trkpt>
      <trkpt lat="47.30826" lon="6.03961">
        <ele>523.8</ele>
        <time>2021-04-03T10:09:23Z</time>
      </trkpt>
      <trkpt lat="47.30828" lon="6.03965">
        <ele>523.8</ele>
        <time>2021-04-03T10:09:24Z</time>
      </trkpt>
      <trkpt lat="47.30828" lon="6.03967">
        <ele>523.8</ele>
        <time>2021-04-03T10:09:25Z</time>
      </trkpt>
      <trkpt lat="47.30828" lon="6.0397">
        <ele>524</ele>
        <time>2021-04-03T10:09:26Z</time>
      </trkpt>
      <trkpt lat="47.30828" lon="6.03972">
        <ele>524</ele>
        <time>2021-04-03T10:09:27Z</time>
      </trkpt>
      <trkpt lat="47.30827" lon="6.03975">
        <ele>524</ele>
        <time>2021-04-03T10:09:28Z</time>
      </trkpt>
      <trkpt lat="47.30826" lon="6.03977">
        <ele>524</ele>
        <time>2021-04-03T10:09:29Z</time>
      </trkpt>
      <trkpt lat="47.30826" lon="6.0398">
        <ele>524</ele>
        <time>2021-04-03T10:09:30Z</time>
      </trkpt>
      <trkpt lat="47.30826" lon="6.03982">
        <ele>524.2</ele>
        <time>2021-04-03T10:09:31Z</time>
      </trkpt>
      <trkpt lat="47.30825" lon="6.03985">
        <ele>524.4</ele>
        <time>2021-04-03T10:09:32Z</time>
      </trkpt>
      <trkpt lat="47.30825" lon="6.03988">
        <ele>524.6</ele>
        <time>2021-04-03T10:09:33Z</time>
      </trkpt>
      <trkpt lat="47.30826" lon="6.0399">
        <ele>524.8</ele>
        <time>2021-04-03T10:09:34Z</time>
      </trkpt>
      <trkpt lat="47.30826" lon="6.03992">
        <ele>525.2</ele>
        <time>2021-04-03T10:09:35Z</time>
      </trkpt>
      <trkpt lat="47.30826" lon="6.03995">
        <ele>525.4</ele>
        <time>2021-04-03T10:09:36Z</time>
      </trkpt>
      <trkpt lat="47.30825" lon="6.03997">
        <ele>525.6</ele>
        <time>2021-04-03T10:09:37Z</time>
      </trkpt>
      <trkpt lat="47.30825" lon="6.04">
        <ele>525.6</ele>
        <time>2021-04-03T10:09:38Z</time>
      </trkpt>
      <trkpt lat="47.30825" lon="6.04003">
        <ele>525.8</ele>
        <time>2021-04-03T10:09:39Z</time>
      </trkpt>
      <trkpt lat="47.30824" lon="6.04006">
        <ele>526</ele>
        <time>2021-04-03T10:09:40Z</time>
      </trkpt>
      <trkpt lat="47.30824" lon="6.04009">
        <ele>526.2</ele>
        <time>2021-04-03T10:09:41Z</time>
      </trkpt>
      <trkpt lat="47.30824" lon="6.04009">
        <ele>526.2</ele>
        <time>2021-04-03T10:09:42Z</time>
      </trkpt>
      <trkpt lat="47.30823" lon="6.04015">
        <ele>526.2</ele>
        <time>2021-04-03T10:09:43Z</time>
      </trkpt>
      <trkpt lat="47.30823" lon="6.04015">
        <ele>526.4</ele>
        <time>2021-04-03T10:09:44Z</time>
      </trkpt>
      <trkpt lat="47.30822" lon="6.04021">
        <ele>526.4</ele>
        <time>2021-04-03T10:09:45Z</time>
      </trkpt>
      <trkpt lat="47.30822" lon="6.04024">
        <ele>526.4</ele>
        <time>2021-04-03T10:09:46Z</time>
      </trkpt>
      <trkpt lat="47.30822" lon="6.04024">
        <ele>526.4</ele>
        <time>2021-04-03T10:09:47Z</time>
      </trkpt>
      <trkpt lat="47.30821" lon="6.0403">
        <ele>526.6</ele>
        <time>2021-04-03T10:09:48Z</time>
      </trkpt>
      <trkpt lat="47.30821" lon="6.04033">
        <ele>526.6</ele>
        <time>2021-04-03T10:09:49Z</time>
      </trkpt>
      <trkpt lat="47.30821" lon="6.04036">
        <ele>526.8</ele>
        <time>2021-04-03T10:09:50Z</time>
      </trkpt>
      <trkpt lat="47.3082" lon="6.04037">
        <ele>526.8</ele>
        <time>2021-04-03T10:09:51Z</time>
      </trkpt>
      <trkpt lat="47.3082" lon="6.04039">
        <ele>526.8</ele>
        <time>2021-04-03T10:09:52Z</time>
      </trkpt>
      <trkpt lat="47.3082" lon="6.04042">
        <ele>526.8</ele>
        <time>2021-04-03T10:09:53Z</time>
      </trkpt>
      <trkpt lat="47.30821" lon="6.04046">
        <ele>527</ele>
        <time>2021-04-03T10:09:54Z</time>
      </trkpt>
      <trkpt lat="47.30821" lon="6.04049">
        <ele>527</ele>
        <time>2021-04-03T10:09:55Z</time>
      </trkpt>
      <trkpt lat="47.3082" lon="6.04055">
        <ele>527</ele>
        <time>2021-04-03T10:09:56Z</time>
      </trkpt>
      <trkpt lat="47.30821" lon="6.0406">
        <ele>527</ele>
        <time>2021-04-03T10:09:57Z</time>
      </trkpt>
      <trkpt lat="47.30821" lon="6.04063">
        <ele>527</ele>
        <time>2021-04-03T10:09:58Z</time>
      </trkpt>
      <trkpt lat="47.30819" lon="6.04082">
        <ele>528</ele>
        <time>2021-04-03T10:10:04Z</time>
      </trkpt>
      <trkpt lat="47.3082" lon="6.04092">
        <ele>528</ele>
        <time>2021-04-03T10:10:07Z</time>
      </trkpt>
      <trkpt lat="47.30821" lon="6.04095">
        <ele>528.2</ele>
        <time>2021-04-03T10:10:08Z</time>
      </trkpt>
      <trkpt lat="47.30821" lon="6.04095">
        <ele>528.4</ele>
        <time>2021-04-03T10:10:09Z</time>
      </trkpt>
      <trkpt lat="47.30823" lon="6.04099">
        <ele>528.6</ele>
        <time>2021-04-03T10:10:10Z</time>
      </trkpt>
      <trkpt lat="47.30824" lon="6.041">
        <ele>528.6</ele>
        <time>2021-04-03T10:10:11Z</time>
      </trkpt>
      <trkpt lat="47.30824" lon="6.041">
        <ele>528.8</ele>
        <time>2021-04-03T10:10:12Z</time>
      </trkpt>
      <trkpt lat="47.30824" lon="6.041">
        <ele>529</ele>
        <time>2021-04-03T10:10:13Z</time>
      </trkpt>
      <trkpt lat="47.30825" lon="6.04098">
        <ele>529</ele>
        <time>2021-04-03T10:10:14Z</time>
      </trkpt>
      <trkpt lat="47.30827" lon="6.04098">
        <ele>529.2</ele>
        <time>2021-04-03T10:10:15Z</time>
      </trkpt>
      <trkpt lat="47.30828" lon="6.04097">
        <ele>529.4</ele>
        <time>2021-04-03T10:10:16Z</time>
      </trkpt>
      <trkpt lat="47.3083" lon="6.04096">
        <ele>529.4</ele>
        <time>2021-04-03T10:10:17Z</time>
      </trkpt>
      <trkpt lat="47.30832" lon="6.04094">
        <ele>529.4</ele>
        <time>2021-04-03T10:10:18Z</time>
      </trkpt>
      <trkpt lat="47.30833" lon="6.04092">
        <ele>529.6</ele>
        <time>2021-04-03T10:10:19Z</time>
      </trkpt>
      <trkpt lat="47.30834" lon="6.04089">
        <ele>529.6</ele>
        <time>2021-04-03T10:10:20Z</time>
      </trkpt>
      <trkpt lat="47.30835" lon="6.04087">
        <ele>529.6</ele>
        <time>2021-04-03T10:10:21Z</time>
      </trkpt>
      <trkpt lat="47.30836" lon="6.04085">
        <ele>529.8</ele>
        <time>2021-04-03T10:10:22Z</time>
      </trkpt>
      <trkpt lat="47.30837" lon="6.04082">
        <ele>529.8</ele>
        <time>2021-04-03T10:10:23Z</time>
      </trkpt>
      <trkpt lat="47.30838" lon="6.0408">
        <ele>530</ele>
        <time>2021-04-03T10:10:24Z</time>
      </trkpt>
      <trkpt lat="47.30838" lon="6.04077">
        <ele>530</ele>
        <time>2021-04-03T10:10:25Z</time>
      </trkpt>
      <trkpt lat="47.30838" lon="6.04073">
        <ele>530</ele>
        <time>2021-04-03T10:10:26Z</time>
      </trkpt>
      <trkpt lat="47.30838" lon="6.0407">
        <ele>530.2</ele>
        <time>2021-04-03T10:10:27Z</time>
      </trkpt>
      <trkpt lat="47.30838" lon="6.04067">
        <ele>530.2</ele>
        <time>2021-04-03T10:10:28Z</time>
      </trkpt>
      <trkpt lat="47.30839" lon="6.0406">
        <ele>530.4</ele>
        <time>2021-04-03T10:10:30Z</time>
      </trkpt>
      <trkpt lat="47.30839" lon="6.04057">
        <ele>530.4</ele>
        <time>2021-04-03T10:10:31Z</time>
      </trkpt>
      <trkpt lat="47.3084" lon="6.0405">
        <ele>530.6</ele>
        <time>2021-04-03T10:10:33Z</time>
      </trkpt>
      <trkpt lat="47.3084" lon="6.04032">
        <ele>531.2</ele>
        <time>2021-04-03T10:10:38Z</time>
      </trkpt>
      <trkpt lat="47.30841" lon="6.04022">
        <ele>531.4</ele>
        <time>2021-04-03T10:10:41Z</time>
      </trkpt>
      <trkpt lat="47.30842" lon="6.04009">
        <ele>531.6</ele>
        <time>2021-04-03T10:10:44Z</time>
      </trkpt>
      <trkpt lat="47.3084" lon="6.04">
        <ele>531.8</ele>
        <time>2021-04-03T10:10:46Z</time>
      </trkpt>
      <trkpt lat="47.30842" lon="6.03993">
        <ele>531.8</ele>
        <time>2021-04-03T10:10:48Z</time>
      </trkpt>
      <trkpt lat="47.30844" lon="6.0399">
        <ele>531.8</ele>
        <time>2021-04-03T10:10:49Z</time>
      </trkpt>
      <trkpt lat="47.30844" lon="6.03986">
        <ele>531.8</ele>
        <time>2021-04-03T10:10:50Z</time>
      </trkpt>
      <trkpt lat="47.30844" lon="6.03978">
        <ele>532</ele>
        <time>2021-04-03T10:10:52Z</time>
      </trkpt>
      <trkpt lat="47.30847" lon="6.03975">
        <ele>532</ele>
        <time>2021-04-03T10:10:53Z</time>
      </trkpt>
      <trkpt lat="47.30848" lon="6.03971">
        <ele>532</ele>
        <time>2021-04-03T10:10:54Z</time>
      </trkpt>
      <trkpt lat="47.30848" lon="6.03965">
        <ele>532.2</ele>
        <time>2021-04-03T10:10:56Z</time>
      </trkpt>
      <trkpt lat="47.30849" lon="6.03961">
        <ele>532.2</ele>
        <time>2021-04-03T10:10:57Z</time>
      </trkpt>
      <trkpt lat="47.30849" lon="6.03959">
        <ele>532.2</ele>
        <time>2021-04-03T10:10:58Z</time>
      </trkpt>
      <trkpt lat="47.30849" lon="6.03955">
        <ele>532.4</ele>
        <time>2021-04-03T10:10:59Z</time>
      </trkpt>
      <trkpt lat="47.30848" lon="6.03951">
        <ele>532.4</ele>
        <time>2021-04-03T10:11:00Z</time>
      </trkpt>
      <trkpt lat="47.30848" lon="6.03943">
        <ele>532.6</ele>
        <time>2021-04-03T10:11:02Z</time>
      </trkpt>
      <trkpt lat="47.30853" lon="6.03917">
        <ele>533.2</ele>
        <time>2021-04-03T10:11:09Z</time>
      </trkpt>
      <trkpt lat="47.30854" lon="6.03914">
        <ele>533.4</ele>
        <time>2021-04-03T10:11:10Z</time>
      </trkpt>
      <trkpt lat="47.30856" lon="6.03905">
        <ele>533.6</ele>
        <time>2021-04-03T10:11:13Z</time>
      </trkpt>
      <trkpt lat="47.30856" lon="6.03903">
        <ele>533.6</ele>
        <time>2021-04-03T10:11:14Z</time>
      </trkpt>
      <trkpt lat="47.30857" lon="6.03899">
        <ele>533.8</ele>
        <time>2021-04-03T10:11:15Z</time>
      </trkpt>
      <trkpt lat="47.30858" lon="6.03895">
        <ele>534</ele>
        <time>2021-04-03T10:11:16Z</time>
      </trkpt>
      <trkpt lat="47.30858" lon="6.03892">
        <ele>534.2</ele>
        <time>2021-04-03T10:11:17Z</time>
      </trkpt>
      <trkpt lat="47.30859" lon="6.0389">
        <ele>534.4</ele>
        <time>2021-04-03T10:11:18Z</time>
      </trkpt>
      <trkpt lat="47.3086" lon="6.03887">
        <ele>534.4</ele>
        <time>2021-04-03T10:11:19Z</time>
      </trkpt>
      <trkpt lat="47.30861" lon="6.03883">
        <ele>534.6</ele>
        <time>2021-04-03T10:11:20Z</time>
      </trkpt>
      <trkpt lat="47.30862" lon="6.03881">
        <ele>534.6</ele>
        <time>2021-04-03T10:11:21Z</time>
      </trkpt>
      <trkpt lat="47.30863" lon="6.03878">
        <ele>534.8</ele>
        <time>2021-04-03T10:11:22Z</time>
      </trkpt>
      <trkpt lat="47.30864" lon="6.03875">
        <ele>534.8</ele>
        <time>2021-04-03T10:11:23Z</time>
      </trkpt>
      <trkpt lat="47.30863" lon="6.03871">
        <ele>535</ele>
        <time>2021-04-03T10:11:24Z</time>
      </trkpt>
      <trkpt lat="47.30864" lon="6.03869">
        <ele>535.2</ele>
        <time>2021-04-03T10:11:25Z</time>
      </trkpt>
      <trkpt lat="47.30866" lon="6.03864">
        <ele>535.2</ele>
        <time>2021-04-03T10:11:27Z</time>
      </trkpt>
      <trkpt lat="47.30864" lon="6.03857">
        <ele>535.4</ele>
        <time>2021-04-03T10:11:28Z</time>
      </trkpt>
      <trkpt lat="47.30862" lon="6.03852">
        <ele>535.6</ele>
        <time>2021-04-03T10:11:29Z</time>
      </trkpt>
      <trkpt lat="47.30863" lon="6.03848">
        <ele>535.6</ele>
        <time>2021-04-03T10:11:30Z</time>
      </trkpt>
      <trkpt lat="47.30864" lon="6.03845">
        <ele>535.8</ele>
        <time>2021-04-03T10:11:31Z</time>
      </trkpt>
      <trkpt lat="47.30866" lon="6.03842">
        <ele>536</ele>
        <time>2021-04-03T10:11:32Z</time>
      </trkpt>
      <trkpt lat="47.30868" lon="6.03839">
        <ele>536</ele>
        <time>2021-04-03T10:11:33Z</time>
      </trkpt>
      <trkpt lat="47.30869" lon="6.03834">
        <ele>536.2</ele>
        <time>2021-04-03T10:11:34Z</time>
      </trkpt>
      <trkpt lat="47.30869" lon="6.03831">
        <ele>536.2</ele>
        <time>2021-04-03T10:11:35Z</time>
      </trkpt>
      <trkpt lat="47.3087" lon="6.03828">
        <ele>536.2</ele>
        <time>2021-04-03T10:11:36Z</time>
      </trkpt>
      <trkpt lat="47.3087" lon="6.03825">
        <ele>536.2</ele>
        <time>2021-04-03T10:11:37Z</time>
      </trkpt>
      <trkpt lat="47.30872" lon="6.03822">
        <ele>536.2</ele>
        <time>2021-04-03T10:11:38Z</time>
      </trkpt>
      <trkpt lat="47.30873" lon="6.03821">
        <ele>536.4</ele>
        <time>2021-04-03T10:11:39Z</time>
      </trkpt>
      <trkpt lat="47.30874" lon="6.03817">
        <ele>536.4</ele>
        <time>2021-04-03T10:11:40Z</time>
      </trkpt>
      <trkpt lat="47.30874" lon="6.03815">
        <ele>536.6</ele>
        <time>2021-04-03T10:11:41Z</time>
      </trkpt>
      <trkpt lat="47.30875" lon="6.03812">
        <ele>536.8</ele>
        <time>2021-04-03T10:11:42Z</time>
      </trkpt>
      <trkpt lat="47.30875" lon="6.03809">
        <ele>536.8</ele>
        <time>2021-04-03T10:11:43Z</time>
      </trkpt>
      <trkpt lat="47.30876" lon="6.03806">
        <ele>537</ele>
        <time>2021-04-03T10:11:44Z</time>
      </trkpt>
      <trkpt lat="47.3088" lon="6.03798">
        <ele>537.4</ele>
        <time>2021-04-03T10:11:47Z</time>
      </trkpt>
      <trkpt lat="47.30881" lon="6.03795">
        <ele>537.4</ele>
        <time>2021-04-03T10:11:48Z</time>
      </trkpt>
      <trkpt lat="47.30881" lon="6.03792">
        <ele>537.6</ele>
        <time>2021-04-03T10:11:49Z</time>
      </trkpt>
      <trkpt lat="47.30882" lon="6.03789">
        <ele>537.8</ele>
        <time>2021-04-03T10:11:50Z</time>
      </trkpt>
      <trkpt lat="47.30883" lon="6.03787">
        <ele>538</ele>
        <time>2021-04-03T10:11:51Z</time>
      </trkpt>
      <trkpt lat="47.30884" lon="6.03784">
        <ele>538</ele>
        <time>2021-04-03T10:11:52Z</time>
      </trkpt>
      <trkpt lat="47.30885" lon="6.03781">
        <ele>538.2</ele>
        <time>2021-04-03T10:11:53Z</time>
      </trkpt>
      <trkpt lat="47.30886" lon="6.03778">
        <ele>538.2</ele>
        <time>2021-04-03T10:11:54Z</time>
      </trkpt>
      <trkpt lat="47.30887" lon="6.03775">
        <ele>538.4</ele>
        <time>2021-04-03T10:11:55Z</time>
      </trkpt>
      <trkpt lat="47.30887" lon="6.03772">
        <ele>538.4</ele>
        <time>2021-04-03T10:11:56Z</time>
      </trkpt>
      <trkpt lat="47.30888" lon="6.03769">
        <ele>538.4</ele>
        <time>2021-04-03T10:11:57Z</time>
      </trkpt>
      <trkpt lat="47.30889" lon="6.03766">
        <ele>538.6</ele>
        <time>2021-04-03T10:11:58Z</time>
      </trkpt>
      <trkpt lat="47.30889" lon="6.03763">
        <ele>538.6</ele>
        <time>2021-04-03T10:11:59Z</time>
      </trkpt>
      <trkpt lat="47.3089" lon="6.0376">
        <ele>538.6</ele>
        <time>2021-04-03T10:12:00Z</time>
      </trkpt>
      <trkpt lat="47.30889" lon="6.03756">
        <ele>538.6</ele>
        <time>2021-04-03T10:12:01Z</time>
      </trkpt>
      <trkpt lat="47.3089" lon="6.03753">
        <ele>538.6</ele>
        <time>2021-04-03T10:12:02Z</time>
      </trkpt>
      <trkpt lat="47.30891" lon="6.0375">
        <ele>538.8</ele>
        <time>2021-04-03T10:12:03Z</time>
      </trkpt>
      <trkpt lat="47.30891" lon="6.03748">
        <ele>538.8</ele>
        <time>2021-04-03T10:12:04Z</time>
      </trkpt>
      <trkpt lat="47.30892" lon="6.03745">
        <ele>539</ele>
        <time>2021-04-03T10:12:05Z</time>
      </trkpt>
      <trkpt lat="47.30892" lon="6.03742">
        <ele>539</ele>
        <time>2021-04-03T10:12:06Z</time>
      </trkpt>
      <trkpt lat="47.30893" lon="6.03739">
        <ele>539.2</ele>
        <time>2021-04-03T10:12:07Z</time>
      </trkpt>
      <trkpt lat="47.30893" lon="6.03737">
        <ele>539.2</ele>
        <time>2021-04-03T10:12:08Z</time>
      </trkpt>
      <trkpt lat="47.30894" lon="6.03734">
        <ele>539.4</ele>
        <time>2021-04-03T10:12:09Z</time>
      </trkpt>
      <trkpt lat="47.30894" lon="6.03731">
        <ele>539.4</ele>
        <time>2021-04-03T10:12:10Z</time>
      </trkpt>
      <trkpt lat="47.30895" lon="6.03729">
        <ele>539.8</ele>
        <time>2021-04-03T10:12:11Z</time>
      </trkpt>
      <trkpt lat="47.30896" lon="6.03727">
        <ele>540</ele>
        <time>2021-04-03T10:12:12Z</time>
      </trkpt>
      <trkpt lat="47.30897" lon="6.03724">
        <ele>540.2</ele>
        <time>2021-04-03T10:12:13Z</time>
      </trkpt>
      <trkpt lat="47.30898" lon="6.03717">
        <ele>540.6</ele>
        <time>2021-04-03T10:12:15Z</time>
      </trkpt>
      <trkpt lat="47.30899" lon="6.03714">
        <ele>541</ele>
        <time>2021-04-03T10:12:16Z</time>
      </trkpt>
      <trkpt lat="47.309" lon="6.03712">
        <ele>541.2</ele>
        <time>2021-04-03T10:12:17Z</time>
      </trkpt>
      <trkpt lat="47.309" lon="6.03709">
        <ele>541.4</ele>
        <time>2021-04-03T10:12:18Z</time>
      </trkpt>
      <trkpt lat="47.30901" lon="6.03706">
        <ele>541.4</ele>
        <time>2021-04-03T10:12:19Z</time>
      </trkpt>
      <trkpt lat="47.30901" lon="6.03703">
        <ele>541.6</ele>
        <time>2021-04-03T10:12:20Z</time>
      </trkpt>
      <trkpt lat="47.30901" lon="6.037">
        <ele>541.8</ele>
        <time>2021-04-03T10:12:21Z</time>
      </trkpt>
      <trkpt lat="47.30902" lon="6.03698">
        <ele>541.8</ele>
        <time>2021-04-03T10:12:22Z</time>
      </trkpt>
      <trkpt lat="47.30903" lon="6.03696">
        <ele>542</ele>
        <time>2021-04-03T10:12:23Z</time>
      </trkpt>
      <trkpt lat="47.30904" lon="6.03694">
        <ele>542</ele>
        <time>2021-04-03T10:12:24Z</time>
      </trkpt>
      <trkpt lat="47.30905" lon="6.03692">
        <ele>542.2</ele>
        <time>2021-04-03T10:12:25Z</time>
      </trkpt>
      <trkpt lat="47.30906" lon="6.0369">
        <ele>542.2</ele>
        <time>2021-04-03T10:12:26Z</time>
      </trkpt>
      <trkpt lat="47.30907" lon="6.03688">
        <ele>542.4</ele>
        <time>2021-04-03T10:12:27Z</time>
      </trkpt>
      <trkpt lat="47.30908" lon="6.03686">
        <ele>542.4</ele>
        <time>2021-04-03T10:12:28Z</time>
      </trkpt>
      <trkpt lat="47.30909" lon="6.03683">
        <ele>542.6</ele>
        <time>2021-04-03T10:12:29Z</time>
      </trkpt>
      <trkpt lat="47.30909" lon="6.03682">
        <ele>542.6</ele>
        <time>2021-04-03T10:12:30Z</time>
      </trkpt>
      <trkpt lat="47.30909" lon="6.03677">
        <ele>542.8</ele>
        <time>2021-04-03T10:12:31Z</time>
      </trkpt>
      <trkpt lat="47.30909" lon="6.03673">
        <ele>543</ele>
        <time>2021-04-03T10:12:32Z</time>
      </trkpt>
      <trkpt lat="47.3091" lon="6.03669">
        <ele>543</ele>
        <time>2021-04-03T10:12:33Z</time>
      </trkpt>
      <trkpt lat="47.30911" lon="6.03667">
        <ele>543.2</ele>
        <time>2021-04-03T10:12:34Z</time>
      </trkpt>
      <trkpt lat="47.30911" lon="6.03665">
        <ele>543.4</ele>
        <time>2021-04-03T10:12:35Z</time>
      </trkpt>
      <trkpt lat="47.30912" lon="6.03663">
        <ele>543.6</ele>
        <time>2021-04-03T10:12:36Z</time>
      </trkpt>
      <trkpt lat="47.30913" lon="6.03661">
        <ele>543.6</ele>
        <time>2021-04-03T10:12:37Z</time>
      </trkpt>
      <trkpt lat="47.30914" lon="6.03659">
        <ele>543.6</ele>
        <time>2021-04-03T10:12:38Z</time>
      </trkpt>
      <trkpt lat="47.30915" lon="6.03657">
        <ele>543.8</ele>
        <time>2021-04-03T10:12:39Z</time>
      </trkpt>
      <trkpt lat="47.30917" lon="6.03656">
        <ele>543.8</ele>
        <time>2021-04-03T10:12:40Z</time>
      </trkpt>
      <trkpt lat="47.30918" lon="6.03653">
        <ele>544</ele>
        <time>2021-04-03T10:12:41Z</time>
      </trkpt>
      <trkpt lat="47.30919" lon="6.03651">
        <ele>544.2</ele>
        <time>2021-04-03T10:12:42Z</time>
      </trkpt>
      <trkpt lat="47.30919" lon="6.03649">
        <ele>544.6</ele>
        <time>2021-04-03T10:12:43Z</time>
      </trkpt>
      <trkpt lat="47.3092" lon="6.03647">
        <ele>544.8</ele>
        <time>2021-04-03T10:12:44Z</time>
      </trkpt>
      <trkpt lat="47.30921" lon="6.03644">
        <ele>545</ele>
        <time>2021-04-03T10:12:45Z</time>
      </trkpt>
      <trkpt lat="47.30921" lon="6.03641">
        <ele>545.2</ele>
        <time>2021-04-03T10:12:46Z</time>
      </trkpt>
      <trkpt lat="47.30922" lon="6.03637">
        <ele>545.2</ele>
        <time>2021-04-03T10:12:47Z</time>
      </trkpt>
      <trkpt lat="47.30922" lon="6.03635">
        <ele>545.2</ele>
        <time>2021-04-03T10:12:48Z</time>
      </trkpt>
      <trkpt lat="47.30923" lon="6.03632">
        <ele>545.2</ele>
        <time>2021-04-03T10:12:49Z</time>
      </trkpt>
      <trkpt lat="47.30923" lon="6.0363">
        <ele>545.2</ele>
        <time>2021-04-03T10:12:50Z</time>
      </trkpt>
      <trkpt lat="47.30924" lon="6.03627">
        <ele>545.2</ele>
        <time>2021-04-03T10:12:51Z</time>
      </trkpt>
      <trkpt lat="47.30924" lon="6.03625">
        <ele>545.4</ele>
        <time>2021-04-03T10:12:52Z</time>
      </trkpt>
      <trkpt lat="47.30925" lon="6.03623">
        <ele>545.4</ele>
        <time>2021-04-03T10:12:53Z</time>
      </trkpt>
      <trkpt lat="47.30926" lon="6.0362">
        <ele>545.4</ele>
        <time>2021-04-03T10:12:54Z</time>
      </trkpt>
      <trkpt lat="47.30927" lon="6.03619">
        <ele>545.4</ele>
        <time>2021-04-03T10:12:55Z</time>
      </trkpt>
      <trkpt lat="47.30928" lon="6.03617">
        <ele>545.6</ele>
        <time>2021-04-03T10:12:56Z</time>
      </trkpt>
      <trkpt lat="47.30929" lon="6.03615">
        <ele>545.6</ele>
        <time>2021-04-03T10:12:57Z</time>
      </trkpt>
      <trkpt lat="47.30931" lon="6.03615">
        <ele>545.6</ele>
        <time>2021-04-03T10:12:58Z</time>
      </trkpt>
      <trkpt lat="47.30932" lon="6.03613">
        <ele>545.8</ele>
        <time>2021-04-03T10:12:59Z</time>
      </trkpt>
      <trkpt lat="47.30932" lon="6.03611">
        <ele>546</ele>
        <time>2021-04-03T10:13:00Z</time>
      </trkpt>
      <trkpt lat="47.30934" lon="6.03611">
        <ele>546.4</ele>
        <time>2021-04-03T10:13:01Z</time>
      </trkpt>
      <trkpt lat="47.30936" lon="6.0361">
        <ele>546.4</ele>
        <time>2021-04-03T10:13:02Z</time>
      </trkpt>
      <trkpt lat="47.30937" lon="6.0361">
        <ele>546.6</ele>
        <time>2021-04-03T10:13:03Z</time>
      </trkpt>
      <trkpt lat="47.30939" lon="6.03611">
        <ele>546.6</ele>
        <time>2021-04-03T10:13:04Z</time>
      </trkpt>
      <trkpt lat="47.3094" lon="6.03611">
        <ele>546.6</ele>
        <time>2021-04-03T10:13:05Z</time>
      </trkpt>
      <trkpt lat="47.30942" lon="6.03611">
        <ele>546.6</ele>
        <time>2021-04-03T10:13:06Z</time>
      </trkpt>
      <trkpt lat="47.30943" lon="6.03611">
        <ele>546.8</ele>
        <time>2021-04-03T10:13:07Z</time>
      </trkpt>
      <trkpt lat="47.30944" lon="6.03612">
        <ele>546.8</ele>
        <time>2021-04-03T10:13:08Z</time>
      </trkpt>
      <trkpt lat="47.30945" lon="6.03612">
        <ele>546.8</ele>
        <time>2021-04-03T10:13:09Z</time>
      </trkpt>
      <trkpt lat="47.30947" lon="6.03613">
        <ele>547</ele>
        <time>2021-04-03T10:13:10Z</time>
      </trkpt>
      <trkpt lat="47.30948" lon="6.03614">
        <ele>547.2</ele>
        <time>2021-04-03T10:13:11Z</time>
      </trkpt>
      <trkpt lat="47.3095" lon="6.03616">
        <ele>547.2</ele>
        <time>2021-04-03T10:13:12Z</time>
      </trkpt>
      <trkpt lat="47.30953" lon="6.03619">
        <ele>547.6</ele>
        <time>2021-04-03T10:13:14Z</time>
      </trkpt>
      <trkpt lat="47.30956" lon="6.03622">
        <ele>547.8</ele>
        <time>2021-04-03T10:13:16Z</time>
      </trkpt>
      <trkpt lat="47.30958" lon="6.03626">
        <ele>548</ele>
        <time>2021-04-03T10:13:18Z</time>
      </trkpt>
      <trkpt lat="47.30958" lon="6.03627">
        <ele>548</ele>
        <time>2021-04-03T10:13:19Z</time>
      </trkpt>
      <trkpt lat="47.30958" lon="6.0363">
        <ele>548.2</ele>
        <time>2021-04-03T10:13:20Z</time>
      </trkpt>
      <trkpt lat="47.30959" lon="6.03632">
        <ele>548.4</ele>
        <time>2021-04-03T10:13:21Z</time>
      </trkpt>
      <trkpt lat="47.30959" lon="6.03634">
        <ele>548.4</ele>
        <time>2021-04-03T10:13:22Z</time>
      </trkpt>
      <trkpt lat="47.30959" lon="6.03637">
        <ele>548.6</ele>
        <time>2021-04-03T10:13:23Z</time>
      </trkpt>
      <trkpt lat="47.3096" lon="6.03639">
        <ele>548.6</ele>
        <time>2021-04-03T10:13:24Z</time>
      </trkpt>
      <trkpt lat="47.30961" lon="6.03641">
        <ele>548.8</ele>
        <time>2021-04-03T10:13:25Z</time>
      </trkpt>
      <trkpt lat="47.30961" lon="6.03645">
        <ele>549</ele>
        <time>2021-04-03T10:13:26Z</time>
      </trkpt>
      <trkpt lat="47.30962" lon="6.03648">
        <ele>549.2</ele>
        <time>2021-04-03T10:13:27Z</time>
      </trkpt>
      <trkpt lat="47.30964" lon="6.03651">
        <ele>549.4</ele>
        <time>2021-04-03T10:13:28Z</time>
      </trkpt>
      <trkpt lat="47.30964" lon="6.03653">
        <ele>549.6</ele>
        <time>2021-04-03T10:13:29Z</time>
      </trkpt>
      <trkpt lat="47.30964" lon="6.03655">
        <ele>549.8</ele>
        <time>2021-04-03T10:13:30Z</time>
      </trkpt>
      <trkpt lat="47.30965" lon="6.03658">
        <ele>549.8</ele>
        <time>2021-04-03T10:13:31Z</time>
      </trkpt>
      <trkpt lat="47.30965" lon="6.0366">
        <ele>550</ele>
        <time>2021-04-03T10:13:32Z</time>
      </trkpt>
      <trkpt lat="47.30965" lon="6.03663">
        <ele>550</ele>
        <time>2021-04-03T10:13:33Z</time>
      </trkpt>
      <trkpt lat="47.30965" lon="6.03665">
        <ele>550</ele>
        <time>2021-04-03T10:13:34Z</time>
      </trkpt>
      <trkpt lat="47.30964" lon="6.03668">
        <ele>550.2</ele>
        <time>2021-04-03T10:13:35Z</time>
      </trkpt>
      <trkpt lat="47.30965" lon="6.03671">
        <ele>550.2</ele>
        <time>2021-04-03T10:13:36Z</time>
      </trkpt>
      <trkpt lat="47.30965" lon="6.03674">
        <ele>550.4</ele>
        <time>2021-04-03T10:13:37Z</time>
      </trkpt>
      <trkpt lat="47.30964" lon="6.03676">
        <ele>550.6</ele>
        <time>2021-04-03T10:13:38Z</time>
      </trkpt>
      <trkpt lat="47.30963" lon="6.03678">
        <ele>550.8</ele>
        <time>2021-04-03T10:13:39Z</time>
      </trkpt>
      <trkpt lat="47.30963" lon="6.03681">
        <ele>551</ele>
        <time>2021-04-03T10:13:40Z</time>
      </trkpt>
      <trkpt lat="47.30963" lon="6.03684">
        <ele>551</ele>
        <time>2021-04-03T10:13:41Z</time>
      </trkpt>
      <trkpt lat="47.30964" lon="6.03687">
        <ele>551</ele>
        <time>2021-04-03T10:13:42Z</time>
      </trkpt>
      <trkpt lat="47.30965" lon="6.03689">
        <ele>551</ele>
        <time>2021-04-03T10:13:43Z</time>
      </trkpt>
      <trkpt lat="47.30966" lon="6.03692">
        <ele>551</ele>
        <time>2021-04-03T10:13:44Z</time>
      </trkpt>
      <trkpt lat="47.30966" lon="6.03695">
        <ele>551.2</ele>
        <time>2021-04-03T10:13:45Z</time>
      </trkpt>
      <trkpt lat="47.30966" lon="6.03699">
        <ele>551.2</ele>
        <time>2021-04-03T10:13:46Z</time>
      </trkpt>
      <trkpt lat="47.30964" lon="6.03703">
        <ele>551.2</ele>
        <time>2021-04-03T10:13:47Z</time>
      </trkpt>
      <trkpt lat="47.30964" lon="6.03705">
        <ele>551.4</ele>
        <time>2021-04-03T10:13:48Z</time>
      </trkpt>
      <trkpt lat="47.30965" lon="6.03707">
        <ele>551.4</ele>
        <time>2021-04-03T10:13:49Z</time>
      </trkpt>
      <trkpt lat="47.30966" lon="6.03711">
        <ele>551.6</ele>
        <time>2021-04-03T10:13:50Z</time>
      </trkpt>
      <trkpt lat="47.30966" lon="6.03714">
        <ele>551.6</ele>
        <time>2021-04-03T10:13:51Z</time>
      </trkpt>
      <trkpt lat="47.30966" lon="6.03717">
        <ele>551.8</ele>
        <time>2021-04-03T10:13:52Z</time>
      </trkpt>
      <trkpt lat="47.30965" lon="6.03722">
        <ele>551.8</ele>
        <time>2021-04-03T10:13:53Z</time>
      </trkpt>
      <trkpt lat="47.30966" lon="6.03727">
        <ele>552</ele>
        <time>2021-04-03T10:13:54Z</time>
      </trkpt>
      <trkpt lat="47.30964" lon="6.03731">
        <ele>552</ele>
        <time>2021-04-03T10:13:55Z</time>
      </trkpt>
      <trkpt lat="47.30962" lon="6.03734">
        <ele>552</ele>
        <time>2021-04-03T10:13:56Z</time>
      </trkpt>
      <trkpt lat="47.3096" lon="6.03739">
        <ele>552.2</ele>
        <time>2021-04-03T10:13:58Z</time>
      </trkpt>
      <trkpt lat="47.30958" lon="6.03741">
        <ele>552.2</ele>
        <time>2021-04-03T10:13:59Z</time>
      </trkpt>
      <trkpt lat="47.30956" lon="6.03745">
        <ele>552.2</ele>
        <time>2021-04-03T10:14:00Z</time>
      </trkpt>
      <trkpt lat="47.30954" lon="6.03749">
        <ele>552.6</ele>
        <time>2021-04-03T10:14:01Z</time>
      </trkpt>
      <trkpt lat="47.30955" lon="6.03755">
        <ele>552.8</ele>
        <time>2021-04-03T10:14:03Z</time>
      </trkpt>
      <trkpt lat="47.30955" lon="6.03757">
        <ele>553</ele>
        <time>2021-04-03T10:14:04Z</time>
      </trkpt>
      <trkpt lat="47.30955" lon="6.03759">
        <ele>553</ele>
        <time>2021-04-03T10:14:05Z</time>
      </trkpt>
      <trkpt lat="47.30955" lon="6.03761">
        <ele>553</ele>
        <time>2021-04-03T10:14:06Z</time>
      </trkpt>
      <trkpt lat="47.30955" lon="6.03762">
        <ele>553.2</ele>
        <time>2021-04-03T10:14:07Z</time>
      </trkpt>
      <trkpt lat="47.30955" lon="6.03764">
        <ele>553.2</ele>
        <time>2021-04-03T10:14:08Z</time>
      </trkpt>
      <trkpt lat="47.30955" lon="6.03767">
        <ele>553.2</ele>
        <time>2021-04-03T10:14:09Z</time>
      </trkpt>
      <trkpt lat="47.30955" lon="6.03771">
        <ele>553.4</ele>
        <time>2021-04-03T10:14:10Z</time>
      </trkpt>
      <trkpt lat="47.30955" lon="6.03775">
        <ele>553.4</ele>
        <time>2021-04-03T10:14:11Z</time>
      </trkpt>
      <trkpt lat="47.30955" lon="6.03777">
        <ele>553.4</ele>
        <time>2021-04-03T10:14:12Z</time>
      </trkpt>
      <trkpt lat="47.30955" lon="6.0378">
        <ele>553.4</ele>
        <time>2021-04-03T10:14:13Z</time>
      </trkpt>
      <trkpt lat="47.30955" lon="6.03782">
        <ele>553.4</ele>
        <time>2021-04-03T10:14:14Z</time>
      </trkpt>
      <trkpt lat="47.30955" lon="6.03785">
        <ele>553.4</ele>
        <time>2021-04-03T10:14:15Z</time>
      </trkpt>
      <trkpt lat="47.30953" lon="6.03793">
        <ele>553.6</ele>
        <time>2021-04-03T10:14:18Z</time>
      </trkpt>
      <trkpt lat="47.30953" lon="6.03795">
        <ele>553.6</ele>
        <time>2021-04-03T10:14:19Z</time>
      </trkpt>
      <trkpt lat="47.30954" lon="6.03803">
        <ele>553.8</ele>
        <time>2021-04-03T10:14:21Z</time>
      </trkpt>
      <trkpt lat="47.30954" lon="6.03804">
        <ele>554</ele>
        <time>2021-04-03T10:14:22Z</time>
      </trkpt>
      <trkpt lat="47.30954" lon="6.03807">
        <ele>554.2</ele>
        <time>2021-04-03T10:14:23Z</time>
      </trkpt>
      <trkpt lat="47.30953" lon="6.0381">
        <ele>554.2</ele>
        <time>2021-04-03T10:14:24Z</time>
      </trkpt>
      <trkpt lat="47.30952" lon="6.03812">
        <ele>554.2</ele>
        <time>2021-04-03T10:14:25Z</time>
      </trkpt>
      <trkpt lat="47.30951" lon="6.03815">
        <ele>554.4</ele>
        <time>2021-04-03T10:14:26Z</time>
      </trkpt>
      <trkpt lat="47.30951" lon="6.03818">
        <ele>554.4</ele>
        <time>2021-04-03T10:14:27Z</time>
      </trkpt>
      <trkpt lat="47.30948" lon="6.03838">
        <ele>555.2</ele>
        <time>2021-04-03T10:14:32Z</time>
      </trkpt>
      <trkpt lat="47.3095" lon="6.03849">
        <ele>555.2</ele>
        <time>2021-04-03T10:14:34Z</time>
      </trkpt>
      <trkpt lat="47.3095" lon="6.03853">
        <ele>555.4</ele>
        <time>2021-04-03T10:14:35Z</time>
      </trkpt>
      <trkpt lat="47.30951" lon="6.03856">
        <ele>555.6</ele>
        <time>2021-04-03T10:14:36Z</time>
      </trkpt>
      <trkpt lat="47.30951" lon="6.0386">
        <ele>556</ele>
        <time>2021-04-03T10:14:37Z</time>
      </trkpt>
      <trkpt lat="47.3095" lon="6.03865">
        <ele>556.4</ele>
        <time>2021-04-03T10:14:38Z</time>
      </trkpt>
      <trkpt lat="47.30949" lon="6.03868">
        <ele>556.6</ele>
        <time>2021-04-03T10:14:39Z</time>
      </trkpt>
      <trkpt lat="47.30949" lon="6.03873">
        <ele>556.6</ele>
        <time>2021-04-03T10:14:40Z</time>
      </trkpt>
      <trkpt lat="47.30948" lon="6.03878">
        <ele>556.8</ele>
        <time>2021-04-03T10:14:41Z</time>
      </trkpt>
      <trkpt lat="47.30948" lon="6.03886">
        <ele>556.6</ele>
        <time>2021-04-03T10:14:42Z</time>
      </trkpt>
      <trkpt lat="47.30947" lon="6.0389">
        <ele>556.8</ele>
        <time>2021-04-03T10:14:43Z</time>
      </trkpt>
      <trkpt lat="47.30948" lon="6.03893">
        <ele>556.8</ele>
        <time>2021-04-03T10:14:44Z</time>
      </trkpt>
      <trkpt lat="47.30948" lon="6.03895">
        <ele>556.8</ele>
        <time>2021-04-03T10:14:45Z</time>
      </trkpt>
      <trkpt lat="47.30948" lon="6.03896">
        <ele>556.6</ele>
        <time>2021-04-03T10:14:46Z</time>
      </trkpt>
      <trkpt lat="47.30948" lon="6.039">
        <ele>556.4</ele>
        <time>2021-04-03T10:14:47Z</time>
      </trkpt>
      <trkpt lat="47.3095" lon="6.03906">
        <ele>556.4</ele>
        <time>2021-04-03T10:14:48Z</time>
      </trkpt>
      <trkpt lat="47.3095" lon="6.03914">
        <ele>556.4</ele>
        <time>2021-04-03T10:14:49Z</time>
      </trkpt>
      <trkpt lat="47.30949" lon="6.0392">
        <ele>556.4</ele>
        <time>2021-04-03T10:14:50Z</time>
      </trkpt>
      <trkpt lat="47.30948" lon="6.03923">
        <ele>556.4</ele>
        <time>2021-04-03T10:14:51Z</time>
      </trkpt>
      <trkpt lat="47.30948" lon="6.03926">
        <ele>556.2</ele>
        <time>2021-04-03T10:14:52Z</time>
      </trkpt>
      <trkpt lat="47.30947" lon="6.0393">
        <ele>556.2</ele>
        <time>2021-04-03T10:14:53Z</time>
      </trkpt>
      <trkpt lat="47.30943" lon="6.03947">
        <ele>556.2</ele>
        <time>2021-04-03T10:14:56Z</time>
      </trkpt>
      <trkpt lat="47.30942" lon="6.03951">
        <ele>556.4</ele>
        <time>2021-04-03T10:14:57Z</time>
      </trkpt>
      <trkpt lat="47.3094" lon="6.03954">
        <ele>556.4</ele>
        <time>2021-04-03T10:14:58Z</time>
      </trkpt>
      <trkpt lat="47.30939" lon="6.03955">
        <ele>556.4</ele>
        <time>2021-04-03T10:14:59Z</time>
      </trkpt>
      <trkpt lat="47.30938" lon="6.03957">
        <ele>556.4</ele>
        <time>2021-04-03T10:15:00Z</time>
      </trkpt>
      <trkpt lat="47.30937" lon="6.03963">
        <ele>556.6</ele>
        <time>2021-04-03T10:15:02Z</time>
      </trkpt>
      <trkpt lat="47.30937" lon="6.03965">
        <ele>556.6</ele>
        <time>2021-04-03T10:15:03Z</time>
      </trkpt>
      <trkpt lat="47.30936" lon="6.03967">
        <ele>556.6</ele>
        <time>2021-04-03T10:15:04Z</time>
      </trkpt>
      <trkpt lat="47.30934" lon="6.0397">
        <ele>556.6</ele>
        <time>2021-04-03T10:15:05Z</time>
      </trkpt>
      <trkpt lat="47.30935" lon="6.03973">
        <ele>557</ele>
        <time>2021-04-03T10:15:06Z</time>
      </trkpt>
      <trkpt lat="47.30936" lon="6.03977">
        <ele>557.2</ele>
        <time>2021-04-03T10:15:07Z</time>
      </trkpt>
      <trkpt lat="47.30937" lon="6.03986">
        <ele>557.8</ele>
        <time>2021-04-03T10:15:08Z</time>
      </trkpt>
      <trkpt lat="47.30936" lon="6.03991">
        <ele>558</ele>
        <time>2021-04-03T10:15:09Z</time>
      </trkpt>
      <trkpt lat="47.30935" lon="6.04002">
        <ele>558.4</ele>
        <time>2021-04-03T10:15:11Z</time>
      </trkpt>
      <trkpt lat="47.30934" lon="6.04008">
        <ele>558.4</ele>
        <time>2021-04-03T10:15:12Z</time>
      </trkpt>
      <trkpt lat="47.30934" lon="6.04013">
        <ele>558.6</ele>
        <time>2021-04-03T10:15:13Z</time>
      </trkpt>
      <trkpt lat="47.30931" lon="6.04021">
        <ele>558.6</ele>
        <time>2021-04-03T10:15:15Z</time>
      </trkpt>
      <trkpt lat="47.30934" lon="6.04027">
        <ele>558.6</ele>
        <time>2021-04-03T10:15:16Z</time>
      </trkpt>
      <trkpt lat="47.30933" lon="6.0403">
        <ele>558.6</ele>
        <time>2021-04-03T10:15:17Z</time>
      </trkpt>
      <trkpt lat="47.30933" lon="6.04035">
        <ele>558.6</ele>
        <time>2021-04-03T10:15:18Z</time>
      </trkpt>
      <trkpt lat="47.30933" lon="6.0404">
        <ele>558.6</ele>
        <time>2021-04-03T10:15:19Z</time>
      </trkpt>
      <trkpt lat="47.30935" lon="6.04045">
        <ele>558.6</ele>
        <time>2021-04-03T10:15:20Z</time>
      </trkpt>
      <trkpt lat="47.30936" lon="6.04053">
        <ele>558.6</ele>
        <time>2021-04-03T10:15:21Z</time>
      </trkpt>
      <trkpt lat="47.30936" lon="6.04056">
        <ele>558.6</ele>
        <time>2021-04-03T10:15:22Z</time>
      </trkpt>
      <trkpt lat="47.30935" lon="6.04059">
        <ele>558.6</ele>
        <time>2021-04-03T10:15:23Z</time>
      </trkpt>
      <trkpt lat="47.30934" lon="6.04063">
        <ele>558.6</ele>
        <time>2021-04-03T10:15:24Z</time>
      </trkpt>
      <trkpt lat="47.30933" lon="6.04067">
        <ele>558.6</ele>
        <time>2021-04-03T10:15:25Z</time>
      </trkpt>
      <trkpt lat="47.3093" lon="6.04075">
        <ele>558.6</ele>
        <time>2021-04-03T10:15:26Z</time>
      </trkpt>
      <trkpt lat="47.30927" lon="6.04081">
        <ele>558.6</ele>
        <time>2021-04-03T10:15:27Z</time>
      </trkpt>
      <trkpt lat="47.30928" lon="6.04086">
        <ele>558.4</ele>
        <time>2021-04-03T10:15:28Z</time>
      </trkpt>
      <trkpt lat="47.30928" lon="6.04091">
        <ele>558.4</ele>
        <time>2021-04-03T10:15:29Z</time>
      </trkpt>
      <trkpt lat="47.30927" lon="6.04097">
        <ele>558.4</ele>
        <time>2021-04-03T10:15:31Z</time>
      </trkpt>
      <trkpt lat="47.30927" lon="6.04099">
        <ele>558.2</ele>
        <time>2021-04-03T10:15:32Z</time>
      </trkpt>
      <trkpt lat="47.30928" lon="6.04102">
        <ele>558.2</ele>
        <time>2021-04-03T10:15:33Z</time>
      </trkpt>
      <trkpt lat="47.30927" lon="6.04107">
        <ele>558.2</ele>
        <time>2021-04-03T10:15:35Z</time>
      </trkpt>
      <trkpt lat="47.30928" lon="6.04132">
        <ele>558.8</ele>
        <time>2021-04-03T10:15:41Z</time>
      </trkpt>
      <trkpt lat="47.30929" lon="6.04135">
        <ele>558.8</ele>
        <time>2021-04-03T10:15:42Z</time>
      </trkpt>
      <trkpt lat="47.3093" lon="6.04152">
        <ele>559.4</ele>
        <time>2021-04-03T10:15:46Z</time>
      </trkpt>
      <trkpt lat="47.30931" lon="6.04161">
        <ele>559.6</ele>
        <time>2021-04-03T10:15:48Z</time>
      </trkpt>
      <trkpt lat="47.30932" lon="6.0418">
        <ele>560</ele>
        <time>2021-04-03T10:15:52Z</time>
      </trkpt>
      <trkpt lat="47.30935" lon="6.04205">
        <ele>560.4</ele>
        <time>2021-04-03T10:15:58Z</time>
      </trkpt>
      <trkpt lat="47.30937" lon="6.04209">
        <ele>560.6</ele>
        <time>2021-04-03T10:15:59Z</time>
      </trkpt>
      <trkpt lat="47.30938" lon="6.04214">
        <ele>560.6</ele>
        <time>2021-04-03T10:16:00Z</time>
      </trkpt>
      <trkpt lat="47.30938" lon="6.04218">
        <ele>560.6</ele>
        <time>2021-04-03T10:16:01Z</time>
      </trkpt>
      <trkpt lat="47.30938" lon="6.04225">
        <ele>560.6</ele>
        <time>2021-04-03T10:16:02Z</time>
      </trkpt>
      <trkpt lat="47.30938" lon="6.0423">
        <ele>560.8</ele>
        <time>2021-04-03T10:16:03Z</time>
      </trkpt>
      <trkpt lat="47.30939" lon="6.04236">
        <ele>560.8</ele>
        <time>2021-04-03T10:16:04Z</time>
      </trkpt>
      <trkpt lat="47.30941" lon="6.04255">
        <ele>561</ele>
        <time>2021-04-03T10:16:08Z</time>
      </trkpt>
      <trkpt lat="47.30943" lon="6.04261">
        <ele>561.2</ele>
        <time>2021-04-03T10:16:10Z</time>
      </trkpt>
      <trkpt lat="47.30945" lon="6.04279">
        <ele>561.6</ele>
        <time>2021-04-03T10:16:15Z</time>
      </trkpt>
      <trkpt lat="47.30945" lon="6.04282">
        <ele>561.6</ele>
        <time>2021-04-03T10:16:16Z</time>
      </trkpt>
      <trkpt lat="47.30946" lon="6.04285">
        <ele>561.8</ele>
        <time>2021-04-03T10:16:17Z</time>
      </trkpt>
      <trkpt lat="47.30947" lon="6.04288">
        <ele>561.8</ele>
        <time>2021-04-03T10:16:18Z</time>
      </trkpt>
      <trkpt lat="47.30947" lon="6.04292">
        <ele>562</ele>
        <time>2021-04-03T10:16:19Z</time>
      </trkpt>
      <trkpt lat="47.30948" lon="6.04295">
        <ele>562</ele>
        <time>2021-04-03T10:16:20Z</time>
      </trkpt>
      <trkpt lat="47.30949" lon="6.043">
        <ele>562</ele>
        <time>2021-04-03T10:16:21Z</time>
      </trkpt>
      <trkpt lat="47.3095" lon="6.04306">
        <ele>562.2</ele>
        <time>2021-04-03T10:16:23Z</time>
      </trkpt>
      <trkpt lat="47.3095" lon="6.0431">
        <ele>562.2</ele>
        <time>2021-04-03T10:16:24Z</time>
      </trkpt>
      <trkpt lat="47.30951" lon="6.04312">
        <ele>562.2</ele>
        <time>2021-04-03T10:16:25Z</time>
      </trkpt>
      <trkpt lat="47.30953" lon="6.04318">
        <ele>562.4</ele>
        <time>2021-04-03T10:16:27Z</time>
      </trkpt>
      <trkpt lat="47.30953" lon="6.04321">
        <ele>562.6</ele>
        <time>2021-04-03T10:16:28Z</time>
      </trkpt>
      <trkpt lat="47.30954" lon="6.04324">
        <ele>562.8</ele>
        <time>2021-04-03T10:16:29Z</time>
      </trkpt>
      <trkpt lat="47.30954" lon="6.04327">
        <ele>563.2</ele>
        <time>2021-04-03T10:16:30Z</time>
      </trkpt>
      <trkpt lat="47.30955" lon="6.0433">
        <ele>563.2</ele>
        <time>2021-04-03T10:16:31Z</time>
      </trkpt>
      <trkpt lat="47.30955" lon="6.04334">
        <ele>563.4</ele>
        <time>2021-04-03T10:16:32Z</time>
      </trkpt>
      <trkpt lat="47.30955" lon="6.04336">
        <ele>563.6</ele>
        <time>2021-04-03T10:16:33Z</time>
      </trkpt>
      <trkpt lat="47.30955" lon="6.04339">
        <ele>563.6</ele>
        <time>2021-04-03T10:16:34Z</time>
      </trkpt>
      <trkpt lat="47.30956" lon="6.04342">
        <ele>563.6</ele>
        <time>2021-04-03T10:16:35Z</time>
      </trkpt>
      <trkpt lat="47.30957" lon="6.04345">
        <ele>563.8</ele>
        <time>2021-04-03T10:16:36Z</time>
      </trkpt>
      <trkpt lat="47.3096" lon="6.04352">
        <ele>563.8</ele>
        <time>2021-04-03T10:16:38Z</time>
      </trkpt>
      <trkpt lat="47.30962" lon="6.04355">
        <ele>564</ele>
        <time>2021-04-03T10:16:39Z</time>
      </trkpt>
      <trkpt lat="47.30963" lon="6.04358">
        <ele>564</ele>
        <time>2021-04-03T10:16:40Z</time>
      </trkpt>
      <trkpt lat="47.30965" lon="6.04362">
        <ele>564.2</ele>
        <time>2021-04-03T10:16:41Z</time>
      </trkpt>
      <trkpt lat="47.30968" lon="6.04365">
        <ele>564.4</ele>
        <time>2021-04-03T10:16:42Z</time>
      </trkpt>
      <trkpt lat="47.30971" lon="6.04369">
        <ele>564.6</ele>
        <time>2021-04-03T10:16:43Z</time>
      </trkpt>
      <trkpt lat="47.30972" lon="6.04373">
        <ele>564.6</ele>
        <time>2021-04-03T10:16:44Z</time>
      </trkpt>
      <trkpt lat="47.30975" lon="6.04377">
        <ele>564.8</ele>
        <time>2021-04-03T10:16:45Z</time>
      </trkpt>
      <trkpt lat="47.30977" lon="6.04382">
        <ele>564.8</ele>
        <time>2021-04-03T10:16:46Z</time>
      </trkpt>
      <trkpt lat="47.3098" lon="6.04386">
        <ele>565</ele>
        <time>2021-04-03T10:16:47Z</time>
      </trkpt>
      <trkpt lat="47.30982" lon="6.0439">
        <ele>565</ele>
        <time>2021-04-03T10:16:48Z</time>
      </trkpt>
      <trkpt lat="47.30984" lon="6.04396">
        <ele>565</ele>
        <time>2021-04-03T10:16:49Z</time>
      </trkpt>
      <trkpt lat="47.30987" lon="6.04401">
        <ele>565.2</ele>
        <time>2021-04-03T10:16:50Z</time>
      </trkpt>
      <trkpt lat="47.30988" lon="6.04405">
        <ele>565.4</ele>
        <time>2021-04-03T10:16:51Z</time>
      </trkpt>
      <trkpt lat="47.3099" lon="6.04409">
        <ele>565.4</ele>
        <time>2021-04-03T10:16:52Z</time>
      </trkpt>
      <trkpt lat="47.30992" lon="6.04412">
        <ele>565.6</ele>
        <time>2021-04-03T10:16:53Z</time>
      </trkpt>
      <trkpt lat="47.30994" lon="6.04417">
        <ele>565.6</ele>
        <time>2021-04-03T10:16:54Z</time>
      </trkpt>
      <trkpt lat="47.30996" lon="6.0442">
        <ele>565.6</ele>
        <time>2021-04-03T10:16:55Z</time>
      </trkpt>
      <trkpt lat="47.31" lon="6.04424">
        <ele>565.6</ele>
        <time>2021-04-03T10:16:56Z</time>
      </trkpt>
      <trkpt lat="47.31002" lon="6.04428">
        <ele>565.8</ele>
        <time>2021-04-03T10:16:57Z</time>
      </trkpt>
      <trkpt lat="47.31004" lon="6.04432">
        <ele>566</ele>
        <time>2021-04-03T10:16:58Z</time>
      </trkpt>
      <trkpt lat="47.31006" lon="6.04435">
        <ele>566</ele>
        <time>2021-04-03T10:16:59Z</time>
      </trkpt>
      <trkpt lat="47.3101" lon="6.04439">
        <ele>566</ele>
        <time>2021-04-03T10:17:00Z</time>
      </trkpt>
      <trkpt lat="47.31013" lon="6.04443">
        <ele>566.2</ele>
        <time>2021-04-03T10:17:01Z</time>
      </trkpt>
      <trkpt lat="47.31015" lon="6.04446">
        <ele>566.2</ele>
        <time>2021-04-03T10:17:02Z</time>
      </trkpt>
      <trkpt lat="47.31018" lon="6.04449">
        <ele>566.2</ele>
        <time>2021-04-03T10:17:03Z</time>
      </trkpt>
      <trkpt lat="47.31022" lon="6.04459">
        <ele>566.4</ele>
        <time>2021-04-03T10:17:05Z</time>
      </trkpt>
      <trkpt lat="47.3103" lon="6.04474">
        <ele>566.2</ele>
        <time>2021-04-03T10:17:09Z</time>
      </trkpt>
      <trkpt lat="47.31033" lon="6.04477">
        <ele>566.4</ele>
        <time>2021-04-03T10:17:10Z</time>
      </trkpt>
      <trkpt lat="47.31035" lon="6.04481">
        <ele>566.6</ele>
        <time>2021-04-03T10:17:11Z</time>
      </trkpt>
      <trkpt lat="47.31036" lon="6.04483">
        <ele>566.6</ele>
        <time>2021-04-03T10:17:12Z</time>
      </trkpt>
      <trkpt lat="47.31037" lon="6.04487">
        <ele>566.6</ele>
        <time>2021-04-03T10:17:13Z</time>
      </trkpt>
      <trkpt lat="47.31039" lon="6.04491">
        <ele>566.4</ele>
        <time>2021-04-03T10:17:14Z</time>
      </trkpt>
      <trkpt lat="47.31047" lon="6.045">
        <ele>566.2</ele>
        <time>2021-04-03T10:17:17Z</time>
      </trkpt>
      <trkpt lat="47.3105" lon="6.04503">
        <ele>566.2</ele>
        <time>2021-04-03T10:17:18Z</time>
      </trkpt>
      <trkpt lat="47.31065" lon="6.04521">
        <ele>566.2</ele>
        <time>2021-04-03T10:17:24Z</time>
      </trkpt>
      <trkpt lat="47.31074" lon="6.04534">
        <ele>566.2</ele>
        <time>2021-04-03T10:17:27Z</time>
      </trkpt>
      <trkpt lat="47.31076" lon="6.04538">
        <ele>566.2</ele>
        <time>2021-04-03T10:17:28Z</time>
      </trkpt>
      <trkpt lat="47.31079" lon="6.04542">
        <ele>566.2</ele>
        <time>2021-04-03T10:17:29Z</time>
      </trkpt>
      <trkpt lat="47.31088" lon="6.04558">
        <ele>565</ele>
        <time>2021-04-03T10:17:33Z</time>
      </trkpt>
      <trkpt lat="47.31089" lon="6.04562">
        <ele>564.8</ele>
        <time>2021-04-03T10:17:34Z</time>
      </trkpt>
      <trkpt lat="47.31091" lon="6.04565">
        <ele>564.6</ele>
        <time>2021-04-03T10:17:35Z</time>
      </trkpt>
      <trkpt lat="47.31103" lon="6.04589">
        <ele>564.2</ele>
        <time>2021-04-03T10:17:40Z</time>
      </trkpt>
      <trkpt lat="47.31116" lon="6.04622">
        <ele>563.8</ele>
        <time>2021-04-03T10:17:45Z</time>
      </trkpt>
      <trkpt lat="47.31118" lon="6.0463">
        <ele>563.8</ele>
        <time>2021-04-03T10:17:46Z</time>
      </trkpt>
      <trkpt lat="47.31119" lon="6.04635">
        <ele>563.8</ele>
        <time>2021-04-03T10:17:47Z</time>
      </trkpt>
      <trkpt lat="47.3113" lon="6.04666">
        <ele>563.2</ele>
        <time>2021-04-03T10:17:51Z</time>
      </trkpt>
      <trkpt lat="47.31136" lon="6.04682">
        <ele>562.6</ele>
        <time>2021-04-03T10:17:53Z</time>
      </trkpt>
      <trkpt lat="47.31149" lon="6.04711">
        <ele>561.8</ele>
        <time>2021-04-03T10:17:56Z</time>
      </trkpt>
      <trkpt lat="47.31153" lon="6.04719">
        <ele>561.4</ele>
        <time>2021-04-03T10:17:57Z</time>
      </trkpt>
      <trkpt lat="47.31164" lon="6.04748">
        <ele>560.4</ele>
        <time>2021-04-03T10:18:00Z</time>
      </trkpt>
      <trkpt lat="47.31167" lon="6.04755">
        <ele>559.6</ele>
        <time>2021-04-03T10:18:01Z</time>
      </trkpt>
      <trkpt lat="47.31171" lon="6.04763">
        <ele>559.2</ele>
        <time>2021-04-03T10:18:02Z</time>
      </trkpt>
      <trkpt lat="47.31182" lon="6.04802">
        <ele>558.2</ele>
        <time>2021-04-03T10:18:06Z</time>
      </trkpt>
      <trkpt lat="47.31187" lon="6.04823">
        <ele>558</ele>
        <time>2021-04-03T10:18:08Z</time>
      </trkpt>
      <trkpt lat="47.3119" lon="6.04836">
        <ele>558</ele>
        <time>2021-04-03T10:18:09Z</time>
      </trkpt>
      <trkpt lat="47.31198" lon="6.04867">
        <ele>556.8</ele>
        <time>2021-04-03T10:18:12Z</time>
      </trkpt>
      <trkpt lat="47.31206" lon="6.04901">
        <ele>554.8</ele>
        <time>2021-04-03T10:18:15Z</time>
      </trkpt>
      <trkpt lat="47.31207" lon="6.04909">
        <ele>554.2</ele>
        <time>2021-04-03T10:18:16Z</time>
      </trkpt>
      <trkpt lat="47.31209" lon="6.04918">
        <ele>554</ele>
        <time>2021-04-03T10:18:17Z</time>
      </trkpt>
      <trkpt lat="47.31211" lon="6.04927">
        <ele>553.8</ele>
        <time>2021-04-03T10:18:18Z</time>
      </trkpt>
      <trkpt lat="47.31213" lon="6.04938">
        <ele>553.6</ele>
        <time>2021-04-03T10:18:19Z</time>
      </trkpt>
      <trkpt lat="47.31215" lon="6.04946">
        <ele>553.4</ele>
        <time>2021-04-03T10:18:20Z</time>
      </trkpt>
      <trkpt lat="47.31216" lon="6.04952">
        <ele>553.4</ele>
        <time>2021-04-03T10:18:21Z</time>
      </trkpt>
      <trkpt lat="47.31218" lon="6.04959">
        <ele>553.4</ele>
        <time>2021-04-03T10:18:22Z</time>
      </trkpt>
      <trkpt lat="47.3122" lon="6.04965">
        <ele>553.4</ele>
        <time>2021-04-03T10:18:23Z</time>
      </trkpt>
      <trkpt lat="47.31221" lon="6.04971">
        <ele>553.4</ele>
        <time>2021-04-03T10:18:24Z</time>
      </trkpt>
      <trkpt lat="47.31223" lon="6.04977">
        <ele>553.4</ele>
        <time>2021-04-03T10:18:25Z</time>
      </trkpt>
      <trkpt lat="47.31224" lon="6.04981">
        <ele>553.8</ele>
        <time>2021-04-03T10:18:26Z</time>
      </trkpt>
      <trkpt lat="47.31226" lon="6.04986">
        <ele>554.2</ele>
        <time>2021-04-03T10:18:27Z</time>
      </trkpt>
      <trkpt lat="47.31228" lon="6.04991">
        <ele>554.4</ele>
        <time>2021-04-03T10:18:28Z</time>
      </trkpt>
      <trkpt lat="47.31229" lon="6.04994">
        <ele>554.4</ele>
        <time>2021-04-03T10:18:29Z</time>
      </trkpt>
      <trkpt lat="47.3123" lon="6.04997">
        <ele>554.6</ele>
        <time>2021-04-03T10:18:30Z</time>
      </trkpt>
      <trkpt lat="47.3123" lon="6.04999">
        <ele>554.6</ele>
        <time>2021-04-03T10:18:31Z</time>
      </trkpt>
      <trkpt lat="47.31231" lon="6.05002">
        <ele>554.8</ele>
        <time>2021-04-03T10:18:32Z</time>
      </trkpt>
      <trkpt lat="47.31231" lon="6.05004">
        <ele>555</ele>
        <time>2021-04-03T10:18:33Z</time>
      </trkpt>
      <trkpt lat="47.31231" lon="6.05005">
        <ele>555</ele>
        <time>2021-04-03T10:18:34Z</time>
      </trkpt>
      <trkpt lat="47.31231" lon="6.05007">
        <ele>555.2</ele>
        <time>2021-04-03T10:18:35Z</time>
      </trkpt>
      <trkpt lat="47.31233" lon="6.05014">
        <ele>555.6</ele>
        <time>2021-04-03T10:18:38Z</time>
      </trkpt>
      <trkpt lat="47.31234" lon="6.05017">
        <ele>555.6</ele>
        <time>2021-04-03T10:18:39Z</time>
      </trkpt>
      <trkpt lat="47.31235" lon="6.05019">
        <ele>555.8</ele>
        <time>2021-04-03T10:18:40Z</time>
      </trkpt>
      <trkpt lat="47.31236" lon="6.05021">
        <ele>556</ele>
        <time>2021-04-03T10:18:41Z</time>
      </trkpt>
      <trkpt lat="47.31236" lon="6.05023">
        <ele>556.2</ele>
        <time>2021-04-03T10:18:42Z</time>
      </trkpt>
      <trkpt lat="47.31238" lon="6.05027">
        <ele>556.4</ele>
        <time>2021-04-03T10:18:43Z</time>
      </trkpt>
      <trkpt lat="47.31241" lon="6.05033">
        <ele>556.6</ele>
        <time>2021-04-03T10:18:45Z</time>
      </trkpt>
      <trkpt lat="47.31246" lon="6.05047">
        <ele>557</ele>
        <time>2021-04-03T10:18:49Z</time>
      </trkpt>
      <trkpt lat="47.31253" lon="6.05065">
        <ele>557.6</ele>
        <time>2021-04-03T10:18:54Z</time>
      </trkpt>
      <trkpt lat="47.31258" lon="6.05076">
        <ele>557.8</ele>
        <time>2021-04-03T10:18:57Z</time>
      </trkpt>
      <trkpt lat="47.31261" lon="6.0508">
        <ele>558</ele>
        <time>2021-04-03T10:18:58Z</time>
      </trkpt>
      <trkpt lat="47.31263" lon="6.05084">
        <ele>558.2</ele>
        <time>2021-04-03T10:18:59Z</time>
      </trkpt>
      <trkpt lat="47.31264" lon="6.05087">
        <ele>558.2</ele>
        <time>2021-04-03T10:19:00Z</time>
      </trkpt>
      <trkpt lat="47.31265" lon="6.0509">
        <ele>558.6</ele>
        <time>2021-04-03T10:19:01Z</time>
      </trkpt>
      <trkpt lat="47.31265" lon="6.05093">
        <ele>558.6</ele>
        <time>2021-04-03T10:19:02Z</time>
      </trkpt>
      <trkpt lat="47.31267" lon="6.05097">
        <ele>558.6</ele>
        <time>2021-04-03T10:19:03Z</time>
      </trkpt>
      <trkpt lat="47.31268" lon="6.05101">
        <ele>558.8</ele>
        <time>2021-04-03T10:19:04Z</time>
      </trkpt>
      <trkpt lat="47.31269" lon="6.05104">
        <ele>558.8</ele>
        <time>2021-04-03T10:19:05Z</time>
      </trkpt>
      <trkpt lat="47.3127" lon="6.05107">
        <ele>558.6</ele>
        <time>2021-04-03T10:19:06Z</time>
      </trkpt>
      <trkpt lat="47.31272" lon="6.05111">
        <ele>558.6</ele>
        <time>2021-04-03T10:19:07Z</time>
      </trkpt>
      <trkpt lat="47.31274" lon="6.05114">
        <ele>558.6</ele>
        <time>2021-04-03T10:19:08Z</time>
      </trkpt>
      <trkpt lat="47.31275" lon="6.05118">
        <ele>558.6</ele>
        <time>2021-04-03T10:19:09Z</time>
      </trkpt>
      <trkpt lat="47.31276" lon="6.05121">
        <ele>558.8</ele>
        <time>2021-04-03T10:19:10Z</time>
      </trkpt>
      <trkpt lat="47.31278" lon="6.05124">
        <ele>558.8</ele>
        <time>2021-04-03T10:19:11Z</time>
      </trkpt>
      <trkpt lat="47.31281" lon="6.05133">
        <ele>559</ele>
        <time>2021-04-03T10:19:14Z</time>
      </trkpt>
      <trkpt lat="47.31282" lon="6.05135">
        <ele>559.2</ele>
        <time>2021-04-03T10:19:15Z</time>
      </trkpt>
      <trkpt lat="47.31291" lon="6.05157">
        <ele>560.2</ele>
        <time>2021-04-03T10:19:23Z</time>
      </trkpt>
      <trkpt lat="47.31293" lon="6.0516">
        <ele>560.4</ele>
        <time>2021-04-03T10:19:24Z</time>
      </trkpt>
      <trkpt lat="47.31295" lon="6.05164">
        <ele>560.6</ele>
        <time>2021-04-03T10:19:26Z</time>
      </trkpt>
      <trkpt lat="47.31296" lon="6.05167">
        <ele>560.6</ele>
        <time>2021-04-03T10:19:27Z</time>
      </trkpt>
      <trkpt lat="47.31301" lon="6.05171">
        <ele>560.8</ele>
        <time>2021-04-03T10:19:29Z</time>
      </trkpt>
      <trkpt lat="47.31302" lon="6.05172">
        <ele>560.8</ele>
        <time>2021-04-03T10:19:30Z</time>
      </trkpt>
      <trkpt lat="47.31303" lon="6.05175">
        <ele>560.8</ele>
        <time>2021-04-03T10:19:31Z</time>
      </trkpt>
      <trkpt lat="47.31305" lon="6.05177">
        <ele>561.2</ele>
        <time>2021-04-03T10:19:32Z</time>
      </trkpt>
      <trkpt lat="47.31306" lon="6.05179">
        <ele>561.4</ele>
        <time>2021-04-03T10:19:33Z</time>
      </trkpt>
      <trkpt lat="47.31309" lon="6.05184">
        <ele>561.6</ele>
        <time>2021-04-03T10:19:35Z</time>
      </trkpt>
      <trkpt lat="47.3131" lon="6.05186">
        <ele>561.6</ele>
        <time>2021-04-03T10:19:36Z</time>
      </trkpt>
      <trkpt lat="47.31312" lon="6.05189">
        <ele>561.8</ele>
        <time>2021-04-03T10:19:37Z</time>
      </trkpt>
      <trkpt lat="47.31313" lon="6.05192">
        <ele>562</ele>
        <time>2021-04-03T10:19:38Z</time>
      </trkpt>
      <trkpt lat="47.31314" lon="6.05194">
        <ele>562.2</ele>
        <time>2021-04-03T10:19:39Z</time>
      </trkpt>
      <trkpt lat="47.31315" lon="6.05196">
        <ele>562.4</ele>
        <time>2021-04-03T10:19:40Z</time>
      </trkpt>
      <trkpt lat="47.31317" lon="6.05199">
        <ele>562.4</ele>
        <time>2021-04-03T10:19:41Z</time>
      </trkpt>
      <trkpt lat="47.31319" lon="6.05202">
        <ele>562.8</ele>
        <time>2021-04-03T10:19:42Z</time>
      </trkpt>
      <trkpt lat="47.3132" lon="6.05204">
        <ele>563.2</ele>
        <time>2021-04-03T10:19:43Z</time>
      </trkpt>
      <trkpt lat="47.31321" lon="6.05206">
        <ele>563.4</ele>
        <time>2021-04-03T10:19:44Z</time>
      </trkpt>
      <trkpt lat="47.31323" lon="6.05208">
        <ele>563.4</ele>
        <time>2021-04-03T10:19:45Z</time>
      </trkpt>
      <trkpt lat="47.31325" lon="6.05211">
        <ele>563.6</ele>
        <time>2021-04-03T10:19:46Z</time>
      </trkpt>
      <trkpt lat="47.31327" lon="6.05214">
        <ele>564</ele>
        <time>2021-04-03T10:19:47Z</time>
      </trkpt>
      <trkpt lat="47.31329" lon="6.05217">
        <ele>564.4</ele>
        <time>2021-04-03T10:19:48Z</time>
      </trkpt>
      <trkpt lat="47.3133" lon="6.05219">
        <ele>564.6</ele>
        <time>2021-04-03T10:19:49Z</time>
      </trkpt>
      <trkpt lat="47.31331" lon="6.05221">
        <ele>564.6</ele>
        <time>2021-04-03T10:19:50Z</time>
      </trkpt>
      <trkpt lat="47.31333" lon="6.05224">
        <ele>564.8</ele>
        <time>2021-04-03T10:19:51Z</time>
      </trkpt>
      <trkpt lat="47.31335" lon="6.05227">
        <ele>564.8</ele>
        <time>2021-04-03T10:19:52Z</time>
      </trkpt>
      <trkpt lat="47.31337" lon="6.0523">
        <ele>565</ele>
        <time>2021-04-03T10:19:53Z</time>
      </trkpt>
      <trkpt lat="47.31338" lon="6.05233">
        <ele>565</ele>
        <time>2021-04-03T10:19:54Z</time>
      </trkpt>
      <trkpt lat="47.31341" lon="6.05236">
        <ele>565</ele>
        <time>2021-04-03T10:19:55Z</time>
      </trkpt>
      <trkpt lat="47.31343" lon="6.05239">
        <ele>565</ele>
        <time>2021-04-03T10:19:56Z</time>
      </trkpt>
      <trkpt lat="47.31344" lon="6.05241">
        <ele>565</ele>
        <time>2021-04-03T10:19:57Z</time>
      </trkpt>
      <trkpt lat="47.31346" lon="6.05244">
        <ele>565</ele>
        <time>2021-04-03T10:19:58Z</time>
      </trkpt>
      <trkpt lat="47.31347" lon="6.05246">
        <ele>565</ele>
        <time>2021-04-03T10:19:59Z</time>
      </trkpt>
      <trkpt lat="47.31348" lon="6.05248">
        <ele>565</ele>
        <time>2021-04-03T10:20:00Z</time>
      </trkpt>
      <trkpt lat="47.3135" lon="6.05251">
        <ele>565.2</ele>
        <time>2021-04-03T10:20:01Z</time>
      </trkpt>
      <trkpt lat="47.31351" lon="6.05253">
        <ele>565.2</ele>
        <time>2021-04-03T10:20:02Z</time>
      </trkpt>
      <trkpt lat="47.31352" lon="6.05255">
        <ele>565.4</ele>
        <time>2021-04-03T10:20:03Z</time>
      </trkpt>
      <trkpt lat="47.31353" lon="6.05256">
        <ele>565.6</ele>
        <time>2021-04-03T10:20:04Z</time>
      </trkpt>
      <trkpt lat="47.31354" lon="6.05258">
        <ele>565.6</ele>
        <time>2021-04-03T10:20:05Z</time>
      </trkpt>
      <trkpt lat="47.31357" lon="6.0526">
        <ele>565.8</ele>
        <time>2021-04-03T10:20:06Z</time>
      </trkpt>
      <trkpt lat="47.31358" lon="6.05262">
        <ele>566</ele>
        <time>2021-04-03T10:20:07Z</time>
      </trkpt>
      <trkpt lat="47.3136" lon="6.05264">
        <ele>566</ele>
        <time>2021-04-03T10:20:08Z</time>
      </trkpt>
      <trkpt lat="47.31361" lon="6.05266">
        <ele>566</ele>
        <time>2021-04-03T10:20:09Z</time>
      </trkpt>
      <trkpt lat="47.31362" lon="6.05269">
        <ele>566.2</ele>
        <time>2021-04-03T10:20:10Z</time>
      </trkpt>
      <trkpt lat="47.31364" lon="6.05271">
        <ele>566.2</ele>
        <time>2021-04-03T10:20:11Z</time>
      </trkpt>
      <trkpt lat="47.31366" lon="6.05274">
        <ele>566.2</ele>
        <time>2021-04-03T10:20:12Z</time>
      </trkpt>
      <trkpt lat="47.31368" lon="6.05276">
        <ele>566.2</ele>
        <time>2021-04-03T10:20:13Z</time>
      </trkpt>
      <trkpt lat="47.3137" lon="6.05278">
        <ele>566.2</ele>
        <time>2021-04-03T10:20:14Z</time>
      </trkpt>
      <trkpt lat="47.31371" lon="6.05281">
        <ele>566.4</ele>
        <time>2021-04-03T10:20:15Z</time>
      </trkpt>
      <trkpt lat="47.31378" lon="6.05288">
        <ele>566.6</ele>
        <time>2021-04-03T10:20:18Z</time>
      </trkpt>
      <trkpt lat="47.31387" lon="6.05301">
        <ele>567</ele>
        <time>2021-04-03T10:20:23Z</time>
      </trkpt>
      <trkpt lat="47.31389" lon="6.05305">
        <ele>567.2</ele>
        <time>2021-04-03T10:20:24Z</time>
      </trkpt>
      <trkpt lat="47.31392" lon="6.0531">
        <ele>567.6</ele>
        <time>2021-04-03T10:20:26Z</time>
      </trkpt>
      <trkpt lat="47.31393" lon="6.05311">
        <ele>567.8</ele>
        <time>2021-04-03T10:20:27Z</time>
      </trkpt>
      <trkpt lat="47.31393" lon="6.05313">
        <ele>567.8</ele>
        <time>2021-04-03T10:20:28Z</time>
      </trkpt>
      <trkpt lat="47.31394" lon="6.05315">
        <ele>568</ele>
        <time>2021-04-03T10:20:29Z</time>
      </trkpt>
      <trkpt lat="47.314" lon="6.05323">
        <ele>568.4</ele>
        <time>2021-04-03T10:20:32Z</time>
      </trkpt>
      <trkpt lat="47.31403" lon="6.05326">
        <ele>569</ele>
        <time>2021-04-03T10:20:33Z</time>
      </trkpt>
      <trkpt lat="47.31405" lon="6.05329">
        <ele>569</ele>
        <time>2021-04-03T10:20:34Z</time>
      </trkpt>
      <trkpt lat="47.31406" lon="6.05331">
        <ele>569.2</ele>
        <time>2021-04-03T10:20:35Z</time>
      </trkpt>
      <trkpt lat="47.31408" lon="6.05333">
        <ele>569.2</ele>
        <time>2021-04-03T10:20:36Z</time>
      </trkpt>
      <trkpt lat="47.31409" lon="6.05335">
        <ele>569.4</ele>
        <time>2021-04-03T10:20:37Z</time>
      </trkpt>
      <trkpt lat="47.31412" lon="6.05337">
        <ele>569.6</ele>
        <time>2021-04-03T10:20:38Z</time>
      </trkpt>
      <trkpt lat="47.31415" lon="6.0534">
        <ele>569.8</ele>
        <time>2021-04-03T10:20:39Z</time>
      </trkpt>
      <trkpt lat="47.31417" lon="6.05343">
        <ele>569.8</ele>
        <time>2021-04-03T10:20:40Z</time>
      </trkpt>
      <trkpt lat="47.31419" lon="6.05346">
        <ele>570</ele>
        <time>2021-04-03T10:20:41Z</time>
      </trkpt>
      <trkpt lat="47.31419" lon="6.05349">
        <ele>570.2</ele>
        <time>2021-04-03T10:20:42Z</time>
      </trkpt>
      <trkpt lat="47.3142" lon="6.05351">
        <ele>570.2</ele>
        <time>2021-04-03T10:20:43Z</time>
      </trkpt>
      <trkpt lat="47.31421" lon="6.05353">
        <ele>570.4</ele>
        <time>2021-04-03T10:20:44Z</time>
      </trkpt>
      <trkpt lat="47.31421" lon="6.05355">
        <ele>570.4</ele>
        <time>2021-04-03T10:20:45Z</time>
      </trkpt>
      <trkpt lat="47.31421" lon="6.05356">
        <ele>570.8</ele>
        <time>2021-04-03T10:20:46Z</time>
      </trkpt>
      <trkpt lat="47.31422" lon="6.05358">
        <ele>571</ele>
        <time>2021-04-03T10:20:47Z</time>
      </trkpt>
      <trkpt lat="47.31423" lon="6.05359">
        <ele>571.2</ele>
        <time>2021-04-03T10:20:48Z</time>
      </trkpt>
      <trkpt lat="47.31424" lon="6.05361">
        <ele>571.2</ele>
        <time>2021-04-03T10:20:49Z</time>
      </trkpt>
      <trkpt lat="47.31426" lon="6.05363">
        <ele>571.4</ele>
        <time>2021-04-03T10:20:50Z</time>
      </trkpt>
      <trkpt lat="47.31427" lon="6.05364">
        <ele>571.6</ele>
        <time>2021-04-03T10:20:51Z</time>
      </trkpt>
      <trkpt lat="47.31428" lon="6.05365">
        <ele>571.6</ele>
        <time>2021-04-03T10:20:52Z</time>
      </trkpt>
      <trkpt lat="47.31429" lon="6.05367">
        <ele>571.8</ele>
        <time>2021-04-03T10:20:53Z</time>
      </trkpt>
      <trkpt lat="47.3143" lon="6.05369">
        <ele>572.2</ele>
        <time>2021-04-03T10:20:54Z</time>
      </trkpt>
      <trkpt lat="47.31432" lon="6.05371">
        <ele>572.6</ele>
        <time>2021-04-03T10:20:55Z</time>
      </trkpt>
      <trkpt lat="47.31433" lon="6.05372">
        <ele>572.8</ele>
        <time>2021-04-03T10:20:56Z</time>
      </trkpt>
      <trkpt lat="47.31435" lon="6.05373">
        <ele>573</ele>
        <time>2021-04-03T10:20:57Z</time>
      </trkpt>
      <trkpt lat="47.31436" lon="6.05375">
        <ele>573</ele>
        <time>2021-04-03T10:20:58Z</time>
      </trkpt>
      <trkpt lat="47.31437" lon="6.05377">
        <ele>573.2</ele>
        <time>2021-04-03T10:20:59Z</time>
      </trkpt>
      <trkpt lat="47.31438" lon="6.05378">
        <ele>573.2</ele>
        <time>2021-04-03T10:21:00Z</time>
      </trkpt>
      <trkpt lat="47.3144" lon="6.05379">
        <ele>573.6</ele>
        <time>2021-04-03T10:21:01Z</time>
      </trkpt>
      <trkpt lat="47.31441" lon="6.0538">
        <ele>573.6</ele>
        <time>2021-04-03T10:21:02Z</time>
      </trkpt>
      <trkpt lat="47.31443" lon="6.05381">
        <ele>573.6</ele>
        <time>2021-04-03T10:21:03Z</time>
      </trkpt>
      <trkpt lat="47.31444" lon="6.05383">
        <ele>573.8</ele>
        <time>2021-04-03T10:21:04Z</time>
      </trkpt>
      <trkpt lat="47.31447" lon="6.05385">
        <ele>573.8</ele>
        <time>2021-04-03T10:21:05Z</time>
      </trkpt>
      <trkpt lat="47.31449" lon="6.05387">
        <ele>573.8</ele>
        <time>2021-04-03T10:21:06Z</time>
      </trkpt>
      <trkpt lat="47.3145" lon="6.05389">
        <ele>573.8</ele>
        <time>2021-04-03T10:21:07Z</time>
      </trkpt>
      <trkpt lat="47.31451" lon="6.0539">
        <ele>573.8</ele>
        <time>2021-04-03T10:21:08Z</time>
      </trkpt>
      <trkpt lat="47.31452" lon="6.05392">
        <ele>573.8</ele>
        <time>2021-04-03T10:21:09Z</time>
      </trkpt>
      <trkpt lat="47.31453" lon="6.05394">
        <ele>573.8</ele>
        <time>2021-04-03T10:21:10Z</time>
      </trkpt>
      <trkpt lat="47.31455" lon="6.05396">
        <ele>574</ele>
        <time>2021-04-03T10:21:11Z</time>
      </trkpt>
      <trkpt lat="47.31456" lon="6.05397">
        <ele>574</ele>
        <time>2021-04-03T10:21:12Z</time>
      </trkpt>
      <trkpt lat="47.31458" lon="6.05399">
        <ele>574.2</ele>
        <time>2021-04-03T10:21:13Z</time>
      </trkpt>
      <trkpt lat="47.3146" lon="6.05401">
        <ele>574.4</ele>
        <time>2021-04-03T10:21:14Z</time>
      </trkpt>
      <trkpt lat="47.31462" lon="6.05403">
        <ele>575</ele>
        <time>2021-04-03T10:21:15Z</time>
      </trkpt>
      <trkpt lat="47.31462" lon="6.05405">
        <ele>575.2</ele>
        <time>2021-04-03T10:21:16Z</time>
      </trkpt>
      <trkpt lat="47.31463" lon="6.05406">
        <ele>575.6</ele>
        <time>2021-04-03T10:21:17Z</time>
      </trkpt>
      <trkpt lat="47.31464" lon="6.05408">
        <ele>575.8</ele>
        <time>2021-04-03T10:21:18Z</time>
      </trkpt>
      <trkpt lat="47.31465" lon="6.0541">
        <ele>576</ele>
        <time>2021-04-03T10:21:19Z</time>
      </trkpt>
      <trkpt lat="47.31465" lon="6.05411">
        <ele>576.2</ele>
        <time>2021-04-03T10:21:20Z</time>
      </trkpt>
      <trkpt lat="47.31467" lon="6.05414">
        <ele>576.4</ele>
        <time>2021-04-03T10:21:21Z</time>
      </trkpt>
      <trkpt lat="47.31469" lon="6.05417">
        <ele>576.6</ele>
        <time>2021-04-03T10:21:22Z</time>
      </trkpt>
      <trkpt lat="47.3147" lon="6.05419">
        <ele>576.8</ele>
        <time>2021-04-03T10:21:23Z</time>
      </trkpt>
      <trkpt lat="47.31473" lon="6.05421">
        <ele>577</ele>
        <time>2021-04-03T10:21:24Z</time>
      </trkpt>
      <trkpt lat="47.31475" lon="6.05422">
        <ele>577</ele>
        <time>2021-04-03T10:21:25Z</time>
      </trkpt>
      <trkpt lat="47.31477" lon="6.05423">
        <ele>577</ele>
        <time>2021-04-03T10:21:26Z</time>
      </trkpt>
      <trkpt lat="47.31478" lon="6.05425">
        <ele>577.2</ele>
        <time>2021-04-03T10:21:27Z</time>
      </trkpt>
      <trkpt lat="47.3148" lon="6.05426">
        <ele>577.2</ele>
        <time>2021-04-03T10:21:28Z</time>
      </trkpt>
      <trkpt lat="47.31481" lon="6.0543">
        <ele>577.2</ele>
        <time>2021-04-03T10:21:29Z</time>
      </trkpt>
      <trkpt lat="47.31482" lon="6.05432">
        <ele>577.2</ele>
        <time>2021-04-03T10:21:30Z</time>
      </trkpt>
      <trkpt lat="47.31484" lon="6.05434">
        <ele>577.4</ele>
        <time>2021-04-03T10:21:31Z</time>
      </trkpt>
      <trkpt lat="47.31485" lon="6.05435">
        <ele>577.4</ele>
        <time>2021-04-03T10:21:32Z</time>
      </trkpt>
      <trkpt lat="47.31487" lon="6.05438">
        <ele>577.4</ele>
        <time>2021-04-03T10:21:33Z</time>
      </trkpt>
      <trkpt lat="47.31489" lon="6.05439">
        <ele>577.8</ele>
        <time>2021-04-03T10:21:34Z</time>
      </trkpt>
      <trkpt lat="47.3149" lon="6.05441">
        <ele>578.2</ele>
        <time>2021-04-03T10:21:35Z</time>
      </trkpt>
      <trkpt lat="47.31491" lon="6.05442">
        <ele>578.4</ele>
        <time>2021-04-03T10:21:36Z</time>
      </trkpt>
      <trkpt lat="47.31491" lon="6.05444">
        <ele>578.8</ele>
        <time>2021-04-03T10:21:37Z</time>
      </trkpt>
      <trkpt lat="47.31492" lon="6.05446">
        <ele>579</ele>
        <time>2021-04-03T10:21:38Z</time>
      </trkpt>
      <trkpt lat="47.31493" lon="6.05448">
        <ele>579.2</ele>
        <time>2021-04-03T10:21:39Z</time>
      </trkpt>
      <trkpt lat="47.31494" lon="6.0545">
        <ele>579.2</ele>
        <time>2021-04-03T10:21:40Z</time>
      </trkpt>
      <trkpt lat="47.31495" lon="6.05451">
        <ele>579.4</ele>
        <time>2021-04-03T10:21:41Z</time>
      </trkpt>
      <trkpt lat="47.31496" lon="6.05452">
        <ele>579.4</ele>
        <time>2021-04-03T10:21:42Z</time>
      </trkpt>
      <trkpt lat="47.31498" lon="6.05454">
        <ele>579.4</ele>
        <time>2021-04-03T10:21:43Z</time>
      </trkpt>
      <trkpt lat="47.31499" lon="6.05455">
        <ele>579.4</ele>
        <time>2021-04-03T10:21:44Z</time>
      </trkpt>
      <trkpt lat="47.315" lon="6.05457">
        <ele>579.6</ele>
        <time>2021-04-03T10:21:45Z</time>
      </trkpt>
      <trkpt lat="47.31501" lon="6.05458">
        <ele>579.8</ele>
        <time>2021-04-03T10:21:46Z</time>
      </trkpt>
      <trkpt lat="47.31502" lon="6.0546">
        <ele>579.8</ele>
        <time>2021-04-03T10:21:47Z</time>
      </trkpt>
      <trkpt lat="47.31504" lon="6.05462">
        <ele>580</ele>
        <time>2021-04-03T10:21:48Z</time>
      </trkpt>
      <trkpt lat="47.31505" lon="6.05464">
        <ele>580</ele>
        <time>2021-04-03T10:21:49Z</time>
      </trkpt>
      <trkpt lat="47.31506" lon="6.05465">
        <ele>580.2</ele>
        <time>2021-04-03T10:21:50Z</time>
      </trkpt>
      <trkpt lat="47.31507" lon="6.05466">
        <ele>580.2</ele>
        <time>2021-04-03T10:21:51Z</time>
      </trkpt>
      <trkpt lat="47.31508" lon="6.05469">
        <ele>580.4</ele>
        <time>2021-04-03T10:21:52Z</time>
      </trkpt>
      <trkpt lat="47.3151" lon="6.05471">
        <ele>580.4</ele>
        <time>2021-04-03T10:21:53Z</time>
      </trkpt>
      <trkpt lat="47.31511" lon="6.05473">
        <ele>580.6</ele>
        <time>2021-04-03T10:21:54Z</time>
      </trkpt>
      <trkpt lat="47.31512" lon="6.05474">
        <ele>581</ele>
        <time>2021-04-03T10:21:55Z</time>
      </trkpt>
      <trkpt lat="47.31513" lon="6.05477">
        <ele>581.2</ele>
        <time>2021-04-03T10:21:56Z</time>
      </trkpt>
      <trkpt lat="47.31514" lon="6.05479">
        <ele>581.4</ele>
        <time>2021-04-03T10:21:57Z</time>
      </trkpt>
      <trkpt lat="47.31516" lon="6.05481">
        <ele>581.4</ele>
        <time>2021-04-03T10:21:58Z</time>
      </trkpt>
      <trkpt lat="47.31517" lon="6.05483">
        <ele>581.8</ele>
        <time>2021-04-03T10:21:59Z</time>
      </trkpt>
      <trkpt lat="47.31518" lon="6.05485">
        <ele>581.8</ele>
        <time>2021-04-03T10:22:00Z</time>
      </trkpt>
      <trkpt lat="47.31519" lon="6.05486">
        <ele>581.8</ele>
        <time>2021-04-03T10:22:01Z</time>
      </trkpt>
      <trkpt lat="47.31521" lon="6.05488">
        <ele>581.8</ele>
        <time>2021-04-03T10:22:02Z</time>
      </trkpt>
      <trkpt lat="47.31523" lon="6.05491">
        <ele>582.2</ele>
        <time>2021-04-03T10:22:03Z</time>
      </trkpt>
      <trkpt lat="47.31525" lon="6.05493">
        <ele>582.4</ele>
        <time>2021-04-03T10:22:04Z</time>
      </trkpt>
      <trkpt lat="47.31526" lon="6.05495">
        <ele>582.4</ele>
        <time>2021-04-03T10:22:05Z</time>
      </trkpt>
      <trkpt lat="47.31527" lon="6.05497">
        <ele>582.6</ele>
        <time>2021-04-03T10:22:06Z</time>
      </trkpt>
      <trkpt lat="47.31528" lon="6.05499">
        <ele>582.8</ele>
        <time>2021-04-03T10:22:07Z</time>
      </trkpt>
      <trkpt lat="47.3153" lon="6.05501">
        <ele>582.8</ele>
        <time>2021-04-03T10:22:08Z</time>
      </trkpt>
      <trkpt lat="47.31531" lon="6.05503">
        <ele>583</ele>
        <time>2021-04-03T10:22:09Z</time>
      </trkpt>
      <trkpt lat="47.31533" lon="6.05505">
        <ele>583.2</ele>
        <time>2021-04-03T10:22:10Z</time>
      </trkpt>
      <trkpt lat="47.31535" lon="6.05507">
        <ele>583.2</ele>
        <time>2021-04-03T10:22:11Z</time>
      </trkpt>
      <trkpt lat="47.31536" lon="6.05509">
        <ele>583.4</ele>
        <time>2021-04-03T10:22:12Z</time>
      </trkpt>
      <trkpt lat="47.31537" lon="6.0551">
        <ele>583.6</ele>
        <time>2021-04-03T10:22:13Z</time>
      </trkpt>
      <trkpt lat="47.31538" lon="6.05511">
        <ele>583.6</ele>
        <time>2021-04-03T10:22:14Z</time>
      </trkpt>
      <trkpt lat="47.3154" lon="6.05513">
        <ele>583.8</ele>
        <time>2021-04-03T10:22:15Z</time>
      </trkpt>
      <trkpt lat="47.3154" lon="6.05516">
        <ele>584</ele>
        <time>2021-04-03T10:22:16Z</time>
      </trkpt>
      <trkpt lat="47.31541" lon="6.05517">
        <ele>584</ele>
        <time>2021-04-03T10:22:17Z</time>
      </trkpt>
      <trkpt lat="47.31541" lon="6.05519">
        <ele>584</ele>
        <time>2021-04-03T10:22:18Z</time>
      </trkpt>
      <trkpt lat="47.31542" lon="6.05521">
        <ele>584.2</ele>
        <time>2021-04-03T10:22:19Z</time>
      </trkpt>
      <trkpt lat="47.31544" lon="6.05522">
        <ele>584.2</ele>
        <time>2021-04-03T10:22:20Z</time>
      </trkpt>
      <trkpt lat="47.31545" lon="6.05524">
        <ele>584.4</ele>
        <time>2021-04-03T10:22:21Z</time>
      </trkpt>
      <trkpt lat="47.31546" lon="6.05525">
        <ele>584.4</ele>
        <time>2021-04-03T10:22:22Z</time>
      </trkpt>
      <trkpt lat="47.31547" lon="6.05526">
        <ele>584.6</ele>
        <time>2021-04-03T10:22:23Z</time>
      </trkpt>
      <trkpt lat="47.31548" lon="6.05527">
        <ele>584.6</ele>
        <time>2021-04-03T10:22:24Z</time>
      </trkpt>
      <trkpt lat="47.3155" lon="6.05528">
        <ele>584.8</ele>
        <time>2021-04-03T10:22:25Z</time>
      </trkpt>
      <trkpt lat="47.31551" lon="6.0553">
        <ele>585</ele>
        <time>2021-04-03T10:22:26Z</time>
      </trkpt>
      <trkpt lat="47.31552" lon="6.05531">
        <ele>585</ele>
        <time>2021-04-03T10:22:27Z</time>
      </trkpt>
      <trkpt lat="47.31554" lon="6.05532">
        <ele>585</ele>
        <time>2021-04-03T10:22:28Z</time>
      </trkpt>
      <trkpt lat="47.31555" lon="6.05533">
        <ele>585.2</ele>
        <time>2021-04-03T10:22:29Z</time>
      </trkpt>
      <trkpt lat="47.31557" lon="6.05535">
        <ele>585.4</ele>
        <time>2021-04-03T10:22:30Z</time>
      </trkpt>
      <trkpt lat="47.31559" lon="6.05536">
        <ele>585.6</ele>
        <time>2021-04-03T10:22:31Z</time>
      </trkpt>
      <trkpt lat="47.3156" lon="6.05537">
        <ele>585.8</ele>
        <time>2021-04-03T10:22:32Z</time>
      </trkpt>
      <trkpt lat="47.31562" lon="6.05538">
        <ele>586</ele>
        <time>2021-04-03T10:22:33Z</time>
      </trkpt>
      <trkpt lat="47.31563" lon="6.0554">
        <ele>586.2</ele>
        <time>2021-04-03T10:22:34Z</time>
      </trkpt>
      <trkpt lat="47.31565" lon="6.05541">
        <ele>586.4</ele>
        <time>2021-04-03T10:22:35Z</time>
      </trkpt>
      <trkpt lat="47.31567" lon="6.05543">
        <ele>586.6</ele>
        <time>2021-04-03T10:22:36Z</time>
      </trkpt>
      <trkpt lat="47.31568" lon="6.05544">
        <ele>586.8</ele>
        <time>2021-04-03T10:22:37Z</time>
      </trkpt>
      <trkpt lat="47.31569" lon="6.05545">
        <ele>587</ele>
        <time>2021-04-03T10:22:38Z</time>
      </trkpt>
      <trkpt lat="47.3157" lon="6.05546">
        <ele>587.2</ele>
        <time>2021-04-03T10:22:39Z</time>
      </trkpt>
      <trkpt lat="47.31571" lon="6.05547">
        <ele>587.4</ele>
        <time>2021-04-03T10:22:40Z</time>
      </trkpt>
      <trkpt lat="47.31573" lon="6.05548">
        <ele>587.6</ele>
        <time>2021-04-03T10:22:41Z</time>
      </trkpt>
      <trkpt lat="47.31575" lon="6.05549">
        <ele>587.6</ele>
        <time>2021-04-03T10:22:42Z</time>
      </trkpt>
      <trkpt lat="47.31576" lon="6.0555">
        <ele>587.8</ele>
        <time>2021-04-03T10:22:43Z</time>
      </trkpt>
      <trkpt lat="47.31578" lon="6.05552">
        <ele>588</ele>
        <time>2021-04-03T10:22:44Z</time>
      </trkpt>
      <trkpt lat="47.31581" lon="6.05553">
        <ele>588.2</ele>
        <time>2021-04-03T10:22:45Z</time>
      </trkpt>
      <trkpt lat="47.31582" lon="6.05554">
        <ele>588.6</ele>
        <time>2021-04-03T10:22:46Z</time>
      </trkpt>
      <trkpt lat="47.31584" lon="6.05555">
        <ele>588.6</ele>
        <time>2021-04-03T10:22:47Z</time>
      </trkpt>
      <trkpt lat="47.31586" lon="6.05556">
        <ele>588.8</ele>
        <time>2021-04-03T10:22:48Z</time>
      </trkpt>
      <trkpt lat="47.31588" lon="6.05557">
        <ele>588.8</ele>
        <time>2021-04-03T10:22:49Z</time>
      </trkpt>
      <trkpt lat="47.3159" lon="6.05558">
        <ele>588.8</ele>
        <time>2021-04-03T10:22:50Z</time>
      </trkpt>
      <trkpt lat="47.31592" lon="6.0556">
        <ele>589</ele>
        <time>2021-04-03T10:22:51Z</time>
      </trkpt>
      <trkpt lat="47.31594" lon="6.05562">
        <ele>589.2</ele>
        <time>2021-04-03T10:22:52Z</time>
      </trkpt>
      <trkpt lat="47.31596" lon="6.05564">
        <ele>589.2</ele>
        <time>2021-04-03T10:22:53Z</time>
      </trkpt>
      <trkpt lat="47.31598" lon="6.05565">
        <ele>589.6</ele>
        <time>2021-04-03T10:22:54Z</time>
      </trkpt>
      <trkpt lat="47.31601" lon="6.05567">
        <ele>589.6</ele>
        <time>2021-04-03T10:22:55Z</time>
      </trkpt>
      <trkpt lat="47.31603" lon="6.0557">
        <ele>589.8</ele>
        <time>2021-04-03T10:22:56Z</time>
      </trkpt>
      <trkpt lat="47.31605" lon="6.05572">
        <ele>589.6</ele>
        <time>2021-04-03T10:22:57Z</time>
      </trkpt>
      <trkpt lat="47.31606" lon="6.05573">
        <ele>589.8</ele>
        <time>2021-04-03T10:22:58Z</time>
      </trkpt>
      <trkpt lat="47.31608" lon="6.05576">
        <ele>589.8</ele>
        <time>2021-04-03T10:22:59Z</time>
      </trkpt>
      <trkpt lat="47.3161" lon="6.05578">
        <ele>589.8</ele>
        <time>2021-04-03T10:23:00Z</time>
      </trkpt>
      <trkpt lat="47.31612" lon="6.05581">
        <ele>589.8</ele>
        <time>2021-04-03T10:23:01Z</time>
      </trkpt>
      <trkpt lat="47.31614" lon="6.05583">
        <ele>590</ele>
        <time>2021-04-03T10:23:02Z</time>
      </trkpt>
      <trkpt lat="47.31615" lon="6.05585">
        <ele>590</ele>
        <time>2021-04-03T10:23:03Z</time>
      </trkpt>
      <trkpt lat="47.31617" lon="6.05588">
        <ele>590</ele>
        <time>2021-04-03T10:23:04Z</time>
      </trkpt>
      <trkpt lat="47.31619" lon="6.05589">
        <ele>590</ele>
        <time>2021-04-03T10:23:05Z</time>
      </trkpt>
      <trkpt lat="47.3162" lon="6.05591">
        <ele>590.2</ele>
        <time>2021-04-03T10:23:06Z</time>
      </trkpt>
      <trkpt lat="47.31622" lon="6.05593">
        <ele>590.2</ele>
        <time>2021-04-03T10:23:07Z</time>
      </trkpt>
      <trkpt lat="47.31623" lon="6.05595">
        <ele>590.2</ele>
        <time>2021-04-03T10:23:08Z</time>
      </trkpt>
      <trkpt lat="47.31625" lon="6.05597">
        <ele>590.2</ele>
        <time>2021-04-03T10:23:09Z</time>
      </trkpt>
      <trkpt lat="47.31632" lon="6.0561">
        <ele>590</ele>
        <time>2021-04-03T10:23:14Z</time>
      </trkpt>
      <trkpt lat="47.31637" lon="6.0562">
        <ele>589.8</ele>
        <time>2021-04-03T10:23:19Z</time>
      </trkpt>
      <trkpt lat="47.31638" lon="6.05622">
        <ele>589.8</ele>
        <time>2021-04-03T10:23:20Z</time>
      </trkpt>
      <trkpt lat="47.31639" lon="6.05625">
        <ele>589.8</ele>
        <time>2021-04-03T10:23:21Z</time>
      </trkpt>
      <trkpt lat="47.3164" lon="6.05627">
        <ele>589.8</ele>
        <time>2021-04-03T10:23:22Z</time>
      </trkpt>
      <trkpt lat="47.31641" lon="6.05629">
        <ele>589.8</ele>
        <time>2021-04-03T10:23:23Z</time>
      </trkpt>
      <trkpt lat="47.31643" lon="6.05635">
        <ele>589.8</ele>
        <time>2021-04-03T10:23:25Z</time>
      </trkpt>
      <trkpt lat="47.31645" lon="6.05637">
        <ele>589.8</ele>
        <time>2021-04-03T10:23:26Z</time>
      </trkpt>
      <trkpt lat="47.31646" lon="6.05641">
        <ele>590</ele>
        <time>2021-04-03T10:23:27Z</time>
      </trkpt>
      <trkpt lat="47.31657" lon="6.05657">
        <ele>590</ele>
        <time>2021-04-03T10:23:32Z</time>
      </trkpt>
      <trkpt lat="47.31658" lon="6.05659">
        <ele>590</ele>
        <time>2021-04-03T10:23:33Z</time>
      </trkpt>
      <trkpt lat="47.31659" lon="6.05662">
        <ele>590.2</ele>
        <time>2021-04-03T10:23:34Z</time>
      </trkpt>
      <trkpt lat="47.31661" lon="6.05665">
        <ele>590.4</ele>
        <time>2021-04-03T10:23:35Z</time>
      </trkpt>
      <trkpt lat="47.31662" lon="6.05667">
        <ele>590.4</ele>
        <time>2021-04-03T10:23:36Z</time>
      </trkpt>
      <trkpt lat="47.31664" lon="6.05671">
        <ele>590.2</ele>
        <time>2021-04-03T10:23:37Z</time>
      </trkpt>
      <trkpt lat="47.31679" lon="6.057">
        <ele>590.4</ele>
        <time>2021-04-03T10:23:46Z</time>
      </trkpt>
      <trkpt lat="47.3168" lon="6.05702">
        <ele>590.6</ele>
        <time>2021-04-03T10:23:47Z</time>
      </trkpt>
      <trkpt lat="47.31681" lon="6.05704">
        <ele>590.6</ele>
        <time>2021-04-03T10:23:48Z</time>
      </trkpt>
      <trkpt lat="47.31683" lon="6.05706">
        <ele>590.8</ele>
        <time>2021-04-03T10:23:49Z</time>
      </trkpt>
      <trkpt lat="47.31685" lon="6.05709">
        <ele>591</ele>
        <time>2021-04-03T10:23:50Z</time>
      </trkpt>
      <trkpt lat="47.31688" lon="6.05712">
        <ele>591</ele>
        <time>2021-04-03T10:23:51Z</time>
      </trkpt>
      <trkpt lat="47.31689" lon="6.05715">
        <ele>591.2</ele>
        <time>2021-04-03T10:23:52Z</time>
      </trkpt>
      <trkpt lat="47.31692" lon="6.05723">
        <ele>591.6</ele>
        <time>2021-04-03T10:23:55Z</time>
      </trkpt>
      <trkpt lat="47.31694" lon="6.05726">
        <ele>592</ele>
        <time>2021-04-03T10:23:56Z</time>
      </trkpt>
      <trkpt lat="47.31693" lon="6.05729">
        <ele>592.4</ele>
        <time>2021-04-03T10:23:57Z</time>
      </trkpt>
      <trkpt lat="47.31695" lon="6.05732">
        <ele>592.4</ele>
        <time>2021-04-03T10:23:58Z</time>
      </trkpt>
      <trkpt lat="47.31698" lon="6.05736">
        <ele>592.6</ele>
        <time>2021-04-03T10:23:59Z</time>
      </trkpt>
      <trkpt lat="47.31698" lon="6.05739">
        <ele>593</ele>
        <time>2021-04-03T10:24:00Z</time>
      </trkpt>
      <trkpt lat="47.317" lon="6.05743">
        <ele>593.2</ele>
        <time>2021-04-03T10:24:01Z</time>
      </trkpt>
      <trkpt lat="47.31704" lon="6.05754">
        <ele>593.8</ele>
        <time>2021-04-03T10:24:04Z</time>
      </trkpt>
      <trkpt lat="47.31707" lon="6.05758">
        <ele>594.2</ele>
        <time>2021-04-03T10:24:05Z</time>
      </trkpt>
      <trkpt lat="47.31709" lon="6.05761">
        <ele>594.6</ele>
        <time>2021-04-03T10:24:06Z</time>
      </trkpt>
      <trkpt lat="47.31711" lon="6.05765">
        <ele>594.6</ele>
        <time>2021-04-03T10:24:07Z</time>
      </trkpt>
      <trkpt lat="47.31712" lon="6.05767">
        <ele>594.8</ele>
        <time>2021-04-03T10:24:08Z</time>
      </trkpt>
      <trkpt lat="47.31713" lon="6.0577">
        <ele>594.8</ele>
        <time>2021-04-03T10:24:09Z</time>
      </trkpt>
      <trkpt lat="47.31714" lon="6.05774">
        <ele>595.2</ele>
        <time>2021-04-03T10:24:10Z</time>
      </trkpt>
      <trkpt lat="47.31716" lon="6.05777">
        <ele>595.4</ele>
        <time>2021-04-03T10:24:11Z</time>
      </trkpt>
      <trkpt lat="47.31718" lon="6.0578">
        <ele>595.6</ele>
        <time>2021-04-03T10:24:12Z</time>
      </trkpt>
      <trkpt lat="47.3172" lon="6.05784">
        <ele>595.6</ele>
        <time>2021-04-03T10:24:13Z</time>
      </trkpt>
      <trkpt lat="47.31721" lon="6.05786">
        <ele>595.8</ele>
        <time>2021-04-03T10:24:14Z</time>
      </trkpt>
      <trkpt lat="47.31722" lon="6.05787">
        <ele>595.8</ele>
        <time>2021-04-03T10:24:15Z</time>
      </trkpt>
      <trkpt lat="47.31723" lon="6.05788">
        <ele>595.8</ele>
        <time>2021-04-03T10:24:16Z</time>
      </trkpt>
      <trkpt lat="47.31724" lon="6.05789">
        <ele>596</ele>
        <time>2021-04-03T10:24:17Z</time>
      </trkpt>
      <trkpt lat="47.31725" lon="6.05791">
        <ele>596</ele>
        <time>2021-04-03T10:24:18Z</time>
      </trkpt>
      <trkpt lat="47.31727" lon="6.05794">
        <ele>596.2</ele>
        <time>2021-04-03T10:24:19Z</time>
      </trkpt>
      <trkpt lat="47.31728" lon="6.05796">
        <ele>596.2</ele>
        <time>2021-04-03T10:24:20Z</time>
      </trkpt>
      <trkpt lat="47.31728" lon="6.05797">
        <ele>596.2</ele>
        <time>2021-04-03T10:24:21Z</time>
      </trkpt>
      <trkpt lat="47.31728" lon="6.05799">
        <ele>596.2</ele>
        <time>2021-04-03T10:24:22Z</time>
      </trkpt>
      <trkpt lat="47.31729" lon="6.058">
        <ele>596.4</ele>
        <time>2021-04-03T10:24:23Z</time>
      </trkpt>
      <trkpt lat="47.3173" lon="6.05802">
        <ele>596.4</ele>
        <time>2021-04-03T10:24:24Z</time>
      </trkpt>
      <trkpt lat="47.3173" lon="6.05804">
        <ele>596.4</ele>
        <time>2021-04-03T10:24:25Z</time>
      </trkpt>
      <trkpt lat="47.31731" lon="6.05806">
        <ele>596.4</ele>
        <time>2021-04-03T10:24:26Z</time>
      </trkpt>
      <trkpt lat="47.31732" lon="6.05808">
        <ele>596.4</ele>
        <time>2021-04-03T10:24:27Z</time>
      </trkpt>
      <trkpt lat="47.31733" lon="6.0581">
        <ele>596.4</ele>
        <time>2021-04-03T10:24:28Z</time>
      </trkpt>
      <trkpt lat="47.31733" lon="6.05812">
        <ele>596.4</ele>
        <time>2021-04-03T10:24:29Z</time>
      </trkpt>
      <trkpt lat="47.31734" lon="6.05814">
        <ele>596.4</ele>
        <time>2021-04-03T10:24:30Z</time>
      </trkpt>
      <trkpt lat="47.31735" lon="6.05816">
        <ele>596.8</ele>
        <time>2021-04-03T10:24:31Z</time>
      </trkpt>
      <trkpt lat="47.31735" lon="6.05818">
        <ele>596.8</ele>
        <time>2021-04-03T10:24:32Z</time>
      </trkpt>
      <trkpt lat="47.31736" lon="6.0582">
        <ele>596.8</ele>
        <time>2021-04-03T10:24:33Z</time>
      </trkpt>
      <trkpt lat="47.31738" lon="6.05825">
        <ele>597.2</ele>
        <time>2021-04-03T10:24:35Z</time>
      </trkpt>
      <trkpt lat="47.3174" lon="6.05829">
        <ele>597.6</ele>
        <time>2021-04-03T10:24:37Z</time>
      </trkpt>
      <trkpt lat="47.3174" lon="6.05831">
        <ele>597.8</ele>
        <time>2021-04-03T10:24:38Z</time>
      </trkpt>
      <trkpt lat="47.3174" lon="6.05833">
        <ele>597.8</ele>
        <time>2021-04-03T10:24:39Z</time>
      </trkpt>
      <trkpt lat="47.31741" lon="6.05836">
        <ele>598</ele>
        <time>2021-04-03T10:24:40Z</time>
      </trkpt>
      <trkpt lat="47.31746" lon="6.0584">
        <ele>598.4</ele>
        <time>2021-04-03T10:24:43Z</time>
      </trkpt>
      <trkpt lat="47.31747" lon="6.05841">
        <ele>598.4</ele>
        <time>2021-04-03T10:24:44Z</time>
      </trkpt>
      <trkpt lat="47.31755" lon="6.05848">
        <ele>598.8</ele>
        <time>2021-04-03T10:24:48Z</time>
      </trkpt>
      <trkpt lat="47.31756" lon="6.05852">
        <ele>598.8</ele>
        <time>2021-04-03T10:24:49Z</time>
      </trkpt>
      <trkpt lat="47.31758" lon="6.05855">
        <ele>598.8</ele>
        <time>2021-04-03T10:24:50Z</time>
      </trkpt>
      <trkpt lat="47.31759" lon="6.05857">
        <ele>599</ele>
        <time>2021-04-03T10:24:51Z</time>
      </trkpt>
      <trkpt lat="47.31761" lon="6.05859">
        <ele>599</ele>
        <time>2021-04-03T10:24:52Z</time>
      </trkpt>
      <trkpt lat="47.31763" lon="6.05862">
        <ele>599.2</ele>
        <time>2021-04-03T10:24:53Z</time>
      </trkpt>
      <trkpt lat="47.31768" lon="6.05868">
        <ele>599.4</ele>
        <time>2021-04-03T10:24:56Z</time>
      </trkpt>
      <trkpt lat="47.31772" lon="6.05873">
        <ele>599.8</ele>
        <time>2021-04-03T10:24:59Z</time>
      </trkpt>
      <trkpt lat="47.31781" lon="6.05887">
        <ele>600.2</ele>
        <time>2021-04-03T10:25:06Z</time>
      </trkpt>
      <trkpt lat="47.31783" lon="6.05889">
        <ele>600.4</ele>
        <time>2021-04-03T10:25:07Z</time>
      </trkpt>
      <trkpt lat="47.31785" lon="6.05891">
        <ele>600.4</ele>
        <time>2021-04-03T10:25:08Z</time>
      </trkpt>
      <trkpt lat="47.31787" lon="6.05892">
        <ele>600.4</ele>
        <time>2021-04-03T10:25:09Z</time>
      </trkpt>
      <trkpt lat="47.31793" lon="6.05897">
        <ele>600.8</ele>
        <time>2021-04-03T10:25:12Z</time>
      </trkpt>
      <trkpt lat="47.31801" lon="6.05902">
        <ele>601.4</ele>
        <time>2021-04-03T10:25:16Z</time>
      </trkpt>
      <trkpt lat="47.31803" lon="6.05903">
        <ele>601.6</ele>
        <time>2021-04-03T10:25:17Z</time>
      </trkpt>
      <trkpt lat="47.31805" lon="6.05903">
        <ele>601.6</ele>
        <time>2021-04-03T10:25:18Z</time>
      </trkpt>
      <trkpt lat="47.31809" lon="6.05905">
        <ele>601.8</ele>
        <time>2021-04-03T10:25:20Z</time>
      </trkpt>
      <trkpt lat="47.31822" lon="6.05911">
        <ele>602.4</ele>
        <time>2021-04-03T10:25:25Z</time>
      </trkpt>
      <trkpt lat="47.31824" lon="6.05913">
        <ele>602.6</ele>
        <time>2021-04-03T10:25:26Z</time>
      </trkpt>
      <trkpt lat="47.31827" lon="6.05915">
        <ele>602.6</ele>
        <time>2021-04-03T10:25:27Z</time>
      </trkpt>
      <trkpt lat="47.31829" lon="6.05916">
        <ele>602.6</ele>
        <time>2021-04-03T10:25:28Z</time>
      </trkpt>
      <trkpt lat="47.31831" lon="6.05917">
        <ele>602.8</ele>
        <time>2021-04-03T10:25:29Z</time>
      </trkpt>
      <trkpt lat="47.31833" lon="6.05919">
        <ele>603</ele>
        <time>2021-04-03T10:25:30Z</time>
      </trkpt>
      <trkpt lat="47.31835" lon="6.0592">
        <ele>603</ele>
        <time>2021-04-03T10:25:31Z</time>
      </trkpt>
      <trkpt lat="47.31837" lon="6.05922">
        <ele>603.4</ele>
        <time>2021-04-03T10:25:32Z</time>
      </trkpt>
      <trkpt lat="47.31839" lon="6.05925">
        <ele>603.4</ele>
        <time>2021-04-03T10:25:33Z</time>
      </trkpt>
      <trkpt lat="47.3184" lon="6.05927">
        <ele>603.6</ele>
        <time>2021-04-03T10:25:34Z</time>
      </trkpt>
      <trkpt lat="47.31842" lon="6.05929">
        <ele>603.8</ele>
        <time>2021-04-03T10:25:35Z</time>
      </trkpt>
      <trkpt lat="47.31843" lon="6.05931">
        <ele>604.2</ele>
        <time>2021-04-03T10:25:36Z</time>
      </trkpt>
      <trkpt lat="47.31843" lon="6.05933">
        <ele>604.4</ele>
        <time>2021-04-03T10:25:37Z</time>
      </trkpt>
      <trkpt lat="47.31845" lon="6.05936">
        <ele>604.6</ele>
        <time>2021-04-03T10:25:38Z</time>
      </trkpt>
      <trkpt lat="47.31846" lon="6.05938">
        <ele>604.8</ele>
        <time>2021-04-03T10:25:39Z</time>
      </trkpt>
      <trkpt lat="47.31847" lon="6.05941">
        <ele>604.8</ele>
        <time>2021-04-03T10:25:40Z</time>
      </trkpt>
      <trkpt lat="47.31848" lon="6.05945">
        <ele>605</ele>
        <time>2021-04-03T10:25:41Z</time>
      </trkpt>
      <trkpt lat="47.31849" lon="6.05948">
        <ele>605.2</ele>
        <time>2021-04-03T10:25:42Z</time>
      </trkpt>
      <trkpt lat="47.31849" lon="6.05951">
        <ele>605.4</ele>
        <time>2021-04-03T10:25:43Z</time>
      </trkpt>
      <trkpt lat="47.3185" lon="6.05955">
        <ele>605.4</ele>
        <time>2021-04-03T10:25:44Z</time>
      </trkpt>
      <trkpt lat="47.31851" lon="6.05958">
        <ele>605.4</ele>
        <time>2021-04-03T10:25:45Z</time>
      </trkpt>
      <trkpt lat="47.31852" lon="6.05961">
        <ele>605.6</ele>
        <time>2021-04-03T10:25:46Z</time>
      </trkpt>
      <trkpt lat="47.31853" lon="6.05963">
        <ele>605.6</ele>
        <time>2021-04-03T10:25:47Z</time>
      </trkpt>
      <trkpt lat="47.31854" lon="6.05964">
        <ele>605.6</ele>
        <time>2021-04-03T10:25:48Z</time>
      </trkpt>
      <trkpt lat="47.31855" lon="6.05964">
        <ele>606</ele>
        <time>2021-04-03T10:25:49Z</time>
      </trkpt>
      <trkpt lat="47.31857" lon="6.05964">
        <ele>606.4</ele>
        <time>2021-04-03T10:25:50Z</time>
      </trkpt>
      <trkpt lat="47.3186" lon="6.05965">
        <ele>606.4</ele>
        <time>2021-04-03T10:25:51Z</time>
      </trkpt>
      <trkpt lat="47.31862" lon="6.05965">
        <ele>606.6</ele>
        <time>2021-04-03T10:25:52Z</time>
      </trkpt>
      <trkpt lat="47.31865" lon="6.05965">
        <ele>606.8</ele>
        <time>2021-04-03T10:25:53Z</time>
      </trkpt>
      <trkpt lat="47.31868" lon="6.05966">
        <ele>607</ele>
        <time>2021-04-03T10:25:54Z</time>
      </trkpt>
      <trkpt lat="47.3187" lon="6.05967">
        <ele>607</ele>
        <time>2021-04-03T10:25:55Z</time>
      </trkpt>
      <trkpt lat="47.31873" lon="6.0597">
        <ele>607.4</ele>
        <time>2021-04-03T10:25:56Z</time>
      </trkpt>
      <trkpt lat="47.31874" lon="6.05972">
        <ele>607.4</ele>
        <time>2021-04-03T10:25:57Z</time>
      </trkpt>
      <trkpt lat="47.31875" lon="6.05974">
        <ele>607.6</ele>
        <time>2021-04-03T10:25:58Z</time>
      </trkpt>
      <trkpt lat="47.31877" lon="6.05975">
        <ele>607.6</ele>
        <time>2021-04-03T10:25:59Z</time>
      </trkpt>
      <trkpt lat="47.31878" lon="6.05975">
        <ele>607.8</ele>
        <time>2021-04-03T10:26:00Z</time>
      </trkpt>
      <trkpt lat="47.31879" lon="6.05975">
        <ele>608</ele>
        <time>2021-04-03T10:26:02Z</time>
      </trkpt>
      <trkpt lat="47.31879" lon="6.05975">
        <ele>608.8</ele>
        <time>2021-04-03T10:26:12Z</time>
      </trkpt>
      <trkpt lat="47.31879" lon="6.05975">
        <ele>608.6</ele>
        <time>2021-04-03T10:26:39Z</time>
      </trkpt>
      <trkpt lat="47.31879" lon="6.05975">
        <ele>607.6</ele>
        <time>2021-04-03T10:27:31Z</time>
      </trkpt>
      <trkpt lat="47.31879" lon="6.05975">
        <ele>609</ele>
        <time>2021-04-03T10:30:17Z</time>
      </trkpt>
      <trkpt lat="47.31879" lon="6.05975">
        <ele>608.2</ele>
        <time>2021-04-03T10:30:46Z</time>
      </trkpt>
      <trkpt lat="47.31879" lon="6.05975">
        <ele>607.2</ele>
        <time>2021-04-03T10:31:13Z</time>
      </trkpt>
      <trkpt lat="47.31879" lon="6.05974">
        <ele>607.8</ele>
        <time>2021-04-03T10:32:09Z</time>
      </trkpt>
      <trkpt lat="47.31879" lon="6.05974">
        <ele>607.8</ele>
        <time>2021-04-03T10:32:10Z</time>
      </trkpt>
      <trkpt lat="47.31879" lon="6.05974">
        <ele>607.8</ele>
        <time>2021-04-03T10:32:12Z</time>
      </trkpt>
      <trkpt lat="47.31878" lon="6.05973">
        <ele>607.2</ele>
        <time>2021-04-03T10:32:30Z</time>
      </trkpt>
      <trkpt lat="47.31872" lon="6.05969">
        <ele>607.4</ele>
        <time>2021-04-03T10:32:33Z</time>
      </trkpt>
      <trkpt lat="47.31863" lon="6.05967">
        <ele>607</ele>
        <time>2021-04-03T10:32:37Z</time>
      </trkpt>
      <trkpt lat="47.31861" lon="6.05966">
        <ele>606.8</ele>
        <time>2021-04-03T10:32:38Z</time>
      </trkpt>
      <trkpt lat="47.31859" lon="6.05965">
        <ele>606.8</ele>
        <time>2021-04-03T10:32:39Z</time>
      </trkpt>
      <trkpt lat="47.31857" lon="6.05964">
        <ele>606.6</ele>
        <time>2021-04-03T10:32:40Z</time>
      </trkpt>
      <trkpt lat="47.31856" lon="6.05961">
        <ele>606.6</ele>
        <time>2021-04-03T10:32:41Z</time>
      </trkpt>
      <trkpt lat="47.31855" lon="6.05958">
        <ele>606.4</ele>
        <time>2021-04-03T10:32:42Z</time>
      </trkpt>
      <trkpt lat="47.31853" lon="6.05953">
        <ele>606.2</ele>
        <time>2021-04-03T10:32:43Z</time>
      </trkpt>
      <trkpt lat="47.31852" lon="6.05947">
        <ele>606.2</ele>
        <time>2021-04-03T10:32:44Z</time>
      </trkpt>
      <trkpt lat="47.3185" lon="6.05942">
        <ele>606</ele>
        <time>2021-04-03T10:32:45Z</time>
      </trkpt>
      <trkpt lat="47.31847" lon="6.05937">
        <ele>605.8</ele>
        <time>2021-04-03T10:32:46Z</time>
      </trkpt>
      <trkpt lat="47.31845" lon="6.05934">
        <ele>605.6</ele>
        <time>2021-04-03T10:32:47Z</time>
      </trkpt>
      <trkpt lat="47.31843" lon="6.05931">
        <ele>605.6</ele>
        <time>2021-04-03T10:32:48Z</time>
      </trkpt>
      <trkpt lat="47.31841" lon="6.05929">
        <ele>605.2</ele>
        <time>2021-04-03T10:32:49Z</time>
      </trkpt>
      <trkpt lat="47.31839" lon="6.05926">
        <ele>605</ele>
        <time>2021-04-03T10:32:50Z</time>
      </trkpt>
      <trkpt lat="47.31837" lon="6.05923">
        <ele>604.8</ele>
        <time>2021-04-03T10:32:51Z</time>
      </trkpt>
      <trkpt lat="47.31831" lon="6.05919">
        <ele>604.4</ele>
        <time>2021-04-03T10:32:53Z</time>
      </trkpt>
      <trkpt lat="47.31828" lon="6.05917">
        <ele>604.4</ele>
        <time>2021-04-03T10:32:54Z</time>
      </trkpt>
      <trkpt lat="47.31825" lon="6.05916">
        <ele>604.2</ele>
        <time>2021-04-03T10:32:55Z</time>
      </trkpt>
      <trkpt lat="47.31822" lon="6.05914">
        <ele>604</ele>
        <time>2021-04-03T10:32:56Z</time>
      </trkpt>
      <trkpt lat="47.31808" lon="6.05908">
        <ele>603.4</ele>
        <time>2021-04-03T10:33:00Z</time>
      </trkpt>
      <trkpt lat="47.31806" lon="6.05908">
        <ele>603.4</ele>
        <time>2021-04-03T10:33:01Z</time>
      </trkpt>
      <trkpt lat="47.31804" lon="6.05906">
        <ele>603.2</ele>
        <time>2021-04-03T10:33:02Z</time>
      </trkpt>
      <trkpt lat="47.31802" lon="6.05905">
        <ele>602.8</ele>
        <time>2021-04-03T10:33:03Z</time>
      </trkpt>
      <trkpt lat="47.31797" lon="6.05901">
        <ele>602.4</ele>
        <time>2021-04-03T10:33:05Z</time>
      </trkpt>
      <trkpt lat="47.31789" lon="6.05896">
        <ele>602</ele>
        <time>2021-04-03T10:33:08Z</time>
      </trkpt>
      <trkpt lat="47.31769" lon="6.05876">
        <ele>601.2</ele>
        <time>2021-04-03T10:33:13Z</time>
      </trkpt>
      <trkpt lat="47.31757" lon="6.05859">
        <ele>601</ele>
        <time>2021-04-03T10:33:16Z</time>
      </trkpt>
      <trkpt lat="47.3175" lon="6.05851">
        <ele>600.6</ele>
        <time>2021-04-03T10:33:18Z</time>
      </trkpt>
      <trkpt lat="47.31746" lon="6.05848">
        <ele>600.4</ele>
        <time>2021-04-03T10:33:19Z</time>
      </trkpt>
      <trkpt lat="47.31739" lon="6.05843">
        <ele>600.2</ele>
        <time>2021-04-03T10:33:21Z</time>
      </trkpt>
      <trkpt lat="47.31734" lon="6.05842">
        <ele>600</ele>
        <time>2021-04-03T10:33:22Z</time>
      </trkpt>
      <trkpt lat="47.3173" lon="6.0584">
        <ele>599.4</ele>
        <time>2021-04-03T10:33:23Z</time>
      </trkpt>
      <trkpt lat="47.31726" lon="6.05839">
        <ele>598.8</ele>
        <time>2021-04-03T10:33:24Z</time>
      </trkpt>
      <trkpt lat="47.31714" lon="6.05834">
        <ele>598.4</ele>
        <time>2021-04-03T10:33:26Z</time>
      </trkpt>
      <trkpt lat="47.317" lon="6.0583">
        <ele>597.6</ele>
        <time>2021-04-03T10:33:28Z</time>
      </trkpt>
      <trkpt lat="47.31687" lon="6.05827">
        <ele>596.4</ele>
        <time>2021-04-03T10:33:30Z</time>
      </trkpt>
      <trkpt lat="47.31664" lon="6.05821">
        <ele>594.6</ele>
        <time>2021-04-03T10:33:33Z</time>
      </trkpt>
      <trkpt lat="47.31658" lon="6.05819">
        <ele>593.4</ele>
        <time>2021-04-03T10:33:34Z</time>
      </trkpt>
      <trkpt lat="47.3165" lon="6.05816">
        <ele>593</ele>
        <time>2021-04-03T10:33:35Z</time>
      </trkpt>
      <trkpt lat="47.31645" lon="6.05815">
        <ele>591.2</ele>
        <time>2021-04-03T10:33:36Z</time>
      </trkpt>
      <trkpt lat="47.3164" lon="6.05813">
        <ele>590.6</ele>
        <time>2021-04-03T10:33:37Z</time>
      </trkpt>
      <trkpt lat="47.31636" lon="6.05812">
        <ele>589.8</ele>
        <time>2021-04-03T10:33:38Z</time>
      </trkpt>
      <trkpt lat="47.31631" lon="6.05808">
        <ele>589.4</ele>
        <time>2021-04-03T10:33:39Z</time>
      </trkpt>
      <trkpt lat="47.31626" lon="6.05804">
        <ele>589</ele>
        <time>2021-04-03T10:33:40Z</time>
      </trkpt>
      <trkpt lat="47.31621" lon="6.05799">
        <ele>588.6</ele>
        <time>2021-04-03T10:33:41Z</time>
      </trkpt>
      <trkpt lat="47.31617" lon="6.05796">
        <ele>587.8</ele>
        <time>2021-04-03T10:33:42Z</time>
      </trkpt>
      <trkpt lat="47.31614" lon="6.05795">
        <ele>587.4</ele>
        <time>2021-04-03T10:33:43Z</time>
      </trkpt>
      <trkpt lat="47.31611" lon="6.05795">
        <ele>586.4</ele>
        <time>2021-04-03T10:33:44Z</time>
      </trkpt>
      <trkpt lat="47.31607" lon="6.05795">
        <ele>585.6</ele>
        <time>2021-04-03T10:33:45Z</time>
      </trkpt>
      <trkpt lat="47.31604" lon="6.05795">
        <ele>585.2</ele>
        <time>2021-04-03T10:33:46Z</time>
      </trkpt>
      <trkpt lat="47.31601" lon="6.05796">
        <ele>584.8</ele>
        <time>2021-04-03T10:33:47Z</time>
      </trkpt>
      <trkpt lat="47.31597" lon="6.05797">
        <ele>584.4</ele>
        <time>2021-04-03T10:33:48Z</time>
      </trkpt>
      <trkpt lat="47.31593" lon="6.05798">
        <ele>584</ele>
        <time>2021-04-03T10:33:49Z</time>
      </trkpt>
      <trkpt lat="47.31576" lon="6.05805">
        <ele>583</ele>
        <time>2021-04-03T10:33:52Z</time>
      </trkpt>
      <trkpt lat="47.31569" lon="6.05806">
        <ele>581.8</ele>
        <time>2021-04-03T10:33:54Z</time>
      </trkpt>
      <trkpt lat="47.31564" lon="6.05805">
        <ele>581.4</ele>
        <time>2021-04-03T10:33:55Z</time>
      </trkpt>
      <trkpt lat="47.31559" lon="6.05803">
        <ele>581</ele>
        <time>2021-04-03T10:33:56Z</time>
      </trkpt>
      <trkpt lat="47.31554" lon="6.05799">
        <ele>580.4</ele>
        <time>2021-04-03T10:33:57Z</time>
      </trkpt>
      <trkpt lat="47.3155" lon="6.05795">
        <ele>579.4</ele>
        <time>2021-04-03T10:33:58Z</time>
      </trkpt>
      <trkpt lat="47.31546" lon="6.0579">
        <ele>579.2</ele>
        <time>2021-04-03T10:33:59Z</time>
      </trkpt>
      <trkpt lat="47.31541" lon="6.05782">
        <ele>578.8</ele>
        <time>2021-04-03T10:34:00Z</time>
      </trkpt>
      <trkpt lat="47.31532" lon="6.05772">
        <ele>576.8</ele>
        <time>2021-04-03T10:34:02Z</time>
      </trkpt>
      <trkpt lat="47.31527" lon="6.05767">
        <ele>575.8</ele>
        <time>2021-04-03T10:34:03Z</time>
      </trkpt>
      <trkpt lat="47.3152" lon="6.05763">
        <ele>574.8</ele>
        <time>2021-04-03T10:34:04Z</time>
      </trkpt>
      <trkpt lat="47.31514" lon="6.05759">
        <ele>574.6</ele>
        <time>2021-04-03T10:34:05Z</time>
      </trkpt>
      <trkpt lat="47.3151" lon="6.05754">
        <ele>573.4</ele>
        <time>2021-04-03T10:34:06Z</time>
      </trkpt>
      <trkpt lat="47.31505" lon="6.0575">
        <ele>572.4</ele>
        <time>2021-04-03T10:34:07Z</time>
      </trkpt>
      <trkpt lat="47.315" lon="6.05745">
        <ele>572.2</ele>
        <time>2021-04-03T10:34:08Z</time>
      </trkpt>
      <trkpt lat="47.31495" lon="6.05741">
        <ele>571.4</ele>
        <time>2021-04-03T10:34:09Z</time>
      </trkpt>
      <trkpt lat="47.3149" lon="6.05736">
        <ele>571.2</ele>
        <time>2021-04-03T10:34:10Z</time>
      </trkpt>
      <trkpt lat="47.31486" lon="6.05732">
        <ele>571</ele>
        <time>2021-04-03T10:34:11Z</time>
      </trkpt>
      <trkpt lat="47.31481" lon="6.05728">
        <ele>570.4</ele>
        <time>2021-04-03T10:34:12Z</time>
      </trkpt>
      <trkpt lat="47.31478" lon="6.05724">
        <ele>569.4</ele>
        <time>2021-04-03T10:34:13Z</time>
      </trkpt>
      <trkpt lat="47.31475" lon="6.05721">
        <ele>569</ele>
        <time>2021-04-03T10:34:14Z</time>
      </trkpt>
      <trkpt lat="47.31472" lon="6.05718">
        <ele>567.8</ele>
        <time>2021-04-03T10:34:15Z</time>
      </trkpt>
      <trkpt lat="47.3147" lon="6.05716">
        <ele>567.6</ele>
        <time>2021-04-03T10:34:16Z</time>
      </trkpt>
      <trkpt lat="47.31467" lon="6.05713">
        <ele>566.8</ele>
        <time>2021-04-03T10:34:17Z</time>
      </trkpt>
      <trkpt lat="47.31466" lon="6.05711">
        <ele>566.4</ele>
        <time>2021-04-03T10:34:18Z</time>
      </trkpt>
      <trkpt lat="47.31466" lon="6.05709">
        <ele>566</ele>
        <time>2021-04-03T10:34:19Z</time>
      </trkpt>
      <trkpt lat="47.31465" lon="6.05708">
        <ele>566</ele>
        <time>2021-04-03T10:34:20Z</time>
      </trkpt>
      <trkpt lat="47.31464" lon="6.05707">
        <ele>565.8</ele>
        <time>2021-04-03T10:34:21Z</time>
      </trkpt>
      <trkpt lat="47.31463" lon="6.05705">
        <ele>565.4</ele>
        <time>2021-04-03T10:34:22Z</time>
      </trkpt>
      <trkpt lat="47.31461" lon="6.05703">
        <ele>565.4</ele>
        <time>2021-04-03T10:34:23Z</time>
      </trkpt>
      <trkpt lat="47.31451" lon="6.05692">
        <ele>564.6</ele>
        <time>2021-04-03T10:34:26Z</time>
      </trkpt>
      <trkpt lat="47.31446" lon="6.05686">
        <ele>564.2</ele>
        <time>2021-04-03T10:34:27Z</time>
      </trkpt>
      <trkpt lat="47.3143" lon="6.05669">
        <ele>563.4</ele>
        <time>2021-04-03T10:34:30Z</time>
      </trkpt>
      <trkpt lat="47.31417" lon="6.05657">
        <ele>562.8</ele>
        <time>2021-04-03T10:34:32Z</time>
      </trkpt>
      <trkpt lat="47.3141" lon="6.05651">
        <ele>561.4</ele>
        <time>2021-04-03T10:34:33Z</time>
      </trkpt>
      <trkpt lat="47.31398" lon="6.05637">
        <ele>558.6</ele>
        <time>2021-04-03T10:34:35Z</time>
      </trkpt>
      <trkpt lat="47.31393" lon="6.05631">
        <ele>557.8</ele>
        <time>2021-04-03T10:34:36Z</time>
      </trkpt>
      <trkpt lat="47.31386" lon="6.05622">
        <ele>557</ele>
        <time>2021-04-03T10:34:37Z</time>
      </trkpt>
      <trkpt lat="47.31373" lon="6.05606">
        <ele>554.8</ele>
        <time>2021-04-03T10:34:39Z</time>
      </trkpt>
      <trkpt lat="47.31368" lon="6.05598">
        <ele>553.4</ele>
        <time>2021-04-03T10:34:40Z</time>
      </trkpt>
      <trkpt lat="47.3136" lon="6.05587">
        <ele>552.8</ele>
        <time>2021-04-03T10:34:41Z</time>
      </trkpt>
      <trkpt lat="47.31353" lon="6.05578">
        <ele>551.8</ele>
        <time>2021-04-03T10:34:42Z</time>
      </trkpt>
      <trkpt lat="47.31338" lon="6.05558">
        <ele>550.2</ele>
        <time>2021-04-03T10:34:44Z</time>
      </trkpt>
      <trkpt lat="47.31331" lon="6.05547">
        <ele>549.6</ele>
        <time>2021-04-03T10:34:45Z</time>
      </trkpt>
      <trkpt lat="47.31326" lon="6.05538">
        <ele>548.8</ele>
        <time>2021-04-03T10:34:46Z</time>
      </trkpt>
      <trkpt lat="47.3132" lon="6.05528">
        <ele>548.2</ele>
        <time>2021-04-03T10:34:47Z</time>
      </trkpt>
      <trkpt lat="47.31315" lon="6.0552">
        <ele>546</ele>
        <time>2021-04-03T10:34:48Z</time>
      </trkpt>
      <trkpt lat="47.31308" lon="6.05511">
        <ele>545.2</ele>
        <time>2021-04-03T10:34:49Z</time>
      </trkpt>
      <trkpt lat="47.31302" lon="6.05504">
        <ele>544.2</ele>
        <time>2021-04-03T10:34:50Z</time>
      </trkpt>
      <trkpt lat="47.31296" lon="6.05497">
        <ele>542.6</ele>
        <time>2021-04-03T10:34:51Z</time>
      </trkpt>
      <trkpt lat="47.31291" lon="6.05491">
        <ele>542</ele>
        <time>2021-04-03T10:34:52Z</time>
      </trkpt>
      <trkpt lat="47.31287" lon="6.05486">
        <ele>540.6</ele>
        <time>2021-04-03T10:34:53Z</time>
      </trkpt>
      <trkpt lat="47.31284" lon="6.05481">
        <ele>540</ele>
        <time>2021-04-03T10:34:54Z</time>
      </trkpt>
      <trkpt lat="47.3128" lon="6.05476">
        <ele>539.2</ele>
        <time>2021-04-03T10:34:55Z</time>
      </trkpt>
      <trkpt lat="47.31262" lon="6.05449">
        <ele>537.6</ele>
        <time>2021-04-03T10:34:58Z</time>
      </trkpt>
      <trkpt lat="47.31251" lon="6.05436">
        <ele>536.6</ele>
        <time>2021-04-03T10:35:00Z</time>
      </trkpt>
      <trkpt lat="47.31248" lon="6.0543">
        <ele>534.8</ele>
        <time>2021-04-03T10:35:01Z</time>
      </trkpt>
      <trkpt lat="47.31245" lon="6.05425">
        <ele>533.8</ele>
        <time>2021-04-03T10:35:02Z</time>
      </trkpt>
      <trkpt lat="47.31243" lon="6.05422">
        <ele>533.6</ele>
        <time>2021-04-03T10:35:03Z</time>
      </trkpt>
      <trkpt lat="47.31242" lon="6.0542">
        <ele>532.8</ele>
        <time>2021-04-03T10:35:04Z</time>
      </trkpt>
      <trkpt lat="47.3124" lon="6.05418">
        <ele>532.2</ele>
        <time>2021-04-03T10:35:05Z</time>
      </trkpt>
      <trkpt lat="47.31239" lon="6.05417">
        <ele>531.4</ele>
        <time>2021-04-03T10:35:06Z</time>
      </trkpt>
      <trkpt lat="47.31238" lon="6.05416">
        <ele>531</ele>
        <time>2021-04-03T10:35:07Z</time>
      </trkpt>
      <trkpt lat="47.31228" lon="6.05405">
        <ele>529.6</ele>
        <time>2021-04-03T10:35:11Z</time>
      </trkpt>
      <trkpt lat="47.31218" lon="6.05396">
        <ele>528.8</ele>
        <time>2021-04-03T10:35:13Z</time>
      </trkpt>
      <trkpt lat="47.31204" lon="6.05386">
        <ele>527.8</ele>
        <time>2021-04-03T10:35:15Z</time>
      </trkpt>
      <trkpt lat="47.31197" lon="6.05381">
        <ele>527</ele>
        <time>2021-04-03T10:35:16Z</time>
      </trkpt>
      <trkpt lat="47.3119" lon="6.05375">
        <ele>526</ele>
        <time>2021-04-03T10:35:17Z</time>
      </trkpt>
      <trkpt lat="47.31177" lon="6.05363">
        <ele>524.2</ele>
        <time>2021-04-03T10:35:19Z</time>
      </trkpt>
      <trkpt lat="47.31171" lon="6.05357">
        <ele>523.4</ele>
        <time>2021-04-03T10:35:20Z</time>
      </trkpt>
      <trkpt lat="47.31163" lon="6.0535">
        <ele>521.6</ele>
        <time>2021-04-03T10:35:21Z</time>
      </trkpt>
      <trkpt lat="47.31156" lon="6.05343">
        <ele>520.4</ele>
        <time>2021-04-03T10:35:22Z</time>
      </trkpt>
      <trkpt lat="47.3115" lon="6.05336">
        <ele>519.6</ele>
        <time>2021-04-03T10:35:23Z</time>
      </trkpt>
      <trkpt lat="47.31146" lon="6.0533">
        <ele>518.8</ele>
        <time>2021-04-03T10:35:24Z</time>
      </trkpt>
      <trkpt lat="47.31142" lon="6.05325">
        <ele>518</ele>
        <time>2021-04-03T10:35:25Z</time>
      </trkpt>
      <trkpt lat="47.31139" lon="6.05321">
        <ele>516.2</ele>
        <time>2021-04-03T10:35:26Z</time>
      </trkpt>
      <trkpt lat="47.31136" lon="6.05318">
        <ele>515.8</ele>
        <time>2021-04-03T10:35:27Z</time>
      </trkpt>
      <trkpt lat="47.31133" lon="6.05315">
        <ele>515</ele>
        <time>2021-04-03T10:35:28Z</time>
      </trkpt>
      <trkpt lat="47.31129" lon="6.05312">
        <ele>514.6</ele>
        <time>2021-04-03T10:35:29Z</time>
      </trkpt>
      <trkpt lat="47.31125" lon="6.05307">
        <ele>514</ele>
        <time>2021-04-03T10:35:30Z</time>
      </trkpt>
      <trkpt lat="47.31119" lon="6.05301">
        <ele>513.8</ele>
        <time>2021-04-03T10:35:31Z</time>
      </trkpt>
      <trkpt lat="47.31105" lon="6.05283">
        <ele>512.8</ele>
        <time>2021-04-03T10:35:33Z</time>
      </trkpt>
      <trkpt lat="47.31089" lon="6.0526">
        <ele>511.6</ele>
        <time>2021-04-03T10:35:36Z</time>
      </trkpt>
      <trkpt lat="47.31086" lon="6.05255">
        <ele>510</ele>
        <time>2021-04-03T10:35:37Z</time>
      </trkpt>
      <trkpt lat="47.31083" lon="6.0525">
        <ele>509</ele>
        <time>2021-04-03T10:35:38Z</time>
      </trkpt>
      <trkpt lat="47.31081" lon="6.05246">
        <ele>507.8</ele>
        <time>2021-04-03T10:35:39Z</time>
      </trkpt>
      <trkpt lat="47.31079" lon="6.0524">
        <ele>507.4</ele>
        <time>2021-04-03T10:35:40Z</time>
      </trkpt>
      <trkpt lat="47.31075" lon="6.05229">
        <ele>506.8</ele>
        <time>2021-04-03T10:35:41Z</time>
      </trkpt>
      <trkpt lat="47.31071" lon="6.0522">
        <ele>506.4</ele>
        <time>2021-04-03T10:35:42Z</time>
      </trkpt>
      <trkpt lat="47.31063" lon="6.05202">
        <ele>505.6</ele>
        <time>2021-04-03T10:35:44Z</time>
      </trkpt>
      <trkpt lat="47.31055" lon="6.05184">
        <ele>504.8</ele>
        <time>2021-04-03T10:35:46Z</time>
      </trkpt>
      <trkpt lat="47.31051" lon="6.05175">
        <ele>504.6</ele>
        <time>2021-04-03T10:35:47Z</time>
      </trkpt>
      <trkpt lat="47.31047" lon="6.05167">
        <ele>503.6</ele>
        <time>2021-04-03T10:35:48Z</time>
      </trkpt>
      <trkpt lat="47.31043" lon="6.05159">
        <ele>503</ele>
        <time>2021-04-03T10:35:49Z</time>
      </trkpt>
      <trkpt lat="47.3104" lon="6.05152">
        <ele>502.2</ele>
        <time>2021-04-03T10:35:50Z</time>
      </trkpt>
      <trkpt lat="47.31037" lon="6.05144">
        <ele>501.4</ele>
        <time>2021-04-03T10:35:51Z</time>
      </trkpt>
      <trkpt lat="47.31034" lon="6.05136">
        <ele>499.8</ele>
        <time>2021-04-03T10:35:52Z</time>
      </trkpt>
      <trkpt lat="47.31028" lon="6.05122">
        <ele>498.2</ele>
        <time>2021-04-03T10:35:54Z</time>
      </trkpt>
      <trkpt lat="47.31026" lon="6.05116">
        <ele>496.8</ele>
        <time>2021-04-03T10:35:55Z</time>
      </trkpt>
      <trkpt lat="47.31024" lon="6.0511">
        <ele>496.2</ele>
        <time>2021-04-03T10:35:56Z</time>
      </trkpt>
      <trkpt lat="47.31021" lon="6.05105">
        <ele>495.2</ele>
        <time>2021-04-03T10:35:57Z</time>
      </trkpt>
      <trkpt lat="47.31019" lon="6.051">
        <ele>494.8</ele>
        <time>2021-04-03T10:35:58Z</time>
      </trkpt>
      <trkpt lat="47.31017" lon="6.05096">
        <ele>494</ele>
        <time>2021-04-03T10:35:59Z</time>
      </trkpt>
      <trkpt lat="47.31015" lon="6.05093">
        <ele>493.6</ele>
        <time>2021-04-03T10:36:00Z</time>
      </trkpt>
      <trkpt lat="47.31012" lon="6.05089">
        <ele>493</ele>
        <time>2021-04-03T10:36:01Z</time>
      </trkpt>
      <trkpt lat="47.3101" lon="6.05087">
        <ele>492.8</ele>
        <time>2021-04-03T10:36:02Z</time>
      </trkpt>
      <trkpt lat="47.31009" lon="6.05084">
        <ele>492.2</ele>
        <time>2021-04-03T10:36:03Z</time>
      </trkpt>
      <trkpt lat="47.31007" lon="6.05082">
        <ele>492</ele>
        <time>2021-04-03T10:36:04Z</time>
      </trkpt>
      <trkpt lat="47.31004" lon="6.0508">
        <ele>491.4</ele>
        <time>2021-04-03T10:36:05Z</time>
      </trkpt>
      <trkpt lat="47.30996" lon="6.05074">
        <ele>490.8</ele>
        <time>2021-04-03T10:36:07Z</time>
      </trkpt>
      <trkpt lat="47.30984" lon="6.05065">
        <ele>490</ele>
        <time>2021-04-03T10:36:09Z</time>
      </trkpt>
      <trkpt lat="47.30978" lon="6.05059">
        <ele>489</ele>
        <time>2021-04-03T10:36:10Z</time>
      </trkpt>
      <trkpt lat="47.30972" lon="6.05052">
        <ele>488.8</ele>
        <time>2021-04-03T10:36:11Z</time>
      </trkpt>
      <trkpt lat="47.30961" lon="6.05035">
        <ele>488</ele>
        <time>2021-04-03T10:36:13Z</time>
      </trkpt>
      <trkpt lat="47.30957" lon="6.05029">
        <ele>485.6</ele>
        <time>2021-04-03T10:36:14Z</time>
      </trkpt>
      <trkpt lat="47.30955" lon="6.05025">
        <ele>485</ele>
        <time>2021-04-03T10:36:15Z</time>
      </trkpt>
      <trkpt lat="47.30953" lon="6.05023">
        <ele>484.2</ele>
        <time>2021-04-03T10:36:16Z</time>
      </trkpt>
      <trkpt lat="47.30953" lon="6.05022">
        <ele>483.6</ele>
        <time>2021-04-03T10:36:17Z</time>
      </trkpt>
      <trkpt lat="47.30953" lon="6.05022">
        <ele>483.2</ele>
        <time>2021-04-03T10:36:20Z</time>
      </trkpt>
      <trkpt lat="47.30949" lon="6.05019">
        <ele>482.4</ele>
        <time>2021-04-03T10:36:28Z</time>
      </trkpt>
      <trkpt lat="47.30948" lon="6.05018">
        <ele>482.4</ele>
        <time>2021-04-03T10:36:29Z</time>
      </trkpt>
      <trkpt lat="47.30938" lon="6.05007">
        <ele>482</ele>
        <time>2021-04-03T10:36:33Z</time>
      </trkpt>
      <trkpt lat="47.30919" lon="6.04984">
        <ele>480.8</ele>
        <time>2021-04-03T10:36:37Z</time>
      </trkpt>
      <trkpt lat="47.30908" lon="6.04971">
        <ele>479.4</ele>
        <time>2021-04-03T10:36:39Z</time>
      </trkpt>
      <trkpt lat="47.30903" lon="6.04965">
        <ele>479</ele>
        <time>2021-04-03T10:36:40Z</time>
      </trkpt>
      <trkpt lat="47.30898" lon="6.04959">
        <ele>478</ele>
        <time>2021-04-03T10:36:41Z</time>
      </trkpt>
      <trkpt lat="47.30893" lon="6.04953">
        <ele>477.6</ele>
        <time>2021-04-03T10:36:42Z</time>
      </trkpt>
      <trkpt lat="47.30888" lon="6.04948">
        <ele>477</ele>
        <time>2021-04-03T10:36:43Z</time>
      </trkpt>
      <trkpt lat="47.30884" lon="6.04944">
        <ele>476.4</ele>
        <time>2021-04-03T10:36:44Z</time>
      </trkpt>
      <trkpt lat="47.30879" lon="6.04939">
        <ele>474.6</ele>
        <time>2021-04-03T10:36:45Z</time>
      </trkpt>
      <trkpt lat="47.30875" lon="6.04935">
        <ele>474.2</ele>
        <time>2021-04-03T10:36:46Z</time>
      </trkpt>
      <trkpt lat="47.3087" lon="6.04931">
        <ele>473.4</ele>
        <time>2021-04-03T10:36:47Z</time>
      </trkpt>
      <trkpt lat="47.30863" lon="6.04919">
        <ele>472.2</ele>
        <time>2021-04-03T10:36:49Z</time>
      </trkpt>
      <trkpt lat="47.3086" lon="6.04911">
        <ele>471.2</ele>
        <time>2021-04-03T10:36:50Z</time>
      </trkpt>
      <trkpt lat="47.30858" lon="6.04903">
        <ele>470.8</ele>
        <time>2021-04-03T10:36:51Z</time>
      </trkpt>
      <trkpt lat="47.30856" lon="6.04896">
        <ele>470</ele>
        <time>2021-04-03T10:36:52Z</time>
      </trkpt>
      <trkpt lat="47.30854" lon="6.04889">
        <ele>469.6</ele>
        <time>2021-04-03T10:36:53Z</time>
      </trkpt>
      <trkpt lat="47.30852" lon="6.04883">
        <ele>469.2</ele>
        <time>2021-04-03T10:36:54Z</time>
      </trkpt>
      <trkpt lat="47.30851" lon="6.04878">
        <ele>469</ele>
        <time>2021-04-03T10:36:55Z</time>
      </trkpt>
      <trkpt lat="47.3085" lon="6.04873">
        <ele>468.6</ele>
        <time>2021-04-03T10:36:56Z</time>
      </trkpt>
      <trkpt lat="47.30849" lon="6.04868">
        <ele>468.6</ele>
        <time>2021-04-03T10:36:57Z</time>
      </trkpt>
      <trkpt lat="47.30848" lon="6.04864">
        <ele>468.6</ele>
        <time>2021-04-03T10:36:58Z</time>
      </trkpt>
      <trkpt lat="47.30847" lon="6.04859">
        <ele>468.4</ele>
        <time>2021-04-03T10:36:59Z</time>
      </trkpt>
      <trkpt lat="47.30846" lon="6.04855">
        <ele>468.6</ele>
        <time>2021-04-03T10:37:00Z</time>
      </trkpt>
      <trkpt lat="47.30842" lon="6.04836">
        <ele>469.2</ele>
        <time>2021-04-03T10:37:04Z</time>
      </trkpt>
      <trkpt lat="47.30838" lon="6.04809">
        <ele>469.8</ele>
        <time>2021-04-03T10:37:09Z</time>
      </trkpt>
      <trkpt lat="47.30838" lon="6.04804">
        <ele>469.8</ele>
        <time>2021-04-03T10:37:10Z</time>
      </trkpt>
      <trkpt lat="47.30838" lon="6.048">
        <ele>470</ele>
        <time>2021-04-03T10:37:11Z</time>
      </trkpt>
      <trkpt lat="47.30838" lon="6.04795">
        <ele>470</ele>
        <time>2021-04-03T10:37:12Z</time>
      </trkpt>
      <trkpt lat="47.30836" lon="6.04791">
        <ele>470</ele>
        <time>2021-04-03T10:37:13Z</time>
      </trkpt>
      <trkpt lat="47.30836" lon="6.04786">
        <ele>470.2</ele>
        <time>2021-04-03T10:37:14Z</time>
      </trkpt>
      <trkpt lat="47.30836" lon="6.04781">
        <ele>470.2</ele>
        <time>2021-04-03T10:37:15Z</time>
      </trkpt>
      <trkpt lat="47.30835" lon="6.04775">
        <ele>470.4</ele>
        <time>2021-04-03T10:37:16Z</time>
      </trkpt>
      <trkpt lat="47.30833" lon="6.04764">
        <ele>471</ele>
        <time>2021-04-03T10:37:18Z</time>
      </trkpt>
      <trkpt lat="47.30831" lon="6.04753">
        <ele>471.4</ele>
        <time>2021-04-03T10:37:20Z</time>
      </trkpt>
      <trkpt lat="47.30831" lon="6.04749">
        <ele>471.6</ele>
        <time>2021-04-03T10:37:21Z</time>
      </trkpt>
      <trkpt lat="47.30831" lon="6.04745">
        <ele>471.6</ele>
        <time>2021-04-03T10:37:22Z</time>
      </trkpt>
      <trkpt lat="47.3083" lon="6.04742">
        <ele>471.8</ele>
        <time>2021-04-03T10:37:23Z</time>
      </trkpt>
      <trkpt lat="47.30829" lon="6.04738">
        <ele>471.8</ele>
        <time>2021-04-03T10:37:24Z</time>
      </trkpt>
      <trkpt lat="47.30828" lon="6.04734">
        <ele>472</ele>
        <time>2021-04-03T10:37:25Z</time>
      </trkpt>
      <trkpt lat="47.30827" lon="6.04729">
        <ele>472.2</ele>
        <time>2021-04-03T10:37:26Z</time>
      </trkpt>
      <trkpt lat="47.30826" lon="6.04725">
        <ele>472.2</ele>
        <time>2021-04-03T10:37:27Z</time>
      </trkpt>
      <trkpt lat="47.30826" lon="6.04722">
        <ele>472.2</ele>
        <time>2021-04-03T10:37:28Z</time>
      </trkpt>
      <trkpt lat="47.30826" lon="6.04718">
        <ele>472.2</ele>
        <time>2021-04-03T10:37:29Z</time>
      </trkpt>
      <trkpt lat="47.30822" lon="6.04709">
        <ele>472.2</ele>
        <time>2021-04-03T10:37:31Z</time>
      </trkpt>
      <trkpt lat="47.30821" lon="6.04705">
        <ele>472.4</ele>
        <time>2021-04-03T10:37:32Z</time>
      </trkpt>
      <trkpt lat="47.30817" lon="6.04696">
        <ele>472.6</ele>
        <time>2021-04-03T10:37:34Z</time>
      </trkpt>
      <trkpt lat="47.30815" lon="6.04692">
        <ele>472.8</ele>
        <time>2021-04-03T10:37:35Z</time>
      </trkpt>
      <trkpt lat="47.30808" lon="6.04678">
        <ele>473.2</ele>
        <time>2021-04-03T10:37:37Z</time>
      </trkpt>
      <trkpt lat="47.30804" lon="6.04668">
        <ele>473.8</ele>
        <time>2021-04-03T10:37:39Z</time>
      </trkpt>
      <trkpt lat="47.30802" lon="6.04663">
        <ele>474.2</ele>
        <time>2021-04-03T10:37:40Z</time>
      </trkpt>
      <trkpt lat="47.308" lon="6.04658">
        <ele>474.2</ele>
        <time>2021-04-03T10:37:41Z</time>
      </trkpt>
      <trkpt lat="47.30797" lon="6.04654">
        <ele>474.4</ele>
        <time>2021-04-03T10:37:42Z</time>
      </trkpt>
      <trkpt lat="47.30795" lon="6.04648">
        <ele>474.4</ele>
        <time>2021-04-03T10:37:43Z</time>
      </trkpt>
      <trkpt lat="47.30795" lon="6.04645">
        <ele>474.4</ele>
        <time>2021-04-03T10:37:44Z</time>
      </trkpt>
      <trkpt lat="47.30795" lon="6.04641">
        <ele>474.4</ele>
        <time>2021-04-03T10:37:45Z</time>
      </trkpt>
      <trkpt lat="47.30794" lon="6.04636">
        <ele>474.2</ele>
        <time>2021-04-03T10:37:46Z</time>
      </trkpt>
      <trkpt lat="47.3079" lon="6.04629">
        <ele>474.2</ele>
        <time>2021-04-03T10:37:47Z</time>
      </trkpt>
      <trkpt lat="47.30787" lon="6.04625">
        <ele>474.2</ele>
        <time>2021-04-03T10:37:48Z</time>
      </trkpt>
      <trkpt lat="47.30785" lon="6.04619">
        <ele>474.2</ele>
        <time>2021-04-03T10:37:49Z</time>
      </trkpt>
      <trkpt lat="47.30783" lon="6.04608">
        <ele>474.2</ele>
        <time>2021-04-03T10:37:50Z</time>
      </trkpt>
      <trkpt lat="47.30783" lon="6.04608">
        <ele>474.2</ele>
        <time>2021-04-03T10:37:51Z</time>
      </trkpt>
      <trkpt lat="47.30777" lon="6.04597">
        <ele>474.2</ele>
        <time>2021-04-03T10:37:52Z</time>
      </trkpt>
      <trkpt lat="47.30771" lon="6.04589">
        <ele>474.2</ele>
        <time>2021-04-03T10:37:53Z</time>
      </trkpt>
      <trkpt lat="47.30768" lon="6.04582">
        <ele>474.2</ele>
        <time>2021-04-03T10:37:54Z</time>
      </trkpt>
      <trkpt lat="47.30766" lon="6.04575">
        <ele>474.2</ele>
        <time>2021-04-03T10:37:55Z</time>
      </trkpt>
      <trkpt lat="47.30764" lon="6.0457">
        <ele>474.2</ele>
        <time>2021-04-03T10:37:56Z</time>
      </trkpt>
      <trkpt lat="47.30753" lon="6.04546">
        <ele>474.2</ele>
        <time>2021-04-03T10:38:01Z</time>
      </trkpt>
      <trkpt lat="47.30753" lon="6.04542">
        <ele>474</ele>
        <time>2021-04-03T10:38:02Z</time>
      </trkpt>
      <trkpt lat="47.30753" lon="6.04536">
        <ele>474</ele>
        <time>2021-04-03T10:38:03Z</time>
      </trkpt>
      <trkpt lat="47.30746" lon="6.04521">
        <ele>473.4</ele>
        <time>2021-04-03T10:38:06Z</time>
      </trkpt>
      <trkpt lat="47.30744" lon="6.04515">
        <ele>473.4</ele>
        <time>2021-04-03T10:38:07Z</time>
      </trkpt>
      <trkpt lat="47.30744" lon="6.04511">
        <ele>473.4</ele>
        <time>2021-04-03T10:38:08Z</time>
      </trkpt>
      <trkpt lat="47.30742" lon="6.04505">
        <ele>473.4</ele>
        <time>2021-04-03T10:38:09Z</time>
      </trkpt>
      <trkpt lat="47.30741" lon="6.045">
        <ele>473.4</ele>
        <time>2021-04-03T10:38:10Z</time>
      </trkpt>
      <trkpt lat="47.30741" lon="6.04489">
        <ele>473.4</ele>
        <time>2021-04-03T10:38:12Z</time>
      </trkpt>
      <trkpt lat="47.3074" lon="6.04478">
        <ele>473.4</ele>
        <time>2021-04-03T10:38:14Z</time>
      </trkpt>
      <trkpt lat="47.3074" lon="6.04468">
        <ele>473.4</ele>
        <time>2021-04-03T10:38:16Z</time>
      </trkpt>
      <trkpt lat="47.3074" lon="6.04463">
        <ele>473.4</ele>
        <time>2021-04-03T10:38:17Z</time>
      </trkpt>
      <trkpt lat="47.30737" lon="6.0445">
        <ele>473.6</ele>
        <time>2021-04-03T10:38:19Z</time>
      </trkpt>
      <trkpt lat="47.30736" lon="6.04444">
        <ele>474</ele>
        <time>2021-04-03T10:38:20Z</time>
      </trkpt>
      <trkpt lat="47.30736" lon="6.04444">
        <ele>474.2</ele>
        <time>2021-04-03T10:38:21Z</time>
      </trkpt>
      <trkpt lat="47.30734" lon="6.04436">
        <ele>474.6</ele>
        <time>2021-04-03T10:38:22Z</time>
      </trkpt>
      <trkpt lat="47.30733" lon="6.04431">
        <ele>474.6</ele>
        <time>2021-04-03T10:38:23Z</time>
      </trkpt>
      <trkpt lat="47.30732" lon="6.04426">
        <ele>475</ele>
        <time>2021-04-03T10:38:24Z</time>
      </trkpt>
      <trkpt lat="47.30731" lon="6.04422">
        <ele>475.2</ele>
        <time>2021-04-03T10:38:25Z</time>
      </trkpt>
      <trkpt lat="47.3073" lon="6.04418">
        <ele>475.4</ele>
        <time>2021-04-03T10:38:26Z</time>
      </trkpt>
      <trkpt lat="47.30731" lon="6.04415">
        <ele>475.8</ele>
        <time>2021-04-03T10:38:27Z</time>
      </trkpt>
      <trkpt lat="47.30731" lon="6.0441">
        <ele>476</ele>
        <time>2021-04-03T10:38:28Z</time>
      </trkpt>
      <trkpt lat="47.3073" lon="6.04405">
        <ele>476.4</ele>
        <time>2021-04-03T10:38:29Z</time>
      </trkpt>
      <trkpt lat="47.30729" lon="6.044">
        <ele>476.6</ele>
        <time>2021-04-03T10:38:30Z</time>
      </trkpt>
      <trkpt lat="47.30728" lon="6.04394">
        <ele>476.8</ele>
        <time>2021-04-03T10:38:31Z</time>
      </trkpt>
      <trkpt lat="47.30729" lon="6.04389">
        <ele>476.8</ele>
        <time>2021-04-03T10:38:32Z</time>
      </trkpt>
      <trkpt lat="47.30729" lon="6.04384">
        <ele>477.2</ele>
        <time>2021-04-03T10:38:33Z</time>
      </trkpt>
      <trkpt lat="47.30729" lon="6.04379">
        <ele>477.4</ele>
        <time>2021-04-03T10:38:34Z</time>
      </trkpt>
      <trkpt lat="47.30729" lon="6.04375">
        <ele>477.6</ele>
        <time>2021-04-03T10:38:35Z</time>
      </trkpt>
      <trkpt lat="47.30729" lon="6.04371">
        <ele>477.6</ele>
        <time>2021-04-03T10:38:36Z</time>
      </trkpt>
      <trkpt lat="47.30728" lon="6.04366">
        <ele>477.8</ele>
        <time>2021-04-03T10:38:37Z</time>
      </trkpt>
      <trkpt lat="47.30727" lon="6.04361">
        <ele>478.2</ele>
        <time>2021-04-03T10:38:38Z</time>
      </trkpt>
      <trkpt lat="47.30726" lon="6.04356">
        <ele>478.4</ele>
        <time>2021-04-03T10:38:39Z</time>
      </trkpt>
      <trkpt lat="47.30727" lon="6.04353">
        <ele>478.6</ele>
        <time>2021-04-03T10:38:40Z</time>
      </trkpt>
      <trkpt lat="47.30728" lon="6.0435">
        <ele>478.8</ele>
        <time>2021-04-03T10:38:41Z</time>
      </trkpt>
      <trkpt lat="47.30728" lon="6.0435">
        <ele>479</ele>
        <time>2021-04-03T10:38:42Z</time>
      </trkpt>
      <trkpt lat="47.30726" lon="6.04341">
        <ele>479</ele>
        <time>2021-04-03T10:38:43Z</time>
      </trkpt>
      <trkpt lat="47.30725" lon="6.04338">
        <ele>479.2</ele>
        <time>2021-04-03T10:38:44Z</time>
      </trkpt>
      <trkpt lat="47.30725" lon="6.04335">
        <ele>479.2</ele>
        <time>2021-04-03T10:38:45Z</time>
      </trkpt>
      <trkpt lat="47.30724" lon="6.04331">
        <ele>479.4</ele>
        <time>2021-04-03T10:38:46Z</time>
      </trkpt>
      <trkpt lat="47.30723" lon="6.04327">
        <ele>479.4</ele>
        <time>2021-04-03T10:38:47Z</time>
      </trkpt>
      <trkpt lat="47.30722" lon="6.04324">
        <ele>479.4</ele>
        <time>2021-04-03T10:38:48Z</time>
      </trkpt>
      <trkpt lat="47.30721" lon="6.04319">
        <ele>479.6</ele>
        <time>2021-04-03T10:38:49Z</time>
      </trkpt>
      <trkpt lat="47.3072" lon="6.04315">
        <ele>479.6</ele>
        <time>2021-04-03T10:38:50Z</time>
      </trkpt>
      <trkpt lat="47.30719" lon="6.0431">
        <ele>479.6</ele>
        <time>2021-04-03T10:38:51Z</time>
      </trkpt>
      <trkpt lat="47.30719" lon="6.0431">
        <ele>479.6</ele>
        <time>2021-04-03T10:38:52Z</time>
      </trkpt>
      <trkpt lat="47.30717" lon="6.04301">
        <ele>479.6</ele>
        <time>2021-04-03T10:38:53Z</time>
      </trkpt>
      <trkpt lat="47.30717" lon="6.04301">
        <ele>479.6</ele>
        <time>2021-04-03T10:38:54Z</time>
      </trkpt>
      <trkpt lat="47.30715" lon="6.04292">
        <ele>479.4</ele>
        <time>2021-04-03T10:38:55Z</time>
      </trkpt>
      <trkpt lat="47.30715" lon="6.04292">
        <ele>479.4</ele>
        <time>2021-04-03T10:38:56Z</time>
      </trkpt>
      <trkpt lat="47.30714" lon="6.04288">
        <ele>479.2</ele>
        <time>2021-04-03T10:38:57Z</time>
      </trkpt>
      <trkpt lat="47.30715" lon="6.04281">
        <ele>479.2</ele>
        <time>2021-04-03T10:38:58Z</time>
      </trkpt>
      <trkpt lat="47.30715" lon="6.04277">
        <ele>479.2</ele>
        <time>2021-04-03T10:38:59Z</time>
      </trkpt>
      <trkpt lat="47.30714" lon="6.04273">
        <ele>479</ele>
        <time>2021-04-03T10:39:00Z</time>
      </trkpt>
      <trkpt lat="47.30714" lon="6.04269">
        <ele>479</ele>
        <time>2021-04-03T10:39:01Z</time>
      </trkpt>
      <trkpt lat="47.3071" lon="6.04239">
        <ele>478.8</ele>
        <time>2021-04-03T10:39:07Z</time>
      </trkpt>
      <trkpt lat="47.30709" lon="6.04235">
        <ele>478.8</ele>
        <time>2021-04-03T10:39:08Z</time>
      </trkpt>
      <trkpt lat="47.30708" lon="6.04231">
        <ele>478.8</ele>
        <time>2021-04-03T10:39:09Z</time>
      </trkpt>
      <trkpt lat="47.30708" lon="6.04227">
        <ele>478.8</ele>
        <time>2021-04-03T10:39:10Z</time>
      </trkpt>
      <trkpt lat="47.30706" lon="6.04222">
        <ele>478.8</ele>
        <time>2021-04-03T10:39:11Z</time>
      </trkpt>
      <trkpt lat="47.30705" lon="6.04208">
        <ele>478.6</ele>
        <time>2021-04-03T10:39:14Z</time>
      </trkpt>
      <trkpt lat="47.30705" lon="6.04204">
        <ele>478.6</ele>
        <time>2021-04-03T10:39:15Z</time>
      </trkpt>
      <trkpt lat="47.30704" lon="6.042">
        <ele>478.6</ele>
        <time>2021-04-03T10:39:16Z</time>
      </trkpt>
      <trkpt lat="47.30703" lon="6.04195">
        <ele>478.6</ele>
        <time>2021-04-03T10:39:17Z</time>
      </trkpt>
      <trkpt lat="47.30702" lon="6.0419">
        <ele>478.6</ele>
        <time>2021-04-03T10:39:18Z</time>
      </trkpt>
      <trkpt lat="47.30701" lon="6.04174">
        <ele>478.6</ele>
        <time>2021-04-03T10:39:21Z</time>
      </trkpt>
      <trkpt lat="47.30701" lon="6.04169">
        <ele>478.8</ele>
        <time>2021-04-03T10:39:22Z</time>
      </trkpt>
      <trkpt lat="47.307" lon="6.04164">
        <ele>478.8</ele>
        <time>2021-04-03T10:39:23Z</time>
      </trkpt>
      <trkpt lat="47.30698" lon="6.04144">
        <ele>478.8</ele>
        <time>2021-04-03T10:39:26Z</time>
      </trkpt>
      <trkpt lat="47.30696" lon="6.04137">
        <ele>478.8</ele>
        <time>2021-04-03T10:39:27Z</time>
      </trkpt>
      <trkpt lat="47.30696" lon="6.04137">
        <ele>479</ele>
        <time>2021-04-03T10:39:28Z</time>
      </trkpt>
      <trkpt lat="47.30694" lon="6.04127">
        <ele>479</ele>
        <time>2021-04-03T10:39:29Z</time>
      </trkpt>
      <trkpt lat="47.30693" lon="6.04122">
        <ele>479</ele>
        <time>2021-04-03T10:39:30Z</time>
      </trkpt>
      <trkpt lat="47.30692" lon="6.04118">
        <ele>479</ele>
        <time>2021-04-03T10:39:31Z</time>
      </trkpt>
      <trkpt lat="47.30692" lon="6.04115">
        <ele>479</ele>
        <time>2021-04-03T10:39:32Z</time>
      </trkpt>
      <trkpt lat="47.30691" lon="6.04105">
        <ele>478.8</ele>
        <time>2021-04-03T10:39:34Z</time>
      </trkpt>
      <trkpt lat="47.30689" lon="6.04076">
        <ele>478</ele>
        <time>2021-04-03T10:39:39Z</time>
      </trkpt>
      <trkpt lat="47.30688" lon="6.04067">
        <ele>477.8</ele>
        <time>2021-04-03T10:39:40Z</time>
      </trkpt>
      <trkpt lat="47.30684" lon="6.04051">
        <ele>477.2</ele>
        <time>2021-04-03T10:39:42Z</time>
      </trkpt>
      <trkpt lat="47.30681" lon="6.0404">
        <ele>477</ele>
        <time>2021-04-03T10:39:43Z</time>
      </trkpt>
      <trkpt lat="47.30678" lon="6.04022">
        <ele>476</ele>
        <time>2021-04-03T10:39:45Z</time>
      </trkpt>
      <trkpt lat="47.30676" lon="6.0401">
        <ele>475.4</ele>
        <time>2021-04-03T10:39:46Z</time>
      </trkpt>
      <trkpt lat="47.30668" lon="6.03986">
        <ele>474.2</ele>
        <time>2021-04-03T10:39:48Z</time>
      </trkpt>
      <trkpt lat="47.30662" lon="6.03963">
        <ele>473.4</ele>
        <time>2021-04-03T10:39:50Z</time>
      </trkpt>
      <trkpt lat="47.30658" lon="6.0395">
        <ele>472.6</ele>
        <time>2021-04-03T10:39:51Z</time>
      </trkpt>
      <trkpt lat="47.30649" lon="6.03925">
        <ele>471.2</ele>
        <time>2021-04-03T10:39:53Z</time>
      </trkpt>
      <trkpt lat="47.30644" lon="6.03912">
        <ele>470</ele>
        <time>2021-04-03T10:39:55Z</time>
      </trkpt>
      <trkpt lat="47.30638" lon="6.03886">
        <ele>469.6</ele>
        <time>2021-04-03T10:39:56Z</time>
      </trkpt>
      <trkpt lat="47.30638" lon="6.03886">
        <ele>469</ele>
        <time>2021-04-03T10:39:57Z</time>
      </trkpt>
      <trkpt lat="47.30634" lon="6.0386">
        <ele>468.8</ele>
        <time>2021-04-03T10:39:58Z</time>
      </trkpt>
      <trkpt lat="47.30631" lon="6.03833">
        <ele>467.6</ele>
        <time>2021-04-03T10:40:00Z</time>
      </trkpt>
      <trkpt lat="47.30631" lon="6.03821">
        <ele>466.8</ele>
        <time>2021-04-03T10:40:01Z</time>
      </trkpt>
      <trkpt lat="47.30631" lon="6.03821">
        <ele>466</ele>
        <time>2021-04-03T10:40:02Z</time>
      </trkpt>
      <trkpt lat="47.30632" lon="6.03801">
        <ele>466</ele>
        <time>2021-04-03T10:40:03Z</time>
      </trkpt>
      <trkpt lat="47.30633" lon="6.03795">
        <ele>465.8</ele>
        <time>2021-04-03T10:40:04Z</time>
      </trkpt>
      <trkpt lat="47.30633" lon="6.0379">
        <ele>465.6</ele>
        <time>2021-04-03T10:40:05Z</time>
      </trkpt>
      <trkpt lat="47.30633" lon="6.03785">
        <ele>465.6</ele>
        <time>2021-04-03T10:40:06Z</time>
      </trkpt>
      <trkpt lat="47.30633" lon="6.03785">
        <ele>465.6</ele>
        <time>2021-04-03T10:40:07Z</time>
      </trkpt>
      <trkpt lat="47.30632" lon="6.03779">
        <ele>465.6</ele>
        <time>2021-04-03T10:40:08Z</time>
      </trkpt>
      <trkpt lat="47.30632" lon="6.03774">
        <ele>465.8</ele>
        <time>2021-04-03T10:40:09Z</time>
      </trkpt>
      <trkpt lat="47.30633" lon="6.03771">
        <ele>466.2</ele>
        <time>2021-04-03T10:40:10Z</time>
      </trkpt>
      <trkpt lat="47.30633" lon="6.03768">
        <ele>466.6</ele>
        <time>2021-04-03T10:40:11Z</time>
      </trkpt>
      <trkpt lat="47.30633" lon="6.03768">
        <ele>466.8</ele>
        <time>2021-04-03T10:40:12Z</time>
      </trkpt>
      <trkpt lat="47.30631" lon="6.03762">
        <ele>467.2</ele>
        <time>2021-04-03T10:40:13Z</time>
      </trkpt>
      <trkpt lat="47.30631" lon="6.03762">
        <ele>467.6</ele>
        <time>2021-04-03T10:40:14Z</time>
      </trkpt>
      <trkpt lat="47.30631" lon="6.03761">
        <ele>468</ele>
        <time>2021-04-03T10:40:15Z</time>
      </trkpt>
      <trkpt lat="47.30631" lon="6.03761">
        <ele>468</ele>
        <time>2021-04-03T10:40:16Z</time>
      </trkpt>
      <trkpt lat="47.30631" lon="6.03761">
        <ele>468.4</ele>
        <time>2021-04-03T10:40:17Z</time>
      </trkpt>
      <trkpt lat="47.30631" lon="6.03761">
        <ele>468.6</ele>
        <time>2021-04-03T10:40:19Z</time>
      </trkpt>
      <trkpt lat="47.30629" lon="6.0376">
        <ele>468.6</ele>
        <time>2021-04-03T10:40:26Z</time>
      </trkpt>
      <trkpt lat="47.30629" lon="6.0376">
        <ele>468</ele>
        <time>2021-04-03T10:40:33Z</time>
      </trkpt>
      <trkpt lat="47.30629" lon="6.0376">
        <ele>467.8</ele>
        <time>2021-04-03T10:40:45Z</time>
      </trkpt>
      <trkpt lat="47.30629" lon="6.03759">
        <ele>468.4</ele>
        <time>2021-04-03T10:41:10Z</time>
      </trkpt>
      <trkpt lat="47.30629" lon="6.03759">
        <ele>467.4</ele>
        <time>2021-04-03T10:41:37Z</time>
      </trkpt>
      <trkpt lat="47.30628" lon="6.03756">
        <ele>468.2</ele>
        <time>2021-04-03T10:41:44Z</time>
      </trkpt>
      <trkpt lat="47.30626" lon="6.0375">
        <ele>468.2</ele>
        <time>2021-04-03T10:41:46Z</time>
      </trkpt>
      <trkpt lat="47.30625" lon="6.03747">
        <ele>468.4</ele>
        <time>2021-04-03T10:41:47Z</time>
      </trkpt>
      <trkpt lat="47.30625" lon="6.03743">
        <ele>468.4</ele>
        <time>2021-04-03T10:41:48Z</time>
      </trkpt>
      <trkpt lat="47.30625" lon="6.03738">
        <ele>468.4</ele>
        <time>2021-04-03T10:41:49Z</time>
      </trkpt>
      <trkpt lat="47.30624" lon="6.03732">
        <ele>468.4</ele>
        <time>2021-04-03T10:41:50Z</time>
      </trkpt>
      <trkpt lat="47.3062" lon="6.03712">
        <ele>468.8</ele>
        <time>2021-04-03T10:41:54Z</time>
      </trkpt>
      <trkpt lat="47.30619" lon="6.03708">
        <ele>468.8</ele>
        <time>2021-04-03T10:41:55Z</time>
      </trkpt>
      <trkpt lat="47.3062" lon="6.03705">
        <ele>468.8</ele>
        <time>2021-04-03T10:41:56Z</time>
      </trkpt>
      <trkpt lat="47.3062" lon="6.03702">
        <ele>469</ele>
        <time>2021-04-03T10:41:57Z</time>
      </trkpt>
      <trkpt lat="47.3062" lon="6.03702">
        <ele>469</ele>
        <time>2021-04-03T10:41:58Z</time>
      </trkpt>
      <trkpt lat="47.30616" lon="6.03679">
        <ele>469.4</ele>
        <time>2021-04-03T10:42:01Z</time>
      </trkpt>
      <trkpt lat="47.30614" lon="6.03673">
        <ele>469.4</ele>
        <time>2021-04-03T10:42:02Z</time>
      </trkpt>
      <trkpt lat="47.30612" lon="6.03653">
        <ele>470</ele>
        <time>2021-04-03T10:42:06Z</time>
      </trkpt>
      <trkpt lat="47.30611" lon="6.03648">
        <ele>470.2</ele>
        <time>2021-04-03T10:42:07Z</time>
      </trkpt>
      <trkpt lat="47.30611" lon="6.03644">
        <ele>470.4</ele>
        <time>2021-04-03T10:42:08Z</time>
      </trkpt>
      <trkpt lat="47.30609" lon="6.03627">
        <ele>471.2</ele>
        <time>2021-04-03T10:42:13Z</time>
      </trkpt>
      <trkpt lat="47.30606" lon="6.03617">
        <ele>471.4</ele>
        <time>2021-04-03T10:42:15Z</time>
      </trkpt>
      <trkpt lat="47.30601" lon="6.03605">
        <ele>471.6</ele>
        <time>2021-04-03T10:42:16Z</time>
      </trkpt>
      <trkpt lat="47.306" lon="6.03599">
        <ele>471.6</ele>
        <time>2021-04-03T10:42:17Z</time>
      </trkpt>
      <trkpt lat="47.306" lon="6.03599">
        <ele>471.6</ele>
        <time>2021-04-03T10:42:18Z</time>
      </trkpt>
      <trkpt lat="47.30594" lon="6.03586">
        <ele>471.6</ele>
        <time>2021-04-03T10:42:19Z</time>
      </trkpt>
      <trkpt lat="47.30589" lon="6.03576">
        <ele>471.6</ele>
        <time>2021-04-03T10:42:20Z</time>
      </trkpt>
      <trkpt lat="47.30589" lon="6.03576">
        <ele>471.6</ele>
        <time>2021-04-03T10:42:21Z</time>
      </trkpt>
      <trkpt lat="47.30587" lon="6.03564">
        <ele>471.6</ele>
        <time>2021-04-03T10:42:22Z</time>
      </trkpt>
      <trkpt lat="47.30587" lon="6.03564">
        <ele>471.2</ele>
        <time>2021-04-03T10:42:23Z</time>
      </trkpt>
      <trkpt lat="47.30584" lon="6.03551">
        <ele>471</ele>
        <time>2021-04-03T10:42:24Z</time>
      </trkpt>
      <trkpt lat="47.30581" lon="6.03544">
        <ele>470.8</ele>
        <time>2021-04-03T10:42:25Z</time>
      </trkpt>
      <trkpt lat="47.30574" lon="6.03528">
        <ele>470.4</ele>
        <time>2021-04-03T10:42:27Z</time>
      </trkpt>
      <trkpt lat="47.3057" lon="6.03502">
        <ele>470.4</ele>
        <time>2021-04-03T10:42:31Z</time>
      </trkpt>
      <trkpt lat="47.30571" lon="6.03498">
        <ele>470.4</ele>
        <time>2021-04-03T10:42:32Z</time>
      </trkpt>
      <trkpt lat="47.3057" lon="6.03491">
        <ele>470.6</ele>
        <time>2021-04-03T10:42:33Z</time>
      </trkpt>
      <trkpt lat="47.30569" lon="6.03487">
        <ele>470.8</ele>
        <time>2021-04-03T10:42:34Z</time>
      </trkpt>
      <trkpt lat="47.30568" lon="6.03483">
        <ele>471.2</ele>
        <time>2021-04-03T10:42:35Z</time>
      </trkpt>
      <trkpt lat="47.30567" lon="6.03479">
        <ele>471.2</ele>
        <time>2021-04-03T10:42:36Z</time>
      </trkpt>
      <trkpt lat="47.30567" lon="6.03476">
        <ele>471.4</ele>
        <time>2021-04-03T10:42:37Z</time>
      </trkpt>
      <trkpt lat="47.30566" lon="6.03468">
        <ele>471.6</ele>
        <time>2021-04-03T10:42:39Z</time>
      </trkpt>
      <trkpt lat="47.30566" lon="6.03468">
        <ele>471.8</ele>
        <time>2021-04-03T10:42:40Z</time>
      </trkpt>
      <trkpt lat="47.30563" lon="6.0346">
        <ele>472.2</ele>
        <time>2021-04-03T10:42:41Z</time>
      </trkpt>
      <trkpt lat="47.3056" lon="6.03455">
        <ele>472.2</ele>
        <time>2021-04-03T10:42:42Z</time>
      </trkpt>
      <trkpt lat="47.30558" lon="6.0345">
        <ele>472.2</ele>
        <time>2021-04-03T10:42:43Z</time>
      </trkpt>
      <trkpt lat="47.30557" lon="6.03446">
        <ele>472.2</ele>
        <time>2021-04-03T10:42:44Z</time>
      </trkpt>
      <trkpt lat="47.30552" lon="6.0343">
        <ele>471.8</ele>
        <time>2021-04-03T10:42:48Z</time>
      </trkpt>
      <trkpt lat="47.30546" lon="6.03406">
        <ele>471</ele>
        <time>2021-04-03T10:42:53Z</time>
      </trkpt>
      <trkpt lat="47.30541" lon="6.03395">
        <ele>471</ele>
        <time>2021-04-03T10:42:54Z</time>
      </trkpt>
      <trkpt lat="47.30537" lon="6.03386">
        <ele>471</ele>
        <time>2021-04-03T10:42:56Z</time>
      </trkpt>
      <trkpt lat="47.30537" lon="6.03382">
        <ele>471</ele>
        <time>2021-04-03T10:42:57Z</time>
      </trkpt>
      <trkpt lat="47.30535" lon="6.03379">
        <ele>471</ele>
        <time>2021-04-03T10:42:58Z</time>
      </trkpt>
      <trkpt lat="47.30533" lon="6.03374">
        <ele>471</ele>
        <time>2021-04-03T10:42:59Z</time>
      </trkpt>
      <trkpt lat="47.30532" lon="6.0337">
        <ele>471</ele>
        <time>2021-04-03T10:43:00Z</time>
      </trkpt>
      <trkpt lat="47.30531" lon="6.03364">
        <ele>470.8</ele>
        <time>2021-04-03T10:43:01Z</time>
      </trkpt>
      <trkpt lat="47.30529" lon="6.03359">
        <ele>470.8</ele>
        <time>2021-04-03T10:43:02Z</time>
      </trkpt>
      <trkpt lat="47.30529" lon="6.03355">
        <ele>470.8</ele>
        <time>2021-04-03T10:43:03Z</time>
      </trkpt>
      <trkpt lat="47.30528" lon="6.03352">
        <ele>470.8</ele>
        <time>2021-04-03T10:43:04Z</time>
      </trkpt>
      <trkpt lat="47.30529" lon="6.03349">
        <ele>470.8</ele>
        <time>2021-04-03T10:43:05Z</time>
      </trkpt>
      <trkpt lat="47.30529" lon="6.03345">
        <ele>470.8</ele>
        <time>2021-04-03T10:43:06Z</time>
      </trkpt>
      <trkpt lat="47.30529" lon="6.03343">
        <ele>470.8</ele>
        <time>2021-04-03T10:43:07Z</time>
      </trkpt>
      <trkpt lat="47.30526" lon="6.03338">
        <ele>470.6</ele>
        <time>2021-04-03T10:43:08Z</time>
      </trkpt>
      <trkpt lat="47.30524" lon="6.03335">
        <ele>470.6</ele>
        <time>2021-04-03T10:43:09Z</time>
      </trkpt>
      <trkpt lat="47.30517" lon="6.03325">
        <ele>470.4</ele>
        <time>2021-04-03T10:43:12Z</time>
      </trkpt>
      <trkpt lat="47.30513" lon="6.03321">
        <ele>470.2</ele>
        <time>2021-04-03T10:43:13Z</time>
      </trkpt>
      <trkpt lat="47.30506" lon="6.03313">
        <ele>469.8</ele>
        <time>2021-04-03T10:43:16Z</time>
      </trkpt>
      <trkpt lat="47.305" lon="6.03307">
        <ele>468.6</ele>
        <time>2021-04-03T10:43:18Z</time>
      </trkpt>
      <trkpt lat="47.30493" lon="6.03302">
        <ele>468</ele>
        <time>2021-04-03T10:43:19Z</time>
      </trkpt>
      <trkpt lat="47.30481" lon="6.03293">
        <ele>467.6</ele>
        <time>2021-04-03T10:43:21Z</time>
      </trkpt>
      <trkpt lat="47.30481" lon="6.03293">
        <ele>467.4</ele>
        <time>2021-04-03T10:43:22Z</time>
      </trkpt>
      <trkpt lat="47.30455" lon="6.03263">
        <ele>466.6</ele>
        <time>2021-04-03T10:43:25Z</time>
      </trkpt>
      <trkpt lat="47.3045" lon="6.03255">
        <ele>465.8</ele>
        <time>2021-04-03T10:43:26Z</time>
      </trkpt>
      <trkpt lat="47.30442" lon="6.03242">
        <ele>464.6</ele>
        <time>2021-04-03T10:43:28Z</time>
      </trkpt>
      <trkpt lat="47.3044" lon="6.03237">
        <ele>464.2</ele>
        <time>2021-04-03T10:43:29Z</time>
      </trkpt>
      <trkpt lat="47.30439" lon="6.03233">
        <ele>463</ele>
        <time>2021-04-03T10:43:30Z</time>
      </trkpt>
      <trkpt lat="47.30439" lon="6.0323">
        <ele>462.2</ele>
        <time>2021-04-03T10:43:31Z</time>
      </trkpt>
      <trkpt lat="47.30438" lon="6.03227">
        <ele>461.8</ele>
        <time>2021-04-03T10:43:32Z</time>
      </trkpt>
      <trkpt lat="47.30438" lon="6.03224">
        <ele>461.6</ele>
        <time>2021-04-03T10:43:33Z</time>
      </trkpt>
      <trkpt lat="47.30438" lon="6.03221">
        <ele>461.4</ele>
        <time>2021-04-03T10:43:34Z</time>
      </trkpt>
      <trkpt lat="47.30438" lon="6.03219">
        <ele>461.4</ele>
        <time>2021-04-03T10:43:35Z</time>
      </trkpt>
      <trkpt lat="47.30438" lon="6.03216">
        <ele>461.4</ele>
        <time>2021-04-03T10:43:36Z</time>
      </trkpt>
      <trkpt lat="47.30438" lon="6.03213">
        <ele>461.4</ele>
        <time>2021-04-03T10:43:37Z</time>
      </trkpt>
      <trkpt lat="47.30438" lon="6.03211">
        <ele>461.4</ele>
        <time>2021-04-03T10:43:38Z</time>
      </trkpt>
      <trkpt lat="47.30436" lon="6.03207">
        <ele>461.4</ele>
        <time>2021-04-03T10:43:39Z</time>
      </trkpt>
      <trkpt lat="47.30436" lon="6.03204">
        <ele>461.4</ele>
        <time>2021-04-03T10:43:40Z</time>
      </trkpt>
      <trkpt lat="47.30435" lon="6.03201">
        <ele>461.4</ele>
        <time>2021-04-03T10:43:41Z</time>
      </trkpt>
      <trkpt lat="47.30435" lon="6.03197">
        <ele>461.4</ele>
        <time>2021-04-03T10:43:42Z</time>
      </trkpt>
      <trkpt lat="47.30435" lon="6.03194">
        <ele>461.4</ele>
        <time>2021-04-03T10:43:43Z</time>
      </trkpt>
      <trkpt lat="47.30433" lon="6.03187">
        <ele>461.4</ele>
        <time>2021-04-03T10:43:45Z</time>
      </trkpt>
      <trkpt lat="47.30431" lon="6.03183">
        <ele>461.2</ele>
        <time>2021-04-03T10:43:46Z</time>
      </trkpt>
      <trkpt lat="47.30431" lon="6.03183">
        <ele>461.2</ele>
        <time>2021-04-03T10:43:47Z</time>
      </trkpt>
      <trkpt lat="47.30425" lon="6.03164">
        <ele>461</ele>
        <time>2021-04-03T10:43:50Z</time>
      </trkpt>
      <trkpt lat="47.30417" lon="6.03146">
        <ele>460.6</ele>
        <time>2021-04-03T10:43:53Z</time>
      </trkpt>
      <trkpt lat="47.30415" lon="6.0314">
        <ele>460.6</ele>
        <time>2021-04-03T10:43:54Z</time>
      </trkpt>
      <trkpt lat="47.30413" lon="6.03133">
        <ele>460.4</ele>
        <time>2021-04-03T10:43:55Z</time>
      </trkpt>
      <trkpt lat="47.30408" lon="6.03118">
        <ele>460.2</ele>
        <time>2021-04-03T10:43:57Z</time>
      </trkpt>
      <trkpt lat="47.30407" lon="6.03111">
        <ele>459.6</ele>
        <time>2021-04-03T10:43:59Z</time>
      </trkpt>
      <trkpt lat="47.30403" lon="6.03099">
        <ele>459.2</ele>
        <time>2021-04-03T10:44:00Z</time>
      </trkpt>
      <trkpt lat="47.30397" lon="6.03087">
        <ele>458.6</ele>
        <time>2021-04-03T10:44:02Z</time>
      </trkpt>
      <trkpt lat="47.30392" lon="6.03084">
        <ele>458.4</ele>
        <time>2021-04-03T10:44:03Z</time>
      </trkpt>
      <trkpt lat="47.30387" lon="6.03084">
        <ele>458.2</ele>
        <time>2021-04-03T10:44:04Z</time>
      </trkpt>
      <trkpt lat="47.30379" lon="6.03091">
        <ele>457.4</ele>
        <time>2021-04-03T10:44:06Z</time>
      </trkpt>
      <trkpt lat="47.30375" lon="6.03095">
        <ele>457.2</ele>
        <time>2021-04-03T10:44:07Z</time>
      </trkpt>
      <trkpt lat="47.30373" lon="6.031">
        <ele>457</ele>
        <time>2021-04-03T10:44:08Z</time>
      </trkpt>
      <trkpt lat="47.30374" lon="6.03106">
        <ele>456.6</ele>
        <time>2021-04-03T10:44:09Z</time>
      </trkpt>
      <trkpt lat="47.30375" lon="6.03113">
        <ele>456.6</ele>
        <time>2021-04-03T10:44:10Z</time>
      </trkpt>
      <trkpt lat="47.30377" lon="6.03119">
        <ele>456.2</ele>
        <time>2021-04-03T10:44:11Z</time>
      </trkpt>
      <trkpt lat="47.30379" lon="6.03125">
        <ele>456</ele>
        <time>2021-04-03T10:44:12Z</time>
      </trkpt>
      <trkpt lat="47.3038" lon="6.03131">
        <ele>455.6</ele>
        <time>2021-04-03T10:44:13Z</time>
      </trkpt>
      <trkpt lat="47.30383" lon="6.03143">
        <ele>455.4</ele>
        <time>2021-04-03T10:44:15Z</time>
      </trkpt>
      <trkpt lat="47.30384" lon="6.03149">
        <ele>455.2</ele>
        <time>2021-04-03T10:44:16Z</time>
      </trkpt>
      <trkpt lat="47.30386" lon="6.03155">
        <ele>455</ele>
        <time>2021-04-03T10:44:17Z</time>
      </trkpt>
      <trkpt lat="47.30388" lon="6.03161">
        <ele>454.8</ele>
        <time>2021-04-03T10:44:18Z</time>
      </trkpt>
      <trkpt lat="47.30392" lon="6.03173">
        <ele>454.4</ele>
        <time>2021-04-03T10:44:20Z</time>
      </trkpt>
      <trkpt lat="47.30396" lon="6.03185">
        <ele>454.4</ele>
        <time>2021-04-03T10:44:22Z</time>
      </trkpt>
      <trkpt lat="47.30399" lon="6.03198">
        <ele>454.2</ele>
        <time>2021-04-03T10:44:24Z</time>
      </trkpt>
      <trkpt lat="47.30402" lon="6.03211">
        <ele>454</ele>
        <time>2021-04-03T10:44:26Z</time>
      </trkpt>
      <trkpt lat="47.30404" lon="6.03219">
        <ele>454</ele>
        <time>2021-04-03T10:44:27Z</time>
      </trkpt>
      <trkpt lat="47.30407" lon="6.03243">
        <ele>452.8</ele>
        <time>2021-04-03T10:44:30Z</time>
      </trkpt>
      <trkpt lat="47.30414" lon="6.03292">
        <ele>451.2</ele>
        <time>2021-04-03T10:44:35Z</time>
      </trkpt>
      <trkpt lat="47.3042" lon="6.03313">
        <ele>450.2</ele>
        <time>2021-04-03T10:44:37Z</time>
      </trkpt>
      <trkpt lat="47.30427" lon="6.03333">
        <ele>448.8</ele>
        <time>2021-04-03T10:44:39Z</time>
      </trkpt>
      <trkpt lat="47.30427" lon="6.03333">
        <ele>448.2</ele>
        <time>2021-04-03T10:44:40Z</time>
      </trkpt>
      <trkpt lat="47.30434" lon="6.03351">
        <ele>448</ele>
        <time>2021-04-03T10:44:41Z</time>
      </trkpt>
      <trkpt lat="47.30437" lon="6.03358">
        <ele>447.6</ele>
        <time>2021-04-03T10:44:42Z</time>
      </trkpt>
      <trkpt lat="47.30439" lon="6.03364">
        <ele>447.2</ele>
        <time>2021-04-03T10:44:43Z</time>
      </trkpt>
      <trkpt lat="47.30442" lon="6.03371">
        <ele>446.6</ele>
        <time>2021-04-03T10:44:44Z</time>
      </trkpt>
      <trkpt lat="47.30444" lon="6.03377">
        <ele>446.4</ele>
        <time>2021-04-03T10:44:45Z</time>
      </trkpt>
      <trkpt lat="47.30446" lon="6.03382">
        <ele>446</ele>
        <time>2021-04-03T10:44:46Z</time>
      </trkpt>
      <trkpt lat="47.30448" lon="6.03386">
        <ele>445.8</ele>
        <time>2021-04-03T10:44:47Z</time>
      </trkpt>
      <trkpt lat="47.3045" lon="6.0339">
        <ele>445.4</ele>
        <time>2021-04-03T10:44:48Z</time>
      </trkpt>
      <trkpt lat="47.30452" lon="6.03395">
        <ele>445.2</ele>
        <time>2021-04-03T10:44:49Z</time>
      </trkpt>
      <trkpt lat="47.30453" lon="6.034">
        <ele>445.2</ele>
        <time>2021-04-03T10:44:50Z</time>
      </trkpt>
      <trkpt lat="47.30453" lon="6.03405">
        <ele>444.8</ele>
        <time>2021-04-03T10:44:51Z</time>
      </trkpt>
      <trkpt lat="47.30453" lon="6.03408">
        <ele>444.8</ele>
        <time>2021-04-03T10:44:52Z</time>
      </trkpt>
      <trkpt lat="47.30453" lon="6.03412">
        <ele>444.6</ele>
        <time>2021-04-03T10:44:53Z</time>
      </trkpt>
      <trkpt lat="47.30453" lon="6.03415">
        <ele>444.4</ele>
        <time>2021-04-03T10:44:54Z</time>
      </trkpt>
      <trkpt lat="47.30452" lon="6.03419">
        <ele>444.2</ele>
        <time>2021-04-03T10:44:55Z</time>
      </trkpt>
      <trkpt lat="47.30452" lon="6.03422">
        <ele>444.2</ele>
        <time>2021-04-03T10:44:56Z</time>
      </trkpt>
      <trkpt lat="47.30449" lon="6.03424">
        <ele>443.8</ele>
        <time>2021-04-03T10:44:57Z</time>
      </trkpt>
      <trkpt lat="47.30447" lon="6.03426">
        <ele>443.4</ele>
        <time>2021-04-03T10:44:58Z</time>
      </trkpt>
      <trkpt lat="47.30445" lon="6.03427">
        <ele>443.4</ele>
        <time>2021-04-03T10:44:59Z</time>
      </trkpt>
      <trkpt lat="47.30442" lon="6.03427">
        <ele>442.8</ele>
        <time>2021-04-03T10:45:00Z</time>
      </trkpt>
      <trkpt lat="47.30435" lon="6.03428">
        <ele>442.2</ele>
        <time>2021-04-03T10:45:02Z</time>
      </trkpt>
      <trkpt lat="47.30433" lon="6.03426">
        <ele>442</ele>
        <time>2021-04-03T10:45:03Z</time>
      </trkpt>
      <trkpt lat="47.3043" lon="6.03423">
        <ele>441.8</ele>
        <time>2021-04-03T10:45:04Z</time>
      </trkpt>
      <trkpt lat="47.30428" lon="6.03419">
        <ele>441.6</ele>
        <time>2021-04-03T10:45:05Z</time>
      </trkpt>
      <trkpt lat="47.30424" lon="6.0341">
        <ele>441.4</ele>
        <time>2021-04-03T10:45:07Z</time>
      </trkpt>
      <trkpt lat="47.30422" lon="6.03405">
        <ele>441</ele>
        <time>2021-04-03T10:45:08Z</time>
      </trkpt>
      <trkpt lat="47.30418" lon="6.03388">
        <ele>440.6</ele>
        <time>2021-04-03T10:45:11Z</time>
      </trkpt>
      <trkpt lat="47.30417" lon="6.03383">
        <ele>440.6</ele>
        <time>2021-04-03T10:45:12Z</time>
      </trkpt>
      <trkpt lat="47.30415" lon="6.03377">
        <ele>440.6</ele>
        <time>2021-04-03T10:45:13Z</time>
      </trkpt>
      <trkpt lat="47.3041" lon="6.03365">
        <ele>440.2</ele>
        <time>2021-04-03T10:45:15Z</time>
      </trkpt>
      <trkpt lat="47.30399" lon="6.03347">
        <ele>439.6</ele>
        <time>2021-04-03T10:45:18Z</time>
      </trkpt>
      <trkpt lat="47.3039" lon="6.03336">
        <ele>439.2</ele>
        <time>2021-04-03T10:45:20Z</time>
      </trkpt>
      <trkpt lat="47.30365" lon="6.03305">
        <ele>438.4</ele>
        <time>2021-04-03T10:45:24Z</time>
      </trkpt>
      <trkpt lat="47.30358" lon="6.03297">
        <ele>438</ele>
        <time>2021-04-03T10:45:25Z</time>
      </trkpt>
      <trkpt lat="47.30351" lon="6.03289">
        <ele>437.2</ele>
        <time>2021-04-03T10:45:26Z</time>
      </trkpt>
      <trkpt lat="47.30338" lon="6.03272">
        <ele>436.4</ele>
        <time>2021-04-03T10:45:28Z</time>
      </trkpt>
      <trkpt lat="47.30331" lon="6.03263">
        <ele>435.4</ele>
        <time>2021-04-03T10:45:29Z</time>
      </trkpt>
      <trkpt lat="47.30324" lon="6.03254">
        <ele>435</ele>
        <time>2021-04-03T10:45:30Z</time>
      </trkpt>
      <trkpt lat="47.30317" lon="6.03246">
        <ele>434</ele>
        <time>2021-04-03T10:45:31Z</time>
      </trkpt>
      <trkpt lat="47.30301" lon="6.03229">
        <ele>432.4</ele>
        <time>2021-04-03T10:45:33Z</time>
      </trkpt>
      <trkpt lat="47.30285" lon="6.03213">
        <ele>430.8</ele>
        <time>2021-04-03T10:45:35Z</time>
      </trkpt>
      <trkpt lat="47.30277" lon="6.03205">
        <ele>430.4</ele>
        <time>2021-04-03T10:45:36Z</time>
      </trkpt>
      <trkpt lat="47.30268" lon="6.03197">
        <ele>429.4</ele>
        <time>2021-04-03T10:45:37Z</time>
      </trkpt>
      <trkpt lat="47.3025" lon="6.03184">
        <ele>428.2</ele>
        <time>2021-04-03T10:45:39Z</time>
      </trkpt>
      <trkpt lat="47.30243" lon="6.03177">
        <ele>427</ele>
        <time>2021-04-03T10:45:40Z</time>
      </trkpt>
      <trkpt lat="47.30228" lon="6.03164">
        <ele>425.4</ele>
        <time>2021-04-03T10:45:42Z</time>
      </trkpt>
      <trkpt lat="47.30221" lon="6.03158">
        <ele>424.6</ele>
        <time>2021-04-03T10:45:43Z</time>
      </trkpt>
      <trkpt lat="47.30214" lon="6.03152">
        <ele>423.2</ele>
        <time>2021-04-03T10:45:44Z</time>
      </trkpt>
      <trkpt lat="47.30214" lon="6.03152">
        <ele>422.4</ele>
        <time>2021-04-03T10:45:45Z</time>
      </trkpt>
      <trkpt lat="47.30199" lon="6.03143">
        <ele>421.2</ele>
        <time>2021-04-03T10:45:46Z</time>
      </trkpt>
      <trkpt lat="47.30191" lon="6.03141">
        <ele>420.2</ele>
        <time>2021-04-03T10:45:47Z</time>
      </trkpt>
      <trkpt lat="47.30183" lon="6.0314">
        <ele>420</ele>
        <time>2021-04-03T10:45:48Z</time>
      </trkpt>
      <trkpt lat="47.30157" lon="6.03142">
        <ele>418.8</ele>
        <time>2021-04-03T10:45:51Z</time>
      </trkpt>
      <trkpt lat="47.30139" lon="6.03146">
        <ele>418.2</ele>
        <time>2021-04-03T10:45:53Z</time>
      </trkpt>
      <trkpt lat="47.30121" lon="6.03149">
        <ele>417.6</ele>
        <time>2021-04-03T10:45:55Z</time>
      </trkpt>
      <trkpt lat="47.30104" lon="6.03153">
        <ele>416.2</ele>
        <time>2021-04-03T10:45:57Z</time>
      </trkpt>
      <trkpt lat="47.30087" lon="6.03154">
        <ele>415</ele>
        <time>2021-04-03T10:45:59Z</time>
      </trkpt>
      <trkpt lat="47.3008" lon="6.03153">
        <ele>414.4</ele>
        <time>2021-04-03T10:46:00Z</time>
      </trkpt>
      <trkpt lat="47.30073" lon="6.0315">
        <ele>414.2</ele>
        <time>2021-04-03T10:46:01Z</time>
      </trkpt>
      <trkpt lat="47.30066" lon="6.03146">
        <ele>413.6</ele>
        <time>2021-04-03T10:46:02Z</time>
      </trkpt>
      <trkpt lat="47.30061" lon="6.03141">
        <ele>413.6</ele>
        <time>2021-04-03T10:46:03Z</time>
      </trkpt>
      <trkpt lat="47.30055" lon="6.03135">
        <ele>413.2</ele>
        <time>2021-04-03T10:46:04Z</time>
      </trkpt>
      <trkpt lat="47.3005" lon="6.03128">
        <ele>413</ele>
        <time>2021-04-03T10:46:05Z</time>
      </trkpt>
      <trkpt lat="47.30044" lon="6.03119">
        <ele>412.6</ele>
        <time>2021-04-03T10:46:06Z</time>
      </trkpt>
      <trkpt lat="47.30028" lon="6.03088">
        <ele>411</ele>
        <time>2021-04-03T10:46:09Z</time>
      </trkpt>
      <trkpt lat="47.30023" lon="6.03079">
        <ele>410.6</ele>
        <time>2021-04-03T10:46:10Z</time>
      </trkpt>
      <trkpt lat="47.30018" lon="6.03071">
        <ele>410</ele>
        <time>2021-04-03T10:46:11Z</time>
      </trkpt>
      <trkpt lat="47.30014" lon="6.03065">
        <ele>409.6</ele>
        <time>2021-04-03T10:46:12Z</time>
      </trkpt>
      <trkpt lat="47.30007" lon="6.0306">
        <ele>408.4</ele>
        <time>2021-04-03T10:46:13Z</time>
      </trkpt>
      <trkpt lat="47.3" lon="6.03058">
        <ele>407.8</ele>
        <time>2021-04-03T10:46:14Z</time>
      </trkpt>
      <trkpt lat="47.29993" lon="6.0306">
        <ele>406.4</ele>
        <time>2021-04-03T10:46:15Z</time>
      </trkpt>
      <trkpt lat="47.29986" lon="6.03062">
        <ele>405</ele>
        <time>2021-04-03T10:46:16Z</time>
      </trkpt>
      <trkpt lat="47.29972" lon="6.03069">
        <ele>403.6</ele>
        <time>2021-04-03T10:46:18Z</time>
      </trkpt>
      <trkpt lat="47.29964" lon="6.03073">
        <ele>403</ele>
        <time>2021-04-03T10:46:19Z</time>
      </trkpt>
      <trkpt lat="47.29958" lon="6.03077">
        <ele>401.8</ele>
        <time>2021-04-03T10:46:20Z</time>
      </trkpt>
      <trkpt lat="47.29946" lon="6.03083">
        <ele>400.6</ele>
        <time>2021-04-03T10:46:22Z</time>
      </trkpt>
      <trkpt lat="47.29942" lon="6.03085">
        <ele>400.4</ele>
        <time>2021-04-03T10:46:23Z</time>
      </trkpt>
      <trkpt lat="47.29938" lon="6.03086">
        <ele>399.8</ele>
        <time>2021-04-03T10:46:24Z</time>
      </trkpt>
      <trkpt lat="47.29936" lon="6.03086">
        <ele>399.6</ele>
        <time>2021-04-03T10:46:25Z</time>
      </trkpt>
      <trkpt lat="47.29934" lon="6.03086">
        <ele>399.2</ele>
        <time>2021-04-03T10:46:26Z</time>
      </trkpt>
      <trkpt lat="47.29932" lon="6.03086">
        <ele>399</ele>
        <time>2021-04-03T10:46:27Z</time>
      </trkpt>
      <trkpt lat="47.29931" lon="6.03087">
        <ele>398.8</ele>
        <time>2021-04-03T10:46:28Z</time>
      </trkpt>
      <trkpt lat="47.29929" lon="6.03089">
        <ele>398.8</ele>
        <time>2021-04-03T10:46:29Z</time>
      </trkpt>
      <trkpt lat="47.29926" lon="6.03091">
        <ele>398.8</ele>
        <time>2021-04-03T10:46:30Z</time>
      </trkpt>
      <trkpt lat="47.29923" lon="6.03094">
        <ele>398.4</ele>
        <time>2021-04-03T10:46:31Z</time>
      </trkpt>
      <trkpt lat="47.29919" lon="6.03097">
        <ele>398.4</ele>
        <time>2021-04-03T10:46:32Z</time>
      </trkpt>
      <trkpt lat="47.29911" lon="6.03102">
        <ele>398</ele>
        <time>2021-04-03T10:46:34Z</time>
      </trkpt>
      <trkpt lat="47.29895" lon="6.0311">
        <ele>397.2</ele>
        <time>2021-04-03T10:46:37Z</time>
      </trkpt>
      <trkpt lat="47.29889" lon="6.03113">
        <ele>396.8</ele>
        <time>2021-04-03T10:46:38Z</time>
      </trkpt>
      <trkpt lat="47.29881" lon="6.03119">
        <ele>396.4</ele>
        <time>2021-04-03T10:46:40Z</time>
      </trkpt>
      <trkpt lat="47.29877" lon="6.03121">
        <ele>396.2</ele>
        <time>2021-04-03T10:46:41Z</time>
      </trkpt>
      <trkpt lat="47.29872" lon="6.03124">
        <ele>395.4</ele>
        <time>2021-04-03T10:46:42Z</time>
      </trkpt>
      <trkpt lat="47.29858" lon="6.03131">
        <ele>394.2</ele>
        <time>2021-04-03T10:46:44Z</time>
      </trkpt>
      <trkpt lat="47.29851" lon="6.03135">
        <ele>393.8</ele>
        <time>2021-04-03T10:46:45Z</time>
      </trkpt>
      <trkpt lat="47.29837" lon="6.03142">
        <ele>392.2</ele>
        <time>2021-04-03T10:46:47Z</time>
      </trkpt>
      <trkpt lat="47.29828" lon="6.03145">
        <ele>391.6</ele>
        <time>2021-04-03T10:46:48Z</time>
      </trkpt>
      <trkpt lat="47.29828" lon="6.03145">
        <ele>391</ele>
        <time>2021-04-03T10:46:49Z</time>
      </trkpt>
      <trkpt lat="47.29803" lon="6.03154">
        <ele>390</ele>
        <time>2021-04-03T10:46:51Z</time>
      </trkpt>
      <trkpt lat="47.29794" lon="6.03156">
        <ele>389.6</ele>
        <time>2021-04-03T10:46:52Z</time>
      </trkpt>
      <trkpt lat="47.29764" lon="6.03156">
        <ele>387.8</ele>
        <time>2021-04-03T10:46:55Z</time>
      </trkpt>
      <trkpt lat="47.29754" lon="6.03153">
        <ele>386.8</ele>
        <time>2021-04-03T10:46:56Z</time>
      </trkpt>
      <trkpt lat="47.29746" lon="6.0315">
        <ele>386.4</ele>
        <time>2021-04-03T10:46:57Z</time>
      </trkpt>
      <trkpt lat="47.29737" lon="6.03146">
        <ele>386</ele>
        <time>2021-04-03T10:46:58Z</time>
      </trkpt>
      <trkpt lat="47.29729" lon="6.03142">
        <ele>385.8</ele>
        <time>2021-04-03T10:46:59Z</time>
      </trkpt>
      <trkpt lat="47.29721" lon="6.03138">
        <ele>385.4</ele>
        <time>2021-04-03T10:47:00Z</time>
      </trkpt>
      <trkpt lat="47.29713" lon="6.03134">
        <ele>385</ele>
        <time>2021-04-03T10:47:01Z</time>
      </trkpt>
      <trkpt lat="47.29706" lon="6.0313">
        <ele>384.6</ele>
        <time>2021-04-03T10:47:02Z</time>
      </trkpt>
      <trkpt lat="47.29699" lon="6.03127">
        <ele>384.2</ele>
        <time>2021-04-03T10:47:03Z</time>
      </trkpt>
      <trkpt lat="47.29692" lon="6.03123">
        <ele>383.8</ele>
        <time>2021-04-03T10:47:04Z</time>
      </trkpt>
      <trkpt lat="47.29686" lon="6.03118">
        <ele>383.6</ele>
        <time>2021-04-03T10:47:05Z</time>
      </trkpt>
      <trkpt lat="47.29681" lon="6.03113">
        <ele>383.4</ele>
        <time>2021-04-03T10:47:06Z</time>
      </trkpt>
      <trkpt lat="47.29676" lon="6.03108">
        <ele>383.4</ele>
        <time>2021-04-03T10:47:07Z</time>
      </trkpt>
      <trkpt lat="47.29671" lon="6.03103">
        <ele>383.4</ele>
        <time>2021-04-03T10:47:08Z</time>
      </trkpt>
      <trkpt lat="47.29667" lon="6.03098">
        <ele>383.4</ele>
        <time>2021-04-03T10:47:09Z</time>
      </trkpt>
      <trkpt lat="47.29663" lon="6.03094">
        <ele>383.6</ele>
        <time>2021-04-03T10:47:10Z</time>
      </trkpt>
      <trkpt lat="47.29659" lon="6.0309">
        <ele>383.6</ele>
        <time>2021-04-03T10:47:11Z</time>
      </trkpt>
      <trkpt lat="47.29655" lon="6.03087">
        <ele>383.6</ele>
        <time>2021-04-03T10:47:12Z</time>
      </trkpt>
      <trkpt lat="47.29651" lon="6.03084">
        <ele>383.8</ele>
        <time>2021-04-03T10:47:13Z</time>
      </trkpt>
      <trkpt lat="47.29647" lon="6.03081">
        <ele>383.8</ele>
        <time>2021-04-03T10:47:14Z</time>
      </trkpt>
      <trkpt lat="47.29644" lon="6.03079">
        <ele>383.8</ele>
        <time>2021-04-03T10:47:15Z</time>
      </trkpt>
      <trkpt lat="47.2964" lon="6.03078">
        <ele>383.8</ele>
        <time>2021-04-03T10:47:16Z</time>
      </trkpt>
      <trkpt lat="47.29637" lon="6.03076">
        <ele>384</ele>
        <time>2021-04-03T10:47:17Z</time>
      </trkpt>
      <trkpt lat="47.29635" lon="6.03075">
        <ele>384</ele>
        <time>2021-04-03T10:47:18Z</time>
      </trkpt>
      <trkpt lat="47.29632" lon="6.03074">
        <ele>384</ele>
        <time>2021-04-03T10:47:19Z</time>
      </trkpt>
      <trkpt lat="47.29629" lon="6.03073">
        <ele>384</ele>
        <time>2021-04-03T10:47:20Z</time>
      </trkpt>
      <trkpt lat="47.29627" lon="6.03072">
        <ele>384</ele>
        <time>2021-04-03T10:47:21Z</time>
      </trkpt>
      <trkpt lat="47.29625" lon="6.03071">
        <ele>384</ele>
        <time>2021-04-03T10:47:22Z</time>
      </trkpt>
      <trkpt lat="47.29619" lon="6.03068">
        <ele>384</ele>
        <time>2021-04-03T10:47:25Z</time>
      </trkpt>
      <trkpt lat="47.29617" lon="6.03066">
        <ele>384</ele>
        <time>2021-04-03T10:47:26Z</time>
      </trkpt>
      <trkpt lat="47.29616" lon="6.03065">
        <ele>384.2</ele>
        <time>2021-04-03T10:47:27Z</time>
      </trkpt>
      <trkpt lat="47.29614" lon="6.03063">
        <ele>384.2</ele>
        <time>2021-04-03T10:47:28Z</time>
      </trkpt>
      <trkpt lat="47.29612" lon="6.03062">
        <ele>384.2</ele>
        <time>2021-04-03T10:47:29Z</time>
      </trkpt>
      <trkpt lat="47.2961" lon="6.0306">
        <ele>384.4</ele>
        <time>2021-04-03T10:47:30Z</time>
      </trkpt>
      <trkpt lat="47.29608" lon="6.03059">
        <ele>384.4</ele>
        <time>2021-04-03T10:47:31Z</time>
      </trkpt>
      <trkpt lat="47.29606" lon="6.03057">
        <ele>384.4</ele>
        <time>2021-04-03T10:47:32Z</time>
      </trkpt>
      <trkpt lat="47.29604" lon="6.03056">
        <ele>384.6</ele>
        <time>2021-04-03T10:47:33Z</time>
      </trkpt>
      <trkpt lat="47.29603" lon="6.03055">
        <ele>384.6</ele>
        <time>2021-04-03T10:47:34Z</time>
      </trkpt>
      <trkpt lat="47.29601" lon="6.03053">
        <ele>385</ele>
        <time>2021-04-03T10:47:35Z</time>
      </trkpt>
      <trkpt lat="47.29599" lon="6.03051">
        <ele>385</ele>
        <time>2021-04-03T10:47:36Z</time>
      </trkpt>
      <trkpt lat="47.29596" lon="6.03048">
        <ele>385.2</ele>
        <time>2021-04-03T10:47:38Z</time>
      </trkpt>
      <trkpt lat="47.29594" lon="6.03046">
        <ele>385.4</ele>
        <time>2021-04-03T10:47:39Z</time>
      </trkpt>
      <trkpt lat="47.29592" lon="6.03044">
        <ele>385.4</ele>
        <time>2021-04-03T10:47:40Z</time>
      </trkpt>
      <trkpt lat="47.2959" lon="6.03041">
        <ele>385.4</ele>
        <time>2021-04-03T10:47:41Z</time>
      </trkpt>
      <trkpt lat="47.29586" lon="6.03036">
        <ele>385.6</ele>
        <time>2021-04-03T10:47:43Z</time>
      </trkpt>
      <trkpt lat="47.29577" lon="6.03026">
        <ele>385.8</ele>
        <time>2021-04-03T10:47:47Z</time>
      </trkpt>
      <trkpt lat="47.29567" lon="6.03014">
        <ele>386.4</ele>
        <time>2021-04-03T10:47:51Z</time>
      </trkpt>
      <trkpt lat="47.29564" lon="6.03011">
        <ele>386.6</ele>
        <time>2021-04-03T10:47:52Z</time>
      </trkpt>
      <trkpt lat="47.29553" lon="6.02998">
        <ele>387.6</ele>
        <time>2021-04-03T10:47:57Z</time>
      </trkpt>
      <trkpt lat="47.29549" lon="6.02992">
        <ele>387.8</ele>
        <time>2021-04-03T10:47:59Z</time>
      </trkpt>
      <trkpt lat="47.29547" lon="6.02989">
        <ele>388</ele>
        <time>2021-04-03T10:48:00Z</time>
      </trkpt>
      <trkpt lat="47.29545" lon="6.02986">
        <ele>388</ele>
        <time>2021-04-03T10:48:01Z</time>
      </trkpt>
      <trkpt lat="47.29545" lon="6.02986">
        <ele>388.4</ele>
        <time>2021-04-03T10:48:02Z</time>
      </trkpt>
      <trkpt lat="47.29538" lon="6.02978">
        <ele>388.4</ele>
        <time>2021-04-03T10:48:03Z</time>
      </trkpt>
      <trkpt lat="47.29534" lon="6.02975">
        <ele>388.6</ele>
        <time>2021-04-03T10:48:04Z</time>
      </trkpt>
      <trkpt lat="47.29532" lon="6.02972">
        <ele>388.6</ele>
        <time>2021-04-03T10:48:05Z</time>
      </trkpt>
      <trkpt lat="47.29528" lon="6.02969">
        <ele>388.8</ele>
        <time>2021-04-03T10:48:06Z</time>
      </trkpt>
      <trkpt lat="47.29524" lon="6.02966">
        <ele>388.8</ele>
        <time>2021-04-03T10:48:07Z</time>
      </trkpt>
      <trkpt lat="47.29521" lon="6.02964">
        <ele>388.8</ele>
        <time>2021-04-03T10:48:08Z</time>
      </trkpt>
      <trkpt lat="47.29517" lon="6.02961">
        <ele>388.8</ele>
        <time>2021-04-03T10:48:09Z</time>
      </trkpt>
      <trkpt lat="47.29514" lon="6.02958">
        <ele>388.8</ele>
        <time>2021-04-03T10:48:10Z</time>
      </trkpt>
      <trkpt lat="47.29511" lon="6.02956">
        <ele>388.8</ele>
        <time>2021-04-03T10:48:11Z</time>
      </trkpt>
      <trkpt lat="47.29508" lon="6.02953">
        <ele>388.8</ele>
        <time>2021-04-03T10:48:12Z</time>
      </trkpt>
      <trkpt lat="47.29505" lon="6.02951">
        <ele>389</ele>
        <time>2021-04-03T10:48:13Z</time>
      </trkpt>
      <trkpt lat="47.29503" lon="6.02949">
        <ele>389</ele>
        <time>2021-04-03T10:48:14Z</time>
      </trkpt>
      <trkpt lat="47.29499" lon="6.02947">
        <ele>389</ele>
        <time>2021-04-03T10:48:15Z</time>
      </trkpt>
      <trkpt lat="47.29496" lon="6.02945">
        <ele>389</ele>
        <time>2021-04-03T10:48:16Z</time>
      </trkpt>
      <trkpt lat="47.29493" lon="6.02944">
        <ele>388.6</ele>
        <time>2021-04-03T10:48:17Z</time>
      </trkpt>
      <trkpt lat="47.2949" lon="6.02941">
        <ele>388.6</ele>
        <time>2021-04-03T10:48:18Z</time>
      </trkpt>
      <trkpt lat="47.29476" lon="6.02935">
        <ele>388.4</ele>
        <time>2021-04-03T10:48:22Z</time>
      </trkpt>
      <trkpt lat="47.2945" lon="6.0293">
        <ele>388.2</ele>
        <time>2021-04-03T10:48:27Z</time>
      </trkpt>
      <trkpt lat="47.29421" lon="6.02921">
        <ele>387.8</ele>
        <time>2021-04-03T10:48:32Z</time>
      </trkpt>
      <trkpt lat="47.29415" lon="6.02919">
        <ele>387.8</ele>
        <time>2021-04-03T10:48:33Z</time>
      </trkpt>
      <trkpt lat="47.29396" lon="6.02911">
        <ele>387.4</ele>
        <time>2021-04-03T10:48:36Z</time>
      </trkpt>
      <trkpt lat="47.29391" lon="6.02909">
        <ele>387.4</ele>
        <time>2021-04-03T10:48:37Z</time>
      </trkpt>
      <trkpt lat="47.29376" lon="6.02904">
        <ele>387.2</ele>
        <time>2021-04-03T10:48:39Z</time>
      </trkpt>
      <trkpt lat="47.29362" lon="6.02901">
        <ele>386.2</ele>
        <time>2021-04-03T10:48:41Z</time>
      </trkpt>
      <trkpt lat="47.29329" lon="6.02898">
        <ele>385</ele>
        <time>2021-04-03T10:48:45Z</time>
      </trkpt>
      <trkpt lat="47.29294" lon="6.02897">
        <ele>383.4</ele>
        <time>2021-04-03T10:48:49Z</time>
      </trkpt>
      <trkpt lat="47.29286" lon="6.02898">
        <ele>383.2</ele>
        <time>2021-04-03T10:48:50Z</time>
      </trkpt>
      <trkpt lat="47.29279" lon="6.029">
        <ele>382.4</ele>
        <time>2021-04-03T10:48:51Z</time>
      </trkpt>
      <trkpt lat="47.29273" lon="6.02902">
        <ele>382.2</ele>
        <time>2021-04-03T10:48:52Z</time>
      </trkpt>
      <trkpt lat="47.29268" lon="6.02904">
        <ele>381.4</ele>
        <time>2021-04-03T10:48:53Z</time>
      </trkpt>
      <trkpt lat="47.29259" lon="6.02906">
        <ele>381.2</ele>
        <time>2021-04-03T10:48:54Z</time>
      </trkpt>
      <trkpt lat="47.29253" lon="6.02909">
        <ele>380.8</ele>
        <time>2021-04-03T10:48:55Z</time>
      </trkpt>
      <trkpt lat="47.29247" lon="6.02911">
        <ele>380.4</ele>
        <time>2021-04-03T10:48:56Z</time>
      </trkpt>
      <trkpt lat="47.29242" lon="6.02913">
        <ele>380.4</ele>
        <time>2021-04-03T10:48:57Z</time>
      </trkpt>
      <trkpt lat="47.29237" lon="6.02915">
        <ele>380.2</ele>
        <time>2021-04-03T10:48:58Z</time>
      </trkpt>
      <trkpt lat="47.2923" lon="6.02917">
        <ele>380</ele>
        <time>2021-04-03T10:48:59Z</time>
      </trkpt>
      <trkpt lat="47.29226" lon="6.02919">
        <ele>379.8</ele>
        <time>2021-04-03T10:49:00Z</time>
      </trkpt>
      <trkpt lat="47.2922" lon="6.02923">
        <ele>379.8</ele>
        <time>2021-04-03T10:49:01Z</time>
      </trkpt>
      <trkpt lat="47.29206" lon="6.02935">
        <ele>379.4</ele>
        <time>2021-04-03T10:49:04Z</time>
      </trkpt>
      <trkpt lat="47.29202" lon="6.02939">
        <ele>379.4</ele>
        <time>2021-04-03T10:49:05Z</time>
      </trkpt>
      <trkpt lat="47.29198" lon="6.02942">
        <ele>379.2</ele>
        <time>2021-04-03T10:49:06Z</time>
      </trkpt>
      <trkpt lat="47.29195" lon="6.02945">
        <ele>379.2</ele>
        <time>2021-04-03T10:49:07Z</time>
      </trkpt>
      <trkpt lat="47.29191" lon="6.02948">
        <ele>379.2</ele>
        <time>2021-04-03T10:49:08Z</time>
      </trkpt>
      <trkpt lat="47.29187" lon="6.02952">
        <ele>378.8</ele>
        <time>2021-04-03T10:49:09Z</time>
      </trkpt>
      <trkpt lat="47.29182" lon="6.02956">
        <ele>378.6</ele>
        <time>2021-04-03T10:49:10Z</time>
      </trkpt>
      <trkpt lat="47.29178" lon="6.02959">
        <ele>378.4</ele>
        <time>2021-04-03T10:49:11Z</time>
      </trkpt>
      <trkpt lat="47.29173" lon="6.0296">
        <ele>378.2</ele>
        <time>2021-04-03T10:49:12Z</time>
      </trkpt>
      <trkpt lat="47.29163" lon="6.02964">
        <ele>377.8</ele>
        <time>2021-04-03T10:49:14Z</time>
      </trkpt>
      <trkpt lat="47.29156" lon="6.02965">
        <ele>377.6</ele>
        <time>2021-04-03T10:49:15Z</time>
      </trkpt>
      <trkpt lat="47.29149" lon="6.02966">
        <ele>377.4</ele>
        <time>2021-04-03T10:49:16Z</time>
      </trkpt>
      <trkpt lat="47.29142" lon="6.02966">
        <ele>377.4</ele>
        <time>2021-04-03T10:49:17Z</time>
      </trkpt>
      <trkpt lat="47.29133" lon="6.02965">
        <ele>376.8</ele>
        <time>2021-04-03T10:49:19Z</time>
      </trkpt>
      <trkpt lat="47.29118" lon="6.02961">
        <ele>376.4</ele>
        <time>2021-04-03T10:49:21Z</time>
      </trkpt>
      <trkpt lat="47.2911" lon="6.02958">
        <ele>376</ele>
        <time>2021-04-03T10:49:22Z</time>
      </trkpt>
      <trkpt lat="47.29104" lon="6.02957">
        <ele>375.8</ele>
        <time>2021-04-03T10:49:23Z</time>
      </trkpt>
      <trkpt lat="47.29081" lon="6.02952">
        <ele>374.2</ele>
        <time>2021-04-03T10:49:26Z</time>
      </trkpt>
      <trkpt lat="47.29072" lon="6.02951">
        <ele>373.6</ele>
        <time>2021-04-03T10:49:27Z</time>
      </trkpt>
      <trkpt lat="47.29058" lon="6.02949">
        <ele>373</ele>
        <time>2021-04-03T10:49:29Z</time>
      </trkpt>
      <trkpt lat="47.29038" lon="6.02948">
        <ele>372</ele>
        <time>2021-04-03T10:49:31Z</time>
      </trkpt>
      <trkpt lat="47.29029" lon="6.02949">
        <ele>371.4</ele>
        <time>2021-04-03T10:49:32Z</time>
      </trkpt>
      <trkpt lat="47.2902" lon="6.0295">
        <ele>370.4</ele>
        <time>2021-04-03T10:49:33Z</time>
      </trkpt>
      <trkpt lat="47.29" lon="6.02953">
        <ele>369.6</ele>
        <time>2021-04-03T10:49:35Z</time>
      </trkpt>
      <trkpt lat="47.2899" lon="6.02955">
        <ele>369.2</ele>
        <time>2021-04-03T10:49:36Z</time>
      </trkpt>
      <trkpt lat="47.28979" lon="6.02957">
        <ele>368.6</ele>
        <time>2021-04-03T10:49:37Z</time>
      </trkpt>
      <trkpt lat="47.28971" lon="6.02958">
        <ele>367.6</ele>
        <time>2021-04-03T10:49:38Z</time>
      </trkpt>
      <trkpt lat="47.28961" lon="6.0296">
        <ele>367.4</ele>
        <time>2021-04-03T10:49:39Z</time>
      </trkpt>
      <trkpt lat="47.28951" lon="6.02963">
        <ele>366.6</ele>
        <time>2021-04-03T10:49:40Z</time>
      </trkpt>
      <trkpt lat="47.28929" lon="6.02972">
        <ele>365.6</ele>
        <time>2021-04-03T10:49:43Z</time>
      </trkpt>
      <trkpt lat="47.28921" lon="6.02976">
        <ele>364.6</ele>
        <time>2021-04-03T10:49:44Z</time>
      </trkpt>
      <trkpt lat="47.28915" lon="6.0298">
        <ele>364.2</ele>
        <time>2021-04-03T10:49:45Z</time>
      </trkpt>
      <trkpt lat="47.28906" lon="6.02987">
        <ele>363</ele>
        <time>2021-04-03T10:49:46Z</time>
      </trkpt>
      <trkpt lat="47.28899" lon="6.0299">
        <ele>362.4</ele>
        <time>2021-04-03T10:49:47Z</time>
      </trkpt>
      <trkpt lat="47.28892" lon="6.02993">
        <ele>362.2</ele>
        <time>2021-04-03T10:49:48Z</time>
      </trkpt>
      <trkpt lat="47.28884" lon="6.02994">
        <ele>362</ele>
        <time>2021-04-03T10:49:49Z</time>
      </trkpt>
      <trkpt lat="47.28876" lon="6.02993">
        <ele>361.8</ele>
        <time>2021-04-03T10:49:50Z</time>
      </trkpt>
      <trkpt lat="47.28867" lon="6.02992">
        <ele>361.8</ele>
        <time>2021-04-03T10:49:51Z</time>
      </trkpt>
      <trkpt lat="47.28859" lon="6.02992">
        <ele>361.6</ele>
        <time>2021-04-03T10:49:52Z</time>
      </trkpt>
      <trkpt lat="47.28853" lon="6.02993">
        <ele>361.6</ele>
        <time>2021-04-03T10:49:53Z</time>
      </trkpt>
      <trkpt lat="47.28848" lon="6.02993">
        <ele>361.6</ele>
        <time>2021-04-03T10:49:54Z</time>
      </trkpt>
      <trkpt lat="47.28844" lon="6.02994">
        <ele>361.4</ele>
        <time>2021-04-03T10:49:55Z</time>
      </trkpt>
      <trkpt lat="47.28838" lon="6.02994">
        <ele>361.4</ele>
        <time>2021-04-03T10:49:56Z</time>
      </trkpt>
      <trkpt lat="47.28833" lon="6.02996">
        <ele>361.2</ele>
        <time>2021-04-03T10:49:57Z</time>
      </trkpt>
      <trkpt lat="47.28829" lon="6.02997">
        <ele>361.2</ele>
        <time>2021-04-03T10:49:58Z</time>
      </trkpt>
      <trkpt lat="47.28823" lon="6.02998">
        <ele>361.2</ele>
        <time>2021-04-03T10:49:59Z</time>
      </trkpt>
      <trkpt lat="47.28817" lon="6.02997">
        <ele>361.2</ele>
        <time>2021-04-03T10:50:00Z</time>
      </trkpt>
      <trkpt lat="47.2879" lon="6.02999">
        <ele>361</ele>
        <time>2021-04-03T10:50:04Z</time>
      </trkpt>
      <trkpt lat="47.28784" lon="6.03001">
        <ele>361</ele>
        <time>2021-04-03T10:50:05Z</time>
      </trkpt>
      <trkpt lat="47.28776" lon="6.03003">
        <ele>360.8</ele>
        <time>2021-04-03T10:50:06Z</time>
      </trkpt>
      <trkpt lat="47.2877" lon="6.03005">
        <ele>360.6</ele>
        <time>2021-04-03T10:50:07Z</time>
      </trkpt>
      <trkpt lat="47.28762" lon="6.03006">
        <ele>360.4</ele>
        <time>2021-04-03T10:50:08Z</time>
      </trkpt>
      <trkpt lat="47.28755" lon="6.03006">
        <ele>360.2</ele>
        <time>2021-04-03T10:50:09Z</time>
      </trkpt>
      <trkpt lat="47.28746" lon="6.03006">
        <ele>360</ele>
        <time>2021-04-03T10:50:10Z</time>
      </trkpt>
      <trkpt lat="47.28738" lon="6.03006">
        <ele>359.6</ele>
        <time>2021-04-03T10:50:11Z</time>
      </trkpt>
      <trkpt lat="47.28719" lon="6.03007">
        <ele>358.2</ele>
        <time>2021-04-03T10:50:14Z</time>
      </trkpt>
      <trkpt lat="47.28715" lon="6.03008">
        <ele>357.8</ele>
        <time>2021-04-03T10:50:15Z</time>
      </trkpt>
      <trkpt lat="47.2871" lon="6.0301">
        <ele>357.6</ele>
        <time>2021-04-03T10:50:16Z</time>
      </trkpt>
      <trkpt lat="47.28707" lon="6.03011">
        <ele>357.6</ele>
        <time>2021-04-03T10:50:17Z</time>
      </trkpt>
      <trkpt lat="47.28704" lon="6.03012">
        <ele>357.6</ele>
        <time>2021-04-03T10:50:18Z</time>
      </trkpt>
      <trkpt lat="47.28702" lon="6.03012">
        <ele>357.6</ele>
        <time>2021-04-03T10:50:19Z</time>
      </trkpt>
      <trkpt lat="47.28698" lon="6.03013">
        <ele>357.6</ele>
        <time>2021-04-03T10:50:20Z</time>
      </trkpt>
      <trkpt lat="47.28693" lon="6.03014">
        <ele>357.6</ele>
        <time>2021-04-03T10:50:21Z</time>
      </trkpt>
      <trkpt lat="47.28678" lon="6.03019">
        <ele>357.8</ele>
        <time>2021-04-03T10:50:25Z</time>
      </trkpt>
      <trkpt lat="47.28653" lon="6.03025">
        <ele>358.4</ele>
        <time>2021-04-03T10:50:31Z</time>
      </trkpt>
      <trkpt lat="47.28647" lon="6.03026">
        <ele>358.4</ele>
        <time>2021-04-03T10:50:32Z</time>
      </trkpt>
      <trkpt lat="47.28638" lon="6.03027">
        <ele>358.4</ele>
        <time>2021-04-03T10:50:34Z</time>
      </trkpt>
      <trkpt lat="47.28629" lon="6.03026">
        <ele>358.4</ele>
        <time>2021-04-03T10:50:36Z</time>
      </trkpt>
      <trkpt lat="47.28623" lon="6.03026">
        <ele>358.4</ele>
        <time>2021-04-03T10:50:37Z</time>
      </trkpt>
      <trkpt lat="47.28599" lon="6.03023">
        <ele>358.4</ele>
        <time>2021-04-03T10:50:42Z</time>
      </trkpt>
      <trkpt lat="47.28583" lon="6.03023">
        <ele>358.2</ele>
        <time>2021-04-03T10:50:45Z</time>
      </trkpt>
      <trkpt lat="47.28552" lon="6.03021">
        <ele>357.8</ele>
        <time>2021-04-03T10:50:50Z</time>
      </trkpt>
      <trkpt lat="47.28546" lon="6.03022">
        <ele>357.6</ele>
        <time>2021-04-03T10:50:51Z</time>
      </trkpt>
      <trkpt lat="47.28539" lon="6.03023">
        <ele>357.4</ele>
        <time>2021-04-03T10:50:52Z</time>
      </trkpt>
      <trkpt lat="47.28533" lon="6.03025">
        <ele>357.6</ele>
        <time>2021-04-03T10:50:53Z</time>
      </trkpt>
      <trkpt lat="47.28524" lon="6.0303">
        <ele>357.2</ele>
        <time>2021-04-03T10:50:55Z</time>
      </trkpt>
      <trkpt lat="47.28514" lon="6.03036">
        <ele>357.4</ele>
        <time>2021-04-03T10:50:57Z</time>
      </trkpt>
      <trkpt lat="47.2851" lon="6.03038">
        <ele>357.4</ele>
        <time>2021-04-03T10:50:58Z</time>
      </trkpt>
      <trkpt lat="47.28506" lon="6.03041">
        <ele>357.4</ele>
        <time>2021-04-03T10:50:59Z</time>
      </trkpt>
      <trkpt lat="47.28503" lon="6.03043">
        <ele>357.6</ele>
        <time>2021-04-03T10:51:00Z</time>
      </trkpt>
      <trkpt lat="47.28483" lon="6.03059">
        <ele>357.4</ele>
        <time>2021-04-03T10:51:04Z</time>
      </trkpt>
      <trkpt lat="47.28479" lon="6.03061">
        <ele>357.4</ele>
        <time>2021-04-03T10:51:05Z</time>
      </trkpt>
      <trkpt lat="47.28465" lon="6.03066">
        <ele>357.4</ele>
        <time>2021-04-03T10:51:07Z</time>
      </trkpt>
      <trkpt lat="47.28451" lon="6.03069">
        <ele>357.2</ele>
        <time>2021-04-03T10:51:09Z</time>
      </trkpt>
      <trkpt lat="47.28438" lon="6.03071">
        <ele>356.6</ele>
        <time>2021-04-03T10:51:11Z</time>
      </trkpt>
      <trkpt lat="47.2841" lon="6.03078">
        <ele>355.4</ele>
        <time>2021-04-03T10:51:15Z</time>
      </trkpt>
      <trkpt lat="47.28398" lon="6.03079">
        <ele>354.2</ele>
        <time>2021-04-03T10:51:17Z</time>
      </trkpt>
      <trkpt lat="47.28383" lon="6.0308">
        <ele>353.2</ele>
        <time>2021-04-03T10:51:20Z</time>
      </trkpt>
      <trkpt lat="47.28379" lon="6.03081">
        <ele>353</ele>
        <time>2021-04-03T10:51:21Z</time>
      </trkpt>
      <trkpt lat="47.28375" lon="6.03082">
        <ele>352.8</ele>
        <time>2021-04-03T10:51:22Z</time>
      </trkpt>
      <trkpt lat="47.28371" lon="6.03083">
        <ele>352.8</ele>
        <time>2021-04-03T10:51:23Z</time>
      </trkpt>
      <trkpt lat="47.28367" lon="6.03085">
        <ele>352.8</ele>
        <time>2021-04-03T10:51:24Z</time>
      </trkpt>
      <trkpt lat="47.28363" lon="6.03086">
        <ele>352.6</ele>
        <time>2021-04-03T10:51:25Z</time>
      </trkpt>
      <trkpt lat="47.28353" lon="6.03089">
        <ele>352.4</ele>
        <time>2021-04-03T10:51:27Z</time>
      </trkpt>
      <trkpt lat="47.28328" lon="6.03093">
        <ele>352.2</ele>
        <time>2021-04-03T10:51:31Z</time>
      </trkpt>
      <trkpt lat="47.2832" lon="6.03094">
        <ele>352</ele>
        <time>2021-04-03T10:51:32Z</time>
      </trkpt>
      <trkpt lat="47.28284" lon="6.03099">
        <ele>351.2</ele>
        <time>2021-04-03T10:51:37Z</time>
      </trkpt>
      <trkpt lat="47.28276" lon="6.03101">
        <ele>351</ele>
        <time>2021-04-03T10:51:38Z</time>
      </trkpt>
      <trkpt lat="47.28238" lon="6.0311">
        <ele>350.2</ele>
        <time>2021-04-03T10:51:44Z</time>
      </trkpt>
      <trkpt lat="47.28232" lon="6.03111">
        <ele>350.2</ele>
        <time>2021-04-03T10:51:45Z</time>
      </trkpt>
      <trkpt lat="47.28227" lon="6.03111">
        <ele>350.4</ele>
        <time>2021-04-03T10:51:46Z</time>
      </trkpt>
      <trkpt lat="47.28222" lon="6.03112">
        <ele>350.4</ele>
        <time>2021-04-03T10:51:47Z</time>
      </trkpt>
      <trkpt lat="47.28216" lon="6.03113">
        <ele>350.6</ele>
        <time>2021-04-03T10:51:48Z</time>
      </trkpt>
      <trkpt lat="47.2821" lon="6.03113">
        <ele>350.8</ele>
        <time>2021-04-03T10:51:49Z</time>
      </trkpt>
      <trkpt lat="47.28205" lon="6.03114">
        <ele>351</ele>
        <time>2021-04-03T10:51:50Z</time>
      </trkpt>
      <trkpt lat="47.28187" lon="6.03116">
        <ele>351.4</ele>
        <time>2021-04-03T10:51:53Z</time>
      </trkpt>
      <trkpt lat="47.28181" lon="6.03118">
        <ele>351.6</ele>
        <time>2021-04-03T10:51:54Z</time>
      </trkpt>
      <trkpt lat="47.28175" lon="6.03119">
        <ele>351.6</ele>
        <time>2021-04-03T10:51:55Z</time>
      </trkpt>
      <trkpt lat="47.28144" lon="6.03131">
        <ele>351</ele>
        <time>2021-04-03T10:52:00Z</time>
      </trkpt>
      <trkpt lat="47.28139" lon="6.03134">
        <ele>350.8</ele>
        <time>2021-04-03T10:52:01Z</time>
      </trkpt>
      <trkpt lat="47.28133" lon="6.03136">
        <ele>350.6</ele>
        <time>2021-04-03T10:52:02Z</time>
      </trkpt>
      <trkpt lat="47.28127" lon="6.03139">
        <ele>350.2</ele>
        <time>2021-04-03T10:52:03Z</time>
      </trkpt>
      <trkpt lat="47.28121" lon="6.03142">
        <ele>349.6</ele>
        <time>2021-04-03T10:52:04Z</time>
      </trkpt>
      <trkpt lat="47.28098" lon="6.03152">
        <ele>348.6</ele>
        <time>2021-04-03T10:52:08Z</time>
      </trkpt>
      <trkpt lat="47.28087" lon="6.03156">
        <ele>348.6</ele>
        <time>2021-04-03T10:52:10Z</time>
      </trkpt>
      <trkpt lat="47.28082" lon="6.03158">
        <ele>348.6</ele>
        <time>2021-04-03T10:52:11Z</time>
      </trkpt>
      <trkpt lat="47.28077" lon="6.03159">
        <ele>348.4</ele>
        <time>2021-04-03T10:52:12Z</time>
      </trkpt>
      <trkpt lat="47.28072" lon="6.03161">
        <ele>348.6</ele>
        <time>2021-04-03T10:52:13Z</time>
      </trkpt>
      <trkpt lat="47.28067" lon="6.03162">
        <ele>348.6</ele>
        <time>2021-04-03T10:52:14Z</time>
      </trkpt>
      <trkpt lat="47.28063" lon="6.03163">
        <ele>348.8</ele>
        <time>2021-04-03T10:52:15Z</time>
      </trkpt>
      <trkpt lat="47.28054" lon="6.03166">
        <ele>348.8</ele>
        <time>2021-04-03T10:52:17Z</time>
      </trkpt>
      <trkpt lat="47.2805" lon="6.03167">
        <ele>349.2</ele>
        <time>2021-04-03T10:52:18Z</time>
      </trkpt>
      <trkpt lat="47.28046" lon="6.03168">
        <ele>349.6</ele>
        <time>2021-04-03T10:52:19Z</time>
      </trkpt>
      <trkpt lat="47.28041" lon="6.03169">
        <ele>349.8</ele>
        <time>2021-04-03T10:52:20Z</time>
      </trkpt>
      <trkpt lat="47.28037" lon="6.0317">
        <ele>349.8</ele>
        <time>2021-04-03T10:52:21Z</time>
      </trkpt>
      <trkpt lat="47.28032" lon="6.03171">
        <ele>350</ele>
        <time>2021-04-03T10:52:22Z</time>
      </trkpt>
      <trkpt lat="47.28021" lon="6.03171">
        <ele>350.2</ele>
        <time>2021-04-03T10:52:24Z</time>
      </trkpt>
      <trkpt lat="47.28006" lon="6.03171">
        <ele>350.2</ele>
        <time>2021-04-03T10:52:27Z</time>
      </trkpt>
      <trkpt lat="47.28002" lon="6.03171">
        <ele>350.6</ele>
        <time>2021-04-03T10:52:28Z</time>
      </trkpt>
      <trkpt lat="47.27998" lon="6.03171">
        <ele>351</ele>
        <time>2021-04-03T10:52:29Z</time>
      </trkpt>
      <trkpt lat="47.27995" lon="6.03171">
        <ele>351.4</ele>
        <time>2021-04-03T10:52:30Z</time>
      </trkpt>
      <trkpt lat="47.27991" lon="6.03172">
        <ele>351.2</ele>
        <time>2021-04-03T10:52:31Z</time>
      </trkpt>
      <trkpt lat="47.27986" lon="6.03172">
        <ele>351.4</ele>
        <time>2021-04-03T10:52:32Z</time>
      </trkpt>
      <trkpt lat="47.27982" lon="6.03173">
        <ele>351.6</ele>
        <time>2021-04-03T10:52:33Z</time>
      </trkpt>
      <trkpt lat="47.27979" lon="6.03174">
        <ele>351.8</ele>
        <time>2021-04-03T10:52:34Z</time>
      </trkpt>
      <trkpt lat="47.27977" lon="6.03175">
        <ele>352</ele>
        <time>2021-04-03T10:52:35Z</time>
      </trkpt>
      <trkpt lat="47.27974" lon="6.03176">
        <ele>352</ele>
        <time>2021-04-03T10:52:36Z</time>
      </trkpt>
      <trkpt lat="47.27972" lon="6.03177">
        <ele>352</ele>
        <time>2021-04-03T10:52:37Z</time>
      </trkpt>
      <trkpt lat="47.2797" lon="6.03178">
        <ele>352.2</ele>
        <time>2021-04-03T10:52:38Z</time>
      </trkpt>
      <trkpt lat="47.27967" lon="6.03179">
        <ele>352.2</ele>
        <time>2021-04-03T10:52:39Z</time>
      </trkpt>
      <trkpt lat="47.27964" lon="6.03181">
        <ele>352.2</ele>
        <time>2021-04-03T10:52:40Z</time>
      </trkpt>
      <trkpt lat="47.2796" lon="6.03183">
        <ele>352.2</ele>
        <time>2021-04-03T10:52:41Z</time>
      </trkpt>
      <trkpt lat="47.27957" lon="6.03184">
        <ele>352.2</ele>
        <time>2021-04-03T10:52:42Z</time>
      </trkpt>
      <trkpt lat="47.27954" lon="6.03185">
        <ele>352.4</ele>
        <time>2021-04-03T10:52:43Z</time>
      </trkpt>
      <trkpt lat="47.27952" lon="6.03185">
        <ele>352.4</ele>
        <time>2021-04-03T10:52:44Z</time>
      </trkpt>
      <trkpt lat="47.2795" lon="6.03185">
        <ele>352.6</ele>
        <time>2021-04-03T10:52:45Z</time>
      </trkpt>
      <trkpt lat="47.27947" lon="6.03185">
        <ele>352.8</ele>
        <time>2021-04-03T10:52:46Z</time>
      </trkpt>
      <trkpt lat="47.27945" lon="6.03184">
        <ele>352.8</ele>
        <time>2021-04-03T10:52:47Z</time>
      </trkpt>
      <trkpt lat="47.27942" lon="6.03183">
        <ele>352.8</ele>
        <time>2021-04-03T10:52:48Z</time>
      </trkpt>
      <trkpt lat="47.27939" lon="6.03184">
        <ele>353</ele>
        <time>2021-04-03T10:52:49Z</time>
      </trkpt>
      <trkpt lat="47.27936" lon="6.03184">
        <ele>353</ele>
        <time>2021-04-03T10:52:50Z</time>
      </trkpt>
      <trkpt lat="47.27934" lon="6.03185">
        <ele>353</ele>
        <time>2021-04-03T10:52:51Z</time>
      </trkpt>
      <trkpt lat="47.27931" lon="6.03185">
        <ele>353.2</ele>
        <time>2021-04-03T10:52:52Z</time>
      </trkpt>
      <trkpt lat="47.27929" lon="6.03184">
        <ele>353.2</ele>
        <time>2021-04-03T10:52:53Z</time>
      </trkpt>
      <trkpt lat="47.27926" lon="6.03184">
        <ele>353.4</ele>
        <time>2021-04-03T10:52:54Z</time>
      </trkpt>
      <trkpt lat="47.27921" lon="6.03184">
        <ele>353.4</ele>
        <time>2021-04-03T10:52:55Z</time>
      </trkpt>
      <trkpt lat="47.27918" lon="6.03184">
        <ele>353.4</ele>
        <time>2021-04-03T10:52:56Z</time>
      </trkpt>
      <trkpt lat="47.27914" lon="6.03184">
        <ele>353.6</ele>
        <time>2021-04-03T10:52:57Z</time>
      </trkpt>
      <trkpt lat="47.27907" lon="6.03184">
        <ele>354</ele>
        <time>2021-04-03T10:53:00Z</time>
      </trkpt>
      <trkpt lat="47.27904" lon="6.03183">
        <ele>354</ele>
        <time>2021-04-03T10:53:01Z</time>
      </trkpt>
      <trkpt lat="47.27901" lon="6.03183">
        <ele>354.2</ele>
        <time>2021-04-03T10:53:02Z</time>
      </trkpt>
      <trkpt lat="47.27897" lon="6.03183">
        <ele>354.2</ele>
        <time>2021-04-03T10:53:03Z</time>
      </trkpt>
      <trkpt lat="47.27893" lon="6.03182">
        <ele>354.4</ele>
        <time>2021-04-03T10:53:04Z</time>
      </trkpt>
      <trkpt lat="47.27889" lon="6.03179">
        <ele>354.6</ele>
        <time>2021-04-03T10:53:06Z</time>
      </trkpt>
      <trkpt lat="47.27882" lon="6.03175">
        <ele>355</ele>
        <time>2021-04-03T10:53:09Z</time>
      </trkpt>
      <trkpt lat="47.2788" lon="6.03175">
        <ele>355.2</ele>
        <time>2021-04-03T10:53:10Z</time>
      </trkpt>
      <trkpt lat="47.27876" lon="6.03174">
        <ele>355.2</ele>
        <time>2021-04-03T10:53:11Z</time>
      </trkpt>
      <trkpt lat="47.27872" lon="6.03173">
        <ele>355.4</ele>
        <time>2021-04-03T10:53:12Z</time>
      </trkpt>
      <trkpt lat="47.2787" lon="6.03171">
        <ele>355.6</ele>
        <time>2021-04-03T10:53:13Z</time>
      </trkpt>
      <trkpt lat="47.27868" lon="6.0317">
        <ele>356.2</ele>
        <time>2021-04-03T10:53:14Z</time>
      </trkpt>
      <trkpt lat="47.27865" lon="6.03169">
        <ele>356.4</ele>
        <time>2021-04-03T10:53:15Z</time>
      </trkpt>
      <trkpt lat="47.27864" lon="6.03168">
        <ele>356.6</ele>
        <time>2021-04-03T10:53:16Z</time>
      </trkpt>
      <trkpt lat="47.27862" lon="6.03167">
        <ele>356.8</ele>
        <time>2021-04-03T10:53:17Z</time>
      </trkpt>
      <trkpt lat="47.2786" lon="6.03166">
        <ele>357.2</ele>
        <time>2021-04-03T10:53:18Z</time>
      </trkpt>
      <trkpt lat="47.27858" lon="6.03164">
        <ele>357.4</ele>
        <time>2021-04-03T10:53:19Z</time>
      </trkpt>
      <trkpt lat="47.27855" lon="6.03164">
        <ele>357.6</ele>
        <time>2021-04-03T10:53:20Z</time>
      </trkpt>
      <trkpt lat="47.27852" lon="6.03162">
        <ele>358</ele>
        <time>2021-04-03T10:53:21Z</time>
      </trkpt>
      <trkpt lat="47.2785" lon="6.0316">
        <ele>358</ele>
        <time>2021-04-03T10:53:22Z</time>
      </trkpt>
      <trkpt lat="47.27849" lon="6.03159">
        <ele>358.4</ele>
        <time>2021-04-03T10:53:23Z</time>
      </trkpt>
      <trkpt lat="47.27847" lon="6.03159">
        <ele>358.6</ele>
        <time>2021-04-03T10:53:24Z</time>
      </trkpt>
      <trkpt lat="47.27845" lon="6.03158">
        <ele>359.2</ele>
        <time>2021-04-03T10:53:25Z</time>
      </trkpt>
      <trkpt lat="47.27843" lon="6.03158">
        <ele>359.2</ele>
        <time>2021-04-03T10:53:26Z</time>
      </trkpt>
      <trkpt lat="47.27841" lon="6.03158">
        <ele>359.4</ele>
        <time>2021-04-03T10:53:27Z</time>
      </trkpt>
      <trkpt lat="47.27839" lon="6.03157">
        <ele>359.6</ele>
        <time>2021-04-03T10:53:28Z</time>
      </trkpt>
      <trkpt lat="47.27838" lon="6.03156">
        <ele>359.6</ele>
        <time>2021-04-03T10:53:29Z</time>
      </trkpt>
      <trkpt lat="47.27837" lon="6.03156">
        <ele>360</ele>
        <time>2021-04-03T10:53:30Z</time>
      </trkpt>
      <trkpt lat="47.27836" lon="6.03155">
        <ele>360</ele>
        <time>2021-04-03T10:53:31Z</time>
      </trkpt>
      <trkpt lat="47.27834" lon="6.03155">
        <ele>360.6</ele>
        <time>2021-04-03T10:53:32Z</time>
      </trkpt>
      <trkpt lat="47.27832" lon="6.03154">
        <ele>360.8</ele>
        <time>2021-04-03T10:53:33Z</time>
      </trkpt>
      <trkpt lat="47.27831" lon="6.03154">
        <ele>361.2</ele>
        <time>2021-04-03T10:53:34Z</time>
      </trkpt>
      <trkpt lat="47.27831" lon="6.03153">
        <ele>361.2</ele>
        <time>2021-04-03T10:53:35Z</time>
      </trkpt>
      <trkpt lat="47.2783" lon="6.03151">
        <ele>361.4</ele>
        <time>2021-04-03T10:53:36Z</time>
      </trkpt>
      <trkpt lat="47.2783" lon="6.0315">
        <ele>361.4</ele>
        <time>2021-04-03T10:53:37Z</time>
      </trkpt>
      <trkpt lat="47.27829" lon="6.03148">
        <ele>361.4</ele>
        <time>2021-04-03T10:53:38Z</time>
      </trkpt>
      <trkpt lat="47.27828" lon="6.03146">
        <ele>361.4</ele>
        <time>2021-04-03T10:53:39Z</time>
      </trkpt>
      <trkpt lat="47.27827" lon="6.03146">
        <ele>361.4</ele>
        <time>2021-04-03T10:53:40Z</time>
      </trkpt>
      <trkpt lat="47.27826" lon="6.03146">
        <ele>361.6</ele>
        <time>2021-04-03T10:53:41Z</time>
      </trkpt>
      <trkpt lat="47.27825" lon="6.03146">
        <ele>361.8</ele>
        <time>2021-04-03T10:53:42Z</time>
      </trkpt>
      <trkpt lat="47.27825" lon="6.03146">
        <ele>361.6</ele>
        <time>2021-04-03T10:53:43Z</time>
      </trkpt>
      <trkpt lat="47.27823" lon="6.03147">
        <ele>361.6</ele>
        <time>2021-04-03T10:53:44Z</time>
      </trkpt>
      <trkpt lat="47.27822" lon="6.03147">
        <ele>361.6</ele>
        <time>2021-04-03T10:53:45Z</time>
      </trkpt>
      <trkpt lat="47.2782" lon="6.03146">
        <ele>361.6</ele>
        <time>2021-04-03T10:53:46Z</time>
      </trkpt>
      <trkpt lat="47.27819" lon="6.03147">
        <ele>361.6</ele>
        <time>2021-04-03T10:53:47Z</time>
      </trkpt>
      <trkpt lat="47.27816" lon="6.03146">
        <ele>361.6</ele>
        <time>2021-04-03T10:53:48Z</time>
      </trkpt>
      <trkpt lat="47.27813" lon="6.03146">
        <ele>361.8</ele>
        <time>2021-04-03T10:53:49Z</time>
      </trkpt>
      <trkpt lat="47.27811" lon="6.03146">
        <ele>361.8</ele>
        <time>2021-04-03T10:53:50Z</time>
      </trkpt>
      <trkpt lat="47.27809" lon="6.03146">
        <ele>361.8</ele>
        <time>2021-04-03T10:53:51Z</time>
      </trkpt>
      <trkpt lat="47.27806" lon="6.03144">
        <ele>361.8</ele>
        <time>2021-04-03T10:53:52Z</time>
      </trkpt>
      <trkpt lat="47.27803" lon="6.03143">
        <ele>361.8</ele>
        <time>2021-04-03T10:53:53Z</time>
      </trkpt>
      <trkpt lat="47.27802" lon="6.03142">
        <ele>361.8</ele>
        <time>2021-04-03T10:53:54Z</time>
      </trkpt>
      <trkpt lat="47.278" lon="6.03143">
        <ele>361.8</ele>
        <time>2021-04-03T10:53:55Z</time>
      </trkpt>
      <trkpt lat="47.27798" lon="6.03142">
        <ele>362</ele>
        <time>2021-04-03T10:53:56Z</time>
      </trkpt>
      <trkpt lat="47.27796" lon="6.03142">
        <ele>362</ele>
        <time>2021-04-03T10:53:57Z</time>
      </trkpt>
      <trkpt lat="47.27788" lon="6.03142">
        <ele>362.6</ele>
        <time>2021-04-03T10:54:00Z</time>
      </trkpt>
      <trkpt lat="47.27784" lon="6.0314">
        <ele>362.8</ele>
        <time>2021-04-03T10:54:01Z</time>
      </trkpt>
      <trkpt lat="47.27781" lon="6.03139">
        <ele>362.8</ele>
        <time>2021-04-03T10:54:02Z</time>
      </trkpt>
      <trkpt lat="47.27779" lon="6.03137">
        <ele>363</ele>
        <time>2021-04-03T10:54:03Z</time>
      </trkpt>
      <trkpt lat="47.27776" lon="6.03137">
        <ele>363</ele>
        <time>2021-04-03T10:54:04Z</time>
      </trkpt>
      <trkpt lat="47.27774" lon="6.03137">
        <ele>363.2</ele>
        <time>2021-04-03T10:54:05Z</time>
      </trkpt>
      <trkpt lat="47.27769" lon="6.03136">
        <ele>364.2</ele>
        <time>2021-04-03T10:54:09Z</time>
      </trkpt>
      <trkpt lat="47.27764" lon="6.03136">
        <ele>364.4</ele>
        <time>2021-04-03T10:54:11Z</time>
      </trkpt>
      <trkpt lat="47.27762" lon="6.03136">
        <ele>364.4</ele>
        <time>2021-04-03T10:54:12Z</time>
      </trkpt>
      <trkpt lat="47.2776" lon="6.03137">
        <ele>364.6</ele>
        <time>2021-04-03T10:54:13Z</time>
      </trkpt>
      <trkpt lat="47.27759" lon="6.03136">
        <ele>364.6</ele>
        <time>2021-04-03T10:54:14Z</time>
      </trkpt>
      <trkpt lat="47.27757" lon="6.03136">
        <ele>364.8</ele>
        <time>2021-04-03T10:54:15Z</time>
      </trkpt>
      <trkpt lat="47.27756" lon="6.03136">
        <ele>365</ele>
        <time>2021-04-03T10:54:16Z</time>
      </trkpt>
      <trkpt lat="47.27754" lon="6.03136">
        <ele>365.2</ele>
        <time>2021-04-03T10:54:17Z</time>
      </trkpt>
      <trkpt lat="47.27753" lon="6.03136">
        <ele>365.4</ele>
        <time>2021-04-03T10:54:18Z</time>
      </trkpt>
      <trkpt lat="47.27751" lon="6.03135">
        <ele>365.4</ele>
        <time>2021-04-03T10:54:19Z</time>
      </trkpt>
      <trkpt lat="47.27749" lon="6.03135">
        <ele>365.6</ele>
        <time>2021-04-03T10:54:20Z</time>
      </trkpt>
      <trkpt lat="47.27747" lon="6.03135">
        <ele>365.6</ele>
        <time>2021-04-03T10:54:21Z</time>
      </trkpt>
      <trkpt lat="47.27745" lon="6.03134">
        <ele>365.6</ele>
        <time>2021-04-03T10:54:22Z</time>
      </trkpt>
      <trkpt lat="47.27744" lon="6.03134">
        <ele>365.8</ele>
        <time>2021-04-03T10:54:23Z</time>
      </trkpt>
      <trkpt lat="47.27742" lon="6.03134">
        <ele>365.8</ele>
        <time>2021-04-03T10:54:24Z</time>
      </trkpt>
      <trkpt lat="47.2774" lon="6.03135">
        <ele>365.8</ele>
        <time>2021-04-03T10:54:25Z</time>
      </trkpt>
      <trkpt lat="47.27738" lon="6.03135">
        <ele>365.8</ele>
        <time>2021-04-03T10:54:26Z</time>
      </trkpt>
      <trkpt lat="47.27736" lon="6.03135">
        <ele>365.8</ele>
        <time>2021-04-03T10:54:27Z</time>
      </trkpt>
      <trkpt lat="47.27735" lon="6.03134">
        <ele>365.8</ele>
        <time>2021-04-03T10:54:28Z</time>
      </trkpt>
      <trkpt lat="47.27732" lon="6.03134">
        <ele>365.8</ele>
        <time>2021-04-03T10:54:29Z</time>
      </trkpt>
      <trkpt lat="47.2773" lon="6.03133">
        <ele>365.8</ele>
        <time>2021-04-03T10:54:30Z</time>
      </trkpt>
      <trkpt lat="47.27728" lon="6.03133">
        <ele>365.8</ele>
        <time>2021-04-03T10:54:31Z</time>
      </trkpt>
      <trkpt lat="47.27726" lon="6.03133">
        <ele>365.8</ele>
        <time>2021-04-03T10:54:32Z</time>
      </trkpt>
      <trkpt lat="47.2772" lon="6.03133">
        <ele>365.8</ele>
        <time>2021-04-03T10:54:35Z</time>
      </trkpt>
      <trkpt lat="47.27719" lon="6.03133">
        <ele>365.8</ele>
        <time>2021-04-03T10:54:36Z</time>
      </trkpt>
      <trkpt lat="47.27717" lon="6.03134">
        <ele>366</ele>
        <time>2021-04-03T10:54:37Z</time>
      </trkpt>
      <trkpt lat="47.27715" lon="6.03135">
        <ele>366.2</ele>
        <time>2021-04-03T10:54:38Z</time>
      </trkpt>
      <trkpt lat="47.27711" lon="6.03135">
        <ele>366.2</ele>
        <time>2021-04-03T10:54:39Z</time>
      </trkpt>
      <trkpt lat="47.27711" lon="6.03136">
        <ele>366.2</ele>
        <time>2021-04-03T10:54:40Z</time>
      </trkpt>
      <trkpt lat="47.27709" lon="6.03136">
        <ele>366.4</ele>
        <time>2021-04-03T10:54:41Z</time>
      </trkpt>
      <trkpt lat="47.27708" lon="6.03136">
        <ele>366.4</ele>
        <time>2021-04-03T10:54:42Z</time>
      </trkpt>
      <trkpt lat="47.27707" lon="6.03136">
        <ele>366.4</ele>
        <time>2021-04-03T10:54:43Z</time>
      </trkpt>
      <trkpt lat="47.27702" lon="6.03136">
        <ele>366.4</ele>
        <time>2021-04-03T10:54:44Z</time>
      </trkpt>
      <trkpt lat="47.27701" lon="6.03136">
        <ele>366.4</ele>
        <time>2021-04-03T10:54:45Z</time>
      </trkpt>
      <trkpt lat="47.27701" lon="6.03137">
        <ele>366.4</ele>
        <time>2021-04-03T10:54:46Z</time>
      </trkpt>
      <trkpt lat="47.277" lon="6.03137">
        <ele>366.4</ele>
        <time>2021-04-03T10:54:47Z</time>
      </trkpt>
      <trkpt lat="47.27699" lon="6.03137">
        <ele>366.4</ele>
        <time>2021-04-03T10:54:48Z</time>
      </trkpt>
      <trkpt lat="47.27694" lon="6.03137">
        <ele>366.4</ele>
        <time>2021-04-03T10:54:51Z</time>
      </trkpt>
      <trkpt lat="47.27691" lon="6.03137">
        <ele>366.4</ele>
        <time>2021-04-03T10:54:52Z</time>
      </trkpt>
      <trkpt lat="47.27689" lon="6.03138">
        <ele>366.4</ele>
        <time>2021-04-03T10:54:53Z</time>
      </trkpt>
      <trkpt lat="47.27687" lon="6.0314">
        <ele>366.4</ele>
        <time>2021-04-03T10:54:54Z</time>
      </trkpt>
      <trkpt lat="47.27684" lon="6.03145">
        <ele>366.6</ele>
        <time>2021-04-03T10:54:56Z</time>
      </trkpt>
      <trkpt lat="47.27682" lon="6.03147">
        <ele>366.6</ele>
        <time>2021-04-03T10:54:57Z</time>
      </trkpt>
      <trkpt lat="47.27681" lon="6.03149">
        <ele>366.6</ele>
        <time>2021-04-03T10:54:58Z</time>
      </trkpt>
      <trkpt lat="47.2768" lon="6.03151">
        <ele>366.8</ele>
        <time>2021-04-03T10:54:59Z</time>
      </trkpt>
      <trkpt lat="47.27679" lon="6.03153">
        <ele>366.8</ele>
        <time>2021-04-03T10:55:00Z</time>
      </trkpt>
      <trkpt lat="47.27678" lon="6.03154">
        <ele>367</ele>
        <time>2021-04-03T10:55:01Z</time>
      </trkpt>
      <trkpt lat="47.27669" lon="6.0316">
        <ele>367.2</ele>
        <time>2021-04-03T10:55:05Z</time>
      </trkpt>
      <trkpt lat="47.27667" lon="6.0316">
        <ele>367.4</ele>
        <time>2021-04-03T10:55:06Z</time>
      </trkpt>
      <trkpt lat="47.27665" lon="6.03161">
        <ele>367.4</ele>
        <time>2021-04-03T10:55:07Z</time>
      </trkpt>
      <trkpt lat="47.27663" lon="6.03163">
        <ele>367.4</ele>
        <time>2021-04-03T10:55:08Z</time>
      </trkpt>
      <trkpt lat="47.27661" lon="6.03165">
        <ele>367.4</ele>
        <time>2021-04-03T10:55:09Z</time>
      </trkpt>
      <trkpt lat="47.27658" lon="6.03169">
        <ele>367.6</ele>
        <time>2021-04-03T10:55:11Z</time>
      </trkpt>
      <trkpt lat="47.27656" lon="6.0317">
        <ele>367.6</ele>
        <time>2021-04-03T10:55:12Z</time>
      </trkpt>
      <trkpt lat="47.27653" lon="6.03174">
        <ele>367.6</ele>
        <time>2021-04-03T10:55:14Z</time>
      </trkpt>
      <trkpt lat="47.27653" lon="6.03177">
        <ele>367.8</ele>
        <time>2021-04-03T10:55:15Z</time>
      </trkpt>
      <trkpt lat="47.27652" lon="6.03179">
        <ele>367.8</ele>
        <time>2021-04-03T10:55:16Z</time>
      </trkpt>
      <trkpt lat="47.27652" lon="6.03182">
        <ele>367.8</ele>
        <time>2021-04-03T10:55:17Z</time>
      </trkpt>
      <trkpt lat="47.27651" lon="6.03184">
        <ele>367.8</ele>
        <time>2021-04-03T10:55:18Z</time>
      </trkpt>
      <trkpt lat="47.2765" lon="6.03187">
        <ele>367.8</ele>
        <time>2021-04-03T10:55:19Z</time>
      </trkpt>
      <trkpt lat="47.27645" lon="6.03199">
        <ele>368.4</ele>
        <time>2021-04-03T10:55:24Z</time>
      </trkpt>
      <trkpt lat="47.27644" lon="6.03201">
        <ele>368.6</ele>
        <time>2021-04-03T10:55:25Z</time>
      </trkpt>
      <trkpt lat="47.27644" lon="6.03204">
        <ele>368.6</ele>
        <time>2021-04-03T10:55:26Z</time>
      </trkpt>
      <trkpt lat="47.27643" lon="6.03206">
        <ele>368.8</ele>
        <time>2021-04-03T10:55:27Z</time>
      </trkpt>
      <trkpt lat="47.27642" lon="6.03209">
        <ele>368.8</ele>
        <time>2021-04-03T10:55:28Z</time>
      </trkpt>
      <trkpt lat="47.27634" lon="6.03227">
        <ele>369.4</ele>
        <time>2021-04-03T10:55:35Z</time>
      </trkpt>
      <trkpt lat="47.27632" lon="6.03231">
        <ele>369.4</ele>
        <time>2021-04-03T10:55:37Z</time>
      </trkpt>
      <trkpt lat="47.27628" lon="6.03236">
        <ele>370.2</ele>
        <time>2021-04-03T10:55:40Z</time>
      </trkpt>
      <trkpt lat="47.27627" lon="6.03237">
        <ele>370.2</ele>
        <time>2021-04-03T10:55:41Z</time>
      </trkpt>
      <trkpt lat="47.27626" lon="6.03239">
        <ele>370.4</ele>
        <time>2021-04-03T10:55:42Z</time>
      </trkpt>
      <trkpt lat="47.27625" lon="6.03241">
        <ele>370.4</ele>
        <time>2021-04-03T10:55:43Z</time>
      </trkpt>
      <trkpt lat="47.27624" lon="6.03243">
        <ele>370.6</ele>
        <time>2021-04-03T10:55:44Z</time>
      </trkpt>
      <trkpt lat="47.27624" lon="6.03246">
        <ele>370.8</ele>
        <time>2021-04-03T10:55:45Z</time>
      </trkpt>
      <trkpt lat="47.27623" lon="6.03248">
        <ele>371</ele>
        <time>2021-04-03T10:55:46Z</time>
      </trkpt>
      <trkpt lat="47.27623" lon="6.0325">
        <ele>371</ele>
        <time>2021-04-03T10:55:47Z</time>
      </trkpt>
      <trkpt lat="47.27622" lon="6.03253">
        <ele>371.2</ele>
        <time>2021-04-03T10:55:48Z</time>
      </trkpt>
      <trkpt lat="47.27622" lon="6.03255">
        <ele>371.2</ele>
        <time>2021-04-03T10:55:49Z</time>
      </trkpt>
      <trkpt lat="47.27621" lon="6.03257">
        <ele>371.2</ele>
        <time>2021-04-03T10:55:50Z</time>
      </trkpt>
      <trkpt lat="47.2762" lon="6.03259">
        <ele>371.2</ele>
        <time>2021-04-03T10:55:51Z</time>
      </trkpt>
      <trkpt lat="47.27619" lon="6.03261">
        <ele>371.4</ele>
        <time>2021-04-03T10:55:52Z</time>
      </trkpt>
      <trkpt lat="47.27618" lon="6.03263">
        <ele>371.4</ele>
        <time>2021-04-03T10:55:53Z</time>
      </trkpt>
      <trkpt lat="47.27616" lon="6.03266">
        <ele>371.4</ele>
        <time>2021-04-03T10:55:54Z</time>
      </trkpt>
      <trkpt lat="47.27615" lon="6.03269">
        <ele>371.4</ele>
        <time>2021-04-03T10:55:55Z</time>
      </trkpt>
      <trkpt lat="47.27612" lon="6.03272">
        <ele>371.4</ele>
        <time>2021-04-03T10:55:56Z</time>
      </trkpt>
      <trkpt lat="47.2761" lon="6.03274">
        <ele>371.4</ele>
        <time>2021-04-03T10:55:57Z</time>
      </trkpt>
      <trkpt lat="47.27607" lon="6.03276">
        <ele>371.4</ele>
        <time>2021-04-03T10:55:58Z</time>
      </trkpt>
      <trkpt lat="47.27605" lon="6.03278">
        <ele>371.4</ele>
        <time>2021-04-03T10:55:59Z</time>
      </trkpt>
      <trkpt lat="47.27604" lon="6.03281">
        <ele>371.6</ele>
        <time>2021-04-03T10:56:00Z</time>
      </trkpt>
      <trkpt lat="47.27604" lon="6.03283">
        <ele>371.6</ele>
        <time>2021-04-03T10:56:01Z</time>
      </trkpt>
      <trkpt lat="47.27603" lon="6.03287">
        <ele>371.6</ele>
        <time>2021-04-03T10:56:02Z</time>
      </trkpt>
      <trkpt lat="47.27603" lon="6.03292">
        <ele>371.8</ele>
        <time>2021-04-03T10:56:04Z</time>
      </trkpt>
      <trkpt lat="47.27603" lon="6.03294">
        <ele>372</ele>
        <time>2021-04-03T10:56:05Z</time>
      </trkpt>
      <trkpt lat="47.27603" lon="6.03296">
        <ele>372.2</ele>
        <time>2021-04-03T10:56:06Z</time>
      </trkpt>
      <trkpt lat="47.27603" lon="6.03299">
        <ele>372.4</ele>
        <time>2021-04-03T10:56:07Z</time>
      </trkpt>
      <trkpt lat="47.27603" lon="6.03302">
        <ele>372.8</ele>
        <time>2021-04-03T10:56:08Z</time>
      </trkpt>
      <trkpt lat="47.27603" lon="6.03304">
        <ele>373.2</ele>
        <time>2021-04-03T10:56:09Z</time>
      </trkpt>
      <trkpt lat="47.27603" lon="6.03306">
        <ele>373.2</ele>
        <time>2021-04-03T10:56:10Z</time>
      </trkpt>
      <trkpt lat="47.27602" lon="6.03309">
        <ele>373.6</ele>
        <time>2021-04-03T10:56:11Z</time>
      </trkpt>
      <trkpt lat="47.27602" lon="6.0331">
        <ele>373.6</ele>
        <time>2021-04-03T10:56:12Z</time>
      </trkpt>
      <trkpt lat="47.27601" lon="6.03313">
        <ele>373.8</ele>
        <time>2021-04-03T10:56:13Z</time>
      </trkpt>
      <trkpt lat="47.27599" lon="6.03316">
        <ele>374</ele>
        <time>2021-04-03T10:56:14Z</time>
      </trkpt>
      <trkpt lat="47.27597" lon="6.0332">
        <ele>374.4</ele>
        <time>2021-04-03T10:56:15Z</time>
      </trkpt>
      <trkpt lat="47.27594" lon="6.03325">
        <ele>374.6</ele>
        <time>2021-04-03T10:56:16Z</time>
      </trkpt>
      <trkpt lat="47.27592" lon="6.0333">
        <ele>374.8</ele>
        <time>2021-04-03T10:56:17Z</time>
      </trkpt>
      <trkpt lat="47.27591" lon="6.03333">
        <ele>375</ele>
        <time>2021-04-03T10:56:18Z</time>
      </trkpt>
      <trkpt lat="47.2759" lon="6.03337">
        <ele>375.6</ele>
        <time>2021-04-03T10:56:19Z</time>
      </trkpt>
      <trkpt lat="47.27589" lon="6.0334">
        <ele>376</ele>
        <time>2021-04-03T10:56:20Z</time>
      </trkpt>
      <trkpt lat="47.27587" lon="6.03344">
        <ele>376.4</ele>
        <time>2021-04-03T10:56:21Z</time>
      </trkpt>
      <trkpt lat="47.27586" lon="6.03347">
        <ele>376.8</ele>
        <time>2021-04-03T10:56:22Z</time>
      </trkpt>
      <trkpt lat="47.27584" lon="6.0335">
        <ele>377</ele>
        <time>2021-04-03T10:56:23Z</time>
      </trkpt>
      <trkpt lat="47.27583" lon="6.03353">
        <ele>377.4</ele>
        <time>2021-04-03T10:56:24Z</time>
      </trkpt>
      <trkpt lat="47.27584" lon="6.03356">
        <ele>377.4</ele>
        <time>2021-04-03T10:56:25Z</time>
      </trkpt>
      <trkpt lat="47.27583" lon="6.03358">
        <ele>377.8</ele>
        <time>2021-04-03T10:56:26Z</time>
      </trkpt>
      <trkpt lat="47.27582" lon="6.03361">
        <ele>378.2</ele>
        <time>2021-04-03T10:56:27Z</time>
      </trkpt>
      <trkpt lat="47.27582" lon="6.03363">
        <ele>378.8</ele>
        <time>2021-04-03T10:56:28Z</time>
      </trkpt>
      <trkpt lat="47.27582" lon="6.03364">
        <ele>379.2</ele>
        <time>2021-04-03T10:56:29Z</time>
      </trkpt>
      <trkpt lat="47.27582" lon="6.03366">
        <ele>379.4</ele>
        <time>2021-04-03T10:56:30Z</time>
      </trkpt>
      <trkpt lat="47.27581" lon="6.03367">
        <ele>379.8</ele>
        <time>2021-04-03T10:56:31Z</time>
      </trkpt>
      <trkpt lat="47.27581" lon="6.03369">
        <ele>379.8</ele>
        <time>2021-04-03T10:56:32Z</time>
      </trkpt>
      <trkpt lat="47.27581" lon="6.0337">
        <ele>380.2</ele>
        <time>2021-04-03T10:56:33Z</time>
      </trkpt>
      <trkpt lat="47.2758" lon="6.03372">
        <ele>380.6</ele>
        <time>2021-04-03T10:56:34Z</time>
      </trkpt>
      <trkpt lat="47.2758" lon="6.03374">
        <ele>380.8</ele>
        <time>2021-04-03T10:56:35Z</time>
      </trkpt>
      <trkpt lat="47.27579" lon="6.03376">
        <ele>381.2</ele>
        <time>2021-04-03T10:56:36Z</time>
      </trkpt>
      <trkpt lat="47.27579" lon="6.03376">
        <ele>381.6</ele>
        <time>2021-04-03T10:56:37Z</time>
      </trkpt>
      <trkpt lat="47.27579" lon="6.03376">
        <ele>382</ele>
        <time>2021-04-03T10:56:39Z</time>
      </trkpt>
      <trkpt lat="47.27579" lon="6.03376">
        <ele>382.2</ele>
        <time>2021-04-03T10:56:40Z</time>
      </trkpt>
      <trkpt lat="47.27579" lon="6.03376">
        <ele>382.4</ele>
        <time>2021-04-03T10:56:53Z</time>
      </trkpt>
      <trkpt lat="47.27579" lon="6.03376">
        <ele>381.4</ele>
        <time>2021-04-03T10:57:47Z</time>
      </trkpt>
      <trkpt lat="47.27579" lon="6.03376">
        <ele>382.6</ele>
        <time>2021-04-03T10:58:25Z</time>
      </trkpt>
      <trkpt lat="47.27579" lon="6.03376">
        <ele>381.8</ele>
        <time>2021-04-03T10:59:10Z</time>
      </trkpt>
      <trkpt lat="47.27579" lon="6.03378">
        <ele>382.4</ele>
        <time>2021-04-03T10:59:26Z</time>
      </trkpt>
      <trkpt lat="47.27579" lon="6.03378">
        <ele>383</ele>
        <time>2021-04-03T10:59:38Z</time>
      </trkpt>
      <trkpt lat="47.27579" lon="6.03379">
        <ele>383</ele>
        <time>2021-04-03T10:59:41Z</time>
      </trkpt>
      <trkpt lat="47.27578" lon="6.03383">
        <ele>383.2</ele>
        <time>2021-04-03T10:59:43Z</time>
      </trkpt>
      <trkpt lat="47.27578" lon="6.03386">
        <ele>383.2</ele>
        <time>2021-04-03T10:59:44Z</time>
      </trkpt>
      <trkpt lat="47.27577" lon="6.03391">
        <ele>383.4</ele>
        <time>2021-04-03T10:59:46Z</time>
      </trkpt>
      <trkpt lat="47.27576" lon="6.03393">
        <ele>383.4</ele>
        <time>2021-04-03T10:59:47Z</time>
      </trkpt>
      <trkpt lat="47.27574" lon="6.03399">
        <ele>383.6</ele>
        <time>2021-04-03T10:59:49Z</time>
      </trkpt>
      <trkpt lat="47.27571" lon="6.03406">
        <ele>383.8</ele>
        <time>2021-04-03T10:59:51Z</time>
      </trkpt>
      <trkpt lat="47.27571" lon="6.0341">
        <ele>384</ele>
        <time>2021-04-03T10:59:52Z</time>
      </trkpt>
      <trkpt lat="47.27571" lon="6.03413">
        <ele>384.4</ele>
        <time>2021-04-03T10:59:53Z</time>
      </trkpt>
      <trkpt lat="47.27569" lon="6.03418">
        <ele>385.2</ele>
        <time>2021-04-03T10:59:55Z</time>
      </trkpt>
      <trkpt lat="47.27567" lon="6.0342">
        <ele>385.6</ele>
        <time>2021-04-03T10:59:56Z</time>
      </trkpt>
      <trkpt lat="47.27565" lon="6.03423">
        <ele>385.8</ele>
        <time>2021-04-03T10:59:57Z</time>
      </trkpt>
      <trkpt lat="47.2756" lon="6.03431">
        <ele>386</ele>
        <time>2021-04-03T10:59:59Z</time>
      </trkpt>
      <trkpt lat="47.27558" lon="6.03436">
        <ele>386.2</ele>
        <time>2021-04-03T11:00:00Z</time>
      </trkpt>
      <trkpt lat="47.27555" lon="6.0344">
        <ele>386.2</ele>
        <time>2021-04-03T11:00:01Z</time>
      </trkpt>
      <trkpt lat="47.27554" lon="6.03444">
        <ele>386.2</ele>
        <time>2021-04-03T11:00:02Z</time>
      </trkpt>
      <trkpt lat="47.27552" lon="6.03449">
        <ele>386.4</ele>
        <time>2021-04-03T11:00:03Z</time>
      </trkpt>
      <trkpt lat="47.27551" lon="6.03454">
        <ele>386.4</ele>
        <time>2021-04-03T11:00:04Z</time>
      </trkpt>
      <trkpt lat="47.27551" lon="6.03459">
        <ele>386.4</ele>
        <time>2021-04-03T11:00:05Z</time>
      </trkpt>
      <trkpt lat="47.27551" lon="6.03463">
        <ele>386.4</ele>
        <time>2021-04-03T11:00:06Z</time>
      </trkpt>
      <trkpt lat="47.2755" lon="6.03467">
        <ele>386.4</ele>
        <time>2021-04-03T11:00:07Z</time>
      </trkpt>
      <trkpt lat="47.27549" lon="6.03472">
        <ele>386.4</ele>
        <time>2021-04-03T11:00:08Z</time>
      </trkpt>
      <trkpt lat="47.27548" lon="6.03476">
        <ele>386.4</ele>
        <time>2021-04-03T11:00:09Z</time>
      </trkpt>
      <trkpt lat="47.27546" lon="6.03482">
        <ele>386.4</ele>
        <time>2021-04-03T11:00:10Z</time>
      </trkpt>
      <trkpt lat="47.27546" lon="6.03488">
        <ele>386.4</ele>
        <time>2021-04-03T11:00:11Z</time>
      </trkpt>
      <trkpt lat="47.27547" lon="6.03492">
        <ele>386.2</ele>
        <time>2021-04-03T11:00:12Z</time>
      </trkpt>
      <trkpt lat="47.27547" lon="6.03496">
        <ele>386.2</ele>
        <time>2021-04-03T11:00:13Z</time>
      </trkpt>
      <trkpt lat="47.27548" lon="6.03502">
        <ele>386.2</ele>
        <time>2021-04-03T11:00:14Z</time>
      </trkpt>
      <trkpt lat="47.27549" lon="6.0351">
        <ele>386</ele>
        <time>2021-04-03T11:00:15Z</time>
      </trkpt>
      <trkpt lat="47.27551" lon="6.03518">
        <ele>386</ele>
        <time>2021-04-03T11:00:16Z</time>
      </trkpt>
      <trkpt lat="47.27555" lon="6.03537">
        <ele>385.4</ele>
        <time>2021-04-03T11:00:19Z</time>
      </trkpt>
      <trkpt lat="47.27556" lon="6.03545">
        <ele>385.2</ele>
        <time>2021-04-03T11:00:20Z</time>
      </trkpt>
      <trkpt lat="47.27556" lon="6.03551">
        <ele>384.2</ele>
        <time>2021-04-03T11:00:21Z</time>
      </trkpt>
      <trkpt lat="47.27557" lon="6.03555">
        <ele>383.8</ele>
        <time>2021-04-03T11:00:22Z</time>
      </trkpt>
      <trkpt lat="47.27557" lon="6.03561">
        <ele>383.2</ele>
        <time>2021-04-03T11:00:23Z</time>
      </trkpt>
      <trkpt lat="47.27559" lon="6.03567">
        <ele>382.8</ele>
        <time>2021-04-03T11:00:24Z</time>
      </trkpt>
      <trkpt lat="47.27562" lon="6.0358">
        <ele>381.2</ele>
        <time>2021-04-03T11:00:26Z</time>
      </trkpt>
      <trkpt lat="47.27563" lon="6.03584">
        <ele>381</ele>
        <time>2021-04-03T11:00:27Z</time>
      </trkpt>
      <trkpt lat="47.27564" lon="6.03591">
        <ele>379.8</ele>
        <time>2021-04-03T11:00:28Z</time>
      </trkpt>
      <trkpt lat="47.27565" lon="6.03596">
        <ele>379.2</ele>
        <time>2021-04-03T11:00:29Z</time>
      </trkpt>
      <trkpt lat="47.27566" lon="6.03602">
        <ele>377.4</ele>
        <time>2021-04-03T11:00:30Z</time>
      </trkpt>
      <trkpt lat="47.27567" lon="6.03608">
        <ele>376.6</ele>
        <time>2021-04-03T11:00:31Z</time>
      </trkpt>
      <trkpt lat="47.27568" lon="6.03612">
        <ele>376</ele>
        <time>2021-04-03T11:00:32Z</time>
      </trkpt>
      <trkpt lat="47.27569" lon="6.03618">
        <ele>374.6</ele>
        <time>2021-04-03T11:00:33Z</time>
      </trkpt>
      <trkpt lat="47.27568" lon="6.03633">
        <ele>373.4</ele>
        <time>2021-04-03T11:00:35Z</time>
      </trkpt>
      <trkpt lat="47.27566" lon="6.03644">
        <ele>372.6</ele>
        <time>2021-04-03T11:00:37Z</time>
      </trkpt>
      <trkpt lat="47.27564" lon="6.03649">
        <ele>372.2</ele>
        <time>2021-04-03T11:00:38Z</time>
      </trkpt>
      <trkpt lat="47.27563" lon="6.03653">
        <ele>371.8</ele>
        <time>2021-04-03T11:00:39Z</time>
      </trkpt>
      <trkpt lat="47.27562" lon="6.03656">
        <ele>371.6</ele>
        <time>2021-04-03T11:00:40Z</time>
      </trkpt>
      <trkpt lat="47.27561" lon="6.03658">
        <ele>371.2</ele>
        <time>2021-04-03T11:00:41Z</time>
      </trkpt>
      <trkpt lat="47.27561" lon="6.03659">
        <ele>371</ele>
        <time>2021-04-03T11:00:42Z</time>
      </trkpt>
      <trkpt lat="47.27562" lon="6.03661">
        <ele>370.8</ele>
        <time>2021-04-03T11:00:43Z</time>
      </trkpt>
      <trkpt lat="47.27562" lon="6.03664">
        <ele>370.8</ele>
        <time>2021-04-03T11:00:44Z</time>
      </trkpt>
      <trkpt lat="47.27562" lon="6.03667">
        <ele>370.6</ele>
        <time>2021-04-03T11:00:45Z</time>
      </trkpt>
      <trkpt lat="47.27561" lon="6.0367">
        <ele>370.4</ele>
        <time>2021-04-03T11:00:46Z</time>
      </trkpt>
      <trkpt lat="47.2756" lon="6.03673">
        <ele>370.4</ele>
        <time>2021-04-03T11:00:47Z</time>
      </trkpt>
      <trkpt lat="47.27559" lon="6.03677">
        <ele>370.2</ele>
        <time>2021-04-03T11:00:48Z</time>
      </trkpt>
      <trkpt lat="47.27559" lon="6.0368">
        <ele>370.2</ele>
        <time>2021-04-03T11:00:49Z</time>
      </trkpt>
      <trkpt lat="47.27557" lon="6.03683">
        <ele>370.2</ele>
        <time>2021-04-03T11:00:50Z</time>
      </trkpt>
      <trkpt lat="47.27555" lon="6.03686">
        <ele>370</ele>
        <time>2021-04-03T11:00:51Z</time>
      </trkpt>
      <trkpt lat="47.2755" lon="6.03693">
        <ele>369.8</ele>
        <time>2021-04-03T11:00:53Z</time>
      </trkpt>
      <trkpt lat="47.27545" lon="6.03698">
        <ele>369.8</ele>
        <time>2021-04-03T11:00:54Z</time>
      </trkpt>
      <trkpt lat="47.27542" lon="6.03702">
        <ele>369.8</ele>
        <time>2021-04-03T11:00:55Z</time>
      </trkpt>
      <trkpt lat="47.27534" lon="6.03712">
        <ele>369.2</ele>
        <time>2021-04-03T11:00:57Z</time>
      </trkpt>
      <trkpt lat="47.27529" lon="6.03717">
        <ele>369</ele>
        <time>2021-04-03T11:00:58Z</time>
      </trkpt>
      <trkpt lat="47.27525" lon="6.03722">
        <ele>368.6</ele>
        <time>2021-04-03T11:00:59Z</time>
      </trkpt>
      <trkpt lat="47.27519" lon="6.03733">
        <ele>368.2</ele>
        <time>2021-04-03T11:01:01Z</time>
      </trkpt>
      <trkpt lat="47.27516" lon="6.03739">
        <ele>368</ele>
        <time>2021-04-03T11:01:02Z</time>
      </trkpt>
      <trkpt lat="47.27513" lon="6.03747">
        <ele>368</ele>
        <time>2021-04-03T11:01:03Z</time>
      </trkpt>
      <trkpt lat="47.27497" lon="6.03775">
        <ele>366.8</ele>
        <time>2021-04-03T11:01:07Z</time>
      </trkpt>
      <trkpt lat="47.27482" lon="6.03804">
        <ele>365.6</ele>
        <time>2021-04-03T11:01:10Z</time>
      </trkpt>
      <trkpt lat="47.27478" lon="6.03811">
        <ele>365.4</ele>
        <time>2021-04-03T11:01:11Z</time>
      </trkpt>
      <trkpt lat="47.27466" lon="6.03826">
        <ele>364.2</ele>
        <time>2021-04-03T11:01:13Z</time>
      </trkpt>
      <trkpt lat="47.27462" lon="6.03832">
        <ele>363.8</ele>
        <time>2021-04-03T11:01:14Z</time>
      </trkpt>
      <trkpt lat="47.2746" lon="6.03837">
        <ele>363.6</ele>
        <time>2021-04-03T11:01:15Z</time>
      </trkpt>
      <trkpt lat="47.27455" lon="6.03844">
        <ele>363.4</ele>
        <time>2021-04-03T11:01:16Z</time>
      </trkpt>
      <trkpt lat="47.27452" lon="6.03848">
        <ele>363</ele>
        <time>2021-04-03T11:01:17Z</time>
      </trkpt>
      <trkpt lat="47.2745" lon="6.03851">
        <ele>362.8</ele>
        <time>2021-04-03T11:01:18Z</time>
      </trkpt>
      <trkpt lat="47.27449" lon="6.03854">
        <ele>362.6</ele>
        <time>2021-04-03T11:01:19Z</time>
      </trkpt>
      <trkpt lat="47.27448" lon="6.03856">
        <ele>362.4</ele>
        <time>2021-04-03T11:01:20Z</time>
      </trkpt>
      <trkpt lat="47.27447" lon="6.03858">
        <ele>362</ele>
        <time>2021-04-03T11:01:21Z</time>
      </trkpt>
      <trkpt lat="47.27447" lon="6.0386">
        <ele>361.6</ele>
        <time>2021-04-03T11:01:22Z</time>
      </trkpt>
      <trkpt lat="47.27446" lon="6.03862">
        <ele>361.6</ele>
        <time>2021-04-03T11:01:23Z</time>
      </trkpt>
      <trkpt lat="47.27446" lon="6.03863">
        <ele>361.6</ele>
        <time>2021-04-03T11:01:24Z</time>
      </trkpt>
      <trkpt lat="47.27446" lon="6.03864">
        <ele>361.6</ele>
        <time>2021-04-03T11:01:25Z</time>
      </trkpt>
      <trkpt lat="47.27446" lon="6.03866">
        <ele>361.4</ele>
        <time>2021-04-03T11:01:26Z</time>
      </trkpt>
      <trkpt lat="47.27445" lon="6.03867">
        <ele>361.4</ele>
        <time>2021-04-03T11:01:27Z</time>
      </trkpt>
      <trkpt lat="47.27442" lon="6.03876">
        <ele>361.2</ele>
        <time>2021-04-03T11:01:30Z</time>
      </trkpt>
      <trkpt lat="47.27439" lon="6.0388">
        <ele>361.2</ele>
        <time>2021-04-03T11:01:31Z</time>
      </trkpt>
      <trkpt lat="47.27435" lon="6.03884">
        <ele>361.2</ele>
        <time>2021-04-03T11:01:32Z</time>
      </trkpt>
      <trkpt lat="47.27431" lon="6.03889">
        <ele>360.8</ele>
        <time>2021-04-03T11:01:33Z</time>
      </trkpt>
      <trkpt lat="47.27428" lon="6.03893">
        <ele>360.6</ele>
        <time>2021-04-03T11:01:34Z</time>
      </trkpt>
      <trkpt lat="47.27419" lon="6.03912">
        <ele>359.6</ele>
        <time>2021-04-03T11:01:37Z</time>
      </trkpt>
      <trkpt lat="47.27417" lon="6.03918">
        <ele>359.2</ele>
        <time>2021-04-03T11:01:38Z</time>
      </trkpt>
      <trkpt lat="47.27414" lon="6.03924">
        <ele>358.8</ele>
        <time>2021-04-03T11:01:39Z</time>
      </trkpt>
      <trkpt lat="47.27407" lon="6.03934">
        <ele>357.6</ele>
        <time>2021-04-03T11:01:41Z</time>
      </trkpt>
      <trkpt lat="47.27403" lon="6.03939">
        <ele>356.8</ele>
        <time>2021-04-03T11:01:42Z</time>
      </trkpt>
      <trkpt lat="47.27399" lon="6.03944">
        <ele>356.4</ele>
        <time>2021-04-03T11:01:43Z</time>
      </trkpt>
      <trkpt lat="47.27396" lon="6.03948">
        <ele>355.4</ele>
        <time>2021-04-03T11:01:44Z</time>
      </trkpt>
      <trkpt lat="47.27394" lon="6.03954">
        <ele>355</ele>
        <time>2021-04-03T11:01:45Z</time>
      </trkpt>
      <trkpt lat="47.27391" lon="6.0396">
        <ele>354.2</ele>
        <time>2021-04-03T11:01:46Z</time>
      </trkpt>
      <trkpt lat="47.27387" lon="6.03968">
        <ele>354</ele>
        <time>2021-04-03T11:01:47Z</time>
      </trkpt>
      <trkpt lat="47.27383" lon="6.03977">
        <ele>353.6</ele>
        <time>2021-04-03T11:01:48Z</time>
      </trkpt>
      <trkpt lat="47.27376" lon="6.03998">
        <ele>352.8</ele>
        <time>2021-04-03T11:01:50Z</time>
      </trkpt>
      <trkpt lat="47.27373" lon="6.04008">
        <ele>352</ele>
        <time>2021-04-03T11:01:51Z</time>
      </trkpt>
      <trkpt lat="47.27371" lon="6.04018">
        <ele>351.4</ele>
        <time>2021-04-03T11:01:52Z</time>
      </trkpt>
      <trkpt lat="47.27367" lon="6.04025">
        <ele>350.8</ele>
        <time>2021-04-03T11:01:53Z</time>
      </trkpt>
      <trkpt lat="47.27365" lon="6.04032">
        <ele>350.6</ele>
        <time>2021-04-03T11:01:54Z</time>
      </trkpt>
      <trkpt lat="47.27362" lon="6.04038">
        <ele>350.2</ele>
        <time>2021-04-03T11:01:55Z</time>
      </trkpt>
      <trkpt lat="47.2736" lon="6.04043">
        <ele>350</ele>
        <time>2021-04-03T11:01:56Z</time>
      </trkpt>
      <trkpt lat="47.27358" lon="6.04045">
        <ele>350</ele>
        <time>2021-04-03T11:01:57Z</time>
      </trkpt>
      <trkpt lat="47.27357" lon="6.04048">
        <ele>350</ele>
        <time>2021-04-03T11:01:58Z</time>
      </trkpt>
      <trkpt lat="47.27357" lon="6.04052">
        <ele>350</ele>
        <time>2021-04-03T11:01:59Z</time>
      </trkpt>
      <trkpt lat="47.27355" lon="6.04057">
        <ele>350</ele>
        <time>2021-04-03T11:02:00Z</time>
      </trkpt>
      <trkpt lat="47.2735" lon="6.04061">
        <ele>350</ele>
        <time>2021-04-03T11:02:01Z</time>
      </trkpt>
      <trkpt lat="47.27346" lon="6.04068">
        <ele>350</ele>
        <time>2021-04-03T11:02:03Z</time>
      </trkpt>
      <trkpt lat="47.27344" lon="6.04073">
        <ele>350</ele>
        <time>2021-04-03T11:02:04Z</time>
      </trkpt>
      <trkpt lat="47.27341" lon="6.04077">
        <ele>350</ele>
        <time>2021-04-03T11:02:05Z</time>
      </trkpt>
      <trkpt lat="47.27329" lon="6.04096">
        <ele>350</ele>
        <time>2021-04-03T11:02:09Z</time>
      </trkpt>
      <trkpt lat="47.27325" lon="6.04101">
        <ele>350</ele>
        <time>2021-04-03T11:02:10Z</time>
      </trkpt>
      <trkpt lat="47.27312" lon="6.04131">
        <ele>349.4</ele>
        <time>2021-04-03T11:02:15Z</time>
      </trkpt>
      <trkpt lat="47.27307" lon="6.04138">
        <ele>349.2</ele>
        <time>2021-04-03T11:02:16Z</time>
      </trkpt>
      <trkpt lat="47.27294" lon="6.04157">
        <ele>348.6</ele>
        <time>2021-04-03T11:02:19Z</time>
      </trkpt>
      <trkpt lat="47.27292" lon="6.04164">
        <ele>348.4</ele>
        <time>2021-04-03T11:02:20Z</time>
      </trkpt>
      <trkpt lat="47.27291" lon="6.04171">
        <ele>347.8</ele>
        <time>2021-04-03T11:02:21Z</time>
      </trkpt>
      <trkpt lat="47.27289" lon="6.04177">
        <ele>347.2</ele>
        <time>2021-04-03T11:02:22Z</time>
      </trkpt>
      <trkpt lat="47.27287" lon="6.04182">
        <ele>347</ele>
        <time>2021-04-03T11:02:23Z</time>
      </trkpt>
      <trkpt lat="47.27285" lon="6.04185">
        <ele>346.6</ele>
        <time>2021-04-03T11:02:24Z</time>
      </trkpt>
      <trkpt lat="47.27284" lon="6.04187">
        <ele>346.2</ele>
        <time>2021-04-03T11:02:25Z</time>
      </trkpt>
      <trkpt lat="47.27283" lon="6.04189">
        <ele>345.6</ele>
        <time>2021-04-03T11:02:26Z</time>
      </trkpt>
      <trkpt lat="47.27282" lon="6.04192">
        <ele>345.4</ele>
        <time>2021-04-03T11:02:27Z</time>
      </trkpt>
      <trkpt lat="47.2728" lon="6.04194">
        <ele>345.2</ele>
        <time>2021-04-03T11:02:28Z</time>
      </trkpt>
      <trkpt lat="47.2728" lon="6.04196">
        <ele>345.2</ele>
        <time>2021-04-03T11:02:29Z</time>
      </trkpt>
      <trkpt lat="47.27279" lon="6.04198">
        <ele>345.2</ele>
        <time>2021-04-03T11:02:30Z</time>
      </trkpt>
      <trkpt lat="47.27277" lon="6.04201">
        <ele>345</ele>
        <time>2021-04-03T11:02:31Z</time>
      </trkpt>
      <trkpt lat="47.27277" lon="6.04204">
        <ele>345</ele>
        <time>2021-04-03T11:02:32Z</time>
      </trkpt>
      <trkpt lat="47.27273" lon="6.04212">
        <ele>344.8</ele>
        <time>2021-04-03T11:02:34Z</time>
      </trkpt>
      <trkpt lat="47.27265" lon="6.04225">
        <ele>344.2</ele>
        <time>2021-04-03T11:02:37Z</time>
      </trkpt>
      <trkpt lat="47.27263" lon="6.0423">
        <ele>344</ele>
        <time>2021-04-03T11:02:38Z</time>
      </trkpt>
      <trkpt lat="47.27253" lon="6.04254">
        <ele>343.2</ele>
        <time>2021-04-03T11:02:42Z</time>
      </trkpt>
      <trkpt lat="47.27251" lon="6.04262">
        <ele>343.2</ele>
        <time>2021-04-03T11:02:43Z</time>
      </trkpt>
      <trkpt lat="47.2725" lon="6.04268">
        <ele>343</ele>
        <time>2021-04-03T11:02:44Z</time>
      </trkpt>
      <trkpt lat="47.27249" lon="6.04274">
        <ele>342.8</ele>
        <time>2021-04-03T11:02:45Z</time>
      </trkpt>
      <trkpt lat="47.27248" lon="6.04279">
        <ele>342.2</ele>
        <time>2021-04-03T11:02:46Z</time>
      </trkpt>
      <trkpt lat="47.27246" lon="6.04284">
        <ele>342</ele>
        <time>2021-04-03T11:02:47Z</time>
      </trkpt>
      <trkpt lat="47.27241" lon="6.04289">
        <ele>341.6</ele>
        <time>2021-04-03T11:02:48Z</time>
      </trkpt>
      <trkpt lat="47.27238" lon="6.04294">
        <ele>341.4</ele>
        <time>2021-04-03T11:02:49Z</time>
      </trkpt>
      <trkpt lat="47.27234" lon="6.04298">
        <ele>341.2</ele>
        <time>2021-04-03T11:02:50Z</time>
      </trkpt>
      <trkpt lat="47.27232" lon="6.04303">
        <ele>340.8</ele>
        <time>2021-04-03T11:02:51Z</time>
      </trkpt>
      <trkpt lat="47.27229" lon="6.04309">
        <ele>340.6</ele>
        <time>2021-04-03T11:02:52Z</time>
      </trkpt>
      <trkpt lat="47.27226" lon="6.04318">
        <ele>340.4</ele>
        <time>2021-04-03T11:02:53Z</time>
      </trkpt>
      <trkpt lat="47.27223" lon="6.04326">
        <ele>340.2</ele>
        <time>2021-04-03T11:02:54Z</time>
      </trkpt>
      <trkpt lat="47.27217" lon="6.04341">
        <ele>339.8</ele>
        <time>2021-04-03T11:02:56Z</time>
      </trkpt>
      <trkpt lat="47.27212" lon="6.04356">
        <ele>339.4</ele>
        <time>2021-04-03T11:02:58Z</time>
      </trkpt>
      <trkpt lat="47.2721" lon="6.04363">
        <ele>339.4</ele>
        <time>2021-04-03T11:02:59Z</time>
      </trkpt>
      <trkpt lat="47.27207" lon="6.0437">
        <ele>339.2</ele>
        <time>2021-04-03T11:03:00Z</time>
      </trkpt>
      <trkpt lat="47.27196" lon="6.04392">
        <ele>338.8</ele>
        <time>2021-04-03T11:03:03Z</time>
      </trkpt>
      <trkpt lat="47.27194" lon="6.04398">
        <ele>338.6</ele>
        <time>2021-04-03T11:03:04Z</time>
      </trkpt>
      <trkpt lat="47.27189" lon="6.04408">
        <ele>338.4</ele>
        <time>2021-04-03T11:03:06Z</time>
      </trkpt>
      <trkpt lat="47.27187" lon="6.04412">
        <ele>338.4</ele>
        <time>2021-04-03T11:03:07Z</time>
      </trkpt>
      <trkpt lat="47.27185" lon="6.04418">
        <ele>338.2</ele>
        <time>2021-04-03T11:03:08Z</time>
      </trkpt>
      <trkpt lat="47.27184" lon="6.04424">
        <ele>338</ele>
        <time>2021-04-03T11:03:09Z</time>
      </trkpt>
      <trkpt lat="47.27181" lon="6.0443">
        <ele>337.4</ele>
        <time>2021-04-03T11:03:10Z</time>
      </trkpt>
      <trkpt lat="47.27174" lon="6.04446">
        <ele>335.8</ele>
        <time>2021-04-03T11:03:13Z</time>
      </trkpt>
      <trkpt lat="47.27172" lon="6.04451">
        <ele>335.6</ele>
        <time>2021-04-03T11:03:14Z</time>
      </trkpt>
      <trkpt lat="47.27171" lon="6.04457">
        <ele>335.2</ele>
        <time>2021-04-03T11:03:15Z</time>
      </trkpt>
      <trkpt lat="47.27169" lon="6.04473">
        <ele>334.8</ele>
        <time>2021-04-03T11:03:17Z</time>
      </trkpt>
      <trkpt lat="47.27168" lon="6.0448">
        <ele>334.6</ele>
        <time>2021-04-03T11:03:18Z</time>
      </trkpt>
      <trkpt lat="47.27167" lon="6.04489">
        <ele>334</ele>
        <time>2021-04-03T11:03:20Z</time>
      </trkpt>
      <trkpt lat="47.27165" lon="6.04493">
        <ele>334</ele>
        <time>2021-04-03T11:03:21Z</time>
      </trkpt>
      <trkpt lat="47.27163" lon="6.04497">
        <ele>333.6</ele>
        <time>2021-04-03T11:03:22Z</time>
      </trkpt>
      <trkpt lat="47.2716" lon="6.04498">
        <ele>333.6</ele>
        <time>2021-04-03T11:03:23Z</time>
      </trkpt>
      <trkpt lat="47.27159" lon="6.04497">
        <ele>333.4</ele>
        <time>2021-04-03T11:03:24Z</time>
      </trkpt>
      <trkpt lat="47.27158" lon="6.04496">
        <ele>333.2</ele>
        <time>2021-04-03T11:03:25Z</time>
      </trkpt>
      <trkpt lat="47.27157" lon="6.04495">
        <ele>333</ele>
        <time>2021-04-03T11:03:26Z</time>
      </trkpt>
      <trkpt lat="47.27156" lon="6.04494">
        <ele>332.8</ele>
        <time>2021-04-03T11:03:27Z</time>
      </trkpt>
      <trkpt lat="47.27156" lon="6.04494">
        <ele>332.6</ele>
        <time>2021-04-03T11:03:28Z</time>
      </trkpt>
      <trkpt lat="47.27156" lon="6.04494">
        <ele>332.4</ele>
        <time>2021-04-03T11:03:29Z</time>
      </trkpt>
      <trkpt lat="47.27152" lon="6.0449">
        <ele>332</ele>
        <time>2021-04-03T11:03:36Z</time>
      </trkpt>
      <trkpt lat="47.27148" lon="6.04491">
        <ele>331.8</ele>
        <time>2021-04-03T11:03:37Z</time>
      </trkpt>
      <trkpt lat="47.27141" lon="6.04496">
        <ele>331.8</ele>
        <time>2021-04-03T11:03:39Z</time>
      </trkpt>
      <trkpt lat="47.27138" lon="6.04498">
        <ele>331.6</ele>
        <time>2021-04-03T11:03:40Z</time>
      </trkpt>
      <trkpt lat="47.27135" lon="6.04502">
        <ele>331.6</ele>
        <time>2021-04-03T11:03:41Z</time>
      </trkpt>
      <trkpt lat="47.27131" lon="6.04506">
        <ele>331.4</ele>
        <time>2021-04-03T11:03:42Z</time>
      </trkpt>
      <trkpt lat="47.27115" lon="6.04528">
        <ele>330.4</ele>
        <time>2021-04-03T11:03:46Z</time>
      </trkpt>
      <trkpt lat="47.2711" lon="6.04533">
        <ele>330.2</ele>
        <time>2021-04-03T11:03:47Z</time>
      </trkpt>
      <trkpt lat="47.27105" lon="6.04538">
        <ele>330</ele>
        <time>2021-04-03T11:03:48Z</time>
      </trkpt>
      <trkpt lat="47.27097" lon="6.0455">
        <ele>329.2</ele>
        <time>2021-04-03T11:03:50Z</time>
      </trkpt>
      <trkpt lat="47.27093" lon="6.04555">
        <ele>328.8</ele>
        <time>2021-04-03T11:03:51Z</time>
      </trkpt>
      <trkpt lat="47.2709" lon="6.04561">
        <ele>328.6</ele>
        <time>2021-04-03T11:03:52Z</time>
      </trkpt>
      <trkpt lat="47.27075" lon="6.04583">
        <ele>328.4</ele>
        <time>2021-04-03T11:03:56Z</time>
      </trkpt>
      <trkpt lat="47.27072" lon="6.04588">
        <ele>328.4</ele>
        <time>2021-04-03T11:03:57Z</time>
      </trkpt>
      <trkpt lat="47.27068" lon="6.04594">
        <ele>328.2</ele>
        <time>2021-04-03T11:03:58Z</time>
      </trkpt>
      <trkpt lat="47.27065" lon="6.04599">
        <ele>328.2</ele>
        <time>2021-04-03T11:03:59Z</time>
      </trkpt>
      <trkpt lat="47.27062" lon="6.04604">
        <ele>328.2</ele>
        <time>2021-04-03T11:04:00Z</time>
      </trkpt>
      <trkpt lat="47.27059" lon="6.04608">
        <ele>328.4</ele>
        <time>2021-04-03T11:04:01Z</time>
      </trkpt>
      <trkpt lat="47.27053" lon="6.04618">
        <ele>328.4</ele>
        <time>2021-04-03T11:04:03Z</time>
      </trkpt>
      <trkpt lat="47.27051" lon="6.04622">
        <ele>328.6</ele>
        <time>2021-04-03T11:04:04Z</time>
      </trkpt>
      <trkpt lat="47.27048" lon="6.04627">
        <ele>329</ele>
        <time>2021-04-03T11:04:05Z</time>
      </trkpt>
      <trkpt lat="47.27046" lon="6.04632">
        <ele>329.4</ele>
        <time>2021-04-03T11:04:06Z</time>
      </trkpt>
      <trkpt lat="47.27043" lon="6.04636">
        <ele>329.4</ele>
        <time>2021-04-03T11:04:07Z</time>
      </trkpt>
      <trkpt lat="47.27041" lon="6.0464">
        <ele>329.8</ele>
        <time>2021-04-03T11:04:08Z</time>
      </trkpt>
      <trkpt lat="47.27038" lon="6.04644">
        <ele>330</ele>
        <time>2021-04-03T11:04:09Z</time>
      </trkpt>
      <trkpt lat="47.27035" lon="6.04648">
        <ele>330</ele>
        <time>2021-04-03T11:04:10Z</time>
      </trkpt>
      <trkpt lat="47.27032" lon="6.04651">
        <ele>330.4</ele>
        <time>2021-04-03T11:04:11Z</time>
      </trkpt>
      <trkpt lat="47.27029" lon="6.04653">
        <ele>330.6</ele>
        <time>2021-04-03T11:04:12Z</time>
      </trkpt>
      <trkpt lat="47.27026" lon="6.04656">
        <ele>331.2</ele>
        <time>2021-04-03T11:04:13Z</time>
      </trkpt>
      <trkpt lat="47.27024" lon="6.04658">
        <ele>331.4</ele>
        <time>2021-04-03T11:04:14Z</time>
      </trkpt>
      <trkpt lat="47.27021" lon="6.04661">
        <ele>331.8</ele>
        <time>2021-04-03T11:04:15Z</time>
      </trkpt>
      <trkpt lat="47.27018" lon="6.04663">
        <ele>331.8</ele>
        <time>2021-04-03T11:04:16Z</time>
      </trkpt>
      <trkpt lat="47.27016" lon="6.04665">
        <ele>332</ele>
        <time>2021-04-03T11:04:17Z</time>
      </trkpt>
      <trkpt lat="47.27014" lon="6.04668">
        <ele>332.2</ele>
        <time>2021-04-03T11:04:18Z</time>
      </trkpt>
      <trkpt lat="47.27011" lon="6.0467">
        <ele>332.6</ele>
        <time>2021-04-03T11:04:19Z</time>
      </trkpt>
      <trkpt lat="47.27009" lon="6.04672">
        <ele>332.8</ele>
        <time>2021-04-03T11:04:20Z</time>
      </trkpt>
      <trkpt lat="47.27007" lon="6.04674">
        <ele>333</ele>
        <time>2021-04-03T11:04:21Z</time>
      </trkpt>
      <trkpt lat="47.27004" lon="6.04676">
        <ele>333.4</ele>
        <time>2021-04-03T11:04:22Z</time>
      </trkpt>
      <trkpt lat="47.27002" lon="6.04678">
        <ele>333.6</ele>
        <time>2021-04-03T11:04:23Z</time>
      </trkpt>
      <trkpt lat="47.26999" lon="6.0468">
        <ele>334</ele>
        <time>2021-04-03T11:04:24Z</time>
      </trkpt>
      <trkpt lat="47.26996" lon="6.04681">
        <ele>334</ele>
        <time>2021-04-03T11:04:25Z</time>
      </trkpt>
      <trkpt lat="47.26994" lon="6.04682">
        <ele>334.4</ele>
        <time>2021-04-03T11:04:26Z</time>
      </trkpt>
      <trkpt lat="47.26991" lon="6.04683">
        <ele>334.6</ele>
        <time>2021-04-03T11:04:27Z</time>
      </trkpt>
      <trkpt lat="47.26988" lon="6.04684">
        <ele>334.8</ele>
        <time>2021-04-03T11:04:28Z</time>
      </trkpt>
      <trkpt lat="47.26986" lon="6.04685">
        <ele>335</ele>
        <time>2021-04-03T11:04:29Z</time>
      </trkpt>
      <trkpt lat="47.26983" lon="6.04686">
        <ele>335.2</ele>
        <time>2021-04-03T11:04:30Z</time>
      </trkpt>
      <trkpt lat="47.26981" lon="6.04687">
        <ele>335.4</ele>
        <time>2021-04-03T11:04:31Z</time>
      </trkpt>
      <trkpt lat="47.26979" lon="6.04689">
        <ele>335.6</ele>
        <time>2021-04-03T11:04:32Z</time>
      </trkpt>
      <trkpt lat="47.26976" lon="6.0469">
        <ele>335.8</ele>
        <time>2021-04-03T11:04:33Z</time>
      </trkpt>
      <trkpt lat="47.26974" lon="6.04691">
        <ele>335.8</ele>
        <time>2021-04-03T11:04:34Z</time>
      </trkpt>
      <trkpt lat="47.26972" lon="6.04692">
        <ele>336.2</ele>
        <time>2021-04-03T11:04:35Z</time>
      </trkpt>
      <trkpt lat="47.26969" lon="6.04693">
        <ele>336.4</ele>
        <time>2021-04-03T11:04:36Z</time>
      </trkpt>
      <trkpt lat="47.26967" lon="6.04693">
        <ele>336.6</ele>
        <time>2021-04-03T11:04:37Z</time>
      </trkpt>
      <trkpt lat="47.26965" lon="6.04694">
        <ele>336.8</ele>
        <time>2021-04-03T11:04:38Z</time>
      </trkpt>
      <trkpt lat="47.26963" lon="6.04695">
        <ele>336.8</ele>
        <time>2021-04-03T11:04:39Z</time>
      </trkpt>
      <trkpt lat="47.2696" lon="6.04697">
        <ele>337</ele>
        <time>2021-04-03T11:04:40Z</time>
      </trkpt>
      <trkpt lat="47.26958" lon="6.04697">
        <ele>337.2</ele>
        <time>2021-04-03T11:04:41Z</time>
      </trkpt>
      <trkpt lat="47.26956" lon="6.04698">
        <ele>337.2</ele>
        <time>2021-04-03T11:04:42Z</time>
      </trkpt>
      <trkpt lat="47.26954" lon="6.04699">
        <ele>337.4</ele>
        <time>2021-04-03T11:04:43Z</time>
      </trkpt>
      <trkpt lat="47.26952" lon="6.047">
        <ele>337.6</ele>
        <time>2021-04-03T11:04:44Z</time>
      </trkpt>
      <trkpt lat="47.2695" lon="6.04702">
        <ele>337.6</ele>
        <time>2021-04-03T11:04:45Z</time>
      </trkpt>
      <trkpt lat="47.26947" lon="6.04703">
        <ele>337.8</ele>
        <time>2021-04-03T11:04:46Z</time>
      </trkpt>
      <trkpt lat="47.26944" lon="6.04704">
        <ele>337.8</ele>
        <time>2021-04-03T11:04:47Z</time>
      </trkpt>
      <trkpt lat="47.26942" lon="6.04705">
        <ele>337.8</ele>
        <time>2021-04-03T11:04:48Z</time>
      </trkpt>
      <trkpt lat="47.26939" lon="6.04706">
        <ele>338</ele>
        <time>2021-04-03T11:04:49Z</time>
      </trkpt>
      <trkpt lat="47.26937" lon="6.04707">
        <ele>338</ele>
        <time>2021-04-03T11:04:50Z</time>
      </trkpt>
      <trkpt lat="47.26935" lon="6.04708">
        <ele>338.2</ele>
        <time>2021-04-03T11:04:51Z</time>
      </trkpt>
      <trkpt lat="47.26932" lon="6.04709">
        <ele>338.4</ele>
        <time>2021-04-03T11:04:52Z</time>
      </trkpt>
      <trkpt lat="47.2693" lon="6.0471">
        <ele>338.4</ele>
        <time>2021-04-03T11:04:53Z</time>
      </trkpt>
      <trkpt lat="47.26928" lon="6.04712">
        <ele>338.4</ele>
        <time>2021-04-03T11:04:54Z</time>
      </trkpt>
      <trkpt lat="47.26926" lon="6.04714">
        <ele>338.6</ele>
        <time>2021-04-03T11:04:55Z</time>
      </trkpt>
      <trkpt lat="47.26924" lon="6.04716">
        <ele>338.6</ele>
        <time>2021-04-03T11:04:56Z</time>
      </trkpt>
      <trkpt lat="47.2692" lon="6.04718">
        <ele>338.6</ele>
        <time>2021-04-03T11:04:57Z</time>
      </trkpt>
      <trkpt lat="47.26917" lon="6.0472">
        <ele>338.8</ele>
        <time>2021-04-03T11:04:58Z</time>
      </trkpt>
      <trkpt lat="47.26914" lon="6.04722">
        <ele>338.8</ele>
        <time>2021-04-03T11:04:59Z</time>
      </trkpt>
      <trkpt lat="47.26912" lon="6.04723">
        <ele>338.8</ele>
        <time>2021-04-03T11:05:00Z</time>
      </trkpt>
      <trkpt lat="47.26909" lon="6.04725">
        <ele>339</ele>
        <time>2021-04-03T11:05:01Z</time>
      </trkpt>
      <trkpt lat="47.26906" lon="6.04727">
        <ele>339</ele>
        <time>2021-04-03T11:05:02Z</time>
      </trkpt>
      <trkpt lat="47.26904" lon="6.04728">
        <ele>339</ele>
        <time>2021-04-03T11:05:03Z</time>
      </trkpt>
      <trkpt lat="47.26901" lon="6.04729">
        <ele>339</ele>
        <time>2021-04-03T11:05:04Z</time>
      </trkpt>
      <trkpt lat="47.26899" lon="6.04731">
        <ele>339</ele>
        <time>2021-04-03T11:05:05Z</time>
      </trkpt>
      <trkpt lat="47.26896" lon="6.04733">
        <ele>339</ele>
        <time>2021-04-03T11:05:06Z</time>
      </trkpt>
      <trkpt lat="47.26893" lon="6.04735">
        <ele>339</ele>
        <time>2021-04-03T11:05:07Z</time>
      </trkpt>
      <trkpt lat="47.26887" lon="6.04739">
        <ele>339.2</ele>
        <time>2021-04-03T11:05:09Z</time>
      </trkpt>
      <trkpt lat="47.26885" lon="6.04741">
        <ele>339.2</ele>
        <time>2021-04-03T11:05:10Z</time>
      </trkpt>
      <trkpt lat="47.2688" lon="6.04744">
        <ele>339.2</ele>
        <time>2021-04-03T11:05:12Z</time>
      </trkpt>
      <trkpt lat="47.26875" lon="6.04747">
        <ele>339.2</ele>
        <time>2021-04-03T11:05:14Z</time>
      </trkpt>
      <trkpt lat="47.26866" lon="6.04753">
        <ele>339.6</ele>
        <time>2021-04-03T11:05:18Z</time>
      </trkpt>
      <trkpt lat="47.2686" lon="6.04758">
        <ele>340</ele>
        <time>2021-04-03T11:05:20Z</time>
      </trkpt>
      <trkpt lat="47.26847" lon="6.04777">
        <ele>340</ele>
        <time>2021-04-03T11:05:26Z</time>
      </trkpt>
      <trkpt lat="47.26842" lon="6.04784">
        <ele>340.2</ele>
        <time>2021-04-03T11:05:28Z</time>
      </trkpt>
      <trkpt lat="47.26826" lon="6.04805">
        <ele>340.4</ele>
        <time>2021-04-03T11:05:35Z</time>
      </trkpt>
      <trkpt lat="47.26825" lon="6.04807">
        <ele>340.4</ele>
        <time>2021-04-03T11:05:36Z</time>
      </trkpt>
      <trkpt lat="47.26823" lon="6.04809">
        <ele>340.6</ele>
        <time>2021-04-03T11:05:37Z</time>
      </trkpt>
      <trkpt lat="47.26822" lon="6.04811">
        <ele>340.6</ele>
        <time>2021-04-03T11:05:38Z</time>
      </trkpt>
      <trkpt lat="47.26821" lon="6.04813">
        <ele>340.6</ele>
        <time>2021-04-03T11:05:39Z</time>
      </trkpt>
      <trkpt lat="47.2682" lon="6.04814">
        <ele>340.8</ele>
        <time>2021-04-03T11:05:40Z</time>
      </trkpt>
      <trkpt lat="47.26818" lon="6.04816">
        <ele>340.8</ele>
        <time>2021-04-03T11:05:41Z</time>
      </trkpt>
      <trkpt lat="47.26817" lon="6.04818">
        <ele>340.8</ele>
        <time>2021-04-03T11:05:42Z</time>
      </trkpt>
      <trkpt lat="47.26808" lon="6.04828">
        <ele>341.2</ele>
        <time>2021-04-03T11:05:47Z</time>
      </trkpt>
      <trkpt lat="47.26802" lon="6.04837">
        <ele>342.2</ele>
        <time>2021-04-03T11:05:51Z</time>
      </trkpt>
      <trkpt lat="47.26799" lon="6.04843">
        <ele>342.4</ele>
        <time>2021-04-03T11:05:53Z</time>
      </trkpt>
      <trkpt lat="47.2679" lon="6.04856">
        <ele>342.6</ele>
        <time>2021-04-03T11:05:58Z</time>
      </trkpt>
      <trkpt lat="47.26788" lon="6.04858">
        <ele>342.8</ele>
        <time>2021-04-03T11:05:59Z</time>
      </trkpt>
      <trkpt lat="47.26776" lon="6.04876">
        <ele>343</ele>
        <time>2021-04-03T11:06:06Z</time>
      </trkpt>
      <trkpt lat="47.26774" lon="6.04879">
        <ele>343</ele>
        <time>2021-04-03T11:06:07Z</time>
      </trkpt>
      <trkpt lat="47.26762" lon="6.04898">
        <ele>343</ele>
        <time>2021-04-03T11:06:13Z</time>
      </trkpt>
      <trkpt lat="47.26752" lon="6.04928">
        <ele>342.8</ele>
        <time>2021-04-03T11:06:20Z</time>
      </trkpt>
      <trkpt lat="47.26748" lon="6.04938">
        <ele>342.6</ele>
        <time>2021-04-03T11:06:22Z</time>
      </trkpt>
      <trkpt lat="47.26739" lon="6.04955">
        <ele>342.2</ele>
        <time>2021-04-03T11:06:25Z</time>
      </trkpt>
      <trkpt lat="47.26723" lon="6.04978">
        <ele>341.6</ele>
        <time>2021-04-03T11:06:29Z</time>
      </trkpt>
      <trkpt lat="47.26713" lon="6.04986">
        <ele>341</ele>
        <time>2021-04-03T11:06:31Z</time>
      </trkpt>
      <trkpt lat="47.26707" lon="6.04988">
        <ele>340.6</ele>
        <time>2021-04-03T11:06:32Z</time>
      </trkpt>
      <trkpt lat="47.26701" lon="6.0499">
        <ele>339.8</ele>
        <time>2021-04-03T11:06:33Z</time>
      </trkpt>
      <trkpt lat="47.26694" lon="6.04991">
        <ele>339.6</ele>
        <time>2021-04-03T11:06:34Z</time>
      </trkpt>
      <trkpt lat="47.26688" lon="6.04992">
        <ele>339</ele>
        <time>2021-04-03T11:06:35Z</time>
      </trkpt>
      <trkpt lat="47.26682" lon="6.04991">
        <ele>338.6</ele>
        <time>2021-04-03T11:06:36Z</time>
      </trkpt>
      <trkpt lat="47.26663" lon="6.04989">
        <ele>337.6</ele>
        <time>2021-04-03T11:06:39Z</time>
      </trkpt>
      <trkpt lat="47.26653" lon="6.04989">
        <ele>337.2</ele>
        <time>2021-04-03T11:06:41Z</time>
      </trkpt>
      <trkpt lat="47.26649" lon="6.0499">
        <ele>337</ele>
        <time>2021-04-03T11:06:42Z</time>
      </trkpt>
      <trkpt lat="47.26646" lon="6.04992">
        <ele>336.8</ele>
        <time>2021-04-03T11:06:43Z</time>
      </trkpt>
      <trkpt lat="47.26643" lon="6.04993">
        <ele>336.6</ele>
        <time>2021-04-03T11:06:44Z</time>
      </trkpt>
      <trkpt lat="47.26639" lon="6.04995">
        <ele>336.6</ele>
        <time>2021-04-03T11:06:45Z</time>
      </trkpt>
      <trkpt lat="47.26636" lon="6.04998">
        <ele>336.6</ele>
        <time>2021-04-03T11:06:46Z</time>
      </trkpt>
      <trkpt lat="47.26632" lon="6.05001">
        <ele>336.6</ele>
        <time>2021-04-03T11:06:47Z</time>
      </trkpt>
      <trkpt lat="47.26604" lon="6.05021">
        <ele>336.2</ele>
        <time>2021-04-03T11:06:52Z</time>
      </trkpt>
      <trkpt lat="47.26584" lon="6.05034">
        <ele>334.8</ele>
        <time>2021-04-03T11:06:55Z</time>
      </trkpt>
      <trkpt lat="47.2657" lon="6.05043">
        <ele>333.8</ele>
        <time>2021-04-03T11:06:57Z</time>
      </trkpt>
      <trkpt lat="47.26564" lon="6.05047">
        <ele>333.2</ele>
        <time>2021-04-03T11:06:58Z</time>
      </trkpt>
      <trkpt lat="47.26558" lon="6.05051">
        <ele>332.8</ele>
        <time>2021-04-03T11:06:59Z</time>
      </trkpt>
      <trkpt lat="47.26553" lon="6.05054">
        <ele>332.6</ele>
        <time>2021-04-03T11:07:00Z</time>
      </trkpt>
      <trkpt lat="47.26548" lon="6.05057">
        <ele>332.4</ele>
        <time>2021-04-03T11:07:01Z</time>
      </trkpt>
      <trkpt lat="47.26543" lon="6.0506">
        <ele>332.2</ele>
        <time>2021-04-03T11:07:02Z</time>
      </trkpt>
      <trkpt lat="47.26539" lon="6.05063">
        <ele>332.2</ele>
        <time>2021-04-03T11:07:03Z</time>
      </trkpt>
      <trkpt lat="47.26535" lon="6.05066">
        <ele>332.2</ele>
        <time>2021-04-03T11:07:04Z</time>
      </trkpt>
      <trkpt lat="47.26531" lon="6.05069">
        <ele>332.2</ele>
        <time>2021-04-03T11:07:05Z</time>
      </trkpt>
      <trkpt lat="47.26528" lon="6.05072">
        <ele>332.4</ele>
        <time>2021-04-03T11:07:06Z</time>
      </trkpt>
      <trkpt lat="47.26525" lon="6.05074">
        <ele>332.6</ele>
        <time>2021-04-03T11:07:07Z</time>
      </trkpt>
      <trkpt lat="47.26521" lon="6.05076">
        <ele>332.8</ele>
        <time>2021-04-03T11:07:08Z</time>
      </trkpt>
      <trkpt lat="47.26518" lon="6.05079">
        <ele>332.8</ele>
        <time>2021-04-03T11:07:09Z</time>
      </trkpt>
      <trkpt lat="47.26515" lon="6.05082">
        <ele>332.8</ele>
        <time>2021-04-03T11:07:10Z</time>
      </trkpt>
      <trkpt lat="47.26502" lon="6.05092">
        <ele>333</ele>
        <time>2021-04-03T11:07:14Z</time>
      </trkpt>
      <trkpt lat="47.26499" lon="6.05093">
        <ele>333</ele>
        <time>2021-04-03T11:07:15Z</time>
      </trkpt>
      <trkpt lat="47.26496" lon="6.05095">
        <ele>333</ele>
        <time>2021-04-03T11:07:16Z</time>
      </trkpt>
      <trkpt lat="47.26492" lon="6.05097">
        <ele>332.8</ele>
        <time>2021-04-03T11:07:17Z</time>
      </trkpt>
      <trkpt lat="47.26479" lon="6.05105">
        <ele>333</ele>
        <time>2021-04-03T11:07:21Z</time>
      </trkpt>
      <trkpt lat="47.26476" lon="6.05106">
        <ele>333</ele>
        <time>2021-04-03T11:07:22Z</time>
      </trkpt>
      <trkpt lat="47.26472" lon="6.05107">
        <ele>333</ele>
        <time>2021-04-03T11:07:23Z</time>
      </trkpt>
      <trkpt lat="47.26469" lon="6.05107">
        <ele>333</ele>
        <time>2021-04-03T11:07:24Z</time>
      </trkpt>
      <trkpt lat="47.26444" lon="6.05104">
        <ele>333.6</ele>
        <time>2021-04-03T11:07:30Z</time>
      </trkpt>
      <trkpt lat="47.2643" lon="6.05101">
        <ele>333.4</ele>
        <time>2021-04-03T11:07:33Z</time>
      </trkpt>
      <trkpt lat="47.2642" lon="6.051">
        <ele>333</ele>
        <time>2021-04-03T11:07:35Z</time>
      </trkpt>
      <trkpt lat="47.26415" lon="6.051">
        <ele>332.8</ele>
        <time>2021-04-03T11:07:36Z</time>
      </trkpt>
      <trkpt lat="47.26392" lon="6.05106">
        <ele>331.8</ele>
        <time>2021-04-03T11:07:40Z</time>
      </trkpt>
      <trkpt lat="47.26388" lon="6.0511">
        <ele>331.4</ele>
        <time>2021-04-03T11:07:41Z</time>
      </trkpt>
      <trkpt lat="47.26385" lon="6.05115">
        <ele>331</ele>
        <time>2021-04-03T11:07:42Z</time>
      </trkpt>
      <trkpt lat="47.26383" lon="6.05119">
        <ele>330.8</ele>
        <time>2021-04-03T11:07:43Z</time>
      </trkpt>
      <trkpt lat="47.26381" lon="6.05124">
        <ele>330</ele>
        <time>2021-04-03T11:07:44Z</time>
      </trkpt>
      <trkpt lat="47.26379" lon="6.05128">
        <ele>329.6</ele>
        <time>2021-04-03T11:07:45Z</time>
      </trkpt>
      <trkpt lat="47.26377" lon="6.05132">
        <ele>329</ele>
        <time>2021-04-03T11:07:46Z</time>
      </trkpt>
      <trkpt lat="47.26374" lon="6.05136">
        <ele>328.6</ele>
        <time>2021-04-03T11:07:47Z</time>
      </trkpt>
      <trkpt lat="47.26372" lon="6.05141">
        <ele>327.6</ele>
        <time>2021-04-03T11:07:48Z</time>
      </trkpt>
      <trkpt lat="47.26372" lon="6.05147">
        <ele>327.2</ele>
        <time>2021-04-03T11:07:49Z</time>
      </trkpt>
      <trkpt lat="47.26374" lon="6.05152">
        <ele>326.6</ele>
        <time>2021-04-03T11:07:50Z</time>
      </trkpt>
      <trkpt lat="47.26379" lon="6.0516">
        <ele>325.4</ele>
        <time>2021-04-03T11:07:52Z</time>
      </trkpt>
      <trkpt lat="47.26381" lon="6.05165">
        <ele>325</ele>
        <time>2021-04-03T11:07:53Z</time>
      </trkpt>
      <trkpt lat="47.26383" lon="6.05169">
        <ele>324.6</ele>
        <time>2021-04-03T11:07:54Z</time>
      </trkpt>
      <trkpt lat="47.26384" lon="6.05174">
        <ele>324.2</ele>
        <time>2021-04-03T11:07:55Z</time>
      </trkpt>
      <trkpt lat="47.26384" lon="6.05178">
        <ele>324</ele>
        <time>2021-04-03T11:07:56Z</time>
      </trkpt>
      <trkpt lat="47.26384" lon="6.05182">
        <ele>323.6</ele>
        <time>2021-04-03T11:07:57Z</time>
      </trkpt>
      <trkpt lat="47.26382" lon="6.05184">
        <ele>323.6</ele>
        <time>2021-04-03T11:07:58Z</time>
      </trkpt>
      <trkpt lat="47.2638" lon="6.05187">
        <ele>323.4</ele>
        <time>2021-04-03T11:07:59Z</time>
      </trkpt>
      <trkpt lat="47.26378" lon="6.0519">
        <ele>323.2</ele>
        <time>2021-04-03T11:08:00Z</time>
      </trkpt>
      <trkpt lat="47.26376" lon="6.05192">
        <ele>323.2</ele>
        <time>2021-04-03T11:08:01Z</time>
      </trkpt>
      <trkpt lat="47.26375" lon="6.05195">
        <ele>323</ele>
        <time>2021-04-03T11:08:02Z</time>
      </trkpt>
      <trkpt lat="47.26375" lon="6.05198">
        <ele>323</ele>
        <time>2021-04-03T11:08:03Z</time>
      </trkpt>
      <trkpt lat="47.26376" lon="6.05201">
        <ele>322.6</ele>
        <time>2021-04-03T11:08:04Z</time>
      </trkpt>
      <trkpt lat="47.26377" lon="6.05203">
        <ele>322.6</ele>
        <time>2021-04-03T11:08:05Z</time>
      </trkpt>
      <trkpt lat="47.26378" lon="6.05205">
        <ele>322</ele>
        <time>2021-04-03T11:08:06Z</time>
      </trkpt>
      <trkpt lat="47.26381" lon="6.05209">
        <ele>321</ele>
        <time>2021-04-03T11:08:08Z</time>
      </trkpt>
      <trkpt lat="47.26382" lon="6.05212">
        <ele>320.6</ele>
        <time>2021-04-03T11:08:09Z</time>
      </trkpt>
      <trkpt lat="47.26384" lon="6.05214">
        <ele>319.8</ele>
        <time>2021-04-03T11:08:10Z</time>
      </trkpt>
      <trkpt lat="47.26387" lon="6.05218">
        <ele>318.8</ele>
        <time>2021-04-03T11:08:12Z</time>
      </trkpt>
      <trkpt lat="47.26388" lon="6.05219">
        <ele>318.6</ele>
        <time>2021-04-03T11:08:13Z</time>
      </trkpt>
      <trkpt lat="47.26389" lon="6.05219">
        <ele>318.6</ele>
        <time>2021-04-03T11:08:14Z</time>
      </trkpt>
      <trkpt lat="47.26389" lon="6.05219">
        <ele>318.6</ele>
        <time>2021-04-03T11:08:15Z</time>
      </trkpt>
      <trkpt lat="47.26389" lon="6.05219">
        <ele>318.6</ele>
        <time>2021-04-03T11:08:16Z</time>
      </trkpt>
      <trkpt lat="47.26389" lon="6.05219">
        <ele>318.6</ele>
        <time>2021-04-03T11:08:19Z</time>
      </trkpt>
      <trkpt lat="47.26388" lon="6.05218">
        <ele>318.6</ele>
        <time>2021-04-03T11:08:26Z</time>
      </trkpt>
      <trkpt lat="47.26385" lon="6.05215">
        <ele>318.8</ele>
        <time>2021-04-03T11:08:36Z</time>
      </trkpt>
      <trkpt lat="47.26376" lon="6.05203">
        <ele>317.8</ele>
        <time>2021-04-03T11:08:41Z</time>
      </trkpt>
      <trkpt lat="47.26374" lon="6.05202">
        <ele>317.6</ele>
        <time>2021-04-03T11:08:42Z</time>
      </trkpt>
      <trkpt lat="47.26372" lon="6.05202">
        <ele>317.6</ele>
        <time>2021-04-03T11:08:43Z</time>
      </trkpt>
      <trkpt lat="47.26371" lon="6.05203">
        <ele>317.6</ele>
        <time>2021-04-03T11:08:44Z</time>
      </trkpt>
      <trkpt lat="47.2637" lon="6.05204">
        <ele>317.6</ele>
        <time>2021-04-03T11:08:45Z</time>
      </trkpt>
      <trkpt lat="47.26368" lon="6.05203">
        <ele>317.8</ele>
        <time>2021-04-03T11:08:46Z</time>
      </trkpt>
      <trkpt lat="47.26366" lon="6.05201">
        <ele>317.8</ele>
        <time>2021-04-03T11:08:47Z</time>
      </trkpt>
      <trkpt lat="47.26363" lon="6.05199">
        <ele>318</ele>
        <time>2021-04-03T11:08:48Z</time>
      </trkpt>
      <trkpt lat="47.2636" lon="6.05197">
        <ele>318</ele>
        <time>2021-04-03T11:08:49Z</time>
      </trkpt>
      <trkpt lat="47.26358" lon="6.05194">
        <ele>318.2</ele>
        <time>2021-04-03T11:08:50Z</time>
      </trkpt>
      <trkpt lat="47.26355" lon="6.05191">
        <ele>318.4</ele>
        <time>2021-04-03T11:08:51Z</time>
      </trkpt>
      <trkpt lat="47.26347" lon="6.05181">
        <ele>318.6</ele>
        <time>2021-04-03T11:08:54Z</time>
      </trkpt>
      <trkpt lat="47.26329" lon="6.05167">
        <ele>318.4</ele>
        <time>2021-04-03T11:08:59Z</time>
      </trkpt>
      <trkpt lat="47.26326" lon="6.05162">
        <ele>318</ele>
        <time>2021-04-03T11:09:00Z</time>
      </trkpt>
      <trkpt lat="47.26324" lon="6.05157">
        <ele>317.6</ele>
        <time>2021-04-03T11:09:01Z</time>
      </trkpt>
      <trkpt lat="47.26322" lon="6.05152">
        <ele>317.6</ele>
        <time>2021-04-03T11:09:02Z</time>
      </trkpt>
      <trkpt lat="47.2632" lon="6.05147">
        <ele>317.4</ele>
        <time>2021-04-03T11:09:03Z</time>
      </trkpt>
      <trkpt lat="47.26312" lon="6.05136">
        <ele>317.4</ele>
        <time>2021-04-03T11:09:06Z</time>
      </trkpt>
      <trkpt lat="47.26309" lon="6.05134">
        <ele>317.4</ele>
        <time>2021-04-03T11:09:07Z</time>
      </trkpt>
      <trkpt lat="47.26306" lon="6.05132">
        <ele>317.4</ele>
        <time>2021-04-03T11:09:08Z</time>
      </trkpt>
      <trkpt lat="47.26303" lon="6.05129">
        <ele>317.6</ele>
        <time>2021-04-03T11:09:09Z</time>
      </trkpt>
      <trkpt lat="47.263" lon="6.05126">
        <ele>317.8</ele>
        <time>2021-04-03T11:09:10Z</time>
      </trkpt>
      <trkpt lat="47.26298" lon="6.05122">
        <ele>318</ele>
        <time>2021-04-03T11:09:11Z</time>
      </trkpt>
      <trkpt lat="47.26296" lon="6.05118">
        <ele>318.2</ele>
        <time>2021-04-03T11:09:12Z</time>
      </trkpt>
      <trkpt lat="47.26295" lon="6.05114">
        <ele>318.4</ele>
        <time>2021-04-03T11:09:13Z</time>
      </trkpt>
      <trkpt lat="47.26294" lon="6.0511">
        <ele>318.4</ele>
        <time>2021-04-03T11:09:14Z</time>
      </trkpt>
      <trkpt lat="47.26293" lon="6.05106">
        <ele>318.8</ele>
        <time>2021-04-03T11:09:15Z</time>
      </trkpt>
      <trkpt lat="47.26292" lon="6.05102">
        <ele>318.8</ele>
        <time>2021-04-03T11:09:16Z</time>
      </trkpt>
      <trkpt lat="47.2629" lon="6.05098">
        <ele>319.2</ele>
        <time>2021-04-03T11:09:17Z</time>
      </trkpt>
      <trkpt lat="47.26289" lon="6.05094">
        <ele>319.2</ele>
        <time>2021-04-03T11:09:18Z</time>
      </trkpt>
      <trkpt lat="47.26287" lon="6.05091">
        <ele>319.4</ele>
        <time>2021-04-03T11:09:19Z</time>
      </trkpt>
      <trkpt lat="47.26285" lon="6.05087">
        <ele>319.6</ele>
        <time>2021-04-03T11:09:20Z</time>
      </trkpt>
      <trkpt lat="47.26284" lon="6.05082">
        <ele>319.8</ele>
        <time>2021-04-03T11:09:21Z</time>
      </trkpt>
      <trkpt lat="47.2628" lon="6.05073">
        <ele>320</ele>
        <time>2021-04-03T11:09:23Z</time>
      </trkpt>
      <trkpt lat="47.26269" lon="6.05045">
        <ele>320.6</ele>
        <time>2021-04-03T11:09:29Z</time>
      </trkpt>
      <trkpt lat="47.26265" lon="6.05036">
        <ele>320.8</ele>
        <time>2021-04-03T11:09:31Z</time>
      </trkpt>
      <trkpt lat="47.26263" lon="6.05031">
        <ele>320.8</ele>
        <time>2021-04-03T11:09:32Z</time>
      </trkpt>
      <trkpt lat="47.2626" lon="6.05027">
        <ele>321</ele>
        <time>2021-04-03T11:09:33Z</time>
      </trkpt>
      <trkpt lat="47.26258" lon="6.05023">
        <ele>321</ele>
        <time>2021-04-03T11:09:34Z</time>
      </trkpt>
      <trkpt lat="47.26255" lon="6.05019">
        <ele>321.2</ele>
        <time>2021-04-03T11:09:35Z</time>
      </trkpt>
      <trkpt lat="47.26253" lon="6.05015">
        <ele>321.2</ele>
        <time>2021-04-03T11:09:36Z</time>
      </trkpt>
      <trkpt lat="47.2625" lon="6.05011">
        <ele>321.2</ele>
        <time>2021-04-03T11:09:37Z</time>
      </trkpt>
      <trkpt lat="47.26248" lon="6.05007">
        <ele>321.2</ele>
        <time>2021-04-03T11:09:38Z</time>
      </trkpt>
      <trkpt lat="47.26246" lon="6.05002">
        <ele>321.4</ele>
        <time>2021-04-03T11:09:39Z</time>
      </trkpt>
      <trkpt lat="47.26244" lon="6.04998">
        <ele>321.4</ele>
        <time>2021-04-03T11:09:40Z</time>
      </trkpt>
      <trkpt lat="47.26241" lon="6.04994">
        <ele>321.4</ele>
        <time>2021-04-03T11:09:41Z</time>
      </trkpt>
      <trkpt lat="47.26239" lon="6.0499">
        <ele>321.4</ele>
        <time>2021-04-03T11:09:42Z</time>
      </trkpt>
      <trkpt lat="47.26237" lon="6.04986">
        <ele>321.8</ele>
        <time>2021-04-03T11:09:43Z</time>
      </trkpt>
      <trkpt lat="47.26233" lon="6.04978">
        <ele>322.4</ele>
        <time>2021-04-03T11:09:45Z</time>
      </trkpt>
      <trkpt lat="47.26233" lon="6.04974">
        <ele>322.4</ele>
        <time>2021-04-03T11:09:46Z</time>
      </trkpt>
      <trkpt lat="47.26233" lon="6.04969">
        <ele>322.6</ele>
        <time>2021-04-03T11:09:47Z</time>
      </trkpt>
      <trkpt lat="47.26232" lon="6.04964">
        <ele>322.6</ele>
        <time>2021-04-03T11:09:48Z</time>
      </trkpt>
      <trkpt lat="47.26231" lon="6.04959">
        <ele>322.6</ele>
        <time>2021-04-03T11:09:49Z</time>
      </trkpt>
      <trkpt lat="47.2623" lon="6.04954">
        <ele>322.8</ele>
        <time>2021-04-03T11:09:50Z</time>
      </trkpt>
      <trkpt lat="47.26228" lon="6.0495">
        <ele>323</ele>
        <time>2021-04-03T11:09:51Z</time>
      </trkpt>
      <trkpt lat="47.26225" lon="6.04946">
        <ele>323</ele>
        <time>2021-04-03T11:09:52Z</time>
      </trkpt>
      <trkpt lat="47.26221" lon="6.04944">
        <ele>323</ele>
        <time>2021-04-03T11:09:53Z</time>
      </trkpt>
      <trkpt lat="47.26217" lon="6.04942">
        <ele>323.2</ele>
        <time>2021-04-03T11:09:54Z</time>
      </trkpt>
      <trkpt lat="47.26213" lon="6.04941">
        <ele>323.2</ele>
        <time>2021-04-03T11:09:55Z</time>
      </trkpt>
      <trkpt lat="47.26209" lon="6.04939">
        <ele>323.2</ele>
        <time>2021-04-03T11:09:56Z</time>
      </trkpt>
      <trkpt lat="47.26205" lon="6.04936">
        <ele>323.2</ele>
        <time>2021-04-03T11:09:57Z</time>
      </trkpt>
      <trkpt lat="47.26201" lon="6.04932">
        <ele>323.2</ele>
        <time>2021-04-03T11:09:58Z</time>
      </trkpt>
      <trkpt lat="47.26197" lon="6.04927">
        <ele>323</ele>
        <time>2021-04-03T11:09:59Z</time>
      </trkpt>
      <trkpt lat="47.26193" lon="6.04923">
        <ele>323</ele>
        <time>2021-04-03T11:10:00Z</time>
      </trkpt>
      <trkpt lat="47.2619" lon="6.04918">
        <ele>323</ele>
        <time>2021-04-03T11:10:01Z</time>
      </trkpt>
      <trkpt lat="47.26186" lon="6.04913">
        <ele>323</ele>
        <time>2021-04-03T11:10:02Z</time>
      </trkpt>
      <trkpt lat="47.26174" lon="6.049">
        <ele>322.6</ele>
        <time>2021-04-03T11:10:05Z</time>
      </trkpt>
      <trkpt lat="47.26157" lon="6.04882">
        <ele>322.4</ele>
        <time>2021-04-03T11:10:09Z</time>
      </trkpt>
      <trkpt lat="47.26146" lon="6.04866">
        <ele>322</ele>
        <time>2021-04-03T11:10:12Z</time>
      </trkpt>
      <trkpt lat="47.26134" lon="6.04851">
        <ele>321.8</ele>
        <time>2021-04-03T11:10:15Z</time>
      </trkpt>
      <trkpt lat="47.26106" lon="6.04813">
        <ele>321.4</ele>
        <time>2021-04-03T11:10:22Z</time>
      </trkpt>
      <trkpt lat="47.26102" lon="6.04808">
        <ele>321.2</ele>
        <time>2021-04-03T11:10:23Z</time>
      </trkpt>
      <trkpt lat="47.26095" lon="6.04796">
        <ele>320.8</ele>
        <time>2021-04-03T11:10:25Z</time>
      </trkpt>
      <trkpt lat="47.26081" lon="6.04778">
        <ele>320.2</ele>
        <time>2021-04-03T11:10:28Z</time>
      </trkpt>
      <trkpt lat="47.26063" lon="6.04752">
        <ele>319.6</ele>
        <time>2021-04-03T11:10:32Z</time>
      </trkpt>
      <trkpt lat="47.26039" lon="6.04718">
        <ele>319</ele>
        <time>2021-04-03T11:10:37Z</time>
      </trkpt>
      <trkpt lat="47.26019" lon="6.04691">
        <ele>318.4</ele>
        <time>2021-04-03T11:10:41Z</time>
      </trkpt>
      <trkpt lat="47.25999" lon="6.04663">
        <ele>317.4</ele>
        <time>2021-04-03T11:10:45Z</time>
      </trkpt>
      <trkpt lat="47.25994" lon="6.04656">
        <ele>317.2</ele>
        <time>2021-04-03T11:10:46Z</time>
      </trkpt>
      <trkpt lat="47.25974" lon="6.04627">
        <ele>316</ele>
        <time>2021-04-03T11:10:50Z</time>
      </trkpt>
      <trkpt lat="47.25952" lon="6.04597">
        <ele>315.2</ele>
        <time>2021-04-03T11:10:54Z</time>
      </trkpt>
      <trkpt lat="47.25947" lon="6.0459">
        <ele>315</ele>
        <time>2021-04-03T11:10:55Z</time>
      </trkpt>
      <trkpt lat="47.25919" lon="6.04553">
        <ele>314</ele>
        <time>2021-04-03T11:11:00Z</time>
      </trkpt>
      <trkpt lat="47.25914" lon="6.04545">
        <ele>313.8</ele>
        <time>2021-04-03T11:11:01Z</time>
      </trkpt>
      <trkpt lat="47.25874" lon="6.0449">
        <ele>313</ele>
        <time>2021-04-03T11:11:08Z</time>
      </trkpt>
      <trkpt lat="47.25863" lon="6.04474">
        <ele>312.6</ele>
        <time>2021-04-03T11:11:10Z</time>
      </trkpt>
      <trkpt lat="47.25842" lon="6.04444">
        <ele>311.6</ele>
        <time>2021-04-03T11:11:14Z</time>
      </trkpt>
      <trkpt lat="47.25836" lon="6.04436">
        <ele>311.6</ele>
        <time>2021-04-03T11:11:15Z</time>
      </trkpt>
      <trkpt lat="47.25811" lon="6.04401">
        <ele>310.6</ele>
        <time>2021-04-03T11:11:20Z</time>
      </trkpt>
      <trkpt lat="47.25806" lon="6.04394">
        <ele>310.4</ele>
        <time>2021-04-03T11:11:21Z</time>
      </trkpt>
      <trkpt lat="47.25801" lon="6.04387">
        <ele>310</ele>
        <time>2021-04-03T11:11:22Z</time>
      </trkpt>
      <trkpt lat="47.25797" lon="6.04381">
        <ele>309.6</ele>
        <time>2021-04-03T11:11:23Z</time>
      </trkpt>
      <trkpt lat="47.25792" lon="6.04374">
        <ele>309.6</ele>
        <time>2021-04-03T11:11:24Z</time>
      </trkpt>
      <trkpt lat="47.25788" lon="6.04368">
        <ele>309.2</ele>
        <time>2021-04-03T11:11:25Z</time>
      </trkpt>
      <trkpt lat="47.25784" lon="6.04362">
        <ele>309</ele>
        <time>2021-04-03T11:11:26Z</time>
      </trkpt>
      <trkpt lat="47.25779" lon="6.04356">
        <ele>308.8</ele>
        <time>2021-04-03T11:11:27Z</time>
      </trkpt>
      <trkpt lat="47.25775" lon="6.0435">
        <ele>308.6</ele>
        <time>2021-04-03T11:11:28Z</time>
      </trkpt>
      <trkpt lat="47.25771" lon="6.04344">
        <ele>308.6</ele>
        <time>2021-04-03T11:11:29Z</time>
      </trkpt>
      <trkpt lat="47.25767" lon="6.04338">
        <ele>308.6</ele>
        <time>2021-04-03T11:11:30Z</time>
      </trkpt>
      <trkpt lat="47.25758" lon="6.04327">
        <ele>308.6</ele>
        <time>2021-04-03T11:11:32Z</time>
      </trkpt>
      <trkpt lat="47.25754" lon="6.04321">
        <ele>308.6</ele>
        <time>2021-04-03T11:11:33Z</time>
      </trkpt>
      <trkpt lat="47.2575" lon="6.04315">
        <ele>308.4</ele>
        <time>2021-04-03T11:11:34Z</time>
      </trkpt>
      <trkpt lat="47.25736" lon="6.04298">
        <ele>308.2</ele>
        <time>2021-04-03T11:11:37Z</time>
      </trkpt>
      <trkpt lat="47.2572" lon="6.04274">
        <ele>307.8</ele>
        <time>2021-04-03T11:11:41Z</time>
      </trkpt>
      <trkpt lat="47.25704" lon="6.04253">
        <ele>307.6</ele>
        <time>2021-04-03T11:11:45Z</time>
      </trkpt>
      <trkpt lat="47.257" lon="6.04247">
        <ele>307.4</ele>
        <time>2021-04-03T11:11:46Z</time>
      </trkpt>
      <trkpt lat="47.25693" lon="6.04237">
        <ele>307.2</ele>
        <time>2021-04-03T11:11:48Z</time>
      </trkpt>
      <trkpt lat="47.25689" lon="6.04232">
        <ele>307</ele>
        <time>2021-04-03T11:11:49Z</time>
      </trkpt>
      <trkpt lat="47.25685" lon="6.04227">
        <ele>307</ele>
        <time>2021-04-03T11:11:50Z</time>
      </trkpt>
      <trkpt lat="47.25682" lon="6.04223">
        <ele>307</ele>
        <time>2021-04-03T11:11:51Z</time>
      </trkpt>
      <trkpt lat="47.25678" lon="6.04218">
        <ele>306.8</ele>
        <time>2021-04-03T11:11:52Z</time>
      </trkpt>
      <trkpt lat="47.25674" lon="6.04213">
        <ele>306.6</ele>
        <time>2021-04-03T11:11:53Z</time>
      </trkpt>
      <trkpt lat="47.25671" lon="6.04208">
        <ele>306.6</ele>
        <time>2021-04-03T11:11:54Z</time>
      </trkpt>
      <trkpt lat="47.25667" lon="6.04203">
        <ele>306.6</ele>
        <time>2021-04-03T11:11:55Z</time>
      </trkpt>
      <trkpt lat="47.25663" lon="6.04198">
        <ele>306.4</ele>
        <time>2021-04-03T11:11:56Z</time>
      </trkpt>
      <trkpt lat="47.25659" lon="6.04193">
        <ele>306.4</ele>
        <time>2021-04-03T11:11:57Z</time>
      </trkpt>
      <trkpt lat="47.25639" lon="6.04163">
        <ele>306.4</ele>
        <time>2021-04-03T11:12:02Z</time>
      </trkpt>
      <trkpt lat="47.25635" lon="6.04157">
        <ele>306.4</ele>
        <time>2021-04-03T11:12:03Z</time>
      </trkpt>
      <trkpt lat="47.25622" lon="6.04139">
        <ele>306.2</ele>
        <time>2021-04-03T11:12:06Z</time>
      </trkpt>
      <trkpt lat="47.25618" lon="6.04132">
        <ele>306.2</ele>
        <time>2021-04-03T11:12:07Z</time>
      </trkpt>
      <trkpt lat="47.25613" lon="6.04126">
        <ele>306</ele>
        <time>2021-04-03T11:12:08Z</time>
      </trkpt>
      <trkpt lat="47.25601" lon="6.04109">
        <ele>305.6</ele>
        <time>2021-04-03T11:12:11Z</time>
      </trkpt>
      <trkpt lat="47.25595" lon="6.04095">
        <ele>305.2</ele>
        <time>2021-04-03T11:12:13Z</time>
      </trkpt>
      <trkpt lat="47.25588" lon="6.04081">
        <ele>305.4</ele>
        <time>2021-04-03T11:12:15Z</time>
      </trkpt>
      <trkpt lat="47.25583" lon="6.04077">
        <ele>305</ele>
        <time>2021-04-03T11:12:16Z</time>
      </trkpt>
      <trkpt lat="47.25577" lon="6.04073">
        <ele>305</ele>
        <time>2021-04-03T11:12:17Z</time>
      </trkpt>
      <trkpt lat="47.25572" lon="6.04069">
        <ele>304.8</ele>
        <time>2021-04-03T11:12:18Z</time>
      </trkpt>
      <trkpt lat="47.25567" lon="6.04064">
        <ele>304.4</ele>
        <time>2021-04-03T11:12:19Z</time>
      </trkpt>
      <trkpt lat="47.25558" lon="6.04051">
        <ele>304.4</ele>
        <time>2021-04-03T11:12:21Z</time>
      </trkpt>
      <trkpt lat="47.25554" lon="6.04045">
        <ele>304.2</ele>
        <time>2021-04-03T11:12:22Z</time>
      </trkpt>
      <trkpt lat="47.25529" lon="6.04009">
        <ele>303.2</ele>
        <time>2021-04-03T11:12:28Z</time>
      </trkpt>
      <trkpt lat="47.25515" lon="6.03991">
        <ele>302.6</ele>
        <time>2021-04-03T11:12:31Z</time>
      </trkpt>
      <trkpt lat="47.25511" lon="6.03985">
        <ele>302.2</ele>
        <time>2021-04-03T11:12:32Z</time>
      </trkpt>
      <trkpt lat="47.25492" lon="6.03959">
        <ele>301</ele>
        <time>2021-04-03T11:12:36Z</time>
      </trkpt>
      <trkpt lat="47.25477" lon="6.03939">
        <ele>300.2</ele>
        <time>2021-04-03T11:12:39Z</time>
      </trkpt>
      <trkpt lat="47.25473" lon="6.03933">
        <ele>300</ele>
        <time>2021-04-03T11:12:40Z</time>
      </trkpt>
      <trkpt lat="47.25458" lon="6.03913">
        <ele>298.6</ele>
        <time>2021-04-03T11:12:43Z</time>
      </trkpt>
      <trkpt lat="47.25438" lon="6.03886">
        <ele>297.6</ele>
        <time>2021-04-03T11:12:47Z</time>
      </trkpt>
      <trkpt lat="47.25407" lon="6.03843">
        <ele>296.4</ele>
        <time>2021-04-03T11:12:53Z</time>
      </trkpt>
      <trkpt lat="47.25391" lon="6.03822">
        <ele>295.8</ele>
        <time>2021-04-03T11:12:56Z</time>
      </trkpt>
      <trkpt lat="47.25385" lon="6.03815">
        <ele>295.6</ele>
        <time>2021-04-03T11:12:57Z</time>
      </trkpt>
      <trkpt lat="47.25357" lon="6.03778">
        <ele>294.2</ele>
        <time>2021-04-03T11:13:02Z</time>
      </trkpt>
      <trkpt lat="47.25351" lon="6.03771">
        <ele>293.6</ele>
        <time>2021-04-03T11:13:03Z</time>
      </trkpt>
      <trkpt lat="47.2534" lon="6.03756">
        <ele>293</ele>
        <time>2021-04-03T11:13:05Z</time>
      </trkpt>
      <trkpt lat="47.25322" lon="6.03733">
        <ele>292</ele>
        <time>2021-04-03T11:13:08Z</time>
      </trkpt>
      <trkpt lat="47.25305" lon="6.0371">
        <ele>291.6</ele>
        <time>2021-04-03T11:13:11Z</time>
      </trkpt>
      <trkpt lat="47.25283" lon="6.03679">
        <ele>290.8</ele>
        <time>2021-04-03T11:13:15Z</time>
      </trkpt>
      <trkpt lat="47.25267" lon="6.03657">
        <ele>289.8</ele>
        <time>2021-04-03T11:13:18Z</time>
      </trkpt>
      <trkpt lat="47.25262" lon="6.03649">
        <ele>289.4</ele>
        <time>2021-04-03T11:13:19Z</time>
      </trkpt>
      <trkpt lat="47.25251" lon="6.03634">
        <ele>288.2</ele>
        <time>2021-04-03T11:13:21Z</time>
      </trkpt>
      <trkpt lat="47.25221" lon="6.03594">
        <ele>287</ele>
        <time>2021-04-03T11:13:26Z</time>
      </trkpt>
      <trkpt lat="47.2518" lon="6.0354">
        <ele>286.2</ele>
        <time>2021-04-03T11:13:33Z</time>
      </trkpt>
      <trkpt lat="47.25174" lon="6.03532">
        <ele>286.2</ele>
        <time>2021-04-03T11:13:34Z</time>
      </trkpt>
      <trkpt lat="47.25169" lon="6.03524">
        <ele>286</ele>
        <time>2021-04-03T11:13:35Z</time>
      </trkpt>
      <trkpt lat="47.25146" lon="6.03492">
        <ele>284.6</ele>
        <time>2021-04-03T11:13:39Z</time>
      </trkpt>
      <trkpt lat="47.25133" lon="6.03475">
        <ele>284.2</ele>
        <time>2021-04-03T11:13:41Z</time>
      </trkpt>
      <trkpt lat="47.25119" lon="6.03456">
        <ele>283.6</ele>
        <time>2021-04-03T11:13:43Z</time>
      </trkpt>
      <trkpt lat="47.25099" lon="6.03425">
        <ele>282.4</ele>
        <time>2021-04-03T11:13:46Z</time>
      </trkpt>
      <trkpt lat="47.25092" lon="6.03415">
        <ele>281.8</ele>
        <time>2021-04-03T11:13:47Z</time>
      </trkpt>
      <trkpt lat="47.25084" lon="6.03404">
        <ele>280.8</ele>
        <time>2021-04-03T11:13:48Z</time>
      </trkpt>
      <trkpt lat="47.25069" lon="6.03382">
        <ele>279.6</ele>
        <time>2021-04-03T11:13:50Z</time>
      </trkpt>
      <trkpt lat="47.25047" lon="6.03351">
        <ele>278.4</ele>
        <time>2021-04-03T11:13:53Z</time>
      </trkpt>
      <trkpt lat="47.25032" lon="6.0333">
        <ele>277.2</ele>
        <time>2021-04-03T11:13:55Z</time>
      </trkpt>
      <trkpt lat="47.25026" lon="6.03319">
        <ele>276.4</ele>
        <time>2021-04-03T11:13:56Z</time>
      </trkpt>
      <trkpt lat="47.25012" lon="6.03298">
        <ele>275.2</ele>
        <time>2021-04-03T11:13:58Z</time>
      </trkpt>
      <trkpt lat="47.25005" lon="6.03288">
        <ele>274.8</ele>
        <time>2021-04-03T11:13:59Z</time>
      </trkpt>
      <trkpt lat="47.24999" lon="6.03277">
        <ele>274.8</ele>
        <time>2021-04-03T11:14:00Z</time>
      </trkpt>
      <trkpt lat="47.24993" lon="6.03267">
        <ele>274.4</ele>
        <time>2021-04-03T11:14:01Z</time>
      </trkpt>
      <trkpt lat="47.24987" lon="6.03257">
        <ele>274</ele>
        <time>2021-04-03T11:14:02Z</time>
      </trkpt>
      <trkpt lat="47.2498" lon="6.03248">
        <ele>273.2</ele>
        <time>2021-04-03T11:14:03Z</time>
      </trkpt>
      <trkpt lat="47.24974" lon="6.03238">
        <ele>273.2</ele>
        <time>2021-04-03T11:14:04Z</time>
      </trkpt>
      <trkpt lat="47.24968" lon="6.03228">
        <ele>272.8</ele>
        <time>2021-04-03T11:14:05Z</time>
      </trkpt>
      <trkpt lat="47.24963" lon="6.03218">
        <ele>272.6</ele>
        <time>2021-04-03T11:14:06Z</time>
      </trkpt>
      <trkpt lat="47.24957" lon="6.03209">
        <ele>272.4</ele>
        <time>2021-04-03T11:14:07Z</time>
      </trkpt>
      <trkpt lat="47.24952" lon="6.03199">
        <ele>272.4</ele>
        <time>2021-04-03T11:14:08Z</time>
      </trkpt>
      <trkpt lat="47.24947" lon="6.03189">
        <ele>272.4</ele>
        <time>2021-04-03T11:14:09Z</time>
      </trkpt>
      <trkpt lat="47.24942" lon="6.03179">
        <ele>272</ele>
        <time>2021-04-03T11:14:10Z</time>
      </trkpt>
      <trkpt lat="47.24937" lon="6.0317">
        <ele>272</ele>
        <time>2021-04-03T11:14:11Z</time>
      </trkpt>
      <trkpt lat="47.24932" lon="6.03162">
        <ele>271.8</ele>
        <time>2021-04-03T11:14:12Z</time>
      </trkpt>
      <trkpt lat="47.24928" lon="6.03155">
        <ele>271.8</ele>
        <time>2021-04-03T11:14:13Z</time>
      </trkpt>
      <trkpt lat="47.24925" lon="6.03148">
        <ele>271.4</ele>
        <time>2021-04-03T11:14:14Z</time>
      </trkpt>
      <trkpt lat="47.24922" lon="6.03143">
        <ele>271.2</ele>
        <time>2021-04-03T11:14:15Z</time>
      </trkpt>
      <trkpt lat="47.2492" lon="6.03138">
        <ele>271</ele>
        <time>2021-04-03T11:14:16Z</time>
      </trkpt>
      <trkpt lat="47.24918" lon="6.03134">
        <ele>270.8</ele>
        <time>2021-04-03T11:14:17Z</time>
      </trkpt>
      <trkpt lat="47.24915" lon="6.0313">
        <ele>270.6</ele>
        <time>2021-04-03T11:14:18Z</time>
      </trkpt>
      <trkpt lat="47.24914" lon="6.03126">
        <ele>270.4</ele>
        <time>2021-04-03T11:14:19Z</time>
      </trkpt>
      <trkpt lat="47.24912" lon="6.03122">
        <ele>270.4</ele>
        <time>2021-04-03T11:14:20Z</time>
      </trkpt>
      <trkpt lat="47.24907" lon="6.03113">
        <ele>270.2</ele>
        <time>2021-04-03T11:14:22Z</time>
      </trkpt>
      <trkpt lat="47.24889" lon="6.03082">
        <ele>269.4</ele>
        <time>2021-04-03T11:14:28Z</time>
      </trkpt>
      <trkpt lat="47.24887" lon="6.03076">
        <ele>269.2</ele>
        <time>2021-04-03T11:14:29Z</time>
      </trkpt>
      <trkpt lat="47.24881" lon="6.03065">
        <ele>268.8</ele>
        <time>2021-04-03T11:14:31Z</time>
      </trkpt>
      <trkpt lat="47.24877" lon="6.03054">
        <ele>268.8</ele>
        <time>2021-04-03T11:14:33Z</time>
      </trkpt>
      <trkpt lat="47.24872" lon="6.03043">
        <ele>268.6</ele>
        <time>2021-04-03T11:14:35Z</time>
      </trkpt>
      <trkpt lat="47.24869" lon="6.03037">
        <ele>268.6</ele>
        <time>2021-04-03T11:14:36Z</time>
      </trkpt>
      <trkpt lat="47.24862" lon="6.0302">
        <ele>268.6</ele>
        <time>2021-04-03T11:14:39Z</time>
      </trkpt>
      <trkpt lat="47.2486" lon="6.03016">
        <ele>268.6</ele>
        <time>2021-04-03T11:14:40Z</time>
      </trkpt>
      <trkpt lat="47.24858" lon="6.03011">
        <ele>268.6</ele>
        <time>2021-04-03T11:14:41Z</time>
      </trkpt>
      <trkpt lat="47.24856" lon="6.03005">
        <ele>268.4</ele>
        <time>2021-04-03T11:14:42Z</time>
      </trkpt>
      <trkpt lat="47.24854" lon="6.02999">
        <ele>268.4</ele>
        <time>2021-04-03T11:14:43Z</time>
      </trkpt>
      <trkpt lat="47.24851" lon="6.02993">
        <ele>268.4</ele>
        <time>2021-04-03T11:14:44Z</time>
      </trkpt>
      <trkpt lat="47.24849" lon="6.02988">
        <ele>268.2</ele>
        <time>2021-04-03T11:14:45Z</time>
      </trkpt>
      <trkpt lat="47.24839" lon="6.0297">
        <ele>268.2</ele>
        <time>2021-04-03T11:14:48Z</time>
      </trkpt>
      <trkpt lat="47.24825" lon="6.02947">
        <ele>268.2</ele>
        <time>2021-04-03T11:14:52Z</time>
      </trkpt>
      <trkpt lat="47.24821" lon="6.02941">
        <ele>268.2</ele>
        <time>2021-04-03T11:14:53Z</time>
      </trkpt>
      <trkpt lat="47.248" lon="6.02905">
        <ele>267.6</ele>
        <time>2021-04-03T11:14:59Z</time>
      </trkpt>
      <trkpt lat="47.24798" lon="6.02899">
        <ele>267.6</ele>
        <time>2021-04-03T11:15:00Z</time>
      </trkpt>
      <trkpt lat="47.24793" lon="6.02893">
        <ele>267.6</ele>
        <time>2021-04-03T11:15:01Z</time>
      </trkpt>
      <trkpt lat="47.24788" lon="6.02888">
        <ele>267.4</ele>
        <time>2021-04-03T11:15:02Z</time>
      </trkpt>
      <trkpt lat="47.24784" lon="6.02882">
        <ele>267.4</ele>
        <time>2021-04-03T11:15:03Z</time>
      </trkpt>
      <trkpt lat="47.24775" lon="6.02875">
        <ele>267.2</ele>
        <time>2021-04-03T11:15:05Z</time>
      </trkpt>
      <trkpt lat="47.24772" lon="6.02868">
        <ele>267.2</ele>
        <time>2021-04-03T11:15:06Z</time>
      </trkpt>
      <trkpt lat="47.24769" lon="6.02862">
        <ele>267</ele>
        <time>2021-04-03T11:15:07Z</time>
      </trkpt>
      <trkpt lat="47.24764" lon="6.0285">
        <ele>266.8</ele>
        <time>2021-04-03T11:15:09Z</time>
      </trkpt>
      <trkpt lat="47.2476" lon="6.02846">
        <ele>266.6</ele>
        <time>2021-04-03T11:15:10Z</time>
      </trkpt>
      <trkpt lat="47.24758" lon="6.02842">
        <ele>266.6</ele>
        <time>2021-04-03T11:15:11Z</time>
      </trkpt>
      <trkpt lat="47.24756" lon="6.02837">
        <ele>266.6</ele>
        <time>2021-04-03T11:15:12Z</time>
      </trkpt>
      <trkpt lat="47.24753" lon="6.02832">
        <ele>266.6</ele>
        <time>2021-04-03T11:15:13Z</time>
      </trkpt>
      <trkpt lat="47.24751" lon="6.02828">
        <ele>266.4</ele>
        <time>2021-04-03T11:15:14Z</time>
      </trkpt>
      <trkpt lat="47.2475" lon="6.02823">
        <ele>266.4</ele>
        <time>2021-04-03T11:15:15Z</time>
      </trkpt>
      <trkpt lat="47.24748" lon="6.02819">
        <ele>266.4</ele>
        <time>2021-04-03T11:15:16Z</time>
      </trkpt>
      <trkpt lat="47.24747" lon="6.02814">
        <ele>266.4</ele>
        <time>2021-04-03T11:15:17Z</time>
      </trkpt>
      <trkpt lat="47.24745" lon="6.02808">
        <ele>266.4</ele>
        <time>2021-04-03T11:15:18Z</time>
      </trkpt>
      <trkpt lat="47.24734" lon="6.02786">
        <ele>266.6</ele>
        <time>2021-04-03T11:15:23Z</time>
      </trkpt>
      <trkpt lat="47.24732" lon="6.02782">
        <ele>266.8</ele>
        <time>2021-04-03T11:15:24Z</time>
      </trkpt>
      <trkpt lat="47.2473" lon="6.02778">
        <ele>266.8</ele>
        <time>2021-04-03T11:15:25Z</time>
      </trkpt>
      <trkpt lat="47.24728" lon="6.02774">
        <ele>266.8</ele>
        <time>2021-04-03T11:15:26Z</time>
      </trkpt>
      <trkpt lat="47.24722" lon="6.02762">
        <ele>266.8</ele>
        <time>2021-04-03T11:15:29Z</time>
      </trkpt>
      <trkpt lat="47.2472" lon="6.02759">
        <ele>266.8</ele>
        <time>2021-04-03T11:15:30Z</time>
      </trkpt>
      <trkpt lat="47.24719" lon="6.02754">
        <ele>266.8</ele>
        <time>2021-04-03T11:15:31Z</time>
      </trkpt>
      <trkpt lat="47.24718" lon="6.0275">
        <ele>266.6</ele>
        <time>2021-04-03T11:15:32Z</time>
      </trkpt>
      <trkpt lat="47.24717" lon="6.02745">
        <ele>266.6</ele>
        <time>2021-04-03T11:15:33Z</time>
      </trkpt>
      <trkpt lat="47.24716" lon="6.02741">
        <ele>266.6</ele>
        <time>2021-04-03T11:15:34Z</time>
      </trkpt>
      <trkpt lat="47.24715" lon="6.02736">
        <ele>266.6</ele>
        <time>2021-04-03T11:15:35Z</time>
      </trkpt>
      <trkpt lat="47.24714" lon="6.02732">
        <ele>266.6</ele>
        <time>2021-04-03T11:15:36Z</time>
      </trkpt>
      <trkpt lat="47.24713" lon="6.02727">
        <ele>266.4</ele>
        <time>2021-04-03T11:15:37Z</time>
      </trkpt>
      <trkpt lat="47.24712" lon="6.02719">
        <ele>266.4</ele>
        <time>2021-04-03T11:15:39Z</time>
      </trkpt>
      <trkpt lat="47.24708" lon="6.02716">
        <ele>266.4</ele>
        <time>2021-04-03T11:15:40Z</time>
      </trkpt>
      <trkpt lat="47.24707" lon="6.02712">
        <ele>266.4</ele>
        <time>2021-04-03T11:15:41Z</time>
      </trkpt>
      <trkpt lat="47.24704" lon="6.02708">
        <ele>266.4</ele>
        <time>2021-04-03T11:15:42Z</time>
      </trkpt>
      <trkpt lat="47.24703" lon="6.02704">
        <ele>266.4</ele>
        <time>2021-04-03T11:15:43Z</time>
      </trkpt>
      <trkpt lat="47.247" lon="6.027">
        <ele>266.4</ele>
        <time>2021-04-03T11:15:44Z</time>
      </trkpt>
      <trkpt lat="47.24698" lon="6.02696">
        <ele>266.4</ele>
        <time>2021-04-03T11:15:45Z</time>
      </trkpt>
      <trkpt lat="47.2469" lon="6.02677">
        <ele>266.4</ele>
        <time>2021-04-03T11:15:49Z</time>
      </trkpt>
      <trkpt lat="47.24689" lon="6.02672">
        <ele>266.4</ele>
        <time>2021-04-03T11:15:50Z</time>
      </trkpt>
      <trkpt lat="47.24686" lon="6.02667">
        <ele>266.4</ele>
        <time>2021-04-03T11:15:51Z</time>
      </trkpt>
      <trkpt lat="47.2468" lon="6.02655">
        <ele>266.2</ele>
        <time>2021-04-03T11:15:53Z</time>
      </trkpt>
      <trkpt lat="47.24677" lon="6.0265">
        <ele>266.2</ele>
        <time>2021-04-03T11:15:54Z</time>
      </trkpt>
      <trkpt lat="47.24671" lon="6.02639">
        <ele>266.2</ele>
        <time>2021-04-03T11:15:56Z</time>
      </trkpt>
      <trkpt lat="47.24657" lon="6.02612">
        <ele>266.6</ele>
        <time>2021-04-03T11:16:01Z</time>
      </trkpt>
      <trkpt lat="47.24652" lon="6.02604">
        <ele>266.6</ele>
        <time>2021-04-03T11:16:03Z</time>
      </trkpt>
      <trkpt lat="47.24648" lon="6.026">
        <ele>266.8</ele>
        <time>2021-04-03T11:16:04Z</time>
      </trkpt>
      <trkpt lat="47.24644" lon="6.02597">
        <ele>266.8</ele>
        <time>2021-04-03T11:16:05Z</time>
      </trkpt>
      <trkpt lat="47.24641" lon="6.02593">
        <ele>267</ele>
        <time>2021-04-03T11:16:06Z</time>
      </trkpt>
      <trkpt lat="47.24638" lon="6.02588">
        <ele>267</ele>
        <time>2021-04-03T11:16:07Z</time>
      </trkpt>
      <trkpt lat="47.24637" lon="6.02584">
        <ele>267</ele>
        <time>2021-04-03T11:16:08Z</time>
      </trkpt>
      <trkpt lat="47.24635" lon="6.0258">
        <ele>267.2</ele>
        <time>2021-04-03T11:16:09Z</time>
      </trkpt>
      <trkpt lat="47.24635" lon="6.02576">
        <ele>267.2</ele>
        <time>2021-04-03T11:16:10Z</time>
      </trkpt>
      <trkpt lat="47.24637" lon="6.0257">
        <ele>267.2</ele>
        <time>2021-04-03T11:16:11Z</time>
      </trkpt>
      <trkpt lat="47.24639" lon="6.02566">
        <ele>267.2</ele>
        <time>2021-04-03T11:16:12Z</time>
      </trkpt>
      <trkpt lat="47.24641" lon="6.02563">
        <ele>267.2</ele>
        <time>2021-04-03T11:16:13Z</time>
      </trkpt>
      <trkpt lat="47.24645" lon="6.02558">
        <ele>267.4</ele>
        <time>2021-04-03T11:16:15Z</time>
      </trkpt>
      <trkpt lat="47.24646" lon="6.02556">
        <ele>267.4</ele>
        <time>2021-04-03T11:16:16Z</time>
      </trkpt>
      <trkpt lat="47.24647" lon="6.02554">
        <ele>267.4</ele>
        <time>2021-04-03T11:16:17Z</time>
      </trkpt>
      <trkpt lat="47.24649" lon="6.02552">
        <ele>267.6</ele>
        <time>2021-04-03T11:16:18Z</time>
      </trkpt>
      <trkpt lat="47.24651" lon="6.02549">
        <ele>267.8</ele>
        <time>2021-04-03T11:16:19Z</time>
      </trkpt>
      <trkpt lat="47.24653" lon="6.02547">
        <ele>268.2</ele>
        <time>2021-04-03T11:16:20Z</time>
      </trkpt>
      <trkpt lat="47.24655" lon="6.02544">
        <ele>268.6</ele>
        <time>2021-04-03T11:16:21Z</time>
      </trkpt>
      <trkpt lat="47.24658" lon="6.0254">
        <ele>268.8</ele>
        <time>2021-04-03T11:16:22Z</time>
      </trkpt>
      <trkpt lat="47.24665" lon="6.02531">
        <ele>269.6</ele>
        <time>2021-04-03T11:16:25Z</time>
      </trkpt>
      <trkpt lat="47.24668" lon="6.02527">
        <ele>270</ele>
        <time>2021-04-03T11:16:27Z</time>
      </trkpt>
      <trkpt lat="47.2467" lon="6.02526">
        <ele>270.2</ele>
        <time>2021-04-03T11:16:28Z</time>
      </trkpt>
      <trkpt lat="47.24672" lon="6.02524">
        <ele>270.4</ele>
        <time>2021-04-03T11:16:29Z</time>
      </trkpt>
      <trkpt lat="47.24674" lon="6.02522">
        <ele>270.6</ele>
        <time>2021-04-03T11:16:30Z</time>
      </trkpt>
      <trkpt lat="47.24676" lon="6.02518">
        <ele>270.8</ele>
        <time>2021-04-03T11:16:31Z</time>
      </trkpt>
      <trkpt lat="47.24676" lon="6.02518">
        <ele>271</ele>
        <time>2021-04-03T11:16:32Z</time>
      </trkpt>
      <trkpt lat="47.24676" lon="6.02518">
        <ele>271.2</ele>
        <time>2021-04-03T11:16:33Z</time>
      </trkpt>
      <trkpt lat="47.24676" lon="6.02517">
        <ele>271.6</ele>
        <time>2021-04-03T11:16:37Z</time>
      </trkpt>
      <trkpt lat="47.24676" lon="6.02517">
        <ele>271.8</ele>
        <time>2021-04-03T11:16:38Z</time>
      </trkpt>
      <trkpt lat="47.24676" lon="6.02517">
        <ele>271.8</ele>
        <time>2021-04-03T11:16:39Z</time>
      </trkpt>
      <trkpt lat="47.24676" lon="6.02517">
        <ele>272.2</ele>
        <time>2021-04-03T11:16:48Z</time>
      </trkpt>
    </trkseg>
  </trk>
</gpx>